<?xml version="1.0" encoding="UTF-8" standalone="no" ?>
<gpx xmlns="http://www.topografix.com/GPX/1/1" xmlns:xsi="http://www.w3.org/2001/XMLSchema-instance" xsi:schemaLocation="http://www.topografix.com/GPX/1/1 http://www.topografix.com/GPX/1/1/gpx.xsd" version="1.1" creator="VisuGPX - https://www.visugpx.com">
  <metadata>
    <name>La perrarios 2011 56Km</name>
    <desc><![CDATA[Randonnée VTT à Perrier ]]></desc>
  </metadata>
  <trk>
    <name><![CDATA[2011-05-15T06:48:55Z]]></name>
    <trkseg>
      <trkpt lat="45.54485" lon="3.19635">
        <ele>430.8079834</ele>
        <time>2011-05-15T06:48:56Z</time>
      </trkpt>
      <trkpt lat="45.54481" lon="3.19632">
        <ele>430.8079834</ele>
        <time>2011-05-15T06:48:57Z</time>
      </trkpt>
      <trkpt lat="45.54449" lon="3.19609">
        <ele>430.8079834</ele>
        <time>2011-05-15T06:49:04Z</time>
      </trkpt>
      <trkpt lat="45.5441" lon="3.19581">
        <ele>430.3272705</ele>
        <time>2011-05-15T06:49:12Z</time>
      </trkpt>
      <trkpt lat="45.54373" lon="3.19554">
        <ele>431.2885742</ele>
        <time>2011-05-15T06:49:20Z</time>
      </trkpt>
      <trkpt lat="45.54354" lon="3.19537">
        <ele>431.769165</ele>
        <time>2011-05-15T06:49:26Z</time>
      </trkpt>
      <trkpt lat="45.54342" lon="3.1953">
        <ele>430.8079834</ele>
        <time>2011-05-15T06:49:30Z</time>
      </trkpt>
      <trkpt lat="45.54338" lon="3.19527">
        <ele>430.8079834</ele>
        <time>2011-05-15T06:49:31Z</time>
      </trkpt>
      <trkpt lat="45.54332" lon="3.19507">
        <ele>430.8079834</ele>
        <time>2011-05-15T06:49:35Z</time>
      </trkpt>
      <trkpt lat="45.54336" lon="3.19496">
        <ele>430.8079834</ele>
        <time>2011-05-15T06:49:37Z</time>
      </trkpt>
      <trkpt lat="45.54352" lon="3.19449">
        <ele>431.769165</ele>
        <time>2011-05-15T06:49:45Z</time>
      </trkpt>
      <trkpt lat="45.5436" lon="3.19402">
        <ele>431.2885742</ele>
        <time>2011-05-15T06:49:52Z</time>
      </trkpt>
      <trkpt lat="45.54369" lon="3.1933">
        <ele>432.7307129</ele>
        <time>2011-05-15T06:50:02Z</time>
      </trkpt>
      <trkpt lat="45.54372" lon="3.19316">
        <ele>432.7307129</ele>
        <time>2011-05-15T06:50:04Z</time>
      </trkpt>
      <trkpt lat="45.54377" lon="3.19287">
        <ele>432.7307129</ele>
        <time>2011-05-15T06:50:08Z</time>
      </trkpt>
      <trkpt lat="45.54397" lon="3.19235">
        <ele>432.7307129</ele>
        <time>2011-05-15T06:50:16Z</time>
      </trkpt>
      <trkpt lat="45.54408" lon="3.19211">
        <ele>432.7307129</ele>
        <time>2011-05-15T06:50:20Z</time>
      </trkpt>
      <trkpt lat="45.54429" lon="3.19152">
        <ele>433.6918945</ele>
        <time>2011-05-15T06:50:29Z</time>
      </trkpt>
      <trkpt lat="45.54436" lon="3.19133">
        <ele>433.6918945</ele>
        <time>2011-05-15T06:50:32Z</time>
      </trkpt>
      <trkpt lat="45.54458" lon="3.19102">
        <ele>434.1726074</ele>
        <time>2011-05-15T06:50:39Z</time>
      </trkpt>
      <trkpt lat="45.54471" lon="3.19084">
        <ele>433.6918945</ele>
        <time>2011-05-15T06:50:43Z</time>
      </trkpt>
      <trkpt lat="45.54478" lon="3.19077">
        <ele>434.6533203</ele>
        <time>2011-05-15T06:50:45Z</time>
      </trkpt>
      <trkpt lat="45.54485" lon="3.19069">
        <ele>434.6533203</ele>
        <time>2011-05-15T06:50:47Z</time>
      </trkpt>
      <trkpt lat="45.54491" lon="3.19061">
        <ele>435.1339111</ele>
        <time>2011-05-15T06:50:49Z</time>
      </trkpt>
      <trkpt lat="45.54496" lon="3.19048">
        <ele>435.1339111</ele>
        <time>2011-05-15T06:50:53Z</time>
      </trkpt>
      <trkpt lat="45.54496" lon="3.19049">
        <ele>434.6533203</ele>
        <time>2011-05-15T06:51:08Z</time>
      </trkpt>
      <trkpt lat="45.54495" lon="3.1905">
        <ele>435.1339111</ele>
        <time>2011-05-15T06:51:22Z</time>
      </trkpt>
      <trkpt lat="45.54494" lon="3.1905">
        <ele>434.6533203</ele>
        <time>2011-05-15T06:51:33Z</time>
      </trkpt>
      <trkpt lat="45.545" lon="3.19045">
        <ele>434.6533203</ele>
        <time>2011-05-15T06:51:37Z</time>
      </trkpt>
      <trkpt lat="45.54517" lon="3.19021">
        <ele>433.2113037</ele>
        <time>2011-05-15T06:51:43Z</time>
      </trkpt>
      <trkpt lat="45.54538" lon="3.18987">
        <ele>432.25</ele>
        <time>2011-05-15T06:51:49Z</time>
      </trkpt>
      <trkpt lat="45.54541" lon="3.18982">
        <ele>433.2113037</ele>
        <time>2011-05-15T06:51:50Z</time>
      </trkpt>
      <trkpt lat="45.54551" lon="3.18963">
        <ele>432.7307129</ele>
        <time>2011-05-15T06:51:53Z</time>
      </trkpt>
      <trkpt lat="45.54558" lon="3.18936">
        <ele>433.2113037</ele>
        <time>2011-05-15T06:51:57Z</time>
      </trkpt>
      <trkpt lat="45.54564" lon="3.18915">
        <ele>433.6918945</ele>
        <time>2011-05-15T06:52:00Z</time>
      </trkpt>
      <trkpt lat="45.54579" lon="3.18883">
        <ele>434.1726074</ele>
        <time>2011-05-15T06:52:05Z</time>
      </trkpt>
      <trkpt lat="45.54586" lon="3.18855">
        <ele>434.6533203</ele>
        <time>2011-05-15T06:52:09Z</time>
      </trkpt>
      <trkpt lat="45.54589" lon="3.18833">
        <ele>434.1726074</ele>
        <time>2011-05-15T06:52:12Z</time>
      </trkpt>
      <trkpt lat="45.54591" lon="3.18817">
        <ele>434.6533203</ele>
        <time>2011-05-15T06:52:14Z</time>
      </trkpt>
      <trkpt lat="45.54607" lon="3.18767">
        <ele>434.1726074</ele>
        <time>2011-05-15T06:52:21Z</time>
      </trkpt>
      <trkpt lat="45.5462" lon="3.18742">
        <ele>434.6533203</ele>
        <time>2011-05-15T06:52:25Z</time>
      </trkpt>
      <trkpt lat="45.54635" lon="3.18709">
        <ele>434.6533203</ele>
        <time>2011-05-15T06:52:30Z</time>
      </trkpt>
      <trkpt lat="45.54637" lon="3.18702">
        <ele>434.6533203</ele>
        <time>2011-05-15T06:52:31Z</time>
      </trkpt>
      <trkpt lat="45.54636" lon="3.18669">
        <ele>435.614502</ele>
        <time>2011-05-15T06:52:36Z</time>
      </trkpt>
      <trkpt lat="45.54634" lon="3.18647">
        <ele>435.614502</ele>
        <time>2011-05-15T06:52:39Z</time>
      </trkpt>
      <trkpt lat="45.54641" lon="3.18611">
        <ele>435.1339111</ele>
        <time>2011-05-15T06:52:44Z</time>
      </trkpt>
      <trkpt lat="45.54643" lon="3.18603">
        <ele>435.1339111</ele>
        <time>2011-05-15T06:52:45Z</time>
      </trkpt>
      <trkpt lat="45.54658" lon="3.18574">
        <ele>435.614502</ele>
        <time>2011-05-15T06:52:50Z</time>
      </trkpt>
      <trkpt lat="45.54674" lon="3.18556">
        <ele>436.0952148</ele>
        <time>2011-05-15T06:52:54Z</time>
      </trkpt>
      <trkpt lat="45.54683" lon="3.18537">
        <ele>437.0565186</ele>
        <time>2011-05-15T06:52:58Z</time>
      </trkpt>
      <trkpt lat="45.54685" lon="3.18493">
        <ele>438.4985352</ele>
        <time>2011-05-15T06:53:05Z</time>
      </trkpt>
      <trkpt lat="45.54683" lon="3.18445">
        <ele>441.3824463</ele>
        <time>2011-05-15T06:53:13Z</time>
      </trkpt>
      <trkpt lat="45.54682" lon="3.18432">
        <ele>441.8631592</ele>
        <time>2011-05-15T06:53:15Z</time>
      </trkpt>
      <trkpt lat="45.54686" lon="3.18387">
        <ele>439.4597168</ele>
        <time>2011-05-15T06:53:21Z</time>
      </trkpt>
      <trkpt lat="45.54689" lon="3.18371">
        <ele>438.979126</ele>
        <time>2011-05-15T06:53:23Z</time>
      </trkpt>
      <trkpt lat="45.54693" lon="3.18348">
        <ele>439.4597168</ele>
        <time>2011-05-15T06:53:26Z</time>
      </trkpt>
      <trkpt lat="45.54702" lon="3.18321">
        <ele>439.4597168</ele>
        <time>2011-05-15T06:53:30Z</time>
      </trkpt>
      <trkpt lat="45.54723" lon="3.18275">
        <ele>439.4597168</ele>
        <time>2011-05-15T06:53:37Z</time>
      </trkpt>
      <trkpt lat="45.54743" lon="3.18227">
        <ele>439.4597168</ele>
        <time>2011-05-15T06:53:44Z</time>
      </trkpt>
      <trkpt lat="45.54747" lon="3.18189">
        <ele>439.9404297</ele>
        <time>2011-05-15T06:53:49Z</time>
      </trkpt>
      <trkpt lat="45.54746" lon="3.18181">
        <ele>439.4597168</ele>
        <time>2011-05-15T06:53:50Z</time>
      </trkpt>
      <trkpt lat="45.54741" lon="3.18123">
        <ele>440.4212646</ele>
        <time>2011-05-15T06:53:58Z</time>
      </trkpt>
      <trkpt lat="45.54734" lon="3.18105">
        <ele>441.8631592</ele>
        <time>2011-05-15T06:54:02Z</time>
      </trkpt>
      <trkpt lat="45.54726" lon="3.18105">
        <ele>442.3438721</ele>
        <time>2011-05-15T06:54:04Z</time>
      </trkpt>
      <trkpt lat="45.54718" lon="3.18107">
        <ele>441.8631592</ele>
        <time>2011-05-15T06:54:06Z</time>
      </trkpt>
      <trkpt lat="45.54692" lon="3.18106">
        <ele>442.3438721</ele>
        <time>2011-05-15T06:54:12Z</time>
      </trkpt>
      <trkpt lat="45.54667" lon="3.18105">
        <ele>442.8244629</ele>
        <time>2011-05-15T06:54:18Z</time>
      </trkpt>
      <trkpt lat="45.54628" lon="3.18104">
        <ele>443.3050537</ele>
        <time>2011-05-15T06:54:27Z</time>
      </trkpt>
      <trkpt lat="45.54588" lon="3.18104">
        <ele>444.2664795</ele>
        <time>2011-05-15T06:54:36Z</time>
      </trkpt>
      <trkpt lat="45.54562" lon="3.18102">
        <ele>445.2276611</ele>
        <time>2011-05-15T06:54:42Z</time>
      </trkpt>
      <trkpt lat="45.54518" lon="3.18107">
        <ele>446.1890869</ele>
        <time>2011-05-15T06:54:52Z</time>
      </trkpt>
      <trkpt lat="45.54483" lon="3.18114">
        <ele>447.6309814</ele>
        <time>2011-05-15T06:55:00Z</time>
      </trkpt>
      <trkpt lat="45.5447" lon="3.18117">
        <ele>448.5924072</ele>
        <time>2011-05-15T06:55:03Z</time>
      </trkpt>
      <trkpt lat="45.54447" lon="3.18119">
        <ele>449.5537109</ele>
        <time>2011-05-15T06:55:09Z</time>
      </trkpt>
      <trkpt lat="45.54439" lon="3.1812">
        <ele>449.5537109</ele>
        <time>2011-05-15T06:55:11Z</time>
      </trkpt>
      <trkpt lat="45.5441" lon="3.18129">
        <ele>450.9956055</ele>
        <time>2011-05-15T06:55:18Z</time>
      </trkpt>
      <trkpt lat="45.54406" lon="3.1813">
        <ele>450.9956055</ele>
        <time>2011-05-15T06:55:19Z</time>
      </trkpt>
      <trkpt lat="45.5437" lon="3.18141">
        <ele>451.9570313</ele>
        <time>2011-05-15T06:55:28Z</time>
      </trkpt>
      <trkpt lat="45.54335" lon="3.18147">
        <ele>454.8408203</ele>
        <time>2011-05-15T06:55:37Z</time>
      </trkpt>
      <trkpt lat="45.54318" lon="3.18146">
        <ele>456.282959</ele>
        <time>2011-05-15T06:55:42Z</time>
      </trkpt>
      <trkpt lat="45.54299" lon="3.1814">
        <ele>457.2442627</ele>
        <time>2011-05-15T06:55:48Z</time>
      </trkpt>
      <trkpt lat="45.54274" lon="3.18125">
        <ele>457.7249756</ele>
        <time>2011-05-15T06:55:55Z</time>
      </trkpt>
      <trkpt lat="45.54259" lon="3.18115">
        <ele>458.2055664</ele>
        <time>2011-05-15T06:55:59Z</time>
      </trkpt>
      <trkpt lat="45.54255" lon="3.18113">
        <ele>458.2055664</ele>
        <time>2011-05-15T06:56:00Z</time>
      </trkpt>
      <trkpt lat="45.5424" lon="3.18103">
        <ele>458.6861572</ele>
        <time>2011-05-15T06:56:04Z</time>
      </trkpt>
      <trkpt lat="45.54236" lon="3.18101">
        <ele>459.1668701</ele>
        <time>2011-05-15T06:56:05Z</time>
      </trkpt>
      <trkpt lat="45.54233" lon="3.18099">
        <ele>460.1281738</ele>
        <time>2011-05-15T06:56:06Z</time>
      </trkpt>
      <trkpt lat="45.54229" lon="3.18096">
        <ele>460.6087646</ele>
        <time>2011-05-15T06:56:07Z</time>
      </trkpt>
      <trkpt lat="45.54219" lon="3.1809">
        <ele>461.5701904</ele>
        <time>2011-05-15T06:56:10Z</time>
      </trkpt>
      <trkpt lat="45.54204" lon="3.18081">
        <ele>461.5701904</ele>
        <time>2011-05-15T06:56:14Z</time>
      </trkpt>
      <trkpt lat="45.54201" lon="3.18079">
        <ele>462.5313721</ele>
        <time>2011-05-15T06:56:15Z</time>
      </trkpt>
      <trkpt lat="45.54197" lon="3.18076">
        <ele>463.012085</ele>
        <time>2011-05-15T06:56:16Z</time>
      </trkpt>
      <trkpt lat="45.54194" lon="3.18074">
        <ele>463.012085</ele>
        <time>2011-05-15T06:56:17Z</time>
      </trkpt>
      <trkpt lat="45.5419" lon="3.18072">
        <ele>463.4927979</ele>
        <time>2011-05-15T06:56:18Z</time>
      </trkpt>
      <trkpt lat="45.5416" lon="3.18048">
        <ele>465.4155273</ele>
        <time>2011-05-15T06:56:27Z</time>
      </trkpt>
      <trkpt lat="45.54128" lon="3.18019">
        <ele>466.8574219</ele>
        <time>2011-05-15T06:56:37Z</time>
      </trkpt>
      <trkpt lat="45.54107" lon="3.18">
        <ele>468.2993164</ele>
        <time>2011-05-15T06:56:44Z</time>
      </trkpt>
      <trkpt lat="45.5409" lon="3.17977">
        <ele>468.2993164</ele>
        <time>2011-05-15T06:56:51Z</time>
      </trkpt>
      <trkpt lat="45.54089" lon="3.17971">
        <ele>468.7800293</ele>
        <time>2011-05-15T06:56:52Z</time>
      </trkpt>
      <trkpt lat="45.54079" lon="3.17928">
        <ele>466.376709</ele>
        <time>2011-05-15T06:56:58Z</time>
      </trkpt>
      <trkpt lat="45.54069" lon="3.17877">
        <ele>466.8574219</ele>
        <time>2011-05-15T06:57:05Z</time>
      </trkpt>
      <trkpt lat="45.54057" lon="3.17811">
        <ele>467.3381348</ele>
        <time>2011-05-15T06:57:15Z</time>
      </trkpt>
      <trkpt lat="45.54048" lon="3.17773">
        <ele>467.8187256</ele>
        <time>2011-05-15T06:57:22Z</time>
      </trkpt>
      <trkpt lat="45.54042" lon="3.17739">
        <ele>468.2993164</ele>
        <time>2011-05-15T06:57:29Z</time>
      </trkpt>
      <trkpt lat="45.54031" lon="3.17694">
        <ele>468.2993164</ele>
        <time>2011-05-15T06:57:38Z</time>
      </trkpt>
      <trkpt lat="45.54019" lon="3.17685">
        <ele>469.2607422</ele>
        <time>2011-05-15T06:57:42Z</time>
      </trkpt>
      <trkpt lat="45.54009" lon="3.17684">
        <ele>470.7026367</ele>
        <time>2011-05-15T06:57:45Z</time>
      </trkpt>
      <trkpt lat="45.53987" lon="3.17683">
        <ele>472.6253662</ele>
        <time>2011-05-15T06:57:53Z</time>
      </trkpt>
      <trkpt lat="45.53975" lon="3.17682">
        <ele>474.5479736</ele>
        <time>2011-05-15T06:57:58Z</time>
      </trkpt>
      <trkpt lat="45.53964" lon="3.1768">
        <ele>476.4705811</ele>
        <time>2011-05-15T06:58:02Z</time>
      </trkpt>
      <trkpt lat="45.53962" lon="3.1768">
        <ele>476.4705811</ele>
        <time>2011-05-15T06:58:03Z</time>
      </trkpt>
      <trkpt lat="45.53945" lon="3.17679">
        <ele>477.4318848</ele>
        <time>2011-05-15T06:58:09Z</time>
      </trkpt>
      <trkpt lat="45.53924" lon="3.17677">
        <ele>478.8739014</ele>
        <time>2011-05-15T06:58:17Z</time>
      </trkpt>
      <trkpt lat="45.53908" lon="3.17678">
        <ele>480.315918</ele>
        <time>2011-05-15T06:58:23Z</time>
      </trkpt>
      <trkpt lat="45.53894" lon="3.17676">
        <ele>482.2385254</ele>
        <time>2011-05-15T06:58:28Z</time>
      </trkpt>
      <trkpt lat="45.53871" lon="3.17673">
        <ele>483.6804199</ele>
        <time>2011-05-15T06:58:36Z</time>
      </trkpt>
      <trkpt lat="45.53835" lon="3.17668">
        <ele>485.1224365</ele>
        <time>2011-05-15T06:58:48Z</time>
      </trkpt>
      <trkpt lat="45.538" lon="3.17662">
        <ele>485.6030273</ele>
        <time>2011-05-15T06:58:59Z</time>
      </trkpt>
      <trkpt lat="45.53767" lon="3.17656">
        <ele>486.0837402</ele>
        <time>2011-05-15T06:59:09Z</time>
      </trkpt>
      <trkpt lat="45.53734" lon="3.1765">
        <ele>487.0450439</ele>
        <time>2011-05-15T06:59:20Z</time>
      </trkpt>
      <trkpt lat="45.53713" lon="3.17645">
        <ele>489.9290771</ele>
        <time>2011-05-15T06:59:27Z</time>
      </trkpt>
      <trkpt lat="45.53705" lon="3.17631">
        <ele>490.8903809</ele>
        <time>2011-05-15T06:59:32Z</time>
      </trkpt>
      <trkpt lat="45.53695" lon="3.1759">
        <ele>491.8516846</ele>
        <time>2011-05-15T06:59:42Z</time>
      </trkpt>
      <trkpt lat="45.53687" lon="3.17549">
        <ele>493.2935791</ele>
        <time>2011-05-15T06:59:52Z</time>
      </trkpt>
      <trkpt lat="45.5368" lon="3.17516">
        <ele>496.1777344</ele>
        <time>2011-05-15T07:00:00Z</time>
      </trkpt>
      <trkpt lat="45.53674" lon="3.17483">
        <ele>497.6196289</ele>
        <time>2011-05-15T07:00:08Z</time>
      </trkpt>
      <trkpt lat="45.53668" lon="3.17445">
        <ele>498.1003418</ele>
        <time>2011-05-15T07:00:17Z</time>
      </trkpt>
      <trkpt lat="45.53663" lon="3.17412">
        <ele>498.1003418</ele>
        <time>2011-05-15T07:00:24Z</time>
      </trkpt>
      <trkpt lat="45.53653" lon="3.1735">
        <ele>498.1003418</ele>
        <time>2011-05-15T07:00:36Z</time>
      </trkpt>
      <trkpt lat="45.53642" lon="3.17291">
        <ele>498.5809326</ele>
        <time>2011-05-15T07:00:47Z</time>
      </trkpt>
      <trkpt lat="45.53632" lon="3.17235">
        <ele>499.0615234</ele>
        <time>2011-05-15T07:00:58Z</time>
      </trkpt>
      <trkpt lat="45.5363" lon="3.17192">
        <ele>499.0615234</ele>
        <time>2011-05-15T07:01:06Z</time>
      </trkpt>
      <trkpt lat="45.53628" lon="3.17156">
        <ele>500.9841309</ele>
        <time>2011-05-15T07:01:14Z</time>
      </trkpt>
      <trkpt lat="45.5363" lon="3.17133">
        <ele>502.9067383</ele>
        <time>2011-05-15T07:01:20Z</time>
      </trkpt>
      <trkpt lat="45.53636" lon="3.17098">
        <ele>504.8294678</ele>
        <time>2011-05-15T07:01:29Z</time>
      </trkpt>
      <trkpt lat="45.53643" lon="3.17064">
        <ele>506.7520752</ele>
        <time>2011-05-15T07:01:38Z</time>
      </trkpt>
      <trkpt lat="45.53646" lon="3.17049">
        <ele>508.1940918</ele>
        <time>2011-05-15T07:01:42Z</time>
      </trkpt>
      <trkpt lat="45.53651" lon="3.17022">
        <ele>511.0780029</ele>
        <time>2011-05-15T07:01:49Z</time>
      </trkpt>
      <trkpt lat="45.53652" lon="3.17014">
        <ele>511.5587158</ele>
        <time>2011-05-15T07:01:51Z</time>
      </trkpt>
      <trkpt lat="45.53658" lon="3.16983">
        <ele>513.9620361</ele>
        <time>2011-05-15T07:01:59Z</time>
      </trkpt>
      <trkpt lat="45.53659" lon="3.1698">
        <ele>514.442627</ele>
        <time>2011-05-15T07:02:00Z</time>
      </trkpt>
      <trkpt lat="45.53664" lon="3.16952">
        <ele>515.4040527</ele>
        <time>2011-05-15T07:02:07Z</time>
      </trkpt>
      <trkpt lat="45.53671" lon="3.16916">
        <ele>515.8846436</ele>
        <time>2011-05-15T07:02:16Z</time>
      </trkpt>
      <trkpt lat="45.53671" lon="3.16891">
        <ele>516.3652344</ele>
        <time>2011-05-15T07:02:22Z</time>
      </trkpt>
      <trkpt lat="45.53666" lon="3.16853">
        <ele>517.3266602</ele>
        <time>2011-05-15T07:02:31Z</time>
      </trkpt>
      <trkpt lat="45.53662" lon="3.16824">
        <ele>517.3266602</ele>
        <time>2011-05-15T07:02:38Z</time>
      </trkpt>
      <trkpt lat="45.53657" lon="3.16791">
        <ele>518.2878418</ele>
        <time>2011-05-15T07:02:45Z</time>
      </trkpt>
      <trkpt lat="45.53651" lon="3.16742">
        <ele>516.8459473</ele>
        <time>2011-05-15T07:02:54Z</time>
      </trkpt>
      <trkpt lat="45.53646" lon="3.16709">
        <ele>515.8846436</ele>
        <time>2011-05-15T07:02:59Z</time>
      </trkpt>
      <trkpt lat="45.5364" lon="3.16656">
        <ele>514.9233398</ele>
        <time>2011-05-15T07:03:06Z</time>
      </trkpt>
      <trkpt lat="45.53635" lon="3.16613">
        <ele>514.9233398</ele>
        <time>2011-05-15T07:03:12Z</time>
      </trkpt>
      <trkpt lat="45.53627" lon="3.16553">
        <ele>515.4040527</ele>
        <time>2011-05-15T07:03:21Z</time>
      </trkpt>
      <trkpt lat="45.5362" lon="3.16496">
        <ele>515.8846436</ele>
        <time>2011-05-15T07:03:30Z</time>
      </trkpt>
      <trkpt lat="45.53615" lon="3.16465">
        <ele>515.4040527</ele>
        <time>2011-05-15T07:03:35Z</time>
      </trkpt>
      <trkpt lat="45.53611" lon="3.16429">
        <ele>515.8846436</ele>
        <time>2011-05-15T07:03:41Z</time>
      </trkpt>
      <trkpt lat="45.53603" lon="3.16382">
        <ele>514.9233398</ele>
        <time>2011-05-15T07:03:49Z</time>
      </trkpt>
      <trkpt lat="45.53592" lon="3.16362">
        <ele>515.8846436</ele>
        <time>2011-05-15T07:03:53Z</time>
      </trkpt>
      <trkpt lat="45.53583" lon="3.1635">
        <ele>515.8846436</ele>
        <time>2011-05-15T07:03:56Z</time>
      </trkpt>
      <trkpt lat="45.53575" lon="3.16334">
        <ele>514.442627</ele>
        <time>2011-05-15T07:03:59Z</time>
      </trkpt>
      <trkpt lat="45.53568" lon="3.16312">
        <ele>514.442627</ele>
        <time>2011-05-15T07:04:03Z</time>
      </trkpt>
      <trkpt lat="45.53567" lon="3.16307">
        <ele>514.442627</ele>
        <time>2011-05-15T07:04:04Z</time>
      </trkpt>
      <trkpt lat="45.5356" lon="3.16278">
        <ele>518.2878418</ele>
        <time>2011-05-15T07:04:10Z</time>
      </trkpt>
      <trkpt lat="45.53554" lon="3.16255">
        <ele>519.7298584</ele>
        <time>2011-05-15T07:04:16Z</time>
      </trkpt>
      <trkpt lat="45.53552" lon="3.16244">
        <ele>520.6912842</ele>
        <time>2011-05-15T07:04:19Z</time>
      </trkpt>
      <trkpt lat="45.53548" lon="3.16233">
        <ele>521.1719971</ele>
        <time>2011-05-15T07:04:22Z</time>
      </trkpt>
      <trkpt lat="45.53544" lon="3.1622">
        <ele>522.1331787</ele>
        <time>2011-05-15T07:04:25Z</time>
      </trkpt>
      <trkpt lat="45.53529" lon="3.16177">
        <ele>522.6138916</ele>
        <time>2011-05-15T07:04:35Z</time>
      </trkpt>
      <trkpt lat="45.53516" lon="3.16135">
        <ele>523.5751953</ele>
        <time>2011-05-15T07:04:45Z</time>
      </trkpt>
      <trkpt lat="45.5351" lon="3.16116">
        <ele>523.5751953</ele>
        <time>2011-05-15T07:04:51Z</time>
      </trkpt>
      <trkpt lat="45.53505" lon="3.16095">
        <ele>523.5751953</ele>
        <time>2011-05-15T07:04:57Z</time>
      </trkpt>
      <trkpt lat="45.53501" lon="3.16071">
        <ele>522.1331787</ele>
        <time>2011-05-15T07:05:02Z</time>
      </trkpt>
      <trkpt lat="45.535" lon="3.1605">
        <ele>520.6912842</ele>
        <time>2011-05-15T07:05:06Z</time>
      </trkpt>
      <trkpt lat="45.53513" lon="3.16028">
        <ele>519.2492676</ele>
        <time>2011-05-15T07:05:10Z</time>
      </trkpt>
      <trkpt lat="45.5352" lon="3.16015">
        <ele>518.2878418</ele>
        <time>2011-05-15T07:05:12Z</time>
      </trkpt>
      <trkpt lat="45.53524" lon="3.16">
        <ele>518.7685547</ele>
        <time>2011-05-15T07:05:14Z</time>
      </trkpt>
      <trkpt lat="45.53532" lon="3.15977">
        <ele>520.2105713</ele>
        <time>2011-05-15T07:05:18Z</time>
      </trkpt>
      <trkpt lat="45.53544" lon="3.15978">
        <ele>520.2105713</ele>
        <time>2011-05-15T07:05:23Z</time>
      </trkpt>
      <trkpt lat="45.53553" lon="3.15979">
        <ele>521.6525879</ele>
        <time>2011-05-15T07:05:27Z</time>
      </trkpt>
      <trkpt lat="45.53567" lon="3.15976">
        <ele>524.0557861</ele>
        <time>2011-05-15T07:05:33Z</time>
      </trkpt>
      <trkpt lat="45.53571" lon="3.15971">
        <ele>525.9783936</ele>
        <time>2011-05-15T07:05:36Z</time>
      </trkpt>
      <trkpt lat="45.53581" lon="3.15968">
        <ele>527.901001</ele>
        <time>2011-05-15T07:05:41Z</time>
      </trkpt>
      <trkpt lat="45.5358" lon="3.15957">
        <ele>528.8625488</ele>
        <time>2011-05-15T07:05:45Z</time>
      </trkpt>
      <trkpt lat="45.53577" lon="3.15947">
        <ele>529.3431396</ele>
        <time>2011-05-15T07:05:48Z</time>
      </trkpt>
      <trkpt lat="45.53575" lon="3.15933">
        <ele>530.7851563</ele>
        <time>2011-05-15T07:05:52Z</time>
      </trkpt>
      <trkpt lat="45.53581" lon="3.15917">
        <ele>530.7851563</ele>
        <time>2011-05-15T07:05:57Z</time>
      </trkpt>
      <trkpt lat="45.53598" lon="3.15896">
        <ele>532.2270508</ele>
        <time>2011-05-15T07:06:05Z</time>
      </trkpt>
      <trkpt lat="45.53612" lon="3.1587">
        <ele>533.6689453</ele>
        <time>2011-05-15T07:06:13Z</time>
      </trkpt>
      <trkpt lat="45.53616" lon="3.15856">
        <ele>535.1109619</ele>
        <time>2011-05-15T07:06:17Z</time>
      </trkpt>
      <trkpt lat="45.53619" lon="3.15827">
        <ele>538.475708</ele>
        <time>2011-05-15T07:06:25Z</time>
      </trkpt>
      <trkpt lat="45.53613" lon="3.15795">
        <ele>539.9176025</ele>
        <time>2011-05-15T07:06:34Z</time>
      </trkpt>
      <trkpt lat="45.53612" lon="3.15765">
        <ele>541.84021</ele>
        <time>2011-05-15T07:06:42Z</time>
      </trkpt>
      <trkpt lat="45.53612" lon="3.1575">
        <ele>543.2821045</ele>
        <time>2011-05-15T07:06:47Z</time>
      </trkpt>
      <trkpt lat="45.53605" lon="3.15736">
        <ele>544.7242432</ele>
        <time>2011-05-15T07:06:53Z</time>
      </trkpt>
      <trkpt lat="45.53587" lon="3.1572">
        <ele>545.204834</ele>
        <time>2011-05-15T07:07:01Z</time>
      </trkpt>
      <trkpt lat="45.5357" lon="3.15704">
        <ele>545.6855469</ele>
        <time>2011-05-15T07:07:08Z</time>
      </trkpt>
      <trkpt lat="45.53549" lon="3.15682">
        <ele>546.6468506</ele>
        <time>2011-05-15T07:07:17Z</time>
      </trkpt>
      <trkpt lat="45.53532" lon="3.15664">
        <ele>548.0888672</ele>
        <time>2011-05-15T07:07:25Z</time>
      </trkpt>
      <trkpt lat="45.53514" lon="3.15644">
        <ele>550.0114746</ele>
        <time>2011-05-15T07:07:34Z</time>
      </trkpt>
      <trkpt lat="45.53498" lon="3.15624">
        <ele>550.9726563</ele>
        <time>2011-05-15T07:07:43Z</time>
      </trkpt>
      <trkpt lat="45.53484" lon="3.15599">
        <ele>551.934082</ele>
        <time>2011-05-15T07:07:52Z</time>
      </trkpt>
      <trkpt lat="45.53471" lon="3.15576">
        <ele>553.3759766</ele>
        <time>2011-05-15T07:08:00Z</time>
      </trkpt>
      <trkpt lat="45.53456" lon="3.15549">
        <ele>554.8178711</ele>
        <time>2011-05-15T07:08:09Z</time>
      </trkpt>
      <trkpt lat="45.53445" lon="3.15528">
        <ele>556.7407227</ele>
        <time>2011-05-15T07:08:17Z</time>
      </trkpt>
      <trkpt lat="45.53433" lon="3.15503">
        <ele>558.6633301</ele>
        <time>2011-05-15T07:08:26Z</time>
      </trkpt>
      <trkpt lat="45.53421" lon="3.15479">
        <ele>560.5859375</ele>
        <time>2011-05-15T07:08:35Z</time>
      </trkpt>
      <trkpt lat="45.53406" lon="3.15454">
        <ele>562.9892578</ele>
        <time>2011-05-15T07:08:45Z</time>
      </trkpt>
      <trkpt lat="45.53396" lon="3.15435">
        <ele>564.9118652</ele>
        <time>2011-05-15T07:08:53Z</time>
      </trkpt>
      <trkpt lat="45.53386" lon="3.15416">
        <ele>566.3537598</ele>
        <time>2011-05-15T07:09:01Z</time>
      </trkpt>
      <trkpt lat="45.53372" lon="3.15399">
        <ele>567.7956543</ele>
        <time>2011-05-15T07:09:09Z</time>
      </trkpt>
      <trkpt lat="45.53354" lon="3.15383">
        <ele>570.1989746</ele>
        <time>2011-05-15T07:09:19Z</time>
      </trkpt>
      <trkpt lat="45.53342" lon="3.15372">
        <ele>571.6408691</ele>
        <time>2011-05-15T07:09:26Z</time>
      </trkpt>
      <trkpt lat="45.5333" lon="3.15359">
        <ele>573.5639648</ele>
        <time>2011-05-15T07:09:33Z</time>
      </trkpt>
      <trkpt lat="45.53329" lon="3.15357">
        <ele>573.5639648</ele>
        <time>2011-05-15T07:09:34Z</time>
      </trkpt>
      <trkpt lat="45.5332" lon="3.15345">
        <ele>574.5251465</ele>
        <time>2011-05-15T07:09:40Z</time>
      </trkpt>
      <trkpt lat="45.5331" lon="3.15332">
        <ele>575.967041</ele>
        <time>2011-05-15T07:09:47Z</time>
      </trkpt>
      <trkpt lat="45.53298" lon="3.15315">
        <ele>577.8896484</ele>
        <time>2011-05-15T07:09:55Z</time>
      </trkpt>
      <trkpt lat="45.53289" lon="3.153">
        <ele>579.331543</ele>
        <time>2011-05-15T07:10:02Z</time>
      </trkpt>
      <trkpt lat="45.53277" lon="3.15279">
        <ele>580.2929688</ele>
        <time>2011-05-15T07:10:11Z</time>
      </trkpt>
      <trkpt lat="45.53269" lon="3.15258">
        <ele>582.2155762</ele>
        <time>2011-05-15T07:10:19Z</time>
      </trkpt>
      <trkpt lat="45.53267" lon="3.15242">
        <ele>583.6574707</ele>
        <time>2011-05-15T07:10:25Z</time>
      </trkpt>
      <trkpt lat="45.53265" lon="3.1522">
        <ele>586.060791</ele>
        <time>2011-05-15T07:10:33Z</time>
      </trkpt>
      <trkpt lat="45.53265" lon="3.15196">
        <ele>587.9833984</ele>
        <time>2011-05-15T07:10:41Z</time>
      </trkpt>
      <trkpt lat="45.53262" lon="3.15172">
        <ele>588.9450684</ele>
        <time>2011-05-15T07:10:49Z</time>
      </trkpt>
      <trkpt lat="45.53254" lon="3.15149">
        <ele>590.8674316</ele>
        <time>2011-05-15T07:10:57Z</time>
      </trkpt>
      <trkpt lat="45.53246" lon="3.15129">
        <ele>591.8288574</ele>
        <time>2011-05-15T07:11:04Z</time>
      </trkpt>
      <trkpt lat="45.53237" lon="3.15109">
        <ele>592.7902832</ele>
        <time>2011-05-15T07:11:11Z</time>
      </trkpt>
      <trkpt lat="45.53227" lon="3.15085">
        <ele>594.2321777</ele>
        <time>2011-05-15T07:11:20Z</time>
      </trkpt>
      <trkpt lat="45.5322" lon="3.15064">
        <ele>595.1933594</ele>
        <time>2011-05-15T07:11:27Z</time>
      </trkpt>
      <trkpt lat="45.53213" lon="3.15047">
        <ele>596.635498</ele>
        <time>2011-05-15T07:11:33Z</time>
      </trkpt>
      <trkpt lat="45.53204" lon="3.15025">
        <ele>598.5578613</ele>
        <time>2011-05-15T07:11:40Z</time>
      </trkpt>
      <trkpt lat="45.53193" lon="3.15">
        <ele>600</ele>
        <time>2011-05-15T07:11:48Z</time>
      </trkpt>
      <trkpt lat="45.53183" lon="3.14978">
        <ele>600</ele>
        <time>2011-05-15T07:11:55Z</time>
      </trkpt>
      <trkpt lat="45.5317" lon="3.14952">
        <ele>601.4418945</ele>
        <time>2011-05-15T07:12:03Z</time>
      </trkpt>
      <trkpt lat="45.53158" lon="3.14925">
        <ele>602.4030762</ele>
        <time>2011-05-15T07:12:11Z</time>
      </trkpt>
      <trkpt lat="45.53146" lon="3.14893">
        <ele>604.3261719</ele>
        <time>2011-05-15T07:12:20Z</time>
      </trkpt>
      <trkpt lat="45.5314" lon="3.14873">
        <ele>605.7680664</ele>
        <time>2011-05-15T07:12:26Z</time>
      </trkpt>
      <trkpt lat="45.53128" lon="3.14853">
        <ele>606.2485352</ele>
        <time>2011-05-15T07:12:33Z</time>
      </trkpt>
      <trkpt lat="45.53113" lon="3.14843">
        <ele>607.2099609</ele>
        <time>2011-05-15T07:12:39Z</time>
      </trkpt>
      <trkpt lat="45.53092" lon="3.14832">
        <ele>608.1713867</ele>
        <time>2011-05-15T07:12:47Z</time>
      </trkpt>
      <trkpt lat="45.53078" lon="3.14821">
        <ele>608.6518555</ele>
        <time>2011-05-15T07:12:53Z</time>
      </trkpt>
      <trkpt lat="45.5306" lon="3.14802">
        <ele>610.5744629</ele>
        <time>2011-05-15T07:13:01Z</time>
      </trkpt>
      <trkpt lat="45.53052" lon="3.14788">
        <ele>611.5358887</ele>
        <time>2011-05-15T07:13:06Z</time>
      </trkpt>
      <trkpt lat="45.53052" lon="3.14763">
        <ele>612.9777832</ele>
        <time>2011-05-15T07:13:13Z</time>
      </trkpt>
      <trkpt lat="45.53056" lon="3.14738">
        <ele>615.3811035</ele>
        <time>2011-05-15T07:13:21Z</time>
      </trkpt>
      <trkpt lat="45.53059" lon="3.1471">
        <ele>617.3037109</ele>
        <time>2011-05-15T07:13:29Z</time>
      </trkpt>
      <trkpt lat="45.53057" lon="3.14688">
        <ele>617.7841797</ele>
        <time>2011-05-15T07:13:35Z</time>
      </trkpt>
      <trkpt lat="45.53056" lon="3.1466">
        <ele>618.7456055</ele>
        <time>2011-05-15T07:13:42Z</time>
      </trkpt>
      <trkpt lat="45.5305" lon="3.14627">
        <ele>619.7070313</ele>
        <time>2011-05-15T07:13:50Z</time>
      </trkpt>
      <trkpt lat="45.53047" lon="3.14595">
        <ele>621.1491699</ele>
        <time>2011-05-15T07:13:58Z</time>
      </trkpt>
      <trkpt lat="45.53048" lon="3.14567">
        <ele>621.6296387</ele>
        <time>2011-05-15T07:14:05Z</time>
      </trkpt>
      <trkpt lat="45.5305" lon="3.14532">
        <ele>622.5910645</ele>
        <time>2011-05-15T07:14:13Z</time>
      </trkpt>
      <trkpt lat="45.53049" lon="3.14511">
        <ele>624.5136719</ele>
        <time>2011-05-15T07:14:19Z</time>
      </trkpt>
      <trkpt lat="45.5305" lon="3.14492">
        <ele>624.9943848</ele>
        <time>2011-05-15T07:14:24Z</time>
      </trkpt>
      <trkpt lat="45.53055" lon="3.14465">
        <ele>626.4362793</ele>
        <time>2011-05-15T07:14:31Z</time>
      </trkpt>
      <trkpt lat="45.53063" lon="3.14434">
        <ele>627.3977051</ele>
        <time>2011-05-15T07:14:39Z</time>
      </trkpt>
      <trkpt lat="45.53075" lon="3.14409">
        <ele>627.8781738</ele>
        <time>2011-05-15T07:14:46Z</time>
      </trkpt>
      <trkpt lat="45.53082" lon="3.14386">
        <ele>628.8395996</ele>
        <time>2011-05-15T07:14:52Z</time>
      </trkpt>
      <trkpt lat="45.53086" lon="3.14351">
        <ele>629.8007813</ele>
        <time>2011-05-15T07:15:00Z</time>
      </trkpt>
      <trkpt lat="45.53086" lon="3.1431">
        <ele>630.762207</ele>
        <time>2011-05-15T07:15:09Z</time>
      </trkpt>
      <trkpt lat="45.53084" lon="3.14278">
        <ele>633.1652832</ele>
        <time>2011-05-15T07:15:17Z</time>
      </trkpt>
      <trkpt lat="45.5308" lon="3.14259">
        <ele>634.126709</ele>
        <time>2011-05-15T07:15:22Z</time>
      </trkpt>
      <trkpt lat="45.53073" lon="3.1423">
        <ele>636.5302734</ele>
        <time>2011-05-15T07:15:31Z</time>
      </trkpt>
      <trkpt lat="45.53066" lon="3.14202">
        <ele>639.4140625</ele>
        <time>2011-05-15T07:15:40Z</time>
      </trkpt>
      <trkpt lat="45.53058" lon="3.1417">
        <ele>641.8173828</ele>
        <time>2011-05-15T07:15:51Z</time>
      </trkpt>
      <trkpt lat="45.53052" lon="3.14147">
        <ele>643.7399902</ele>
        <time>2011-05-15T07:15:59Z</time>
      </trkpt>
      <trkpt lat="45.53048" lon="3.14121">
        <ele>645.6625977</ele>
        <time>2011-05-15T07:16:07Z</time>
      </trkpt>
      <trkpt lat="45.53043" lon="3.14093">
        <ele>647.1044922</ele>
        <time>2011-05-15T07:16:15Z</time>
      </trkpt>
      <trkpt lat="45.53039" lon="3.14065">
        <ele>647.5852051</ele>
        <time>2011-05-15T07:16:22Z</time>
      </trkpt>
      <trkpt lat="45.53032" lon="3.14026">
        <ele>647.5852051</ele>
        <time>2011-05-15T07:16:30Z</time>
      </trkpt>
      <trkpt lat="45.53028" lon="3.13986">
        <ele>647.1044922</ele>
        <time>2011-05-15T07:16:38Z</time>
      </trkpt>
      <trkpt lat="45.53029" lon="3.13969">
        <ele>647.5852051</ele>
        <time>2011-05-15T07:16:42Z</time>
      </trkpt>
      <trkpt lat="45.53031" lon="3.13961">
        <ele>646.6240234</ele>
        <time>2011-05-15T07:16:44Z</time>
      </trkpt>
      <trkpt lat="45.53043" lon="3.13958">
        <ele>645.6625977</ele>
        <time>2011-05-15T07:16:48Z</time>
      </trkpt>
      <trkpt lat="45.53056" lon="3.13966">
        <ele>643.2592773</ele>
        <time>2011-05-15T07:16:51Z</time>
      </trkpt>
      <trkpt lat="45.53073" lon="3.13966">
        <ele>642.2980957</ele>
        <time>2011-05-15T07:16:54Z</time>
      </trkpt>
      <trkpt lat="45.53101" lon="3.1396">
        <ele>640.855957</ele>
        <time>2011-05-15T07:16:58Z</time>
      </trkpt>
      <trkpt lat="45.53123" lon="3.13953">
        <ele>637.4914551</ele>
        <time>2011-05-15T07:17:01Z</time>
      </trkpt>
      <trkpt lat="45.53139" lon="3.1395">
        <ele>635.5686035</ele>
        <time>2011-05-15T07:17:03Z</time>
      </trkpt>
      <trkpt lat="45.53147" lon="3.13949">
        <ele>634.6074219</ele>
        <time>2011-05-15T07:17:04Z</time>
      </trkpt>
      <trkpt lat="45.53156" lon="3.13949">
        <ele>634.126709</ele>
        <time>2011-05-15T07:17:05Z</time>
      </trkpt>
      <trkpt lat="45.53189" lon="3.13952">
        <ele>631.2429199</ele>
        <time>2011-05-15T07:17:09Z</time>
      </trkpt>
      <trkpt lat="45.53212" lon="3.13948">
        <ele>629.3200684</ele>
        <time>2011-05-15T07:17:12Z</time>
      </trkpt>
      <trkpt lat="45.53235" lon="3.13936">
        <ele>627.8781738</ele>
        <time>2011-05-15T07:17:15Z</time>
      </trkpt>
      <trkpt lat="45.53286" lon="3.13909">
        <ele>625.9555664</ele>
        <time>2011-05-15T07:17:22Z</time>
      </trkpt>
      <trkpt lat="45.5332" lon="3.13898">
        <ele>625.4748535</ele>
        <time>2011-05-15T07:17:27Z</time>
      </trkpt>
      <trkpt lat="45.53358" lon="3.13892">
        <ele>624.032959</ele>
        <time>2011-05-15T07:17:33Z</time>
      </trkpt>
      <trkpt lat="45.53383" lon="3.13879">
        <ele>624.032959</ele>
        <time>2011-05-15T07:17:38Z</time>
      </trkpt>
      <trkpt lat="45.53387" lon="3.13875">
        <ele>624.5136719</ele>
        <time>2011-05-15T07:17:39Z</time>
      </trkpt>
      <trkpt lat="45.53399" lon="3.13859">
        <ele>625.4748535</ele>
        <time>2011-05-15T07:17:43Z</time>
      </trkpt>
      <trkpt lat="45.53413" lon="3.13842">
        <ele>626.4362793</ele>
        <time>2011-05-15T07:17:48Z</time>
      </trkpt>
      <trkpt lat="45.53421" lon="3.13833">
        <ele>626.9169922</ele>
        <time>2011-05-15T07:17:51Z</time>
      </trkpt>
      <trkpt lat="45.53429" lon="3.13826">
        <ele>627.8781738</ele>
        <time>2011-05-15T07:17:54Z</time>
      </trkpt>
      <trkpt lat="45.5345" lon="3.13807">
        <ele>628.8395996</ele>
        <time>2011-05-15T07:18:02Z</time>
      </trkpt>
      <trkpt lat="45.53459" lon="3.138">
        <ele>630.762207</ele>
        <time>2011-05-15T07:18:06Z</time>
      </trkpt>
      <trkpt lat="45.53468" lon="3.1379">
        <ele>632.2041016</ele>
        <time>2011-05-15T07:18:11Z</time>
      </trkpt>
      <trkpt lat="45.53477" lon="3.13777">
        <ele>633.1652832</ele>
        <time>2011-05-15T07:18:16Z</time>
      </trkpt>
      <trkpt lat="45.53481" lon="3.13773">
        <ele>634.126709</ele>
        <time>2011-05-15T07:18:18Z</time>
      </trkpt>
      <trkpt lat="45.535" lon="3.13761">
        <ele>634.6074219</ele>
        <time>2011-05-15T07:18:26Z</time>
      </trkpt>
      <trkpt lat="45.53525" lon="3.1375">
        <ele>634.6074219</ele>
        <time>2011-05-15T07:18:33Z</time>
      </trkpt>
      <trkpt lat="45.53565" lon="3.1373">
        <ele>634.126709</ele>
        <time>2011-05-15T07:18:43Z</time>
      </trkpt>
      <trkpt lat="45.53604" lon="3.13709">
        <ele>632.2041016</ele>
        <time>2011-05-15T07:18:52Z</time>
      </trkpt>
      <trkpt lat="45.53622" lon="3.13688">
        <ele>633.6459961</ele>
        <time>2011-05-15T07:18:58Z</time>
      </trkpt>
      <trkpt lat="45.53627" lon="3.13673">
        <ele>634.126709</ele>
        <time>2011-05-15T07:19:02Z</time>
      </trkpt>
      <trkpt lat="45.53634" lon="3.13655">
        <ele>634.6074219</ele>
        <time>2011-05-15T07:19:07Z</time>
      </trkpt>
      <trkpt lat="45.53642" lon="3.13636">
        <ele>635.5686035</ele>
        <time>2011-05-15T07:19:14Z</time>
      </trkpt>
      <trkpt lat="45.53651" lon="3.13615">
        <ele>637.0107422</ele>
        <time>2011-05-15T07:19:22Z</time>
      </trkpt>
      <trkpt lat="45.53659" lon="3.136">
        <ele>638.4528809</ele>
        <time>2011-05-15T07:19:29Z</time>
      </trkpt>
      <trkpt lat="45.53671" lon="3.13578">
        <ele>640.3754883</ele>
        <time>2011-05-15T07:19:38Z</time>
      </trkpt>
      <trkpt lat="45.53682" lon="3.13556">
        <ele>640.3754883</ele>
        <time>2011-05-15T07:19:45Z</time>
      </trkpt>
      <trkpt lat="45.53693" lon="3.13532">
        <ele>639.4140625</ele>
        <time>2011-05-15T07:19:52Z</time>
      </trkpt>
      <trkpt lat="45.53694" lon="3.13527">
        <ele>638.9335938</ele>
        <time>2011-05-15T07:19:54Z</time>
      </trkpt>
      <trkpt lat="45.5369" lon="3.13516">
        <ele>639.4140625</ele>
        <time>2011-05-15T07:19:59Z</time>
      </trkpt>
      <trkpt lat="45.53674" lon="3.13506">
        <ele>640.855957</ele>
        <time>2011-05-15T07:20:08Z</time>
      </trkpt>
      <trkpt lat="45.5366" lon="3.13498">
        <ele>643.2592773</ele>
        <time>2011-05-15T07:20:17Z</time>
      </trkpt>
      <trkpt lat="45.53654" lon="3.13494">
        <ele>644.2207031</ele>
        <time>2011-05-15T07:20:21Z</time>
      </trkpt>
      <trkpt lat="45.53641" lon="3.13485">
        <ele>646.1433105</ele>
        <time>2011-05-15T07:20:30Z</time>
      </trkpt>
      <trkpt lat="45.5363" lon="3.13479">
        <ele>647.5852051</ele>
        <time>2011-05-15T07:20:38Z</time>
      </trkpt>
      <trkpt lat="45.5362" lon="3.13471">
        <ele>649.0270996</ele>
        <time>2011-05-15T07:20:45Z</time>
      </trkpt>
      <trkpt lat="45.53608" lon="3.13463">
        <ele>651.4304199</ele>
        <time>2011-05-15T07:20:54Z</time>
      </trkpt>
      <trkpt lat="45.53599" lon="3.13459">
        <ele>652.8725586</ele>
        <time>2011-05-15T07:21:01Z</time>
      </trkpt>
      <trkpt lat="45.53598" lon="3.13459">
        <ele>652.8725586</ele>
        <time>2011-05-15T07:21:03Z</time>
      </trkpt>
      <trkpt lat="45.53591" lon="3.13467">
        <ele>653.3532715</ele>
        <time>2011-05-15T07:21:11Z</time>
      </trkpt>
      <trkpt lat="45.53579" lon="3.13472">
        <ele>653.3532715</ele>
        <time>2011-05-15T07:21:17Z</time>
      </trkpt>
      <trkpt lat="45.53567" lon="3.13466">
        <ele>653.8339844</ele>
        <time>2011-05-15T07:21:22Z</time>
      </trkpt>
      <trkpt lat="45.53565" lon="3.13464">
        <ele>654.3146973</ele>
        <time>2011-05-15T07:21:23Z</time>
      </trkpt>
      <trkpt lat="45.53553" lon="3.13467">
        <ele>654.795166</ele>
        <time>2011-05-15T07:21:29Z</time>
      </trkpt>
      <trkpt lat="45.53535" lon="3.13471">
        <ele>655.7565918</ele>
        <time>2011-05-15T07:21:38Z</time>
      </trkpt>
      <trkpt lat="45.53518" lon="3.13469">
        <ele>656.2370605</ele>
        <time>2011-05-15T07:21:46Z</time>
      </trkpt>
      <trkpt lat="45.535" lon="3.13469">
        <ele>657.6791992</ele>
        <time>2011-05-15T07:21:54Z</time>
      </trkpt>
      <trkpt lat="45.53481" lon="3.13472">
        <ele>658.6403809</ele>
        <time>2011-05-15T07:22:03Z</time>
      </trkpt>
      <trkpt lat="45.53469" lon="3.13471">
        <ele>660.0822754</ele>
        <time>2011-05-15T07:22:10Z</time>
      </trkpt>
      <trkpt lat="45.53463" lon="3.13467">
        <ele>661.5244141</ele>
        <time>2011-05-15T07:22:16Z</time>
      </trkpt>
      <trkpt lat="45.53455" lon="3.1346">
        <ele>663.4470215</ele>
        <time>2011-05-15T07:22:23Z</time>
      </trkpt>
      <trkpt lat="45.53454" lon="3.13458">
        <ele>663.9274902</ele>
        <time>2011-05-15T07:22:25Z</time>
      </trkpt>
      <trkpt lat="45.53462" lon="3.13453">
        <ele>663.4470215</ele>
        <time>2011-05-15T07:22:30Z</time>
      </trkpt>
      <trkpt lat="45.53466" lon="3.1345">
        <ele>663.4470215</ele>
        <time>2011-05-15T07:22:32Z</time>
      </trkpt>
      <trkpt lat="45.53473" lon="3.13426">
        <ele>665.3696289</ele>
        <time>2011-05-15T07:22:40Z</time>
      </trkpt>
      <trkpt lat="45.53479" lon="3.13398">
        <ele>668.2536621</ele>
        <time>2011-05-15T07:22:50Z</time>
      </trkpt>
      <trkpt lat="45.53492" lon="3.13383">
        <ele>668.2536621</ele>
        <time>2011-05-15T07:22:57Z</time>
      </trkpt>
      <trkpt lat="45.53513" lon="3.13364">
        <ele>668.734375</ele>
        <time>2011-05-15T07:23:05Z</time>
      </trkpt>
      <trkpt lat="45.53541" lon="3.13336">
        <ele>665.3696289</ele>
        <time>2011-05-15T07:23:14Z</time>
      </trkpt>
      <trkpt lat="45.53561" lon="3.13318">
        <ele>663.9274902</ele>
        <time>2011-05-15T07:23:19Z</time>
      </trkpt>
      <trkpt lat="45.53585" lon="3.13307">
        <ele>662.005127</ele>
        <time>2011-05-15T07:23:24Z</time>
      </trkpt>
      <trkpt lat="45.53595" lon="3.13293">
        <ele>662.005127</ele>
        <time>2011-05-15T07:23:28Z</time>
      </trkpt>
      <trkpt lat="45.53597" lon="3.13282">
        <ele>663.4470215</ele>
        <time>2011-05-15T07:23:31Z</time>
      </trkpt>
      <trkpt lat="45.53597" lon="3.13275">
        <ele>663.9274902</ele>
        <time>2011-05-15T07:23:33Z</time>
      </trkpt>
      <trkpt lat="45.53598" lon="3.13245">
        <ele>666.8115234</ele>
        <time>2011-05-15T07:23:41Z</time>
      </trkpt>
      <trkpt lat="45.53599" lon="3.1322">
        <ele>667.7727051</ele>
        <time>2011-05-15T07:23:47Z</time>
      </trkpt>
      <trkpt lat="45.53601" lon="3.13193">
        <ele>668.734375</ele>
        <time>2011-05-15T07:23:54Z</time>
      </trkpt>
      <trkpt lat="45.53604" lon="3.13159">
        <ele>669.6958008</ele>
        <time>2011-05-15T07:24:02Z</time>
      </trkpt>
      <trkpt lat="45.53611" lon="3.13128">
        <ele>670.6569824</ele>
        <time>2011-05-15T07:24:09Z</time>
      </trkpt>
      <trkpt lat="45.53622" lon="3.13092">
        <ele>671.1376953</ele>
        <time>2011-05-15T07:24:17Z</time>
      </trkpt>
      <trkpt lat="45.5363" lon="3.13065">
        <ele>672.5795898</ele>
        <time>2011-05-15T07:24:24Z</time>
      </trkpt>
      <trkpt lat="45.5363" lon="3.13043">
        <ele>674.0214844</ele>
        <time>2011-05-15T07:24:30Z</time>
      </trkpt>
      <trkpt lat="45.53622" lon="3.13013">
        <ele>674.5021973</ele>
        <time>2011-05-15T07:24:38Z</time>
      </trkpt>
      <trkpt lat="45.53619" lon="3.12994">
        <ele>674.0214844</ele>
        <time>2011-05-15T07:24:43Z</time>
      </trkpt>
      <trkpt lat="45.53617" lon="3.12969">
        <ele>672.5795898</ele>
        <time>2011-05-15T07:24:49Z</time>
      </trkpt>
      <trkpt lat="45.53616" lon="3.12965">
        <ele>672.5795898</ele>
        <time>2011-05-15T07:24:53Z</time>
      </trkpt>
      <trkpt lat="45.53607" lon="3.12963">
        <ele>675.4633789</ele>
        <time>2011-05-15T07:25:04Z</time>
      </trkpt>
      <trkpt lat="45.53601" lon="3.12962">
        <ele>677.8666992</ele>
        <time>2011-05-15T07:25:12Z</time>
      </trkpt>
      <trkpt lat="45.53594" lon="3.12961">
        <ele>678.828125</ele>
        <time>2011-05-15T07:25:20Z</time>
      </trkpt>
      <trkpt lat="45.53586" lon="3.12962">
        <ele>681.2314453</ele>
        <time>2011-05-15T07:25:28Z</time>
      </trkpt>
      <trkpt lat="45.53578" lon="3.12961">
        <ele>682.192627</ele>
        <time>2011-05-15T07:25:37Z</time>
      </trkpt>
      <trkpt lat="45.53574" lon="3.1296">
        <ele>683.1538086</ele>
        <time>2011-05-15T07:25:43Z</time>
      </trkpt>
      <trkpt lat="45.53562" lon="3.12955">
        <ele>684.1154785</ele>
        <time>2011-05-15T07:25:49Z</time>
      </trkpt>
      <trkpt lat="45.53555" lon="3.12944">
        <ele>685.0769043</ele>
        <time>2011-05-15T07:25:55Z</time>
      </trkpt>
      <trkpt lat="45.53547" lon="3.1293">
        <ele>686.0380859</ele>
        <time>2011-05-15T07:26:01Z</time>
      </trkpt>
      <trkpt lat="45.53541" lon="3.12916">
        <ele>686.5187988</ele>
        <time>2011-05-15T07:26:07Z</time>
      </trkpt>
      <trkpt lat="45.53537" lon="3.12903">
        <ele>688.4414063</ele>
        <time>2011-05-15T07:26:13Z</time>
      </trkpt>
      <trkpt lat="45.53532" lon="3.12893">
        <ele>689.4025879</ele>
        <time>2011-05-15T07:26:18Z</time>
      </trkpt>
      <trkpt lat="45.53525" lon="3.12879">
        <ele>690.8444824</ele>
        <time>2011-05-15T07:26:25Z</time>
      </trkpt>
      <trkpt lat="45.53522" lon="3.12869">
        <ele>692.767334</ele>
        <time>2011-05-15T07:26:30Z</time>
      </trkpt>
      <trkpt lat="45.53515" lon="3.12853">
        <ele>694.2092285</ele>
        <time>2011-05-15T07:26:38Z</time>
      </trkpt>
      <trkpt lat="45.53509" lon="3.12839">
        <ele>695.651123</ele>
        <time>2011-05-15T07:26:44Z</time>
      </trkpt>
      <trkpt lat="45.53503" lon="3.12818">
        <ele>696.6125488</ele>
        <time>2011-05-15T07:26:51Z</time>
      </trkpt>
      <trkpt lat="45.53496" lon="3.12796">
        <ele>697.5737305</ele>
        <time>2011-05-15T07:26:59Z</time>
      </trkpt>
      <trkpt lat="45.53488" lon="3.12773">
        <ele>698.5349121</ele>
        <time>2011-05-15T07:27:07Z</time>
      </trkpt>
      <trkpt lat="45.5348" lon="3.12745">
        <ele>699.4963379</ele>
        <time>2011-05-15T07:27:16Z</time>
      </trkpt>
      <trkpt lat="45.53475" lon="3.12726">
        <ele>701.8999023</ele>
        <time>2011-05-15T07:27:24Z</time>
      </trkpt>
      <trkpt lat="45.5347" lon="3.12716">
        <ele>703.3417969</ele>
        <time>2011-05-15T07:27:29Z</time>
      </trkpt>
      <trkpt lat="45.53466" lon="3.12709">
        <ele>705.2644043</ele>
        <time>2011-05-15T07:27:33Z</time>
      </trkpt>
      <trkpt lat="45.53457" lon="3.12692">
        <ele>707.1870117</ele>
        <time>2011-05-15T07:27:42Z</time>
      </trkpt>
      <trkpt lat="45.53452" lon="3.12676">
        <ele>708.6289063</ele>
        <time>2011-05-15T07:27:49Z</time>
      </trkpt>
      <trkpt lat="45.53445" lon="3.12654">
        <ele>709.590332</ele>
        <time>2011-05-15T07:27:57Z</time>
      </trkpt>
      <trkpt lat="45.53434" lon="3.12627">
        <ele>708.6289063</ele>
        <time>2011-05-15T07:28:05Z</time>
      </trkpt>
      <trkpt lat="45.5343" lon="3.12617">
        <ele>707.6677246</ele>
        <time>2011-05-15T07:28:07Z</time>
      </trkpt>
      <trkpt lat="45.53416" lon="3.12587">
        <ele>707.6677246</ele>
        <time>2011-05-15T07:28:13Z</time>
      </trkpt>
      <trkpt lat="45.53411" lon="3.1257">
        <ele>709.590332</ele>
        <time>2011-05-15T07:28:17Z</time>
      </trkpt>
      <trkpt lat="45.53411" lon="3.12555">
        <ele>709.590332</ele>
        <time>2011-05-15T07:28:22Z</time>
      </trkpt>
      <trkpt lat="45.53423" lon="3.12542">
        <ele>707.6677246</ele>
        <time>2011-05-15T07:28:27Z</time>
      </trkpt>
      <trkpt lat="45.53435" lon="3.1253">
        <ele>706.2255859</ele>
        <time>2011-05-15T07:28:30Z</time>
      </trkpt>
      <trkpt lat="45.53446" lon="3.12519">
        <ele>702.861084</ele>
        <time>2011-05-15T07:28:33Z</time>
      </trkpt>
      <trkpt lat="45.53453" lon="3.12511">
        <ele>702.3803711</ele>
        <time>2011-05-15T07:28:35Z</time>
      </trkpt>
      <trkpt lat="45.53465" lon="3.12499">
        <ele>699.9770508</ele>
        <time>2011-05-15T07:28:38Z</time>
      </trkpt>
      <trkpt lat="45.53475" lon="3.12485">
        <ele>697.0930176</ele>
        <time>2011-05-15T07:28:41Z</time>
      </trkpt>
      <trkpt lat="45.53487" lon="3.12464">
        <ele>693.2478027</ele>
        <time>2011-05-15T07:28:45Z</time>
      </trkpt>
      <trkpt lat="45.53494" lon="3.12444">
        <ele>690.8444824</ele>
        <time>2011-05-15T07:28:49Z</time>
      </trkpt>
      <trkpt lat="45.53501" lon="3.12427">
        <ele>687.4799805</ele>
        <time>2011-05-15T07:28:53Z</time>
      </trkpt>
      <trkpt lat="45.5351" lon="3.12407">
        <ele>684.1154785</ele>
        <time>2011-05-15T07:28:56Z</time>
      </trkpt>
      <trkpt lat="45.53527" lon="3.12371">
        <ele>679.3085938</ele>
        <time>2011-05-15T07:29:01Z</time>
      </trkpt>
      <trkpt lat="45.53538" lon="3.12346">
        <ele>677.8666992</ele>
        <time>2011-05-15T07:29:05Z</time>
      </trkpt>
      <trkpt lat="45.53543" lon="3.12334">
        <ele>676.9055176</ele>
        <time>2011-05-15T07:29:07Z</time>
      </trkpt>
      <trkpt lat="45.53547" lon="3.12323">
        <ele>675.4633789</ele>
        <time>2011-05-15T07:29:09Z</time>
      </trkpt>
      <trkpt lat="45.53566" lon="3.12303">
        <ele>670.6569824</ele>
        <time>2011-05-15T07:29:13Z</time>
      </trkpt>
      <trkpt lat="45.5358" lon="3.12295">
        <ele>669.2150879</ele>
        <time>2011-05-15T07:29:15Z</time>
      </trkpt>
      <trkpt lat="45.53598" lon="3.12281">
        <ele>666.8115234</ele>
        <time>2011-05-15T07:29:18Z</time>
      </trkpt>
      <trkpt lat="45.53614" lon="3.12266">
        <ele>663.4470215</ele>
        <time>2011-05-15T07:29:21Z</time>
      </trkpt>
      <trkpt lat="45.53626" lon="3.12246">
        <ele>661.5244141</ele>
        <time>2011-05-15T07:29:24Z</time>
      </trkpt>
      <trkpt lat="45.53634" lon="3.12227">
        <ele>657.6791992</ele>
        <time>2011-05-15T07:29:26Z</time>
      </trkpt>
      <trkpt lat="45.53644" lon="3.12207">
        <ele>654.795166</ele>
        <time>2011-05-15T07:29:28Z</time>
      </trkpt>
      <trkpt lat="45.53655" lon="3.12188">
        <ele>652.3918457</ele>
        <time>2011-05-15T07:29:30Z</time>
      </trkpt>
      <trkpt lat="45.53673" lon="3.12165">
        <ele>647.5852051</ele>
        <time>2011-05-15T07:29:33Z</time>
      </trkpt>
      <trkpt lat="45.53693" lon="3.12147">
        <ele>645.1818848</ele>
        <time>2011-05-15T07:29:36Z</time>
      </trkpt>
      <trkpt lat="45.53712" lon="3.12128">
        <ele>641.8173828</ele>
        <time>2011-05-15T07:29:39Z</time>
      </trkpt>
      <trkpt lat="45.53732" lon="3.12106">
        <ele>637.4914551</ele>
        <time>2011-05-15T07:29:42Z</time>
      </trkpt>
      <trkpt lat="45.53753" lon="3.12083">
        <ele>634.126709</ele>
        <time>2011-05-15T07:29:45Z</time>
      </trkpt>
      <trkpt lat="45.53775" lon="3.1206">
        <ele>631.2429199</ele>
        <time>2011-05-15T07:29:48Z</time>
      </trkpt>
      <trkpt lat="45.53801" lon="3.12031">
        <ele>627.3977051</ele>
        <time>2011-05-15T07:29:52Z</time>
      </trkpt>
      <trkpt lat="45.53814" lon="3.12015">
        <ele>624.5136719</ele>
        <time>2011-05-15T07:29:54Z</time>
      </trkpt>
      <trkpt lat="45.53841" lon="3.11984">
        <ele>621.1491699</ele>
        <time>2011-05-15T07:29:58Z</time>
      </trkpt>
      <trkpt lat="45.53859" lon="3.11963">
        <ele>619.2263184</ele>
        <time>2011-05-15T07:30:01Z</time>
      </trkpt>
      <trkpt lat="45.53863" lon="3.11958">
        <ele>618.7456055</ele>
        <time>2011-05-15T07:30:02Z</time>
      </trkpt>
      <trkpt lat="45.53871" lon="3.1193">
        <ele>617.7841797</ele>
        <time>2011-05-15T07:30:07Z</time>
      </trkpt>
      <trkpt lat="45.53869" lon="3.11925">
        <ele>618.2648926</ele>
        <time>2011-05-15T07:30:08Z</time>
      </trkpt>
      <trkpt lat="45.53861" lon="3.11908">
        <ele>618.2648926</ele>
        <time>2011-05-15T07:30:13Z</time>
      </trkpt>
      <trkpt lat="45.53848" lon="3.11887">
        <ele>618.7456055</ele>
        <time>2011-05-15T07:30:19Z</time>
      </trkpt>
      <trkpt lat="45.53832" lon="3.1188">
        <ele>619.7070313</ele>
        <time>2011-05-15T07:30:24Z</time>
      </trkpt>
      <trkpt lat="45.53816" lon="3.11875">
        <ele>619.7070313</ele>
        <time>2011-05-15T07:30:29Z</time>
      </trkpt>
      <trkpt lat="45.5379" lon="3.11868">
        <ele>622.1103516</ele>
        <time>2011-05-15T07:30:37Z</time>
      </trkpt>
      <trkpt lat="45.53779" lon="3.11866">
        <ele>622.5910645</ele>
        <time>2011-05-15T07:30:41Z</time>
      </trkpt>
      <trkpt lat="45.53774" lon="3.11865">
        <ele>623.5524902</ele>
        <time>2011-05-15T07:30:43Z</time>
      </trkpt>
      <trkpt lat="45.53759" lon="3.11855">
        <ele>624.9943848</ele>
        <time>2011-05-15T07:30:50Z</time>
      </trkpt>
      <trkpt lat="45.53748" lon="3.11844">
        <ele>625.4748535</ele>
        <time>2011-05-15T07:30:55Z</time>
      </trkpt>
      <trkpt lat="45.53726" lon="3.1182">
        <ele>624.9943848</ele>
        <time>2011-05-15T07:31:04Z</time>
      </trkpt>
      <trkpt lat="45.53702" lon="3.11794">
        <ele>625.9555664</ele>
        <time>2011-05-15T07:31:14Z</time>
      </trkpt>
      <trkpt lat="45.53681" lon="3.11771">
        <ele>626.4362793</ele>
        <time>2011-05-15T07:31:23Z</time>
      </trkpt>
      <trkpt lat="45.53664" lon="3.11753">
        <ele>627.8781738</ele>
        <time>2011-05-15T07:31:31Z</time>
      </trkpt>
      <trkpt lat="45.53659" lon="3.11748">
        <ele>629.3200684</ele>
        <time>2011-05-15T07:31:34Z</time>
      </trkpt>
      <trkpt lat="45.53648" lon="3.11737">
        <ele>631.2429199</ele>
        <time>2011-05-15T07:31:41Z</time>
      </trkpt>
      <trkpt lat="45.53626" lon="3.11717">
        <ele>633.1652832</ele>
        <time>2011-05-15T07:31:53Z</time>
      </trkpt>
      <trkpt lat="45.53615" lon="3.11706">
        <ele>635.5686035</ele>
        <time>2011-05-15T07:32:00Z</time>
      </trkpt>
      <trkpt lat="45.53597" lon="3.11689">
        <ele>637.4914551</ele>
        <time>2011-05-15T07:32:10Z</time>
      </trkpt>
      <trkpt lat="45.53582" lon="3.11677">
        <ele>637.972168</ele>
        <time>2011-05-15T07:32:19Z</time>
      </trkpt>
      <trkpt lat="45.53573" lon="3.11669">
        <ele>638.9335938</ele>
        <time>2011-05-15T07:32:26Z</time>
      </trkpt>
      <trkpt lat="45.53563" lon="3.11659">
        <ele>640.3754883</ele>
        <time>2011-05-15T07:32:34Z</time>
      </trkpt>
      <trkpt lat="45.53561" lon="3.11659">
        <ele>640.3754883</ele>
        <time>2011-05-15T07:32:38Z</time>
      </trkpt>
      <trkpt lat="45.53558" lon="3.11654">
        <ele>640.855957</ele>
        <time>2011-05-15T07:32:45Z</time>
      </trkpt>
      <trkpt lat="45.53549" lon="3.11646">
        <ele>641.8173828</ele>
        <time>2011-05-15T07:32:54Z</time>
      </trkpt>
      <trkpt lat="45.53541" lon="3.11638">
        <ele>642.2980957</ele>
        <time>2011-05-15T07:33:03Z</time>
      </trkpt>
      <trkpt lat="45.53535" lon="3.11631">
        <ele>643.7399902</ele>
        <time>2011-05-15T07:33:11Z</time>
      </trkpt>
      <trkpt lat="45.53528" lon="3.11622">
        <ele>644.7011719</ele>
        <time>2011-05-15T07:33:19Z</time>
      </trkpt>
      <trkpt lat="45.53525" lon="3.11618">
        <ele>645.6625977</ele>
        <time>2011-05-15T07:33:25Z</time>
      </trkpt>
      <trkpt lat="45.53521" lon="3.11613">
        <ele>645.1818848</ele>
        <time>2011-05-15T07:33:32Z</time>
      </trkpt>
      <trkpt lat="45.53513" lon="3.11603">
        <ele>646.6240234</ele>
        <time>2011-05-15T07:33:41Z</time>
      </trkpt>
      <trkpt lat="45.53507" lon="3.11596">
        <ele>646.6240234</ele>
        <time>2011-05-15T07:33:49Z</time>
      </trkpt>
      <trkpt lat="45.53503" lon="3.11592">
        <ele>647.1044922</ele>
        <time>2011-05-15T07:33:55Z</time>
      </trkpt>
      <trkpt lat="45.53494" lon="3.11582">
        <ele>647.1044922</ele>
        <time>2011-05-15T07:34:02Z</time>
      </trkpt>
      <trkpt lat="45.53484" lon="3.11571">
        <ele>647.5852051</ele>
        <time>2011-05-15T07:34:08Z</time>
      </trkpt>
      <trkpt lat="45.53469" lon="3.11552">
        <ele>647.5852051</ele>
        <time>2011-05-15T07:34:17Z</time>
      </trkpt>
      <trkpt lat="45.53459" lon="3.11542">
        <ele>647.5852051</ele>
        <time>2011-05-15T07:34:23Z</time>
      </trkpt>
      <trkpt lat="45.53448" lon="3.11534">
        <ele>647.1044922</ele>
        <time>2011-05-15T07:34:29Z</time>
      </trkpt>
      <trkpt lat="45.53437" lon="3.11524">
        <ele>646.6240234</ele>
        <time>2011-05-15T07:34:36Z</time>
      </trkpt>
      <trkpt lat="45.53429" lon="3.11516">
        <ele>647.1044922</ele>
        <time>2011-05-15T07:34:39Z</time>
      </trkpt>
      <trkpt lat="45.53412" lon="3.11499">
        <ele>649.0270996</ele>
        <time>2011-05-15T07:34:47Z</time>
      </trkpt>
      <trkpt lat="45.534" lon="3.11486">
        <ele>649.5078125</ele>
        <time>2011-05-15T07:34:53Z</time>
      </trkpt>
      <trkpt lat="45.53389" lon="3.11475">
        <ele>649.9885254</ele>
        <time>2011-05-15T07:34:59Z</time>
      </trkpt>
      <trkpt lat="45.53378" lon="3.11462">
        <ele>651.4304199</ele>
        <time>2011-05-15T07:35:05Z</time>
      </trkpt>
      <trkpt lat="45.53366" lon="3.1145">
        <ele>652.3918457</ele>
        <time>2011-05-15T07:35:12Z</time>
      </trkpt>
      <trkpt lat="45.53351" lon="3.11434">
        <ele>653.3532715</ele>
        <time>2011-05-15T07:35:20Z</time>
      </trkpt>
      <trkpt lat="45.53348" lon="3.11431">
        <ele>653.8339844</ele>
        <time>2011-05-15T07:35:22Z</time>
      </trkpt>
      <trkpt lat="45.5334" lon="3.11428">
        <ele>655.7565918</ele>
        <time>2011-05-15T07:35:26Z</time>
      </trkpt>
      <trkpt lat="45.53333" lon="3.11423">
        <ele>656.7177734</ele>
        <time>2011-05-15T07:35:31Z</time>
      </trkpt>
      <trkpt lat="45.53322" lon="3.11411">
        <ele>658.1599121</ele>
        <time>2011-05-15T07:35:40Z</time>
      </trkpt>
      <trkpt lat="45.53309" lon="3.11399">
        <ele>660.5629883</ele>
        <time>2011-05-15T07:35:50Z</time>
      </trkpt>
      <trkpt lat="45.53303" lon="3.11395">
        <ele>661.0437012</ele>
        <time>2011-05-15T07:35:54Z</time>
      </trkpt>
      <trkpt lat="45.53295" lon="3.11389">
        <ele>661.5244141</ele>
        <time>2011-05-15T07:35:59Z</time>
      </trkpt>
      <trkpt lat="45.53282" lon="3.11378">
        <ele>662.9663086</ele>
        <time>2011-05-15T07:36:08Z</time>
      </trkpt>
      <trkpt lat="45.53271" lon="3.11366">
        <ele>665.3696289</ele>
        <time>2011-05-15T07:36:16Z</time>
      </trkpt>
      <trkpt lat="45.53258" lon="3.11356">
        <ele>666.3308105</ele>
        <time>2011-05-15T07:36:25Z</time>
      </trkpt>
      <trkpt lat="45.5325" lon="3.11347">
        <ele>666.8115234</ele>
        <time>2011-05-15T07:36:31Z</time>
      </trkpt>
      <trkpt lat="45.53236" lon="3.11335">
        <ele>668.2536621</ele>
        <time>2011-05-15T07:36:40Z</time>
      </trkpt>
      <trkpt lat="45.53228" lon="3.11327">
        <ele>669.2150879</ele>
        <time>2011-05-15T07:36:46Z</time>
      </trkpt>
      <trkpt lat="45.53219" lon="3.11319">
        <ele>670.6569824</ele>
        <time>2011-05-15T07:36:53Z</time>
      </trkpt>
      <trkpt lat="45.53217" lon="3.11316">
        <ele>671.6181641</ele>
        <time>2011-05-15T07:36:56Z</time>
      </trkpt>
      <trkpt lat="45.53213" lon="3.11314">
        <ele>673.0603027</ele>
        <time>2011-05-15T07:37:03Z</time>
      </trkpt>
      <trkpt lat="45.5321" lon="3.11312">
        <ele>674.0214844</ele>
        <time>2011-05-15T07:37:11Z</time>
      </trkpt>
      <trkpt lat="45.53204" lon="3.11307">
        <ele>675.4633789</ele>
        <time>2011-05-15T07:37:18Z</time>
      </trkpt>
      <trkpt lat="45.53198" lon="3.11301">
        <ele>676.9055176</ele>
        <time>2011-05-15T07:37:27Z</time>
      </trkpt>
      <trkpt lat="45.53198" lon="3.113">
        <ele>676.4248047</ele>
        <time>2011-05-15T07:37:38Z</time>
      </trkpt>
      <trkpt lat="45.53198" lon="3.11301">
        <ele>676.4248047</ele>
        <time>2011-05-15T07:37:46Z</time>
      </trkpt>
      <trkpt lat="45.53198" lon="3.11301">
        <ele>675.9440918</ele>
        <time>2011-05-15T07:37:53Z</time>
      </trkpt>
      <trkpt lat="45.53198" lon="3.11301">
        <ele>675.9440918</ele>
        <time>2011-05-15T07:37:58Z</time>
      </trkpt>
      <trkpt lat="45.53193" lon="3.11298">
        <ele>676.9055176</ele>
        <time>2011-05-15T07:38:04Z</time>
      </trkpt>
      <trkpt lat="45.53185" lon="3.11292">
        <ele>678.828125</ele>
        <time>2011-05-15T07:38:11Z</time>
      </trkpt>
      <trkpt lat="45.53184" lon="3.11288">
        <ele>679.3085938</ele>
        <time>2011-05-15T07:38:18Z</time>
      </trkpt>
      <trkpt lat="45.53185" lon="3.11287">
        <ele>679.3085938</ele>
        <time>2011-05-15T07:38:28Z</time>
      </trkpt>
      <trkpt lat="45.53182" lon="3.11282">
        <ele>679.7893066</ele>
        <time>2011-05-15T07:38:41Z</time>
      </trkpt>
      <trkpt lat="45.53177" lon="3.11274">
        <ele>681.2314453</ele>
        <time>2011-05-15T07:38:49Z</time>
      </trkpt>
      <trkpt lat="45.53175" lon="3.1127">
        <ele>680.7507324</ele>
        <time>2011-05-15T07:38:58Z</time>
      </trkpt>
      <trkpt lat="45.5317" lon="3.1126">
        <ele>681.7119141</ele>
        <time>2011-05-15T07:39:04Z</time>
      </trkpt>
      <trkpt lat="45.53168" lon="3.11255">
        <ele>681.7119141</ele>
        <time>2011-05-15T07:39:09Z</time>
      </trkpt>
      <trkpt lat="45.53168" lon="3.11255">
        <ele>682.192627</ele>
        <time>2011-05-15T07:39:29Z</time>
      </trkpt>
      <trkpt lat="45.53168" lon="3.11254">
        <ele>681.7119141</ele>
        <time>2011-05-15T07:39:31Z</time>
      </trkpt>
      <trkpt lat="45.53161" lon="3.11242">
        <ele>682.192627</ele>
        <time>2011-05-15T07:39:38Z</time>
      </trkpt>
      <trkpt lat="45.53149" lon="3.11221">
        <ele>683.1538086</ele>
        <time>2011-05-15T07:39:47Z</time>
      </trkpt>
      <trkpt lat="45.53142" lon="3.11207">
        <ele>684.1154785</ele>
        <time>2011-05-15T07:39:53Z</time>
      </trkpt>
      <trkpt lat="45.53135" lon="3.11194">
        <ele>685.0769043</ele>
        <time>2011-05-15T07:39:58Z</time>
      </trkpt>
      <trkpt lat="45.53121" lon="3.11172">
        <ele>686.0380859</ele>
        <time>2011-05-15T07:40:06Z</time>
      </trkpt>
      <trkpt lat="45.5311" lon="3.11149">
        <ele>686.0380859</ele>
        <time>2011-05-15T07:40:13Z</time>
      </trkpt>
      <trkpt lat="45.53095" lon="3.1112">
        <ele>687.4799805</ele>
        <time>2011-05-15T07:40:21Z</time>
      </trkpt>
      <trkpt lat="45.53081" lon="3.1109">
        <ele>687.9606934</ele>
        <time>2011-05-15T07:40:29Z</time>
      </trkpt>
      <trkpt lat="45.53074" lon="3.11077">
        <ele>687.9606934</ele>
        <time>2011-05-15T07:40:34Z</time>
      </trkpt>
      <trkpt lat="45.5306" lon="3.11051">
        <ele>688.9221191</ele>
        <time>2011-05-15T07:40:42Z</time>
      </trkpt>
      <trkpt lat="45.53048" lon="3.11026">
        <ele>688.9221191</ele>
        <time>2011-05-15T07:40:49Z</time>
      </trkpt>
      <trkpt lat="45.53035" lon="3.11004">
        <ele>689.8833008</ele>
        <time>2011-05-15T07:40:56Z</time>
      </trkpt>
      <trkpt lat="45.53028" lon="3.10997">
        <ele>690.3640137</ele>
        <time>2011-05-15T07:41:00Z</time>
      </trkpt>
      <trkpt lat="45.53009" lon="3.11003">
        <ele>692.2866211</ele>
        <time>2011-05-15T07:41:09Z</time>
      </trkpt>
      <trkpt lat="45.52994" lon="3.1101">
        <ele>694.6896973</ele>
        <time>2011-05-15T07:41:17Z</time>
      </trkpt>
      <trkpt lat="45.52979" lon="3.11016">
        <ele>696.1318359</ele>
        <time>2011-05-15T07:41:24Z</time>
      </trkpt>
      <trkpt lat="45.52967" lon="3.11011">
        <ele>696.6125488</ele>
        <time>2011-05-15T07:41:29Z</time>
      </trkpt>
      <trkpt lat="45.52961" lon="3.11001">
        <ele>697.5737305</ele>
        <time>2011-05-15T07:41:33Z</time>
      </trkpt>
      <trkpt lat="45.52947" lon="3.10987">
        <ele>699.015625</ele>
        <time>2011-05-15T07:41:40Z</time>
      </trkpt>
      <trkpt lat="45.52935" lon="3.10989">
        <ele>699.9770508</ele>
        <time>2011-05-15T07:41:46Z</time>
      </trkpt>
      <trkpt lat="45.52923" lon="3.10994">
        <ele>701.4191895</ele>
        <time>2011-05-15T07:41:52Z</time>
      </trkpt>
      <trkpt lat="45.52922" lon="3.10995">
        <ele>702.3803711</ele>
        <time>2011-05-15T07:41:53Z</time>
      </trkpt>
      <trkpt lat="45.52911" lon="3.10991">
        <ele>704.3032227</ele>
        <time>2011-05-15T07:42:00Z</time>
      </trkpt>
      <trkpt lat="45.52902" lon="3.1098">
        <ele>706.7062988</ele>
        <time>2011-05-15T07:42:08Z</time>
      </trkpt>
      <trkpt lat="45.52894" lon="3.10969">
        <ele>709.1096191</ele>
        <time>2011-05-15T07:42:14Z</time>
      </trkpt>
      <trkpt lat="45.52893" lon="3.10967">
        <ele>709.1096191</ele>
        <time>2011-05-15T07:42:15Z</time>
      </trkpt>
      <trkpt lat="45.52889" lon="3.10961">
        <ele>710.5515137</ele>
        <time>2011-05-15T07:42:18Z</time>
      </trkpt>
      <trkpt lat="45.52881" lon="3.10944">
        <ele>711.9936523</ele>
        <time>2011-05-15T07:42:26Z</time>
      </trkpt>
      <trkpt lat="45.52871" lon="3.10923">
        <ele>711.5129395</ele>
        <time>2011-05-15T07:42:33Z</time>
      </trkpt>
      <trkpt lat="45.52858" lon="3.109">
        <ele>710.0708008</ele>
        <time>2011-05-15T07:42:38Z</time>
      </trkpt>
      <trkpt lat="45.52837" lon="3.10864">
        <ele>708.6289063</ele>
        <time>2011-05-15T07:42:46Z</time>
      </trkpt>
      <trkpt lat="45.52835" lon="3.10859">
        <ele>707.6677246</ele>
        <time>2011-05-15T07:42:47Z</time>
      </trkpt>
      <trkpt lat="45.52826" lon="3.10844">
        <ele>707.6677246</ele>
        <time>2011-05-15T07:42:50Z</time>
      </trkpt>
      <trkpt lat="45.52803" lon="3.10805">
        <ele>705.7451172</ele>
        <time>2011-05-15T07:42:56Z</time>
      </trkpt>
      <trkpt lat="45.52795" lon="3.10787">
        <ele>707.6677246</ele>
        <time>2011-05-15T07:43:00Z</time>
      </trkpt>
      <trkpt lat="45.52786" lon="3.10768">
        <ele>708.1484375</ele>
        <time>2011-05-15T07:43:06Z</time>
      </trkpt>
      <trkpt lat="45.52774" lon="3.10746">
        <ele>708.1484375</ele>
        <time>2011-05-15T07:43:12Z</time>
      </trkpt>
      <trkpt lat="45.5276" lon="3.10716">
        <ele>708.6289063</ele>
        <time>2011-05-15T07:43:19Z</time>
      </trkpt>
      <trkpt lat="45.5275" lon="3.10683">
        <ele>710.0708008</ele>
        <time>2011-05-15T07:43:27Z</time>
      </trkpt>
      <trkpt lat="45.52741" lon="3.10655">
        <ele>711.9936523</ele>
        <time>2011-05-15T07:43:34Z</time>
      </trkpt>
      <trkpt lat="45.5273" lon="3.10619">
        <ele>712.4741211</ele>
        <time>2011-05-15T07:43:42Z</time>
      </trkpt>
      <trkpt lat="45.52716" lon="3.10587">
        <ele>714.3967285</ele>
        <time>2011-05-15T07:43:50Z</time>
      </trkpt>
      <trkpt lat="45.52697" lon="3.10555">
        <ele>715.3581543</ele>
        <time>2011-05-15T07:43:59Z</time>
      </trkpt>
      <trkpt lat="45.5268" lon="3.10525">
        <ele>714.3967285</ele>
        <time>2011-05-15T07:44:06Z</time>
      </trkpt>
      <trkpt lat="45.52664" lon="3.10492">
        <ele>714.8774414</ele>
        <time>2011-05-15T07:44:13Z</time>
      </trkpt>
      <trkpt lat="45.52646" lon="3.1046">
        <ele>714.8774414</ele>
        <time>2011-05-15T07:44:21Z</time>
      </trkpt>
      <trkpt lat="45.52631" lon="3.10431">
        <ele>715.3581543</ele>
        <time>2011-05-15T07:44:28Z</time>
      </trkpt>
      <trkpt lat="45.52614" lon="3.10401">
        <ele>713.9160156</ele>
        <time>2011-05-15T07:44:34Z</time>
      </trkpt>
      <trkpt lat="45.52599" lon="3.1037">
        <ele>714.3967285</ele>
        <time>2011-05-15T07:44:40Z</time>
      </trkpt>
      <trkpt lat="45.52584" lon="3.10337">
        <ele>716.3195801</ele>
        <time>2011-05-15T07:44:47Z</time>
      </trkpt>
      <trkpt lat="45.52582" lon="3.10334">
        <ele>716.3195801</ele>
        <time>2011-05-15T07:44:48Z</time>
      </trkpt>
      <trkpt lat="45.52579" lon="3.10328">
        <ele>716.3195801</ele>
        <time>2011-05-15T07:44:50Z</time>
      </trkpt>
      <trkpt lat="45.52583" lon="3.10307">
        <ele>714.3967285</ele>
        <time>2011-05-15T07:44:55Z</time>
      </trkpt>
      <trkpt lat="45.52588" lon="3.10295">
        <ele>712.954834</ele>
        <time>2011-05-15T07:44:57Z</time>
      </trkpt>
      <trkpt lat="45.52599" lon="3.10271">
        <ele>711.5129395</ele>
        <time>2011-05-15T07:45:01Z</time>
      </trkpt>
      <trkpt lat="45.52609" lon="3.10249">
        <ele>710.0708008</ele>
        <time>2011-05-15T07:45:04Z</time>
      </trkpt>
      <trkpt lat="45.52612" lon="3.1024">
        <ele>708.6289063</ele>
        <time>2011-05-15T07:45:05Z</time>
      </trkpt>
      <trkpt lat="45.52623" lon="3.10215">
        <ele>706.2255859</ele>
        <time>2011-05-15T07:45:08Z</time>
      </trkpt>
      <trkpt lat="45.52632" lon="3.10198">
        <ele>703.3417969</ele>
        <time>2011-05-15T07:45:10Z</time>
      </trkpt>
      <trkpt lat="45.52636" lon="3.1019">
        <ele>701.8999023</ele>
        <time>2011-05-15T07:45:11Z</time>
      </trkpt>
      <trkpt lat="45.5265" lon="3.10165">
        <ele>698.0544434</ele>
        <time>2011-05-15T07:45:14Z</time>
      </trkpt>
      <trkpt lat="45.52665" lon="3.1014">
        <ele>694.6896973</ele>
        <time>2011-05-15T07:45:17Z</time>
      </trkpt>
      <trkpt lat="45.52679" lon="3.10112">
        <ele>690.8444824</ele>
        <time>2011-05-15T07:45:20Z</time>
      </trkpt>
      <trkpt lat="45.5269" lon="3.10091">
        <ele>686.5187988</ele>
        <time>2011-05-15T07:45:22Z</time>
      </trkpt>
      <trkpt lat="45.52707" lon="3.10055">
        <ele>682.192627</ele>
        <time>2011-05-15T07:45:25Z</time>
      </trkpt>
      <trkpt lat="45.52718" lon="3.1003">
        <ele>681.7119141</ele>
        <time>2011-05-15T07:45:27Z</time>
      </trkpt>
      <trkpt lat="45.52732" lon="3.09999">
        <ele>685.0769043</ele>
        <time>2011-05-15T07:45:30Z</time>
      </trkpt>
      <trkpt lat="45.52737" lon="3.09974">
        <ele>688.4414063</ele>
        <time>2011-05-15T07:45:34Z</time>
      </trkpt>
      <trkpt lat="45.52737" lon="3.0997">
        <ele>688.4414063</ele>
        <time>2011-05-15T07:45:35Z</time>
      </trkpt>
      <trkpt lat="45.52738" lon="3.0996">
        <ele>690.3640137</ele>
        <time>2011-05-15T07:45:38Z</time>
      </trkpt>
      <trkpt lat="45.52741" lon="3.09942">
        <ele>691.8059082</ele>
        <time>2011-05-15T07:45:45Z</time>
      </trkpt>
      <trkpt lat="45.52741" lon="3.09929">
        <ele>693.2478027</ele>
        <time>2011-05-15T07:45:50Z</time>
      </trkpt>
      <trkpt lat="45.52743" lon="3.09916">
        <ele>694.6896973</ele>
        <time>2011-05-15T07:45:55Z</time>
      </trkpt>
      <trkpt lat="45.52744" lon="3.09913">
        <ele>695.1704102</ele>
        <time>2011-05-15T07:45:56Z</time>
      </trkpt>
      <trkpt lat="45.52746" lon="3.099">
        <ele>696.1318359</ele>
        <time>2011-05-15T07:46:01Z</time>
      </trkpt>
      <trkpt lat="45.52747" lon="3.0989">
        <ele>697.5737305</ele>
        <time>2011-05-15T07:46:05Z</time>
      </trkpt>
      <trkpt lat="45.5275" lon="3.09871">
        <ele>699.015625</ele>
        <time>2011-05-15T07:46:12Z</time>
      </trkpt>
      <trkpt lat="45.52754" lon="3.09845">
        <ele>701.8999023</ele>
        <time>2011-05-15T07:46:22Z</time>
      </trkpt>
      <trkpt lat="45.5276" lon="3.09828">
        <ele>703.3417969</ele>
        <time>2011-05-15T07:46:30Z</time>
      </trkpt>
      <trkpt lat="45.5276" lon="3.09812">
        <ele>704.7836914</ele>
        <time>2011-05-15T07:46:38Z</time>
      </trkpt>
      <trkpt lat="45.52761" lon="3.09812">
        <ele>704.7836914</ele>
        <time>2011-05-15T07:46:48Z</time>
      </trkpt>
      <trkpt lat="45.52761" lon="3.09812">
        <ele>704.7836914</ele>
        <time>2011-05-15T07:46:54Z</time>
      </trkpt>
      <trkpt lat="45.52761" lon="3.09812">
        <ele>704.3032227</ele>
        <time>2011-05-15T07:47:04Z</time>
      </trkpt>
      <trkpt lat="45.52761" lon="3.09811">
        <ele>704.3032227</ele>
        <time>2011-05-15T07:47:09Z</time>
      </trkpt>
      <trkpt lat="45.52761" lon="3.09812">
        <ele>704.3032227</ele>
        <time>2011-05-15T07:47:19Z</time>
      </trkpt>
      <trkpt lat="45.5276" lon="3.09812">
        <ele>703.8225098</ele>
        <time>2011-05-15T07:47:27Z</time>
      </trkpt>
      <trkpt lat="45.5276" lon="3.09812">
        <ele>704.3032227</ele>
        <time>2011-05-15T07:47:30Z</time>
      </trkpt>
      <trkpt lat="45.5276" lon="3.09812">
        <ele>703.8225098</ele>
        <time>2011-05-15T07:47:31Z</time>
      </trkpt>
      <trkpt lat="45.5276" lon="3.09811">
        <ele>703.8225098</ele>
        <time>2011-05-15T07:47:36Z</time>
      </trkpt>
      <trkpt lat="45.52758" lon="3.09806">
        <ele>704.3032227</ele>
        <time>2011-05-15T07:47:41Z</time>
      </trkpt>
      <trkpt lat="45.52757" lon="3.098">
        <ele>705.7451172</ele>
        <time>2011-05-15T07:47:44Z</time>
      </trkpt>
      <trkpt lat="45.52757" lon="3.09784">
        <ele>706.7062988</ele>
        <time>2011-05-15T07:47:52Z</time>
      </trkpt>
      <trkpt lat="45.5276" lon="3.09775">
        <ele>707.6677246</ele>
        <time>2011-05-15T07:47:56Z</time>
      </trkpt>
      <trkpt lat="45.5276" lon="3.09773">
        <ele>707.6677246</ele>
        <time>2011-05-15T07:47:57Z</time>
      </trkpt>
      <trkpt lat="45.52761" lon="3.09771">
        <ele>707.1870117</ele>
        <time>2011-05-15T07:47:58Z</time>
      </trkpt>
      <trkpt lat="45.52766" lon="3.09758">
        <ele>708.6289063</ele>
        <time>2011-05-15T07:48:04Z</time>
      </trkpt>
      <trkpt lat="45.52776" lon="3.09743">
        <ele>711.0322266</ele>
        <time>2011-05-15T07:48:12Z</time>
      </trkpt>
      <trkpt lat="45.52786" lon="3.09735">
        <ele>712.954834</ele>
        <time>2011-05-15T07:48:19Z</time>
      </trkpt>
      <trkpt lat="45.52798" lon="3.09732">
        <ele>713.9160156</ele>
        <time>2011-05-15T07:48:26Z</time>
      </trkpt>
      <trkpt lat="45.52812" lon="3.0973">
        <ele>716.3195801</ele>
        <time>2011-05-15T07:48:34Z</time>
      </trkpt>
      <trkpt lat="45.52823" lon="3.09728">
        <ele>717.7614746</ele>
        <time>2011-05-15T07:48:41Z</time>
      </trkpt>
      <trkpt lat="45.52828" lon="3.09727">
        <ele>719.2036133</ele>
        <time>2011-05-15T07:48:44Z</time>
      </trkpt>
      <trkpt lat="45.52841" lon="3.09728">
        <ele>721.6066895</ele>
        <time>2011-05-15T07:48:52Z</time>
      </trkpt>
      <trkpt lat="45.52853" lon="3.09734">
        <ele>723.529541</ele>
        <time>2011-05-15T07:49:00Z</time>
      </trkpt>
      <trkpt lat="45.52859" lon="3.09734">
        <ele>724.4907227</ele>
        <time>2011-05-15T07:49:04Z</time>
      </trkpt>
      <trkpt lat="45.5287" lon="3.0973">
        <ele>725.4519043</ele>
        <time>2011-05-15T07:49:12Z</time>
      </trkpt>
      <trkpt lat="45.52875" lon="3.09722">
        <ele>726.4133301</ele>
        <time>2011-05-15T07:49:17Z</time>
      </trkpt>
      <trkpt lat="45.52876" lon="3.09711">
        <ele>727.8552246</ele>
        <time>2011-05-15T07:49:23Z</time>
      </trkpt>
      <trkpt lat="45.52872" lon="3.09696">
        <ele>730.2585449</ele>
        <time>2011-05-15T07:49:31Z</time>
      </trkpt>
      <trkpt lat="45.52866" lon="3.09683">
        <ele>731.2199707</ele>
        <time>2011-05-15T07:49:38Z</time>
      </trkpt>
      <trkpt lat="45.52863" lon="3.09676">
        <ele>731.7004395</ele>
        <time>2011-05-15T07:49:42Z</time>
      </trkpt>
      <trkpt lat="45.52858" lon="3.09655">
        <ele>734.1040039</ele>
        <time>2011-05-15T07:49:52Z</time>
      </trkpt>
      <trkpt lat="45.52855" lon="3.09641">
        <ele>736.0266113</ele>
        <time>2011-05-15T07:49:59Z</time>
      </trkpt>
      <trkpt lat="45.52854" lon="3.09621">
        <ele>737.9492188</ele>
        <time>2011-05-15T07:50:08Z</time>
      </trkpt>
      <trkpt lat="45.52855" lon="3.09605">
        <ele>739.3911133</ele>
        <time>2011-05-15T07:50:15Z</time>
      </trkpt>
      <trkpt lat="45.52858" lon="3.09593">
        <ele>741.3137207</ele>
        <time>2011-05-15T07:50:21Z</time>
      </trkpt>
      <trkpt lat="45.5287" lon="3.09587">
        <ele>742.7558594</ele>
        <time>2011-05-15T07:50:29Z</time>
      </trkpt>
      <trkpt lat="45.52877" lon="3.09584">
        <ele>744.6782227</ele>
        <time>2011-05-15T07:50:34Z</time>
      </trkpt>
      <trkpt lat="45.5288" lon="3.09578">
        <ele>746.1203613</ele>
        <time>2011-05-15T07:50:38Z</time>
      </trkpt>
      <trkpt lat="45.52892" lon="3.09572">
        <ele>748.5236816</ele>
        <time>2011-05-15T07:50:46Z</time>
      </trkpt>
      <trkpt lat="45.52904" lon="3.09564">
        <ele>751.8884277</ele>
        <time>2011-05-15T07:50:54Z</time>
      </trkpt>
      <trkpt lat="45.52911" lon="3.09574">
        <ele>752.8496094</ele>
        <time>2011-05-15T07:51:00Z</time>
      </trkpt>
      <trkpt lat="45.52921" lon="3.09597">
        <ele>754.7722168</ele>
        <time>2011-05-15T07:51:11Z</time>
      </trkpt>
      <trkpt lat="45.52934" lon="3.09607">
        <ele>755.7336426</ele>
        <time>2011-05-15T07:51:18Z</time>
      </trkpt>
      <trkpt lat="45.52947" lon="3.09614">
        <ele>756.6948242</ele>
        <time>2011-05-15T07:51:25Z</time>
      </trkpt>
      <trkpt lat="45.52961" lon="3.09621">
        <ele>758.1369629</ele>
        <time>2011-05-15T07:51:32Z</time>
      </trkpt>
      <trkpt lat="45.52975" lon="3.09631">
        <ele>758.6174316</ele>
        <time>2011-05-15T07:51:40Z</time>
      </trkpt>
      <trkpt lat="45.52985" lon="3.09639">
        <ele>759.5788574</ele>
        <time>2011-05-15T07:51:46Z</time>
      </trkpt>
      <trkpt lat="45.52999" lon="3.0965">
        <ele>760.5400391</ele>
        <time>2011-05-15T07:51:54Z</time>
      </trkpt>
      <trkpt lat="45.53002" lon="3.09653">
        <ele>761.020752</ele>
        <time>2011-05-15T07:51:56Z</time>
      </trkpt>
      <trkpt lat="45.53003" lon="3.09655">
        <ele>760.5400391</ele>
        <time>2011-05-15T07:52:02Z</time>
      </trkpt>
      <trkpt lat="45.53004" lon="3.09656">
        <ele>760.5400391</ele>
        <time>2011-05-15T07:52:14Z</time>
      </trkpt>
      <trkpt lat="45.53004" lon="3.09656">
        <ele>760.5400391</ele>
        <time>2011-05-15T07:52:18Z</time>
      </trkpt>
      <trkpt lat="45.53004" lon="3.09656">
        <ele>761.020752</ele>
        <time>2011-05-15T07:52:20Z</time>
      </trkpt>
      <trkpt lat="45.53004" lon="3.09656">
        <ele>760.5400391</ele>
        <time>2011-05-15T07:52:25Z</time>
      </trkpt>
      <trkpt lat="45.53004" lon="3.09656">
        <ele>761.020752</ele>
        <time>2011-05-15T07:52:28Z</time>
      </trkpt>
      <trkpt lat="45.53004" lon="3.09656">
        <ele>760.5400391</ele>
        <time>2011-05-15T07:52:29Z</time>
      </trkpt>
      <trkpt lat="45.53005" lon="3.09657">
        <ele>760.5400391</ele>
        <time>2011-05-15T07:52:46Z</time>
      </trkpt>
      <trkpt lat="45.53005" lon="3.09656">
        <ele>760.5400391</ele>
        <time>2011-05-15T07:52:54Z</time>
      </trkpt>
      <trkpt lat="45.53005" lon="3.09657">
        <ele>760.5400391</ele>
        <time>2011-05-15T07:53:09Z</time>
      </trkpt>
      <trkpt lat="45.53005" lon="3.09657">
        <ele>760.0593262</ele>
        <time>2011-05-15T07:53:11Z</time>
      </trkpt>
      <trkpt lat="45.53005" lon="3.09656">
        <ele>760.5400391</ele>
        <time>2011-05-15T07:53:35Z</time>
      </trkpt>
      <trkpt lat="45.53005" lon="3.09657">
        <ele>760.5400391</ele>
        <time>2011-05-15T07:53:42Z</time>
      </trkpt>
      <trkpt lat="45.53004" lon="3.09657">
        <ele>760.0593262</ele>
        <time>2011-05-15T07:53:53Z</time>
      </trkpt>
      <trkpt lat="45.53011" lon="3.09669">
        <ele>758.6174316</ele>
        <time>2011-05-15T07:53:59Z</time>
      </trkpt>
      <trkpt lat="45.53022" lon="3.09686">
        <ele>758.1369629</ele>
        <time>2011-05-15T07:54:04Z</time>
      </trkpt>
      <trkpt lat="45.53027" lon="3.09695">
        <ele>756.6948242</ele>
        <time>2011-05-15T07:54:06Z</time>
      </trkpt>
      <trkpt lat="45.5303" lon="3.09699">
        <ele>756.2141113</ele>
        <time>2011-05-15T07:54:07Z</time>
      </trkpt>
      <trkpt lat="45.53049" lon="3.09729">
        <ele>756.2141113</ele>
        <time>2011-05-15T07:54:13Z</time>
      </trkpt>
      <trkpt lat="45.53072" lon="3.09762">
        <ele>755.2529297</ele>
        <time>2011-05-15T07:54:21Z</time>
      </trkpt>
      <trkpt lat="45.53091" lon="3.09783">
        <ele>755.2529297</ele>
        <time>2011-05-15T07:54:27Z</time>
      </trkpt>
      <trkpt lat="45.53114" lon="3.09803">
        <ele>754.7722168</ele>
        <time>2011-05-15T07:54:33Z</time>
      </trkpt>
      <trkpt lat="45.53134" lon="3.09819">
        <ele>755.2529297</ele>
        <time>2011-05-15T07:54:38Z</time>
      </trkpt>
      <trkpt lat="45.53149" lon="3.09831">
        <ele>756.2141113</ele>
        <time>2011-05-15T07:54:42Z</time>
      </trkpt>
      <trkpt lat="45.53173" lon="3.09854">
        <ele>757.1755371</ele>
        <time>2011-05-15T07:54:50Z</time>
      </trkpt>
      <trkpt lat="45.53192" lon="3.09869">
        <ele>756.2141113</ele>
        <time>2011-05-15T07:54:55Z</time>
      </trkpt>
      <trkpt lat="45.53209" lon="3.09875">
        <ele>755.7336426</ele>
        <time>2011-05-15T07:54:59Z</time>
      </trkpt>
      <trkpt lat="45.53228" lon="3.09878">
        <ele>753.3303223</ele>
        <time>2011-05-15T07:55:03Z</time>
      </trkpt>
      <trkpt lat="45.53259" lon="3.09896">
        <ele>749.0043945</ele>
        <time>2011-05-15T07:55:08Z</time>
      </trkpt>
      <trkpt lat="45.53274" lon="3.09906">
        <ele>745.6396484</ele>
        <time>2011-05-15T07:55:10Z</time>
      </trkpt>
      <trkpt lat="45.53307" lon="3.09932">
        <ele>746.1203613</ele>
        <time>2011-05-15T07:55:15Z</time>
      </trkpt>
      <trkpt lat="45.53329" lon="3.09961">
        <ele>746.6010742</ele>
        <time>2011-05-15T07:55:20Z</time>
      </trkpt>
      <trkpt lat="45.53347" lon="3.09989">
        <ele>743.717041</ele>
        <time>2011-05-15T07:55:24Z</time>
      </trkpt>
      <trkpt lat="45.53368" lon="3.1002">
        <ele>738.9106445</ele>
        <time>2011-05-15T07:55:28Z</time>
      </trkpt>
      <trkpt lat="45.53374" lon="3.10028">
        <ele>738.9106445</ele>
        <time>2011-05-15T07:55:29Z</time>
      </trkpt>
      <trkpt lat="45.53404" lon="3.10069">
        <ele>738.9106445</ele>
        <time>2011-05-15T07:55:34Z</time>
      </trkpt>
      <trkpt lat="45.53409" lon="3.10077">
        <ele>739.3911133</ele>
        <time>2011-05-15T07:55:35Z</time>
      </trkpt>
      <trkpt lat="45.53424" lon="3.10094">
        <ele>740.8330078</ele>
        <time>2011-05-15T07:55:38Z</time>
      </trkpt>
      <trkpt lat="45.53436" lon="3.10101">
        <ele>739.3911133</ele>
        <time>2011-05-15T07:55:40Z</time>
      </trkpt>
      <trkpt lat="45.5345" lon="3.10107">
        <ele>738.4299316</ele>
        <time>2011-05-15T07:55:42Z</time>
      </trkpt>
      <trkpt lat="45.53486" lon="3.10106">
        <ele>738.4299316</ele>
        <time>2011-05-15T07:55:47Z</time>
      </trkpt>
      <trkpt lat="45.53499" lon="3.10101">
        <ele>739.8718262</ele>
        <time>2011-05-15T07:55:49Z</time>
      </trkpt>
      <trkpt lat="45.5351" lon="3.101">
        <ele>740.3525391</ele>
        <time>2011-05-15T07:55:51Z</time>
      </trkpt>
      <trkpt lat="45.53528" lon="3.10103">
        <ele>739.3911133</ele>
        <time>2011-05-15T07:55:54Z</time>
      </trkpt>
      <trkpt lat="45.53545" lon="3.10112">
        <ele>738.9106445</ele>
        <time>2011-05-15T07:55:57Z</time>
      </trkpt>
      <trkpt lat="45.53575" lon="3.10136">
        <ele>739.3911133</ele>
        <time>2011-05-15T07:56:02Z</time>
      </trkpt>
      <trkpt lat="45.53596" lon="3.10153">
        <ele>738.4299316</ele>
        <time>2011-05-15T07:56:05Z</time>
      </trkpt>
      <trkpt lat="45.53621" lon="3.10176">
        <ele>738.9106445</ele>
        <time>2011-05-15T07:56:09Z</time>
      </trkpt>
      <trkpt lat="45.53631" lon="3.10187">
        <ele>740.8330078</ele>
        <time>2011-05-15T07:56:11Z</time>
      </trkpt>
      <trkpt lat="45.53667" lon="3.10218">
        <ele>741.3137207</ele>
        <time>2011-05-15T07:56:18Z</time>
      </trkpt>
      <trkpt lat="45.53697" lon="3.10223">
        <ele>743.2363281</ele>
        <time>2011-05-15T07:56:24Z</time>
      </trkpt>
      <trkpt lat="45.53716" lon="3.10228">
        <ele>744.1977539</ele>
        <time>2011-05-15T07:56:28Z</time>
      </trkpt>
      <trkpt lat="45.53731" lon="3.10243">
        <ele>744.6782227</ele>
        <time>2011-05-15T07:56:32Z</time>
      </trkpt>
      <trkpt lat="45.53739" lon="3.1026">
        <ele>744.6782227</ele>
        <time>2011-05-15T07:56:35Z</time>
      </trkpt>
      <trkpt lat="45.53744" lon="3.1027">
        <ele>744.1977539</ele>
        <time>2011-05-15T07:56:37Z</time>
      </trkpt>
      <trkpt lat="45.53766" lon="3.10288">
        <ele>742.2751465</ele>
        <time>2011-05-15T07:56:42Z</time>
      </trkpt>
      <trkpt lat="45.53813" lon="3.103">
        <ele>739.8718262</ele>
        <time>2011-05-15T07:56:50Z</time>
      </trkpt>
      <trkpt lat="45.53826" lon="3.10302">
        <ele>739.8718262</ele>
        <time>2011-05-15T07:56:52Z</time>
      </trkpt>
      <trkpt lat="45.53846" lon="3.10312">
        <ele>738.4299316</ele>
        <time>2011-05-15T07:56:55Z</time>
      </trkpt>
      <trkpt lat="45.53862" lon="3.10317">
        <ele>736.987793</ele>
        <time>2011-05-15T07:56:58Z</time>
      </trkpt>
      <trkpt lat="45.53881" lon="3.1032">
        <ele>735.0654297</ele>
        <time>2011-05-15T07:57:01Z</time>
      </trkpt>
      <trkpt lat="45.53895" lon="3.10324">
        <ele>734.1040039</ele>
        <time>2011-05-15T07:57:03Z</time>
      </trkpt>
      <trkpt lat="45.53922" lon="3.10337">
        <ele>734.1040039</ele>
        <time>2011-05-15T07:57:07Z</time>
      </trkpt>
      <trkpt lat="45.53945" lon="3.10341">
        <ele>736.0266113</ele>
        <time>2011-05-15T07:57:11Z</time>
      </trkpt>
      <trkpt lat="45.53977" lon="3.10344">
        <ele>738.4299316</ele>
        <time>2011-05-15T07:57:18Z</time>
      </trkpt>
      <trkpt lat="45.53982" lon="3.10347">
        <ele>738.9106445</ele>
        <time>2011-05-15T07:57:19Z</time>
      </trkpt>
      <trkpt lat="45.53996" lon="3.10355">
        <ele>736.987793</ele>
        <time>2011-05-15T07:57:22Z</time>
      </trkpt>
      <trkpt lat="45.54007" lon="3.1036">
        <ele>736.0266113</ele>
        <time>2011-05-15T07:57:24Z</time>
      </trkpt>
      <trkpt lat="45.5402" lon="3.10364">
        <ele>734.5847168</ele>
        <time>2011-05-15T07:57:26Z</time>
      </trkpt>
      <trkpt lat="45.54039" lon="3.10378">
        <ele>732.6621094</ele>
        <time>2011-05-15T07:57:29Z</time>
      </trkpt>
      <trkpt lat="45.54046" lon="3.10383">
        <ele>731.7004395</ele>
        <time>2011-05-15T07:57:30Z</time>
      </trkpt>
      <trkpt lat="45.54075" lon="3.10392">
        <ele>728.3359375</ele>
        <time>2011-05-15T07:57:34Z</time>
      </trkpt>
      <trkpt lat="45.54091" lon="3.10392">
        <ele>724.4907227</ele>
        <time>2011-05-15T07:57:37Z</time>
      </trkpt>
      <trkpt lat="45.54099" lon="3.10396">
        <ele>723.0488281</ele>
        <time>2011-05-15T07:57:39Z</time>
      </trkpt>
      <trkpt lat="45.54104" lon="3.10413">
        <ele>721.6066895</ele>
        <time>2011-05-15T07:57:42Z</time>
      </trkpt>
      <trkpt lat="45.54106" lon="3.10421">
        <ele>718.7229004</ele>
        <time>2011-05-15T07:57:43Z</time>
      </trkpt>
      <trkpt lat="45.54109" lon="3.1043">
        <ele>717.2810059</ele>
        <time>2011-05-15T07:57:44Z</time>
      </trkpt>
      <trkpt lat="45.54114" lon="3.10446">
        <ele>715.3581543</ele>
        <time>2011-05-15T07:57:46Z</time>
      </trkpt>
      <trkpt lat="45.54114" lon="3.10467">
        <ele>711.5129395</ele>
        <time>2011-05-15T07:57:49Z</time>
      </trkpt>
      <trkpt lat="45.54105" lon="3.10476">
        <ele>709.590332</ele>
        <time>2011-05-15T07:57:51Z</time>
      </trkpt>
      <trkpt lat="45.54064" lon="3.10498">
        <ele>705.7451172</ele>
        <time>2011-05-15T07:57:57Z</time>
      </trkpt>
      <trkpt lat="45.54056" lon="3.10501">
        <ele>706.2255859</ele>
        <time>2011-05-15T07:57:58Z</time>
      </trkpt>
      <trkpt lat="45.54035" lon="3.10511">
        <ele>705.7451172</ele>
        <time>2011-05-15T07:58:01Z</time>
      </trkpt>
      <trkpt lat="45.5402" lon="3.10536">
        <ele>700.9384766</ele>
        <time>2011-05-15T07:58:05Z</time>
      </trkpt>
      <trkpt lat="45.54015" lon="3.10557">
        <ele>699.9770508</ele>
        <time>2011-05-15T07:58:07Z</time>
      </trkpt>
      <trkpt lat="45.54002" lon="3.10607">
        <ele>699.4963379</ele>
        <time>2011-05-15T07:58:12Z</time>
      </trkpt>
      <trkpt lat="45.53995" lon="3.10639">
        <ele>694.6896973</ele>
        <time>2011-05-15T07:58:16Z</time>
      </trkpt>
      <trkpt lat="45.5399" lon="3.10657">
        <ele>691.8059082</ele>
        <time>2011-05-15T07:58:18Z</time>
      </trkpt>
      <trkpt lat="45.53987" lon="3.10674">
        <ele>689.8833008</ele>
        <time>2011-05-15T07:58:20Z</time>
      </trkpt>
      <trkpt lat="45.53991" lon="3.10688">
        <ele>687.4799805</ele>
        <time>2011-05-15T07:58:22Z</time>
      </trkpt>
      <trkpt lat="45.53999" lon="3.10702">
        <ele>683.1538086</ele>
        <time>2011-05-15T07:58:24Z</time>
      </trkpt>
      <trkpt lat="45.54025" lon="3.10731">
        <ele>676.4248047</ele>
        <time>2011-05-15T07:58:28Z</time>
      </trkpt>
      <trkpt lat="45.54033" lon="3.10738">
        <ele>676.4248047</ele>
        <time>2011-05-15T07:58:29Z</time>
      </trkpt>
      <trkpt lat="45.54059" lon="3.10769">
        <ele>674.0214844</ele>
        <time>2011-05-15T07:58:33Z</time>
      </trkpt>
      <trkpt lat="45.54077" lon="3.10793">
        <ele>673.5410156</ele>
        <time>2011-05-15T07:58:36Z</time>
      </trkpt>
      <trkpt lat="45.54087" lon="3.10807">
        <ele>674.5021973</ele>
        <time>2011-05-15T07:58:38Z</time>
      </trkpt>
      <trkpt lat="45.54107" lon="3.1085">
        <ele>673.5410156</ele>
        <time>2011-05-15T07:58:45Z</time>
      </trkpt>
      <trkpt lat="45.54129" lon="3.10906">
        <ele>676.9055176</ele>
        <time>2011-05-15T07:58:53Z</time>
      </trkpt>
      <trkpt lat="45.54131" lon="3.10912">
        <ele>676.9055176</ele>
        <time>2011-05-15T07:58:54Z</time>
      </trkpt>
      <trkpt lat="45.54137" lon="3.10928">
        <ele>677.3862305</ele>
        <time>2011-05-15T07:58:57Z</time>
      </trkpt>
      <trkpt lat="45.54152" lon="3.10946">
        <ele>677.3862305</ele>
        <time>2011-05-15T07:59:01Z</time>
      </trkpt>
      <trkpt lat="45.54171" lon="3.10961">
        <ele>675.4633789</ele>
        <time>2011-05-15T07:59:05Z</time>
      </trkpt>
      <trkpt lat="45.54192" lon="3.10972">
        <ele>673.0603027</ele>
        <time>2011-05-15T07:59:09Z</time>
      </trkpt>
      <trkpt lat="45.54209" lon="3.10981">
        <ele>669.6958008</ele>
        <time>2011-05-15T07:59:12Z</time>
      </trkpt>
      <trkpt lat="45.54215" lon="3.10984">
        <ele>669.6958008</ele>
        <time>2011-05-15T07:59:13Z</time>
      </trkpt>
      <trkpt lat="45.54243" lon="3.11003">
        <ele>666.3308105</ele>
        <time>2011-05-15T07:59:18Z</time>
      </trkpt>
      <trkpt lat="45.54249" lon="3.11007">
        <ele>666.3308105</ele>
        <time>2011-05-15T07:59:19Z</time>
      </trkpt>
      <trkpt lat="45.54282" lon="3.11015">
        <ele>661.5244141</ele>
        <time>2011-05-15T07:59:24Z</time>
      </trkpt>
      <trkpt lat="45.54296" lon="3.11017">
        <ele>657.6791992</ele>
        <time>2011-05-15T07:59:26Z</time>
      </trkpt>
      <trkpt lat="45.54311" lon="3.1102">
        <ele>653.8339844</ele>
        <time>2011-05-15T07:59:28Z</time>
      </trkpt>
      <trkpt lat="45.54331" lon="3.11023">
        <ele>649.5078125</ele>
        <time>2011-05-15T07:59:31Z</time>
      </trkpt>
      <trkpt lat="45.54344" lon="3.11025">
        <ele>646.1433105</ele>
        <time>2011-05-15T07:59:33Z</time>
      </trkpt>
      <trkpt lat="45.54365" lon="3.11028">
        <ele>641.8173828</ele>
        <time>2011-05-15T07:59:36Z</time>
      </trkpt>
      <trkpt lat="45.54388" lon="3.11032">
        <ele>637.4914551</ele>
        <time>2011-05-15T07:59:39Z</time>
      </trkpt>
      <trkpt lat="45.54402" lon="3.11034">
        <ele>633.6459961</ele>
        <time>2011-05-15T07:59:41Z</time>
      </trkpt>
      <trkpt lat="45.54415" lon="3.11036">
        <ele>630.762207</ele>
        <time>2011-05-15T07:59:43Z</time>
      </trkpt>
      <trkpt lat="45.54422" lon="3.11038">
        <ele>628.8395996</ele>
        <time>2011-05-15T07:59:44Z</time>
      </trkpt>
      <trkpt lat="45.54445" lon="3.11038">
        <ele>625.4748535</ele>
        <time>2011-05-15T07:59:48Z</time>
      </trkpt>
      <trkpt lat="45.5445" lon="3.11038">
        <ele>624.5136719</ele>
        <time>2011-05-15T07:59:49Z</time>
      </trkpt>
      <trkpt lat="45.54464" lon="3.11027">
        <ele>622.5910645</ele>
        <time>2011-05-15T07:59:53Z</time>
      </trkpt>
      <trkpt lat="45.54466" lon="3.1102">
        <ele>622.1103516</ele>
        <time>2011-05-15T07:59:54Z</time>
      </trkpt>
      <trkpt lat="45.54483" lon="3.10982">
        <ele>620.668457</ele>
        <time>2011-05-15T07:59:59Z</time>
      </trkpt>
      <trkpt lat="45.54506" lon="3.10935">
        <ele>620.1877441</ele>
        <time>2011-05-15T08:00:06Z</time>
      </trkpt>
      <trkpt lat="45.54511" lon="3.10908">
        <ele>621.6296387</ele>
        <time>2011-05-15T08:00:11Z</time>
      </trkpt>
      <trkpt lat="45.54515" lon="3.10861">
        <ele>622.5910645</ele>
        <time>2011-05-15T08:00:20Z</time>
      </trkpt>
      <trkpt lat="45.54516" lon="3.10842">
        <ele>622.5910645</ele>
        <time>2011-05-15T08:00:24Z</time>
      </trkpt>
      <trkpt lat="45.54515" lon="3.10807">
        <ele>621.6296387</ele>
        <time>2011-05-15T08:00:30Z</time>
      </trkpt>
      <trkpt lat="45.54514" lon="3.10774">
        <ele>621.1491699</ele>
        <time>2011-05-15T08:00:36Z</time>
      </trkpt>
      <trkpt lat="45.54508" lon="3.10732">
        <ele>618.7456055</ele>
        <time>2011-05-15T08:00:45Z</time>
      </trkpt>
      <trkpt lat="45.54506" lon="3.10706">
        <ele>616.822998</ele>
        <time>2011-05-15T08:00:49Z</time>
      </trkpt>
      <trkpt lat="45.54501" lon="3.10674">
        <ele>614.4196777</ele>
        <time>2011-05-15T08:00:53Z</time>
      </trkpt>
      <trkpt lat="45.54508" lon="3.10649">
        <ele>613.4584961</ele>
        <time>2011-05-15T08:00:57Z</time>
      </trkpt>
      <trkpt lat="45.5452" lon="3.10649">
        <ele>611.5358887</ele>
        <time>2011-05-15T08:01:00Z</time>
      </trkpt>
      <trkpt lat="45.54541" lon="3.10655">
        <ele>607.6906738</ele>
        <time>2011-05-15T08:01:04Z</time>
      </trkpt>
      <trkpt lat="45.54557" lon="3.10664">
        <ele>605.2873535</ele>
        <time>2011-05-15T08:01:07Z</time>
      </trkpt>
      <trkpt lat="45.54572" lon="3.10684">
        <ele>600.9611816</ele>
        <time>2011-05-15T08:01:10Z</time>
      </trkpt>
      <trkpt lat="45.54599" lon="3.10725">
        <ele>598.5578613</ele>
        <time>2011-05-15T08:01:15Z</time>
      </trkpt>
      <trkpt lat="45.54625" lon="3.10741">
        <ele>595.6740723</ele>
        <time>2011-05-15T08:01:19Z</time>
      </trkpt>
      <trkpt lat="45.54657" lon="3.10748">
        <ele>590.8674316</ele>
        <time>2011-05-15T08:01:24Z</time>
      </trkpt>
      <trkpt lat="45.54677" lon="3.1075">
        <ele>587.9833984</ele>
        <time>2011-05-15T08:01:27Z</time>
      </trkpt>
      <trkpt lat="45.54697" lon="3.10753">
        <ele>584.6188965</ele>
        <time>2011-05-15T08:01:30Z</time>
      </trkpt>
      <trkpt lat="45.54712" lon="3.10756">
        <ele>583.1767578</ele>
        <time>2011-05-15T08:01:32Z</time>
      </trkpt>
      <trkpt lat="45.54734" lon="3.10759">
        <ele>578.3703613</ele>
        <time>2011-05-15T08:01:35Z</time>
      </trkpt>
      <trkpt lat="45.54767" lon="3.10765">
        <ele>575.967041</ele>
        <time>2011-05-15T08:01:39Z</time>
      </trkpt>
      <trkpt lat="45.54798" lon="3.10771">
        <ele>572.6025391</ele>
        <time>2011-05-15T08:01:43Z</time>
      </trkpt>
      <trkpt lat="45.54821" lon="3.10775">
        <ele>570.1989746</ele>
        <time>2011-05-15T08:01:47Z</time>
      </trkpt>
      <trkpt lat="45.54833" lon="3.10777">
        <ele>570.1989746</ele>
        <time>2011-05-15T08:01:51Z</time>
      </trkpt>
      <trkpt lat="45.54834" lon="3.10776">
        <ele>570.1989746</ele>
        <time>2011-05-15T08:01:55Z</time>
      </trkpt>
      <trkpt lat="45.54834" lon="3.10775">
        <ele>570.6796875</ele>
        <time>2011-05-15T08:02:02Z</time>
      </trkpt>
      <trkpt lat="45.5483" lon="3.10776">
        <ele>571.1604004</ele>
        <time>2011-05-15T08:06:26Z</time>
      </trkpt>
      <trkpt lat="45.54831" lon="3.10776">
        <ele>571.1604004</ele>
        <time>2011-05-15T08:06:27Z</time>
      </trkpt>
      <trkpt lat="45.5483" lon="3.10777">
        <ele>570.6796875</ele>
        <time>2011-05-15T08:06:34Z</time>
      </trkpt>
      <trkpt lat="45.5483" lon="3.1078">
        <ele>571.1604004</ele>
        <time>2011-05-15T08:06:38Z</time>
      </trkpt>
      <trkpt lat="45.54831" lon="3.10781">
        <ele>570.1989746</ele>
        <time>2011-05-15T08:06:43Z</time>
      </trkpt>
      <trkpt lat="45.54831" lon="3.10781">
        <ele>570.1989746</ele>
        <time>2011-05-15T08:06:48Z</time>
      </trkpt>
      <trkpt lat="45.54831" lon="3.10782">
        <ele>570.6796875</ele>
        <time>2011-05-15T08:06:49Z</time>
      </trkpt>
      <trkpt lat="45.54833" lon="3.10784">
        <ele>570.1989746</ele>
        <time>2011-05-15T08:06:51Z</time>
      </trkpt>
      <trkpt lat="45.54842" lon="3.10787">
        <ele>569.237793</ele>
        <time>2011-05-15T08:06:55Z</time>
      </trkpt>
      <trkpt lat="45.54854" lon="3.10789">
        <ele>568.2763672</ele>
        <time>2011-05-15T08:06:59Z</time>
      </trkpt>
      <trkpt lat="45.54865" lon="3.1078">
        <ele>567.3151855</ele>
        <time>2011-05-15T08:07:03Z</time>
      </trkpt>
      <trkpt lat="45.54873" lon="3.10765">
        <ele>566.8344727</ele>
        <time>2011-05-15T08:07:08Z</time>
      </trkpt>
      <trkpt lat="45.54878" lon="3.10742">
        <ele>563.9504395</ele>
        <time>2011-05-15T08:07:12Z</time>
      </trkpt>
      <trkpt lat="45.54872" lon="3.10715">
        <ele>561.0666504</ele>
        <time>2011-05-15T08:07:16Z</time>
      </trkpt>
      <trkpt lat="45.54857" lon="3.1069">
        <ele>559.6247559</ele>
        <time>2011-05-15T08:07:20Z</time>
      </trkpt>
      <trkpt lat="45.54846" lon="3.10658">
        <ele>557.7021484</ele>
        <time>2011-05-15T08:07:24Z</time>
      </trkpt>
      <trkpt lat="45.54845" lon="3.10649">
        <ele>556.2600098</ele>
        <time>2011-05-15T08:07:25Z</time>
      </trkpt>
      <trkpt lat="45.54844" lon="3.10617">
        <ele>557.2214355</ele>
        <time>2011-05-15T08:07:29Z</time>
      </trkpt>
      <trkpt lat="45.54839" lon="3.10593">
        <ele>558.1828613</ele>
        <time>2011-05-15T08:07:33Z</time>
      </trkpt>
      <trkpt lat="45.54837" lon="3.1057">
        <ele>559.144043</ele>
        <time>2011-05-15T08:07:38Z</time>
      </trkpt>
      <trkpt lat="45.54837" lon="3.1055">
        <ele>560.5859375</ele>
        <time>2011-05-15T08:07:42Z</time>
      </trkpt>
      <trkpt lat="45.54835" lon="3.10527">
        <ele>560.1052246</ele>
        <time>2011-05-15T08:07:46Z</time>
      </trkpt>
      <trkpt lat="45.54833" lon="3.10483">
        <ele>558.6633301</ele>
        <time>2011-05-15T08:07:52Z</time>
      </trkpt>
      <trkpt lat="45.54832" lon="3.10468">
        <ele>558.6633301</ele>
        <time>2011-05-15T08:07:54Z</time>
      </trkpt>
      <trkpt lat="45.54823" lon="3.10428">
        <ele>556.7407227</ele>
        <time>2011-05-15T08:07:59Z</time>
      </trkpt>
      <trkpt lat="45.54816" lon="3.10402">
        <ele>555.298584</ele>
        <time>2011-05-15T08:08:02Z</time>
      </trkpt>
      <trkpt lat="45.54818" lon="3.10359">
        <ele>555.7792969</ele>
        <time>2011-05-15T08:08:07Z</time>
      </trkpt>
      <trkpt lat="45.54826" lon="3.10314">
        <ele>556.7407227</ele>
        <time>2011-05-15T08:08:13Z</time>
      </trkpt>
      <trkpt lat="45.54827" lon="3.10299">
        <ele>557.2214355</ele>
        <time>2011-05-15T08:08:15Z</time>
      </trkpt>
      <trkpt lat="45.54824" lon="3.10272">
        <ele>558.6633301</ele>
        <time>2011-05-15T08:08:19Z</time>
      </trkpt>
      <trkpt lat="45.54817" lon="3.10243">
        <ele>561.0666504</ele>
        <time>2011-05-15T08:08:24Z</time>
      </trkpt>
      <trkpt lat="45.54815" lon="3.10213">
        <ele>563.4699707</ele>
        <time>2011-05-15T08:08:31Z</time>
      </trkpt>
      <trkpt lat="45.54813" lon="3.10195">
        <ele>564.9118652</ele>
        <time>2011-05-15T08:08:36Z</time>
      </trkpt>
      <trkpt lat="45.54809" lon="3.10174">
        <ele>565.873291</ele>
        <time>2011-05-15T08:08:41Z</time>
      </trkpt>
      <trkpt lat="45.54807" lon="3.10154">
        <ele>567.3151855</ele>
        <time>2011-05-15T08:08:46Z</time>
      </trkpt>
      <trkpt lat="45.54804" lon="3.10124">
        <ele>569.237793</ele>
        <time>2011-05-15T08:08:53Z</time>
      </trkpt>
      <trkpt lat="45.54802" lon="3.10098">
        <ele>570.6796875</ele>
        <time>2011-05-15T08:08:59Z</time>
      </trkpt>
      <trkpt lat="45.54796" lon="3.10075">
        <ele>572.1218262</ele>
        <time>2011-05-15T08:09:05Z</time>
      </trkpt>
      <trkpt lat="45.54783" lon="3.10042">
        <ele>574.0444336</ele>
        <time>2011-05-15T08:09:14Z</time>
      </trkpt>
      <trkpt lat="45.54768" lon="3.10017">
        <ele>575.0058594</ele>
        <time>2011-05-15T08:09:22Z</time>
      </trkpt>
      <trkpt lat="45.54759" lon="3.0999">
        <ele>576.4477539</ele>
        <time>2011-05-15T08:09:29Z</time>
      </trkpt>
      <trkpt lat="45.54749" lon="3.09953">
        <ele>578.3703613</ele>
        <time>2011-05-15T08:09:38Z</time>
      </trkpt>
      <trkpt lat="45.54742" lon="3.09925">
        <ele>579.8122559</ele>
        <time>2011-05-15T08:09:45Z</time>
      </trkpt>
      <trkpt lat="45.5474" lon="3.09913">
        <ele>581.2543945</ele>
        <time>2011-05-15T08:09:48Z</time>
      </trkpt>
      <trkpt lat="45.54737" lon="3.09881">
        <ele>583.6574707</ele>
        <time>2011-05-15T08:09:56Z</time>
      </trkpt>
      <trkpt lat="45.54736" lon="3.09864">
        <ele>584.6188965</ele>
        <time>2011-05-15T08:10:02Z</time>
      </trkpt>
      <trkpt lat="45.54738" lon="3.09844">
        <ele>584.1381836</ele>
        <time>2011-05-15T08:10:07Z</time>
      </trkpt>
      <trkpt lat="45.5474" lon="3.09804">
        <ele>583.6574707</ele>
        <time>2011-05-15T08:10:15Z</time>
      </trkpt>
      <trkpt lat="45.54731" lon="3.09752">
        <ele>582.6962891</ele>
        <time>2011-05-15T08:10:23Z</time>
      </trkpt>
      <trkpt lat="45.54721" lon="3.09702">
        <ele>581.7348633</ele>
        <time>2011-05-15T08:10:30Z</time>
      </trkpt>
      <trkpt lat="45.54716" lon="3.09673">
        <ele>581.7348633</ele>
        <time>2011-05-15T08:10:34Z</time>
      </trkpt>
      <trkpt lat="45.54712" lon="3.09651">
        <ele>581.2543945</ele>
        <time>2011-05-15T08:10:37Z</time>
      </trkpt>
      <trkpt lat="45.54709" lon="3.09636">
        <ele>581.2543945</ele>
        <time>2011-05-15T08:10:39Z</time>
      </trkpt>
      <trkpt lat="45.5469" lon="3.0959">
        <ele>583.6574707</ele>
        <time>2011-05-15T08:10:47Z</time>
      </trkpt>
      <trkpt lat="45.54681" lon="3.09569">
        <ele>584.1381836</ele>
        <time>2011-05-15T08:10:51Z</time>
      </trkpt>
      <trkpt lat="45.5467" lon="3.09544">
        <ele>583.1767578</ele>
        <time>2011-05-15T08:10:56Z</time>
      </trkpt>
      <trkpt lat="45.54656" lon="3.09501">
        <ele>585.0996094</ele>
        <time>2011-05-15T08:11:04Z</time>
      </trkpt>
      <trkpt lat="45.54654" lon="3.09488">
        <ele>587.0219727</ele>
        <time>2011-05-15T08:11:07Z</time>
      </trkpt>
      <trkpt lat="45.54654" lon="3.09475">
        <ele>587.5026855</ele>
        <time>2011-05-15T08:11:11Z</time>
      </trkpt>
      <trkpt lat="45.54657" lon="3.09451">
        <ele>589.4255371</ele>
        <time>2011-05-15T08:11:19Z</time>
      </trkpt>
      <trkpt lat="45.5466" lon="3.09422">
        <ele>588.9450684</ele>
        <time>2011-05-15T08:11:27Z</time>
      </trkpt>
      <trkpt lat="45.54666" lon="3.09403">
        <ele>588.9450684</ele>
        <time>2011-05-15T08:11:33Z</time>
      </trkpt>
      <trkpt lat="45.54675" lon="3.09405">
        <ele>586.5415039</ele>
        <time>2011-05-15T08:11:36Z</time>
      </trkpt>
      <trkpt lat="45.54695" lon="3.09418">
        <ele>584.6188965</ele>
        <time>2011-05-15T08:11:43Z</time>
      </trkpt>
      <trkpt lat="45.54708" lon="3.09428">
        <ele>581.2543945</ele>
        <time>2011-05-15T08:11:49Z</time>
      </trkpt>
      <trkpt lat="45.54713" lon="3.09432">
        <ele>580.7736816</ele>
        <time>2011-05-15T08:11:51Z</time>
      </trkpt>
      <trkpt lat="45.54715" lon="3.09434">
        <ele>580.2929688</ele>
        <time>2011-05-15T08:11:52Z</time>
      </trkpt>
      <trkpt lat="45.5472" lon="3.09439">
        <ele>577.8896484</ele>
        <time>2011-05-15T08:11:54Z</time>
      </trkpt>
      <trkpt lat="45.54725" lon="3.09444">
        <ele>576.9284668</ele>
        <time>2011-05-15T08:11:56Z</time>
      </trkpt>
      <trkpt lat="45.54731" lon="3.0945">
        <ele>575.4863281</ele>
        <time>2011-05-15T08:11:59Z</time>
      </trkpt>
      <trkpt lat="45.54733" lon="3.09453">
        <ele>575.0058594</ele>
        <time>2011-05-15T08:12:00Z</time>
      </trkpt>
      <trkpt lat="45.54741" lon="3.09463">
        <ele>572.1218262</ele>
        <time>2011-05-15T08:12:03Z</time>
      </trkpt>
      <trkpt lat="45.54746" lon="3.0947">
        <ele>570.1989746</ele>
        <time>2011-05-15T08:12:05Z</time>
      </trkpt>
      <trkpt lat="45.54751" lon="3.09476">
        <ele>568.7570801</ele>
        <time>2011-05-15T08:12:07Z</time>
      </trkpt>
      <trkpt lat="45.54754" lon="3.09482">
        <ele>567.7956543</ele>
        <time>2011-05-15T08:12:09Z</time>
      </trkpt>
      <trkpt lat="45.54753" lon="3.09495">
        <ele>566.8344727</ele>
        <time>2011-05-15T08:12:16Z</time>
      </trkpt>
      <trkpt lat="45.54749" lon="3.09514">
        <ele>567.3151855</ele>
        <time>2011-05-15T08:12:22Z</time>
      </trkpt>
      <trkpt lat="45.54752" lon="3.09528">
        <ele>567.3151855</ele>
        <time>2011-05-15T08:12:26Z</time>
      </trkpt>
      <trkpt lat="45.54756" lon="3.09538">
        <ele>567.3151855</ele>
        <time>2011-05-15T08:12:29Z</time>
      </trkpt>
      <trkpt lat="45.54765" lon="3.09559">
        <ele>566.3537598</ele>
        <time>2011-05-15T08:12:35Z</time>
      </trkpt>
      <trkpt lat="45.54779" lon="3.0958">
        <ele>564.4311523</ele>
        <time>2011-05-15T08:12:41Z</time>
      </trkpt>
      <trkpt lat="45.54783" lon="3.09588">
        <ele>563.4699707</ele>
        <time>2011-05-15T08:12:43Z</time>
      </trkpt>
      <trkpt lat="45.54791" lon="3.09605">
        <ele>563.4699707</ele>
        <time>2011-05-15T08:12:48Z</time>
      </trkpt>
      <trkpt lat="45.54801" lon="3.09629">
        <ele>562.0280762</ele>
        <time>2011-05-15T08:12:54Z</time>
      </trkpt>
      <trkpt lat="45.54807" lon="3.09653">
        <ele>560.1052246</ele>
        <time>2011-05-15T08:12:59Z</time>
      </trkpt>
      <trkpt lat="45.5481" lon="3.09665">
        <ele>559.6247559</ele>
        <time>2011-05-15T08:13:01Z</time>
      </trkpt>
      <trkpt lat="45.54816" lon="3.09683">
        <ele>558.6633301</ele>
        <time>2011-05-15T08:13:04Z</time>
      </trkpt>
      <trkpt lat="45.5482" lon="3.09703">
        <ele>556.2600098</ele>
        <time>2011-05-15T08:13:07Z</time>
      </trkpt>
      <trkpt lat="45.54827" lon="3.09719">
        <ele>555.298584</ele>
        <time>2011-05-15T08:13:10Z</time>
      </trkpt>
      <trkpt lat="45.54836" lon="3.09737">
        <ele>553.8566895</ele>
        <time>2011-05-15T08:13:13Z</time>
      </trkpt>
      <trkpt lat="45.5485" lon="3.09764">
        <ele>550.4921875</ele>
        <time>2011-05-15T08:13:18Z</time>
      </trkpt>
      <trkpt lat="45.54864" lon="3.09794">
        <ele>545.6855469</ele>
        <time>2011-05-15T08:13:24Z</time>
      </trkpt>
      <trkpt lat="45.54866" lon="3.098">
        <ele>545.6855469</ele>
        <time>2011-05-15T08:13:25Z</time>
      </trkpt>
      <trkpt lat="45.54873" lon="3.09814">
        <ele>542.8015137</ele>
        <time>2011-05-15T08:13:28Z</time>
      </trkpt>
      <trkpt lat="45.54878" lon="3.0983">
        <ele>539.4368896</ele>
        <time>2011-05-15T08:13:31Z</time>
      </trkpt>
      <trkpt lat="45.5488" lon="3.09836">
        <ele>538.475708</ele>
        <time>2011-05-15T08:13:32Z</time>
      </trkpt>
      <trkpt lat="45.54885" lon="3.09854">
        <ele>534.1496582</ele>
        <time>2011-05-15T08:13:35Z</time>
      </trkpt>
      <trkpt lat="45.54887" lon="3.0986">
        <ele>534.1496582</ele>
        <time>2011-05-15T08:13:36Z</time>
      </trkpt>
      <trkpt lat="45.54888" lon="3.09873">
        <ele>531.2657471</ele>
        <time>2011-05-15T08:13:38Z</time>
      </trkpt>
      <trkpt lat="45.54893" lon="3.09893">
        <ele>530.3044434</ele>
        <time>2011-05-15T08:13:41Z</time>
      </trkpt>
      <trkpt lat="45.54902" lon="3.09923">
        <ele>527.4204102</ele>
        <time>2011-05-15T08:13:46Z</time>
      </trkpt>
      <trkpt lat="45.54904" lon="3.09927">
        <ele>526.4591064</ele>
        <time>2011-05-15T08:13:47Z</time>
      </trkpt>
      <trkpt lat="45.5491" lon="3.09937">
        <ele>524.536499</ele>
        <time>2011-05-15T08:13:49Z</time>
      </trkpt>
      <trkpt lat="45.54922" lon="3.09959">
        <ele>521.1719971</ele>
        <time>2011-05-15T08:13:53Z</time>
      </trkpt>
      <trkpt lat="45.54929" lon="3.09989">
        <ele>520.2105713</ele>
        <time>2011-05-15T08:13:57Z</time>
      </trkpt>
      <trkpt lat="45.54932" lon="3.09997">
        <ele>520.2105713</ele>
        <time>2011-05-15T08:13:58Z</time>
      </trkpt>
      <trkpt lat="45.54937" lon="3.10022">
        <ele>518.7685547</ele>
        <time>2011-05-15T08:14:01Z</time>
      </trkpt>
      <trkpt lat="45.54937" lon="3.10044">
        <ele>516.8459473</ele>
        <time>2011-05-15T08:14:03Z</time>
      </trkpt>
      <trkpt lat="45.54936" lon="3.10066">
        <ele>515.4040527</ele>
        <time>2011-05-15T08:14:05Z</time>
      </trkpt>
      <trkpt lat="45.54936" lon="3.10101">
        <ele>513.4814453</ele>
        <time>2011-05-15T08:14:08Z</time>
      </trkpt>
      <trkpt lat="45.54939" lon="3.10172">
        <ele>512.5200195</ele>
        <time>2011-05-15T08:14:14Z</time>
      </trkpt>
      <trkpt lat="45.54943" lon="3.10229">
        <ele>510.59729</ele>
        <time>2011-05-15T08:14:19Z</time>
      </trkpt>
      <trkpt lat="45.5495" lon="3.10274">
        <ele>509.1553955</ele>
        <time>2011-05-15T08:14:23Z</time>
      </trkpt>
      <trkpt lat="45.54956" lon="3.10307">
        <ele>508.6746826</ele>
        <time>2011-05-15T08:14:26Z</time>
      </trkpt>
      <trkpt lat="45.54965" lon="3.1035">
        <ele>508.6746826</ele>
        <time>2011-05-15T08:14:30Z</time>
      </trkpt>
      <trkpt lat="45.54971" lon="3.10403">
        <ele>508.1940918</ele>
        <time>2011-05-15T08:14:35Z</time>
      </trkpt>
      <trkpt lat="45.54972" lon="3.10435">
        <ele>509.6361084</ele>
        <time>2011-05-15T08:14:38Z</time>
      </trkpt>
      <trkpt lat="45.54972" lon="3.10445">
        <ele>509.6361084</ele>
        <time>2011-05-15T08:14:39Z</time>
      </trkpt>
      <trkpt lat="45.54982" lon="3.10483">
        <ele>508.6746826</ele>
        <time>2011-05-15T08:14:43Z</time>
      </trkpt>
      <trkpt lat="45.55003" lon="3.10499">
        <ele>506.2714844</ele>
        <time>2011-05-15T08:14:46Z</time>
      </trkpt>
      <trkpt lat="45.5502" lon="3.10522">
        <ele>503.8681641</ele>
        <time>2011-05-15T08:14:49Z</time>
      </trkpt>
      <trkpt lat="45.55025" lon="3.10532">
        <ele>502.4261475</ele>
        <time>2011-05-15T08:14:50Z</time>
      </trkpt>
      <trkpt lat="45.55045" lon="3.10582">
        <ele>499.5422363</ele>
        <time>2011-05-15T08:14:55Z</time>
      </trkpt>
      <trkpt lat="45.5507" lon="3.1059">
        <ele>497.138916</ele>
        <time>2011-05-15T08:14:59Z</time>
      </trkpt>
      <trkpt lat="45.55086" lon="3.10586">
        <ele>497.138916</ele>
        <time>2011-05-15T08:15:02Z</time>
      </trkpt>
      <trkpt lat="45.55093" lon="3.10601">
        <ele>495.2161865</ele>
        <time>2011-05-15T08:15:05Z</time>
      </trkpt>
      <trkpt lat="45.55094" lon="3.10608">
        <ele>495.2161865</ele>
        <time>2011-05-15T08:15:06Z</time>
      </trkpt>
      <trkpt lat="45.551" lon="3.10661">
        <ele>494.2550049</ele>
        <time>2011-05-15T08:15:12Z</time>
      </trkpt>
      <trkpt lat="45.55101" lon="3.10678">
        <ele>493.2935791</ele>
        <time>2011-05-15T08:15:14Z</time>
      </trkpt>
      <trkpt lat="45.55104" lon="3.10699">
        <ele>494.7355957</ele>
        <time>2011-05-15T08:15:17Z</time>
      </trkpt>
      <trkpt lat="45.55108" lon="3.10701">
        <ele>494.7355957</ele>
        <time>2011-05-15T08:15:20Z</time>
      </trkpt>
      <trkpt lat="45.5511" lon="3.10698">
        <ele>495.2161865</ele>
        <time>2011-05-15T08:15:22Z</time>
      </trkpt>
      <trkpt lat="45.55125" lon="3.10684">
        <ele>495.6968994</ele>
        <time>2011-05-15T08:15:29Z</time>
      </trkpt>
      <trkpt lat="45.55136" lon="3.10676">
        <ele>497.138916</ele>
        <time>2011-05-15T08:15:33Z</time>
      </trkpt>
      <trkpt lat="45.55145" lon="3.10667">
        <ele>498.1003418</ele>
        <time>2011-05-15T08:15:36Z</time>
      </trkpt>
      <trkpt lat="45.55151" lon="3.10661">
        <ele>498.5809326</ele>
        <time>2011-05-15T08:15:38Z</time>
      </trkpt>
      <trkpt lat="45.55154" lon="3.10658">
        <ele>499.5422363</ele>
        <time>2011-05-15T08:15:39Z</time>
      </trkpt>
      <trkpt lat="45.55172" lon="3.10633">
        <ele>500.50354</ele>
        <time>2011-05-15T08:15:46Z</time>
      </trkpt>
      <trkpt lat="45.55179" lon="3.10615">
        <ele>501.9455566</ele>
        <time>2011-05-15T08:15:50Z</time>
      </trkpt>
      <trkpt lat="45.55188" lon="3.10587">
        <ele>502.9067383</ele>
        <time>2011-05-15T08:15:56Z</time>
      </trkpt>
      <trkpt lat="45.552" lon="3.10569">
        <ele>504.8294678</ele>
        <time>2011-05-15T08:16:01Z</time>
      </trkpt>
      <trkpt lat="45.55214" lon="3.10557">
        <ele>506.7520752</ele>
        <time>2011-05-15T08:16:06Z</time>
      </trkpt>
      <trkpt lat="45.55227" lon="3.10562">
        <ele>506.7520752</ele>
        <time>2011-05-15T08:16:10Z</time>
      </trkpt>
      <trkpt lat="45.55246" lon="3.10577">
        <ele>508.1940918</ele>
        <time>2011-05-15T08:16:17Z</time>
      </trkpt>
      <trkpt lat="45.55262" lon="3.10574">
        <ele>509.6361084</ele>
        <time>2011-05-15T08:16:22Z</time>
      </trkpt>
      <trkpt lat="45.55277" lon="3.10553">
        <ele>511.0780029</ele>
        <time>2011-05-15T08:16:29Z</time>
      </trkpt>
      <trkpt lat="45.55282" lon="3.10544">
        <ele>512.5200195</ele>
        <time>2011-05-15T08:16:32Z</time>
      </trkpt>
      <trkpt lat="45.55292" lon="3.10527">
        <ele>513.9620361</ele>
        <time>2011-05-15T08:16:37Z</time>
      </trkpt>
      <trkpt lat="45.55306" lon="3.10511">
        <ele>514.9233398</ele>
        <time>2011-05-15T08:16:43Z</time>
      </trkpt>
      <trkpt lat="45.55323" lon="3.10491">
        <ele>516.8459473</ele>
        <time>2011-05-15T08:16:50Z</time>
      </trkpt>
      <trkpt lat="45.55332" lon="3.10475">
        <ele>519.2492676</ele>
        <time>2011-05-15T08:16:55Z</time>
      </trkpt>
      <trkpt lat="45.55344" lon="3.10446">
        <ele>520.2105713</ele>
        <time>2011-05-15T08:17:03Z</time>
      </trkpt>
      <trkpt lat="45.55358" lon="3.10426">
        <ele>522.6138916</ele>
        <time>2011-05-15T08:17:10Z</time>
      </trkpt>
      <trkpt lat="45.55375" lon="3.10426">
        <ele>524.0557861</ele>
        <time>2011-05-15T08:17:16Z</time>
      </trkpt>
      <trkpt lat="45.55392" lon="3.10426">
        <ele>526.4591064</ele>
        <time>2011-05-15T08:17:21Z</time>
      </trkpt>
      <trkpt lat="45.55412" lon="3.10413">
        <ele>528.3818359</ele>
        <time>2011-05-15T08:17:28Z</time>
      </trkpt>
      <trkpt lat="45.55436" lon="3.10391">
        <ele>529.3431396</ele>
        <time>2011-05-15T08:17:37Z</time>
      </trkpt>
      <trkpt lat="45.55457" lon="3.10384">
        <ele>531.2657471</ele>
        <time>2011-05-15T08:17:44Z</time>
      </trkpt>
      <trkpt lat="45.55482" lon="3.10386">
        <ele>533.6689453</ele>
        <time>2011-05-15T08:17:52Z</time>
      </trkpt>
      <trkpt lat="45.55497" lon="3.10388">
        <ele>535.1109619</ele>
        <time>2011-05-15T08:17:58Z</time>
      </trkpt>
      <trkpt lat="45.55505" lon="3.1039">
        <ele>535.5915527</ele>
        <time>2011-05-15T08:18:03Z</time>
      </trkpt>
      <trkpt lat="45.55509" lon="3.10391">
        <ele>536.0723877</ele>
        <time>2011-05-15T08:18:06Z</time>
      </trkpt>
      <trkpt lat="45.55513" lon="3.10389">
        <ele>536.5531006</ele>
        <time>2011-05-15T08:18:11Z</time>
      </trkpt>
      <trkpt lat="45.55511" lon="3.1038">
        <ele>537.5142822</ele>
        <time>2011-05-15T08:18:16Z</time>
      </trkpt>
      <trkpt lat="45.55504" lon="3.10368">
        <ele>538.9562988</ele>
        <time>2011-05-15T08:18:24Z</time>
      </trkpt>
      <trkpt lat="45.55496" lon="3.10361">
        <ele>540.8789063</ele>
        <time>2011-05-15T08:18:31Z</time>
      </trkpt>
      <trkpt lat="45.55487" lon="3.10356">
        <ele>542.3209229</ele>
        <time>2011-05-15T08:18:37Z</time>
      </trkpt>
      <trkpt lat="45.55479" lon="3.10356">
        <ele>543.7628174</ele>
        <time>2011-05-15T08:18:43Z</time>
      </trkpt>
      <trkpt lat="45.55473" lon="3.10356">
        <ele>544.2436523</ele>
        <time>2011-05-15T08:18:48Z</time>
      </trkpt>
      <trkpt lat="45.55469" lon="3.10357">
        <ele>545.204834</ele>
        <time>2011-05-15T08:18:55Z</time>
      </trkpt>
      <trkpt lat="45.55461" lon="3.10355">
        <ele>546.1662598</ele>
        <time>2011-05-15T08:19:02Z</time>
      </trkpt>
      <trkpt lat="45.55443" lon="3.10352">
        <ele>546.1662598</ele>
        <time>2011-05-15T08:19:09Z</time>
      </trkpt>
      <trkpt lat="45.55426" lon="3.10355">
        <ele>547.6081543</ele>
        <time>2011-05-15T08:19:16Z</time>
      </trkpt>
      <trkpt lat="45.55416" lon="3.10362">
        <ele>549.0500488</ele>
        <time>2011-05-15T08:19:22Z</time>
      </trkpt>
      <trkpt lat="45.55407" lon="3.10373">
        <ele>549.5307617</ele>
        <time>2011-05-15T08:19:29Z</time>
      </trkpt>
      <trkpt lat="45.55395" lon="3.10375">
        <ele>550.4921875</ele>
        <time>2011-05-15T08:19:35Z</time>
      </trkpt>
      <trkpt lat="45.5538" lon="3.10363">
        <ele>549.5307617</ele>
        <time>2011-05-15T08:19:40Z</time>
      </trkpt>
      <trkpt lat="45.55364" lon="3.10364">
        <ele>550.9726563</ele>
        <time>2011-05-15T08:19:45Z</time>
      </trkpt>
      <trkpt lat="45.55348" lon="3.10374">
        <ele>551.934082</ele>
        <time>2011-05-15T08:19:51Z</time>
      </trkpt>
      <trkpt lat="45.55333" lon="3.10379">
        <ele>552.8952637</ele>
        <time>2011-05-15T08:19:57Z</time>
      </trkpt>
      <trkpt lat="45.55325" lon="3.10386">
        <ele>553.8566895</ele>
        <time>2011-05-15T08:20:02Z</time>
      </trkpt>
      <trkpt lat="45.55318" lon="3.10395">
        <ele>556.2600098</ele>
        <time>2011-05-15T08:20:09Z</time>
      </trkpt>
      <trkpt lat="45.55315" lon="3.10398">
        <ele>557.2214355</ele>
        <time>2011-05-15T08:20:11Z</time>
      </trkpt>
      <trkpt lat="45.55312" lon="3.10401">
        <ele>557.7021484</ele>
        <time>2011-05-15T08:20:14Z</time>
      </trkpt>
      <trkpt lat="45.55301" lon="3.10403">
        <ele>558.6633301</ele>
        <time>2011-05-15T08:20:22Z</time>
      </trkpt>
      <trkpt lat="45.55294" lon="3.10402">
        <ele>560.5859375</ele>
        <time>2011-05-15T08:20:28Z</time>
      </trkpt>
      <trkpt lat="45.55292" lon="3.10402">
        <ele>561.0666504</ele>
        <time>2011-05-15T08:20:29Z</time>
      </trkpt>
      <trkpt lat="45.55289" lon="3.10401">
        <ele>561.0666504</ele>
        <time>2011-05-15T08:20:32Z</time>
      </trkpt>
      <trkpt lat="45.55279" lon="3.10388">
        <ele>562.5085449</ele>
        <time>2011-05-15T08:20:40Z</time>
      </trkpt>
      <trkpt lat="45.55278" lon="3.10384">
        <ele>563.4699707</ele>
        <time>2011-05-15T08:20:45Z</time>
      </trkpt>
      <trkpt lat="45.55278" lon="3.10384">
        <ele>563.4699707</ele>
        <time>2011-05-15T08:20:51Z</time>
      </trkpt>
      <trkpt lat="45.55278" lon="3.10377">
        <ele>564.9118652</ele>
        <time>2011-05-15T08:21:00Z</time>
      </trkpt>
      <trkpt lat="45.55278" lon="3.10371">
        <ele>565.873291</ele>
        <time>2011-05-15T08:21:04Z</time>
      </trkpt>
      <trkpt lat="45.55277" lon="3.10361">
        <ele>566.8344727</ele>
        <time>2011-05-15T08:21:10Z</time>
      </trkpt>
      <trkpt lat="45.55284" lon="3.10347">
        <ele>567.7956543</ele>
        <time>2011-05-15T08:21:19Z</time>
      </trkpt>
      <trkpt lat="45.55293" lon="3.10336">
        <ele>570.1989746</ele>
        <time>2011-05-15T08:21:28Z</time>
      </trkpt>
      <trkpt lat="45.55303" lon="3.10325">
        <ele>573.5639648</ele>
        <time>2011-05-15T08:21:38Z</time>
      </trkpt>
      <trkpt lat="45.55309" lon="3.1032">
        <ele>575.0058594</ele>
        <time>2011-05-15T08:21:45Z</time>
      </trkpt>
      <trkpt lat="45.55314" lon="3.10317">
        <ele>576.9284668</ele>
        <time>2011-05-15T08:21:50Z</time>
      </trkpt>
      <trkpt lat="45.55316" lon="3.10302">
        <ele>579.331543</ele>
        <time>2011-05-15T08:22:00Z</time>
      </trkpt>
      <trkpt lat="45.55316" lon="3.10293">
        <ele>580.2929688</ele>
        <time>2011-05-15T08:22:07Z</time>
      </trkpt>
      <trkpt lat="45.55318" lon="3.10282">
        <ele>582.2155762</ele>
        <time>2011-05-15T08:22:16Z</time>
      </trkpt>
      <trkpt lat="45.5532" lon="3.10275">
        <ele>583.6574707</ele>
        <time>2011-05-15T08:22:21Z</time>
      </trkpt>
      <trkpt lat="45.55324" lon="3.10265">
        <ele>587.9833984</ele>
        <time>2011-05-15T08:22:30Z</time>
      </trkpt>
      <trkpt lat="45.55328" lon="3.10257">
        <ele>587.5026855</ele>
        <time>2011-05-15T08:22:37Z</time>
      </trkpt>
      <trkpt lat="45.55331" lon="3.10244">
        <ele>589.4255371</ele>
        <time>2011-05-15T08:22:46Z</time>
      </trkpt>
      <trkpt lat="45.55332" lon="3.10235">
        <ele>591.8288574</ele>
        <time>2011-05-15T08:22:54Z</time>
      </trkpt>
      <trkpt lat="45.55333" lon="3.10232">
        <ele>591.3481445</ele>
        <time>2011-05-15T08:22:56Z</time>
      </trkpt>
      <trkpt lat="45.55334" lon="3.10226">
        <ele>593.270752</ele>
        <time>2011-05-15T08:22:59Z</time>
      </trkpt>
      <trkpt lat="45.55334" lon="3.10217">
        <ele>594.2321777</ele>
        <time>2011-05-15T08:23:06Z</time>
      </trkpt>
      <trkpt lat="45.55334" lon="3.10203">
        <ele>594.7126465</ele>
        <time>2011-05-15T08:23:13Z</time>
      </trkpt>
      <trkpt lat="45.55335" lon="3.10193">
        <ele>595.6740723</ele>
        <time>2011-05-15T08:23:19Z</time>
      </trkpt>
      <trkpt lat="45.55339" lon="3.10174">
        <ele>596.1547852</ele>
        <time>2011-05-15T08:23:26Z</time>
      </trkpt>
      <trkpt lat="45.55348" lon="3.10141">
        <ele>595.1933594</ele>
        <time>2011-05-15T08:23:35Z</time>
      </trkpt>
      <trkpt lat="45.55357" lon="3.10109">
        <ele>594.7126465</ele>
        <time>2011-05-15T08:23:44Z</time>
      </trkpt>
      <trkpt lat="45.55365" lon="3.1009">
        <ele>596.1547852</ele>
        <time>2011-05-15T08:23:50Z</time>
      </trkpt>
      <trkpt lat="45.55371" lon="3.10072">
        <ele>596.635498</ele>
        <time>2011-05-15T08:23:57Z</time>
      </trkpt>
      <trkpt lat="45.55378" lon="3.10054">
        <ele>599.0385742</ele>
        <time>2011-05-15T08:24:05Z</time>
      </trkpt>
      <trkpt lat="45.55381" lon="3.10039">
        <ele>600</ele>
        <time>2011-05-15T08:24:12Z</time>
      </trkpt>
      <trkpt lat="45.55381" lon="3.10025">
        <ele>601.4418945</ele>
        <time>2011-05-15T08:24:18Z</time>
      </trkpt>
      <trkpt lat="45.5538" lon="3.10004">
        <ele>601.9226074</ele>
        <time>2011-05-15T08:24:26Z</time>
      </trkpt>
      <trkpt lat="45.55382" lon="3.09986">
        <ele>603.8452148</ele>
        <time>2011-05-15T08:24:34Z</time>
      </trkpt>
      <trkpt lat="45.55386" lon="3.09976">
        <ele>604.8066406</ele>
        <time>2011-05-15T08:24:40Z</time>
      </trkpt>
      <trkpt lat="45.55391" lon="3.09968">
        <ele>606.2485352</ele>
        <time>2011-05-15T08:24:46Z</time>
      </trkpt>
      <trkpt lat="45.55398" lon="3.09956">
        <ele>608.1713867</ele>
        <time>2011-05-15T08:24:54Z</time>
      </trkpt>
      <trkpt lat="45.55405" lon="3.09946">
        <ele>608.6518555</ele>
        <time>2011-05-15T08:25:00Z</time>
      </trkpt>
      <trkpt lat="45.55416" lon="3.09937">
        <ele>609.6132813</ele>
        <time>2011-05-15T08:25:07Z</time>
      </trkpt>
      <trkpt lat="45.55429" lon="3.09929">
        <ele>610.09375</ele>
        <time>2011-05-15T08:25:13Z</time>
      </trkpt>
      <trkpt lat="45.55447" lon="3.09916">
        <ele>610.5744629</ele>
        <time>2011-05-15T08:25:21Z</time>
      </trkpt>
      <trkpt lat="45.55463" lon="3.09896">
        <ele>610.09375</ele>
        <time>2011-05-15T08:25:28Z</time>
      </trkpt>
      <trkpt lat="45.55483" lon="3.09854">
        <ele>608.6518555</ele>
        <time>2011-05-15T08:25:37Z</time>
      </trkpt>
      <trkpt lat="45.55497" lon="3.09823">
        <ele>609.6132813</ele>
        <time>2011-05-15T08:25:44Z</time>
      </trkpt>
      <trkpt lat="45.55504" lon="3.09807">
        <ele>611.0551758</ele>
        <time>2011-05-15T08:25:49Z</time>
      </trkpt>
      <trkpt lat="45.55512" lon="3.09789">
        <ele>612.4970703</ele>
        <time>2011-05-15T08:25:56Z</time>
      </trkpt>
      <trkpt lat="45.55519" lon="3.09779">
        <ele>613.4584961</ele>
        <time>2011-05-15T08:26:01Z</time>
      </trkpt>
      <trkpt lat="45.5553" lon="3.09763">
        <ele>614.9003906</ele>
        <time>2011-05-15T08:26:09Z</time>
      </trkpt>
      <trkpt lat="45.55545" lon="3.09758">
        <ele>615.8618164</ele>
        <time>2011-05-15T08:26:17Z</time>
      </trkpt>
      <trkpt lat="45.55563" lon="3.09754">
        <ele>616.3422852</ele>
        <time>2011-05-15T08:26:24Z</time>
      </trkpt>
      <trkpt lat="45.55579" lon="3.09747">
        <ele>613.4584961</ele>
        <time>2011-05-15T08:26:29Z</time>
      </trkpt>
      <trkpt lat="45.55597" lon="3.09739">
        <ele>611.0551758</ele>
        <time>2011-05-15T08:26:33Z</time>
      </trkpt>
      <trkpt lat="45.55602" lon="3.09738">
        <ele>611.0551758</ele>
        <time>2011-05-15T08:26:34Z</time>
      </trkpt>
      <trkpt lat="45.5563" lon="3.09723">
        <ele>612.4970703</ele>
        <time>2011-05-15T08:26:40Z</time>
      </trkpt>
      <trkpt lat="45.55647" lon="3.09715">
        <ele>613.9389648</ele>
        <time>2011-05-15T08:26:46Z</time>
      </trkpt>
      <trkpt lat="45.55657" lon="3.0971">
        <ele>616.3422852</ele>
        <time>2011-05-15T08:26:52Z</time>
      </trkpt>
      <trkpt lat="45.55669" lon="3.09705">
        <ele>618.7456055</ele>
        <time>2011-05-15T08:27:00Z</time>
      </trkpt>
      <trkpt lat="45.55674" lon="3.09705">
        <ele>619.2263184</ele>
        <time>2011-05-15T08:27:03Z</time>
      </trkpt>
      <trkpt lat="45.55682" lon="3.09703">
        <ele>619.7070313</ele>
        <time>2011-05-15T08:27:07Z</time>
      </trkpt>
      <trkpt lat="45.55698" lon="3.09699">
        <ele>621.1491699</ele>
        <time>2011-05-15T08:27:15Z</time>
      </trkpt>
      <trkpt lat="45.55716" lon="3.09697">
        <ele>619.2263184</ele>
        <time>2011-05-15T08:27:21Z</time>
      </trkpt>
      <trkpt lat="45.55725" lon="3.09696">
        <ele>618.7456055</ele>
        <time>2011-05-15T08:27:23Z</time>
      </trkpt>
      <trkpt lat="45.55745" lon="3.09691">
        <ele>616.822998</ele>
        <time>2011-05-15T08:27:27Z</time>
      </trkpt>
      <trkpt lat="45.55755" lon="3.09686">
        <ele>615.3811035</ele>
        <time>2011-05-15T08:27:29Z</time>
      </trkpt>
      <trkpt lat="45.55771" lon="3.09677">
        <ele>615.8618164</ele>
        <time>2011-05-15T08:27:33Z</time>
      </trkpt>
      <trkpt lat="45.55793" lon="3.09665">
        <ele>615.8618164</ele>
        <time>2011-05-15T08:27:39Z</time>
      </trkpt>
      <trkpt lat="45.55812" lon="3.09651">
        <ele>615.3811035</ele>
        <time>2011-05-15T08:27:45Z</time>
      </trkpt>
      <trkpt lat="45.55816" lon="3.09648">
        <ele>613.9389648</ele>
        <time>2011-05-15T08:27:46Z</time>
      </trkpt>
      <trkpt lat="45.55828" lon="3.09628">
        <ele>611.0551758</ele>
        <time>2011-05-15T08:27:50Z</time>
      </trkpt>
      <trkpt lat="45.55842" lon="3.09591">
        <ele>613.4584961</ele>
        <time>2011-05-15T08:27:56Z</time>
      </trkpt>
      <trkpt lat="45.55843" lon="3.09586">
        <ele>613.9389648</ele>
        <time>2011-05-15T08:27:57Z</time>
      </trkpt>
      <trkpt lat="45.55857" lon="3.09549">
        <ele>613.4584961</ele>
        <time>2011-05-15T08:28:05Z</time>
      </trkpt>
      <trkpt lat="45.55865" lon="3.09526">
        <ele>612.0166016</ele>
        <time>2011-05-15T08:28:09Z</time>
      </trkpt>
      <trkpt lat="45.55876" lon="3.095">
        <ele>610.09375</ele>
        <time>2011-05-15T08:28:13Z</time>
      </trkpt>
      <trkpt lat="45.55895" lon="3.09454">
        <ele>610.5744629</ele>
        <time>2011-05-15T08:28:20Z</time>
      </trkpt>
      <trkpt lat="45.5591" lon="3.09428">
        <ele>611.5358887</ele>
        <time>2011-05-15T08:28:26Z</time>
      </trkpt>
      <trkpt lat="45.55924" lon="3.09407">
        <ele>610.5744629</ele>
        <time>2011-05-15T08:28:31Z</time>
      </trkpt>
      <trkpt lat="45.55937" lon="3.09392">
        <ele>606.729248</ele>
        <time>2011-05-15T08:28:34Z</time>
      </trkpt>
      <trkpt lat="45.55963" lon="3.09361">
        <ele>606.729248</ele>
        <time>2011-05-15T08:28:40Z</time>
      </trkpt>
      <trkpt lat="45.55971" lon="3.0935">
        <ele>608.1713867</ele>
        <time>2011-05-15T08:28:43Z</time>
      </trkpt>
      <trkpt lat="45.55987" lon="3.09329">
        <ele>607.2099609</ele>
        <time>2011-05-15T08:28:49Z</time>
      </trkpt>
      <trkpt lat="45.55996" lon="3.09321">
        <ele>605.7680664</ele>
        <time>2011-05-15T08:28:51Z</time>
      </trkpt>
      <trkpt lat="45.56019" lon="3.09293">
        <ele>607.2099609</ele>
        <time>2011-05-15T08:28:58Z</time>
      </trkpt>
      <trkpt lat="45.56027" lon="3.09287">
        <ele>609.1325684</ele>
        <time>2011-05-15T08:29:02Z</time>
      </trkpt>
      <trkpt lat="45.56034" lon="3.09279">
        <ele>611.0551758</ele>
        <time>2011-05-15T08:29:07Z</time>
      </trkpt>
      <trkpt lat="45.56042" lon="3.09274">
        <ele>612.0166016</ele>
        <time>2011-05-15T08:29:12Z</time>
      </trkpt>
      <trkpt lat="45.56045" lon="3.09272">
        <ele>612.9777832</ele>
        <time>2011-05-15T08:29:14Z</time>
      </trkpt>
      <trkpt lat="45.56051" lon="3.09267">
        <ele>614.4196777</ele>
        <time>2011-05-15T08:29:18Z</time>
      </trkpt>
      <trkpt lat="45.56062" lon="3.09259">
        <ele>616.3422852</ele>
        <time>2011-05-15T08:29:25Z</time>
      </trkpt>
      <trkpt lat="45.56063" lon="3.09258">
        <ele>616.3422852</ele>
        <time>2011-05-15T08:29:26Z</time>
      </trkpt>
      <trkpt lat="45.56074" lon="3.0925">
        <ele>618.7456055</ele>
        <time>2011-05-15T08:29:34Z</time>
      </trkpt>
      <trkpt lat="45.56084" lon="3.09247">
        <ele>620.1877441</ele>
        <time>2011-05-15T08:29:41Z</time>
      </trkpt>
      <trkpt lat="45.56098" lon="3.09248">
        <ele>622.1103516</ele>
        <time>2011-05-15T08:29:49Z</time>
      </trkpt>
      <trkpt lat="45.56108" lon="3.09252">
        <ele>623.0717773</ele>
        <time>2011-05-15T08:29:55Z</time>
      </trkpt>
      <trkpt lat="45.56121" lon="3.09261">
        <ele>623.0717773</ele>
        <time>2011-05-15T08:30:02Z</time>
      </trkpt>
      <trkpt lat="45.56134" lon="3.09275">
        <ele>622.1103516</ele>
        <time>2011-05-15T08:30:08Z</time>
      </trkpt>
      <trkpt lat="45.56142" lon="3.09271">
        <ele>623.0717773</ele>
        <time>2011-05-15T08:30:12Z</time>
      </trkpt>
      <trkpt lat="45.56138" lon="3.09263">
        <ele>623.5524902</ele>
        <time>2011-05-15T08:30:15Z</time>
      </trkpt>
      <trkpt lat="45.56126" lon="3.09259">
        <ele>623.5524902</ele>
        <time>2011-05-15T08:30:21Z</time>
      </trkpt>
      <trkpt lat="45.56109" lon="3.09242">
        <ele>623.5524902</ele>
        <time>2011-05-15T08:30:28Z</time>
      </trkpt>
      <trkpt lat="45.56101" lon="3.09215">
        <ele>623.5524902</ele>
        <time>2011-05-15T08:30:34Z</time>
      </trkpt>
      <trkpt lat="45.5609" lon="3.09189">
        <ele>625.4748535</ele>
        <time>2011-05-15T08:30:41Z</time>
      </trkpt>
      <trkpt lat="45.56079" lon="3.09174">
        <ele>625.4748535</ele>
        <time>2011-05-15T08:30:46Z</time>
      </trkpt>
      <trkpt lat="45.56055" lon="3.09156">
        <ele>626.4362793</ele>
        <time>2011-05-15T08:30:54Z</time>
      </trkpt>
      <trkpt lat="45.5603" lon="3.0915">
        <ele>627.8781738</ele>
        <time>2011-05-15T08:31:02Z</time>
      </trkpt>
      <trkpt lat="45.56013" lon="3.0915">
        <ele>629.8007813</ele>
        <time>2011-05-15T08:31:08Z</time>
      </trkpt>
      <trkpt lat="45.55994" lon="3.0914">
        <ele>630.2814941</ele>
        <time>2011-05-15T08:31:14Z</time>
      </trkpt>
      <trkpt lat="45.55978" lon="3.09119">
        <ele>631.2429199</ele>
        <time>2011-05-15T08:31:21Z</time>
      </trkpt>
      <trkpt lat="45.5596" lon="3.09106">
        <ele>632.6848145</ele>
        <time>2011-05-15T08:31:28Z</time>
      </trkpt>
      <trkpt lat="45.55937" lon="3.09093">
        <ele>632.6848145</ele>
        <time>2011-05-15T08:31:36Z</time>
      </trkpt>
      <trkpt lat="45.55911" lon="3.09074">
        <ele>634.126709</ele>
        <time>2011-05-15T08:31:45Z</time>
      </trkpt>
      <trkpt lat="45.55888" lon="3.09054">
        <ele>635.0881348</ele>
        <time>2011-05-15T08:31:53Z</time>
      </trkpt>
      <trkpt lat="45.55864" lon="3.09042">
        <ele>636.5302734</ele>
        <time>2011-05-15T08:32:01Z</time>
      </trkpt>
      <trkpt lat="45.55838" lon="3.09034">
        <ele>637.4914551</ele>
        <time>2011-05-15T08:32:10Z</time>
      </trkpt>
      <trkpt lat="45.55819" lon="3.09025">
        <ele>639.4140625</ele>
        <time>2011-05-15T08:32:17Z</time>
      </trkpt>
      <trkpt lat="45.55795" lon="3.09011">
        <ele>640.3754883</ele>
        <time>2011-05-15T08:32:26Z</time>
      </trkpt>
      <trkpt lat="45.55776" lon="3.09">
        <ele>641.8173828</ele>
        <time>2011-05-15T08:32:33Z</time>
      </trkpt>
      <trkpt lat="45.55757" lon="3.08975">
        <ele>642.7788086</ele>
        <time>2011-05-15T08:32:41Z</time>
      </trkpt>
      <trkpt lat="45.55749" lon="3.0895">
        <ele>643.2592773</ele>
        <time>2011-05-15T08:32:47Z</time>
      </trkpt>
      <trkpt lat="45.55745" lon="3.08924">
        <ele>644.2207031</ele>
        <time>2011-05-15T08:32:53Z</time>
      </trkpt>
      <trkpt lat="45.55738" lon="3.08904">
        <ele>644.7011719</ele>
        <time>2011-05-15T08:32:58Z</time>
      </trkpt>
      <trkpt lat="45.5572" lon="3.08883">
        <ele>645.6625977</ele>
        <time>2011-05-15T08:33:05Z</time>
      </trkpt>
      <trkpt lat="45.55701" lon="3.08862">
        <ele>647.5852051</ele>
        <time>2011-05-15T08:33:13Z</time>
      </trkpt>
      <trkpt lat="45.55681" lon="3.08841">
        <ele>648.5463867</ele>
        <time>2011-05-15T08:33:22Z</time>
      </trkpt>
      <trkpt lat="45.55669" lon="3.08816">
        <ele>649.5078125</ele>
        <time>2011-05-15T08:33:29Z</time>
      </trkpt>
      <trkpt lat="45.55661" lon="3.08795">
        <ele>651.4304199</ele>
        <time>2011-05-15T08:33:35Z</time>
      </trkpt>
      <trkpt lat="45.55644" lon="3.0876">
        <ele>652.8725586</ele>
        <time>2011-05-15T08:33:45Z</time>
      </trkpt>
      <trkpt lat="45.55631" lon="3.08735">
        <ele>654.3146973</ele>
        <time>2011-05-15T08:33:53Z</time>
      </trkpt>
      <trkpt lat="45.55617" lon="3.08718">
        <ele>654.795166</ele>
        <time>2011-05-15T08:34:00Z</time>
      </trkpt>
      <trkpt lat="45.55605" lon="3.08723">
        <ele>655.2758789</ele>
        <time>2011-05-15T08:34:05Z</time>
      </trkpt>
      <trkpt lat="45.5559" lon="3.08743">
        <ele>655.7565918</ele>
        <time>2011-05-15T08:34:11Z</time>
      </trkpt>
      <trkpt lat="45.55569" lon="3.08752">
        <ele>655.2758789</ele>
        <time>2011-05-15T08:34:17Z</time>
      </trkpt>
      <trkpt lat="45.55543" lon="3.0875">
        <ele>656.2370605</ele>
        <time>2011-05-15T08:34:24Z</time>
      </trkpt>
      <trkpt lat="45.55516" lon="3.08744">
        <ele>657.1984863</ele>
        <time>2011-05-15T08:34:32Z</time>
      </trkpt>
      <trkpt lat="45.555" lon="3.08743">
        <ele>659.1210938</ele>
        <time>2011-05-15T08:34:37Z</time>
      </trkpt>
      <trkpt lat="45.55484" lon="3.08741">
        <ele>659.6018066</ele>
        <time>2011-05-15T08:34:42Z</time>
      </trkpt>
      <trkpt lat="45.55459" lon="3.0874">
        <ele>661.0437012</ele>
        <time>2011-05-15T08:34:50Z</time>
      </trkpt>
      <trkpt lat="45.55444" lon="3.08739">
        <ele>662.005127</ele>
        <time>2011-05-15T08:34:55Z</time>
      </trkpt>
      <trkpt lat="45.55425" lon="3.08725">
        <ele>662.9663086</ele>
        <time>2011-05-15T08:35:03Z</time>
      </trkpt>
      <trkpt lat="45.55413" lon="3.087">
        <ele>665.3696289</ele>
        <time>2011-05-15T08:35:11Z</time>
      </trkpt>
      <trkpt lat="45.5541" lon="3.08678">
        <ele>665.8503418</ele>
        <time>2011-05-15T08:35:17Z</time>
      </trkpt>
      <trkpt lat="45.55403" lon="3.08656">
        <ele>666.8115234</ele>
        <time>2011-05-15T08:35:23Z</time>
      </trkpt>
      <trkpt lat="45.55393" lon="3.08632">
        <ele>667.7727051</ele>
        <time>2011-05-15T08:35:30Z</time>
      </trkpt>
      <trkpt lat="45.5538" lon="3.08608">
        <ele>668.734375</ele>
        <time>2011-05-15T08:35:38Z</time>
      </trkpt>
      <trkpt lat="45.55368" lon="3.08587">
        <ele>669.2150879</ele>
        <time>2011-05-15T08:35:45Z</time>
      </trkpt>
      <trkpt lat="45.55357" lon="3.08573">
        <ele>671.1376953</ele>
        <time>2011-05-15T08:35:51Z</time>
      </trkpt>
      <trkpt lat="45.55341" lon="3.08559">
        <ele>671.6181641</ele>
        <time>2011-05-15T08:35:58Z</time>
      </trkpt>
      <trkpt lat="45.55328" lon="3.08548">
        <ele>673.0603027</ele>
        <time>2011-05-15T08:36:04Z</time>
      </trkpt>
      <trkpt lat="45.55309" lon="3.08527">
        <ele>673.5410156</ele>
        <time>2011-05-15T08:36:13Z</time>
      </trkpt>
      <trkpt lat="45.55296" lon="3.08505">
        <ele>674.5021973</ele>
        <time>2011-05-15T08:36:20Z</time>
      </trkpt>
      <trkpt lat="45.55278" lon="3.08477">
        <ele>675.9440918</ele>
        <time>2011-05-15T08:36:28Z</time>
      </trkpt>
      <trkpt lat="45.55255" lon="3.08455">
        <ele>676.4248047</ele>
        <time>2011-05-15T08:36:36Z</time>
      </trkpt>
      <trkpt lat="45.55234" lon="3.08451">
        <ele>676.4248047</ele>
        <time>2011-05-15T08:36:42Z</time>
      </trkpt>
      <trkpt lat="45.55208" lon="3.08459">
        <ele>677.3862305</ele>
        <time>2011-05-15T08:36:49Z</time>
      </trkpt>
      <trkpt lat="45.55176" lon="3.08461">
        <ele>678.828125</ele>
        <time>2011-05-15T08:36:58Z</time>
      </trkpt>
      <trkpt lat="45.55143" lon="3.08455">
        <ele>679.7893066</ele>
        <time>2011-05-15T08:37:08Z</time>
      </trkpt>
      <trkpt lat="45.55124" lon="3.08439">
        <ele>680.7507324</ele>
        <time>2011-05-15T08:37:15Z</time>
      </trkpt>
      <trkpt lat="45.55115" lon="3.08421">
        <ele>682.192627</ele>
        <time>2011-05-15T08:37:22Z</time>
      </trkpt>
      <trkpt lat="45.55107" lon="3.08406">
        <ele>683.1538086</ele>
        <time>2011-05-15T08:37:29Z</time>
      </trkpt>
      <trkpt lat="45.551" lon="3.08391">
        <ele>684.5961914</ele>
        <time>2011-05-15T08:37:36Z</time>
      </trkpt>
      <trkpt lat="45.55089" lon="3.0837">
        <ele>685.0769043</ele>
        <time>2011-05-15T08:37:43Z</time>
      </trkpt>
      <trkpt lat="45.55073" lon="3.08343">
        <ele>686.0380859</ele>
        <time>2011-05-15T08:37:51Z</time>
      </trkpt>
      <trkpt lat="45.55047" lon="3.08307">
        <ele>687.9606934</ele>
        <time>2011-05-15T08:38:02Z</time>
      </trkpt>
      <trkpt lat="45.5503" lon="3.0828">
        <ele>689.4025879</ele>
        <time>2011-05-15T08:38:10Z</time>
      </trkpt>
      <trkpt lat="45.55024" lon="3.08254">
        <ele>690.3640137</ele>
        <time>2011-05-15T08:38:16Z</time>
      </trkpt>
      <trkpt lat="45.55026" lon="3.08232">
        <ele>690.8444824</ele>
        <time>2011-05-15T08:38:21Z</time>
      </trkpt>
      <trkpt lat="45.55037" lon="3.08207">
        <ele>690.8444824</ele>
        <time>2011-05-15T08:38:27Z</time>
      </trkpt>
      <trkpt lat="45.55056" lon="3.08179">
        <ele>691.8059082</ele>
        <time>2011-05-15T08:38:35Z</time>
      </trkpt>
      <trkpt lat="45.55067" lon="3.08154">
        <ele>691.8059082</ele>
        <time>2011-05-15T08:38:41Z</time>
      </trkpt>
      <trkpt lat="45.55074" lon="3.08136">
        <ele>692.2866211</ele>
        <time>2011-05-15T08:38:46Z</time>
      </trkpt>
      <trkpt lat="45.55089" lon="3.08113">
        <ele>692.2866211</ele>
        <time>2011-05-15T08:38:53Z</time>
      </trkpt>
      <trkpt lat="45.55095" lon="3.08107">
        <ele>693.2478027</ele>
        <time>2011-05-15T08:38:56Z</time>
      </trkpt>
      <trkpt lat="45.551" lon="3.08093">
        <ele>693.2478027</ele>
        <time>2011-05-15T08:39:02Z</time>
      </trkpt>
      <trkpt lat="45.55097" lon="3.08071">
        <ele>693.2478027</ele>
        <time>2011-05-15T08:39:07Z</time>
      </trkpt>
      <trkpt lat="45.55091" lon="3.08063">
        <ele>693.2478027</ele>
        <time>2011-05-15T08:39:10Z</time>
      </trkpt>
      <trkpt lat="45.55074" lon="3.08047">
        <ele>693.2478027</ele>
        <time>2011-05-15T08:39:17Z</time>
      </trkpt>
      <trkpt lat="45.55057" lon="3.08025">
        <ele>693.2478027</ele>
        <time>2011-05-15T08:39:24Z</time>
      </trkpt>
      <trkpt lat="45.55043" lon="3.08004">
        <ele>694.2092285</ele>
        <time>2011-05-15T08:39:30Z</time>
      </trkpt>
      <trkpt lat="45.55027" lon="3.07977">
        <ele>694.2092285</ele>
        <time>2011-05-15T08:39:38Z</time>
      </trkpt>
      <trkpt lat="45.55021" lon="3.07954">
        <ele>694.6896973</ele>
        <time>2011-05-15T08:39:44Z</time>
      </trkpt>
      <trkpt lat="45.55026" lon="3.07928">
        <ele>695.1704102</ele>
        <time>2011-05-15T08:39:50Z</time>
      </trkpt>
      <trkpt lat="45.55039" lon="3.07904">
        <ele>696.6125488</ele>
        <time>2011-05-15T08:39:57Z</time>
      </trkpt>
      <trkpt lat="45.55056" lon="3.07873">
        <ele>697.5737305</ele>
        <time>2011-05-15T08:40:06Z</time>
      </trkpt>
      <trkpt lat="45.55062" lon="3.07839">
        <ele>698.5349121</ele>
        <time>2011-05-15T08:40:14Z</time>
      </trkpt>
      <trkpt lat="45.55059" lon="3.07808">
        <ele>699.015625</ele>
        <time>2011-05-15T08:40:21Z</time>
      </trkpt>
      <trkpt lat="45.55053" lon="3.0778">
        <ele>699.9770508</ele>
        <time>2011-05-15T08:40:28Z</time>
      </trkpt>
      <trkpt lat="45.55046" lon="3.07753">
        <ele>700.4580078</ele>
        <time>2011-05-15T08:40:35Z</time>
      </trkpt>
      <trkpt lat="45.55037" lon="3.07712">
        <ele>700.9384766</ele>
        <time>2011-05-15T08:40:44Z</time>
      </trkpt>
      <trkpt lat="45.55028" lon="3.07682">
        <ele>701.4191895</ele>
        <time>2011-05-15T08:40:51Z</time>
      </trkpt>
      <trkpt lat="45.55026" lon="3.07662">
        <ele>701.8999023</ele>
        <time>2011-05-15T08:40:56Z</time>
      </trkpt>
      <trkpt lat="45.55019" lon="3.07638">
        <ele>701.4191895</ele>
        <time>2011-05-15T08:41:01Z</time>
      </trkpt>
      <trkpt lat="45.55007" lon="3.07614">
        <ele>702.3803711</ele>
        <time>2011-05-15T08:41:07Z</time>
      </trkpt>
      <trkpt lat="45.54999" lon="3.07585">
        <ele>702.3803711</ele>
        <time>2011-05-15T08:41:13Z</time>
      </trkpt>
      <trkpt lat="45.55005" lon="3.07561">
        <ele>703.3417969</ele>
        <time>2011-05-15T08:41:18Z</time>
      </trkpt>
      <trkpt lat="45.55018" lon="3.07536">
        <ele>704.7836914</ele>
        <time>2011-05-15T08:41:24Z</time>
      </trkpt>
      <trkpt lat="45.55033" lon="3.07506">
        <ele>705.7451172</ele>
        <time>2011-05-15T08:41:32Z</time>
      </trkpt>
      <trkpt lat="45.55034" lon="3.07498">
        <ele>706.7062988</ele>
        <time>2011-05-15T08:41:34Z</time>
      </trkpt>
      <trkpt lat="45.55032" lon="3.07472">
        <ele>707.6677246</ele>
        <time>2011-05-15T08:41:40Z</time>
      </trkpt>
      <trkpt lat="45.55026" lon="3.0743">
        <ele>708.1484375</ele>
        <time>2011-05-15T08:41:49Z</time>
      </trkpt>
      <trkpt lat="45.55019" lon="3.0739">
        <ele>709.1096191</ele>
        <time>2011-05-15T08:41:58Z</time>
      </trkpt>
      <trkpt lat="45.55014" lon="3.0735">
        <ele>710.5515137</ele>
        <time>2011-05-15T08:42:07Z</time>
      </trkpt>
      <trkpt lat="45.55007" lon="3.07312">
        <ele>711.5129395</ele>
        <time>2011-05-15T08:42:16Z</time>
      </trkpt>
      <trkpt lat="45.55006" lon="3.07291">
        <ele>712.954834</ele>
        <time>2011-05-15T08:42:22Z</time>
      </trkpt>
      <trkpt lat="45.55002" lon="3.07268">
        <ele>713.4355469</ele>
        <time>2011-05-15T08:42:28Z</time>
      </trkpt>
      <trkpt lat="45.54993" lon="3.07246">
        <ele>711.9936523</ele>
        <time>2011-05-15T08:42:33Z</time>
      </trkpt>
      <trkpt lat="45.54989" lon="3.07219">
        <ele>713.4355469</ele>
        <time>2011-05-15T08:42:38Z</time>
      </trkpt>
      <trkpt lat="45.54995" lon="3.07198">
        <ele>713.9160156</ele>
        <time>2011-05-15T08:42:43Z</time>
      </trkpt>
      <trkpt lat="45.55002" lon="3.0719">
        <ele>715.3581543</ele>
        <time>2011-05-15T08:42:46Z</time>
      </trkpt>
      <trkpt lat="45.55012" lon="3.07169">
        <ele>715.8388672</ele>
        <time>2011-05-15T08:42:53Z</time>
      </trkpt>
      <trkpt lat="45.55016" lon="3.07137">
        <ele>717.2810059</ele>
        <time>2011-05-15T08:43:01Z</time>
      </trkpt>
      <trkpt lat="45.55015" lon="3.07114">
        <ele>717.2810059</ele>
        <time>2011-05-15T08:43:06Z</time>
      </trkpt>
      <trkpt lat="45.55011" lon="3.07083">
        <ele>715.8388672</ele>
        <time>2011-05-15T08:43:12Z</time>
      </trkpt>
      <trkpt lat="45.55003" lon="3.07052">
        <ele>715.8388672</ele>
        <time>2011-05-15T08:43:18Z</time>
      </trkpt>
      <trkpt lat="45.54987" lon="3.07016">
        <ele>716.3195801</ele>
        <time>2011-05-15T08:43:26Z</time>
      </trkpt>
      <trkpt lat="45.54969" lon="3.06987">
        <ele>715.3581543</ele>
        <time>2011-05-15T08:43:33Z</time>
      </trkpt>
      <trkpt lat="45.54955" lon="3.06959">
        <ele>715.3581543</ele>
        <time>2011-05-15T08:43:40Z</time>
      </trkpt>
      <trkpt lat="45.54952" lon="3.06949">
        <ele>715.3581543</ele>
        <time>2011-05-15T08:43:42Z</time>
      </trkpt>
      <trkpt lat="45.54947" lon="3.06939">
        <ele>713.9160156</ele>
        <time>2011-05-15T08:43:44Z</time>
      </trkpt>
      <trkpt lat="45.54944" lon="3.06934">
        <ele>712.954834</ele>
        <time>2011-05-15T08:43:45Z</time>
      </trkpt>
      <trkpt lat="45.54936" lon="3.06915">
        <ele>710.5515137</ele>
        <time>2011-05-15T08:43:48Z</time>
      </trkpt>
      <trkpt lat="45.54933" lon="3.06894">
        <ele>708.6289063</ele>
        <time>2011-05-15T08:43:51Z</time>
      </trkpt>
      <trkpt lat="45.54933" lon="3.06881">
        <ele>707.1870117</ele>
        <time>2011-05-15T08:43:53Z</time>
      </trkpt>
      <trkpt lat="45.54933" lon="3.06867">
        <ele>706.7062988</ele>
        <time>2011-05-15T08:43:55Z</time>
      </trkpt>
      <trkpt lat="45.54932" lon="3.06852">
        <ele>705.2644043</ele>
        <time>2011-05-15T08:43:57Z</time>
      </trkpt>
      <trkpt lat="45.54931" lon="3.0682">
        <ele>702.3803711</ele>
        <time>2011-05-15T08:44:01Z</time>
      </trkpt>
      <trkpt lat="45.54931" lon="3.06813">
        <ele>700.9384766</ele>
        <time>2011-05-15T08:44:02Z</time>
      </trkpt>
      <trkpt lat="45.5493" lon="3.06805">
        <ele>700.4580078</ele>
        <time>2011-05-15T08:44:03Z</time>
      </trkpt>
      <trkpt lat="45.54928" lon="3.0679">
        <ele>699.015625</ele>
        <time>2011-05-15T08:44:05Z</time>
      </trkpt>
      <trkpt lat="45.54919" lon="3.06755">
        <ele>695.651123</ele>
        <time>2011-05-15T08:44:10Z</time>
      </trkpt>
      <trkpt lat="45.54905" lon="3.06737">
        <ele>693.7285156</ele>
        <time>2011-05-15T08:44:14Z</time>
      </trkpt>
      <trkpt lat="45.54894" lon="3.06716">
        <ele>690.8444824</ele>
        <time>2011-05-15T08:44:17Z</time>
      </trkpt>
      <trkpt lat="45.54892" lon="3.06707">
        <ele>689.8833008</ele>
        <time>2011-05-15T08:44:18Z</time>
      </trkpt>
      <trkpt lat="45.54883" lon="3.0667">
        <ele>686.9992676</ele>
        <time>2011-05-15T08:44:22Z</time>
      </trkpt>
      <trkpt lat="45.54868" lon="3.06639">
        <ele>684.1154785</ele>
        <time>2011-05-15T08:44:26Z</time>
      </trkpt>
      <trkpt lat="45.54845" lon="3.0661">
        <ele>681.2314453</ele>
        <time>2011-05-15T08:44:30Z</time>
      </trkpt>
      <trkpt lat="45.54833" lon="3.06594">
        <ele>679.3085938</ele>
        <time>2011-05-15T08:44:32Z</time>
      </trkpt>
      <trkpt lat="45.54823" lon="3.06575">
        <ele>677.3862305</ele>
        <time>2011-05-15T08:44:34Z</time>
      </trkpt>
      <trkpt lat="45.54816" lon="3.06555">
        <ele>676.9055176</ele>
        <time>2011-05-15T08:44:36Z</time>
      </trkpt>
      <trkpt lat="45.54808" lon="3.06506">
        <ele>675.4633789</ele>
        <time>2011-05-15T08:44:41Z</time>
      </trkpt>
      <trkpt lat="45.54804" lon="3.06465">
        <ele>672.098877</ele>
        <time>2011-05-15T08:44:46Z</time>
      </trkpt>
      <trkpt lat="45.54798" lon="3.06439">
        <ele>668.2536621</ele>
        <time>2011-05-15T08:44:49Z</time>
      </trkpt>
      <trkpt lat="45.54796" lon="3.06431">
        <ele>668.2536621</ele>
        <time>2011-05-15T08:44:50Z</time>
      </trkpt>
      <trkpt lat="45.54789" lon="3.064">
        <ele>666.3308105</ele>
        <time>2011-05-15T08:44:54Z</time>
      </trkpt>
      <trkpt lat="45.54785" lon="3.06383">
        <ele>664.888916</ele>
        <time>2011-05-15T08:44:56Z</time>
      </trkpt>
      <trkpt lat="45.54781" lon="3.06361">
        <ele>662.9663086</ele>
        <time>2011-05-15T08:44:59Z</time>
      </trkpt>
      <trkpt lat="45.5478" lon="3.06353">
        <ele>662.005127</ele>
        <time>2011-05-15T08:45:00Z</time>
      </trkpt>
      <trkpt lat="45.54779" lon="3.06334">
        <ele>659.6018066</ele>
        <time>2011-05-15T08:45:02Z</time>
      </trkpt>
      <trkpt lat="45.54788" lon="3.06283">
        <ele>655.7565918</ele>
        <time>2011-05-15T08:45:07Z</time>
      </trkpt>
      <trkpt lat="45.54796" lon="3.06246">
        <ele>654.3146973</ele>
        <time>2011-05-15T08:45:11Z</time>
      </trkpt>
      <trkpt lat="45.54797" lon="3.06239">
        <ele>653.8339844</ele>
        <time>2011-05-15T08:45:12Z</time>
      </trkpt>
      <trkpt lat="45.548" lon="3.06214">
        <ele>651.9111328</ele>
        <time>2011-05-15T08:45:15Z</time>
      </trkpt>
      <trkpt lat="45.54803" lon="3.06195">
        <ele>649.9885254</ele>
        <time>2011-05-15T08:45:17Z</time>
      </trkpt>
      <trkpt lat="45.54808" lon="3.06145">
        <ele>648.065918</ele>
        <time>2011-05-15T08:45:22Z</time>
      </trkpt>
      <trkpt lat="45.5481" lon="3.06115">
        <ele>645.1818848</ele>
        <time>2011-05-15T08:45:26Z</time>
      </trkpt>
      <trkpt lat="45.54805" lon="3.06085">
        <ele>643.2592773</ele>
        <time>2011-05-15T08:45:31Z</time>
      </trkpt>
      <trkpt lat="45.54798" lon="3.06076">
        <ele>641.8173828</ele>
        <time>2011-05-15T08:45:33Z</time>
      </trkpt>
      <trkpt lat="45.54783" lon="3.06061">
        <ele>636.5302734</ele>
        <time>2011-05-15T08:45:37Z</time>
      </trkpt>
      <trkpt lat="45.54771" lon="3.06052">
        <ele>633.1652832</ele>
        <time>2011-05-15T08:45:41Z</time>
      </trkpt>
      <trkpt lat="45.54767" lon="3.0605">
        <ele>633.1652832</ele>
        <time>2011-05-15T08:45:42Z</time>
      </trkpt>
      <trkpt lat="45.54758" lon="3.06041">
        <ele>630.762207</ele>
        <time>2011-05-15T08:45:45Z</time>
      </trkpt>
      <trkpt lat="45.54754" lon="3.0603">
        <ele>628.8395996</ele>
        <time>2011-05-15T08:45:47Z</time>
      </trkpt>
      <trkpt lat="45.54744" lon="3.05988">
        <ele>625.4748535</ele>
        <time>2011-05-15T08:45:52Z</time>
      </trkpt>
      <trkpt lat="45.54739" lon="3.05965">
        <ele>624.5136719</ele>
        <time>2011-05-15T08:45:55Z</time>
      </trkpt>
      <trkpt lat="45.54737" lon="3.0593">
        <ele>620.668457</ele>
        <time>2011-05-15T08:45:59Z</time>
      </trkpt>
      <trkpt lat="45.54736" lon="3.05921">
        <ele>619.7070313</ele>
        <time>2011-05-15T08:46:00Z</time>
      </trkpt>
      <trkpt lat="45.54721" lon="3.05883">
        <ele>615.8618164</ele>
        <time>2011-05-15T08:46:05Z</time>
      </trkpt>
      <trkpt lat="45.54719" lon="3.05875">
        <ele>614.9003906</ele>
        <time>2011-05-15T08:46:06Z</time>
      </trkpt>
      <trkpt lat="45.54707" lon="3.05841">
        <ele>610.5744629</ele>
        <time>2011-05-15T08:46:11Z</time>
      </trkpt>
      <trkpt lat="45.54696" lon="3.05824">
        <ele>606.729248</ele>
        <time>2011-05-15T08:46:14Z</time>
      </trkpt>
      <trkpt lat="45.54693" lon="3.05815">
        <ele>605.2873535</ele>
        <time>2011-05-15T08:46:15Z</time>
      </trkpt>
      <trkpt lat="45.54682" lon="3.05784">
        <ele>602.4030762</ele>
        <time>2011-05-15T08:46:18Z</time>
      </trkpt>
      <trkpt lat="45.54668" lon="3.05755">
        <ele>600.9611816</ele>
        <time>2011-05-15T08:46:21Z</time>
      </trkpt>
      <trkpt lat="45.54664" lon="3.05748">
        <ele>602.4030762</ele>
        <time>2011-05-15T08:46:22Z</time>
      </trkpt>
      <trkpt lat="45.54647" lon="3.05728">
        <ele>604.3261719</ele>
        <time>2011-05-15T08:46:26Z</time>
      </trkpt>
      <trkpt lat="45.54637" lon="3.05699">
        <ele>602.8837891</ele>
        <time>2011-05-15T08:46:31Z</time>
      </trkpt>
      <trkpt lat="45.54634" lon="3.05686">
        <ele>602.8837891</ele>
        <time>2011-05-15T08:46:33Z</time>
      </trkpt>
      <trkpt lat="45.5462" lon="3.05656">
        <ele>601.9226074</ele>
        <time>2011-05-15T08:46:38Z</time>
      </trkpt>
      <trkpt lat="45.54613" lon="3.05644">
        <ele>601.4418945</ele>
        <time>2011-05-15T08:46:40Z</time>
      </trkpt>
      <trkpt lat="45.54603" lon="3.05625">
        <ele>600.9611816</ele>
        <time>2011-05-15T08:46:43Z</time>
      </trkpt>
      <trkpt lat="45.54597" lon="3.05611">
        <ele>601.4418945</ele>
        <time>2011-05-15T08:46:45Z</time>
      </trkpt>
      <trkpt lat="45.54587" lon="3.05584">
        <ele>600.9611816</ele>
        <time>2011-05-15T08:46:49Z</time>
      </trkpt>
      <trkpt lat="45.54584" lon="3.05578">
        <ele>600.9611816</ele>
        <time>2011-05-15T08:46:50Z</time>
      </trkpt>
      <trkpt lat="45.5457" lon="3.05538">
        <ele>600.9611816</ele>
        <time>2011-05-15T08:46:56Z</time>
      </trkpt>
      <trkpt lat="45.54556" lon="3.05507">
        <ele>600.4807129</ele>
        <time>2011-05-15T08:47:01Z</time>
      </trkpt>
      <trkpt lat="45.54548" lon="3.05495">
        <ele>600</ele>
        <time>2011-05-15T08:47:03Z</time>
      </trkpt>
      <trkpt lat="45.54516" lon="3.05461">
        <ele>596.1547852</ele>
        <time>2011-05-15T08:47:09Z</time>
      </trkpt>
      <trkpt lat="45.54478" lon="3.05423">
        <ele>595.1933594</ele>
        <time>2011-05-15T08:47:16Z</time>
      </trkpt>
      <trkpt lat="45.54467" lon="3.05412">
        <ele>594.7126465</ele>
        <time>2011-05-15T08:47:18Z</time>
      </trkpt>
      <trkpt lat="45.54457" lon="3.05403">
        <ele>594.7126465</ele>
        <time>2011-05-15T08:47:20Z</time>
      </trkpt>
      <trkpt lat="45.54414" lon="3.05353">
        <ele>592.7902832</ele>
        <time>2011-05-15T08:47:29Z</time>
      </trkpt>
      <trkpt lat="45.54395" lon="3.0533">
        <ele>593.7514648</ele>
        <time>2011-05-15T08:47:33Z</time>
      </trkpt>
      <trkpt lat="45.54371" lon="3.05304">
        <ele>593.7514648</ele>
        <time>2011-05-15T08:47:38Z</time>
      </trkpt>
      <trkpt lat="45.54349" lon="3.05269">
        <ele>595.6740723</ele>
        <time>2011-05-15T08:47:44Z</time>
      </trkpt>
      <trkpt lat="45.54331" lon="3.05239">
        <ele>598.0773926</ele>
        <time>2011-05-15T08:47:51Z</time>
      </trkpt>
      <trkpt lat="45.54322" lon="3.05223">
        <ele>599.5192871</ele>
        <time>2011-05-15T08:47:55Z</time>
      </trkpt>
      <trkpt lat="45.54315" lon="3.05205">
        <ele>599.0385742</ele>
        <time>2011-05-15T08:47:59Z</time>
      </trkpt>
      <trkpt lat="45.54312" lon="3.05201">
        <ele>599.0385742</ele>
        <time>2011-05-15T08:48:00Z</time>
      </trkpt>
      <trkpt lat="45.54305" lon="3.05178">
        <ele>599.0385742</ele>
        <time>2011-05-15T08:48:04Z</time>
      </trkpt>
      <trkpt lat="45.54304" lon="3.05144">
        <ele>596.635498</ele>
        <time>2011-05-15T08:48:09Z</time>
      </trkpt>
      <trkpt lat="45.54312" lon="3.05112">
        <ele>594.2321777</ele>
        <time>2011-05-15T08:48:13Z</time>
      </trkpt>
      <trkpt lat="45.5432" lon="3.05096">
        <ele>592.3095703</ele>
        <time>2011-05-15T08:48:15Z</time>
      </trkpt>
      <trkpt lat="45.54328" lon="3.05059">
        <ele>591.3481445</ele>
        <time>2011-05-15T08:48:19Z</time>
      </trkpt>
      <trkpt lat="45.54326" lon="3.04984">
        <ele>588.4643555</ele>
        <time>2011-05-15T08:48:27Z</time>
      </trkpt>
      <trkpt lat="45.54325" lon="3.04975">
        <ele>587.9833984</ele>
        <time>2011-05-15T08:48:28Z</time>
      </trkpt>
      <trkpt lat="45.54317" lon="3.04947">
        <ele>585.0996094</ele>
        <time>2011-05-15T08:48:31Z</time>
      </trkpt>
      <trkpt lat="45.54314" lon="3.04938">
        <ele>585.0996094</ele>
        <time>2011-05-15T08:48:32Z</time>
      </trkpt>
      <trkpt lat="45.54311" lon="3.04929">
        <ele>584.1381836</ele>
        <time>2011-05-15T08:48:33Z</time>
      </trkpt>
      <trkpt lat="45.54299" lon="3.04905">
        <ele>583.6574707</ele>
        <time>2011-05-15T08:48:37Z</time>
      </trkpt>
      <trkpt lat="45.54286" lon="3.04896">
        <ele>582.2155762</ele>
        <time>2011-05-15T08:48:40Z</time>
      </trkpt>
      <trkpt lat="45.54263" lon="3.04889">
        <ele>578.8510742</ele>
        <time>2011-05-15T08:48:44Z</time>
      </trkpt>
      <trkpt lat="45.54244" lon="3.04881">
        <ele>575.0058594</ele>
        <time>2011-05-15T08:48:47Z</time>
      </trkpt>
      <trkpt lat="45.54221" lon="3.04875">
        <ele>572.1218262</ele>
        <time>2011-05-15T08:48:50Z</time>
      </trkpt>
      <trkpt lat="45.54197" lon="3.04869">
        <ele>568.2763672</ele>
        <time>2011-05-15T08:48:53Z</time>
      </trkpt>
      <trkpt lat="45.54182" lon="3.04866">
        <ele>565.3925781</ele>
        <time>2011-05-15T08:48:55Z</time>
      </trkpt>
      <trkpt lat="45.54155" lon="3.04868">
        <ele>560.5859375</ele>
        <time>2011-05-15T08:48:59Z</time>
      </trkpt>
      <trkpt lat="45.54144" lon="3.04872">
        <ele>559.6247559</ele>
        <time>2011-05-15T08:49:01Z</time>
      </trkpt>
      <trkpt lat="45.5413" lon="3.04873">
        <ele>558.6633301</ele>
        <time>2011-05-15T08:49:05Z</time>
      </trkpt>
      <trkpt lat="45.54127" lon="3.04869">
        <ele>558.1828613</ele>
        <time>2011-05-15T08:49:07Z</time>
      </trkpt>
      <trkpt lat="45.54111" lon="3.0484">
        <ele>558.1828613</ele>
        <time>2011-05-15T08:49:14Z</time>
      </trkpt>
      <trkpt lat="45.54091" lon="3.04801">
        <ele>557.7021484</ele>
        <time>2011-05-15T08:49:21Z</time>
      </trkpt>
      <trkpt lat="45.54074" lon="3.04768">
        <ele>558.6633301</ele>
        <time>2011-05-15T08:49:27Z</time>
      </trkpt>
      <trkpt lat="45.54055" lon="3.04727">
        <ele>559.144043</ele>
        <time>2011-05-15T08:49:34Z</time>
      </trkpt>
      <trkpt lat="45.54049" lon="3.04716">
        <ele>558.6633301</ele>
        <time>2011-05-15T08:49:36Z</time>
      </trkpt>
      <trkpt lat="45.54035" lon="3.04678">
        <ele>559.144043</ele>
        <time>2011-05-15T08:49:42Z</time>
      </trkpt>
      <trkpt lat="45.54028" lon="3.04628">
        <ele>559.144043</ele>
        <time>2011-05-15T08:49:49Z</time>
      </trkpt>
      <trkpt lat="45.54026" lon="3.04579">
        <ele>559.144043</ele>
        <time>2011-05-15T08:49:56Z</time>
      </trkpt>
      <trkpt lat="45.54025" lon="3.04572">
        <ele>559.6247559</ele>
        <time>2011-05-15T08:49:57Z</time>
      </trkpt>
      <trkpt lat="45.54013" lon="3.04544">
        <ele>559.6247559</ele>
        <time>2011-05-15T08:50:02Z</time>
      </trkpt>
      <trkpt lat="45.54009" lon="3.04536">
        <ele>559.144043</ele>
        <time>2011-05-15T08:50:04Z</time>
      </trkpt>
      <trkpt lat="45.54005" lon="3.0452">
        <ele>558.6633301</ele>
        <time>2011-05-15T08:50:07Z</time>
      </trkpt>
      <trkpt lat="45.53997" lon="3.04494">
        <ele>557.7021484</ele>
        <time>2011-05-15T08:50:11Z</time>
      </trkpt>
      <trkpt lat="45.53989" lon="3.04471">
        <ele>557.7021484</ele>
        <time>2011-05-15T08:50:15Z</time>
      </trkpt>
      <trkpt lat="45.53982" lon="3.04451">
        <ele>559.144043</ele>
        <time>2011-05-15T08:50:20Z</time>
      </trkpt>
      <trkpt lat="45.5397" lon="3.0443">
        <ele>558.1828613</ele>
        <time>2011-05-15T08:50:25Z</time>
      </trkpt>
      <trkpt lat="45.5396" lon="3.04404">
        <ele>559.144043</ele>
        <time>2011-05-15T08:50:31Z</time>
      </trkpt>
      <trkpt lat="45.53946" lon="3.04379">
        <ele>558.6633301</ele>
        <time>2011-05-15T08:50:37Z</time>
      </trkpt>
      <trkpt lat="45.5393" lon="3.04356">
        <ele>559.144043</ele>
        <time>2011-05-15T08:50:43Z</time>
      </trkpt>
      <trkpt lat="45.53914" lon="3.04337">
        <ele>559.6247559</ele>
        <time>2011-05-15T08:50:49Z</time>
      </trkpt>
      <trkpt lat="45.53898" lon="3.04316">
        <ele>560.5859375</ele>
        <time>2011-05-15T08:50:55Z</time>
      </trkpt>
      <trkpt lat="45.53888" lon="3.04297">
        <ele>562.0280762</ele>
        <time>2011-05-15T08:51:01Z</time>
      </trkpt>
      <trkpt lat="45.53884" lon="3.04288">
        <ele>563.4699707</ele>
        <time>2011-05-15T08:51:04Z</time>
      </trkpt>
      <trkpt lat="45.53878" lon="3.04276">
        <ele>563.9504395</ele>
        <time>2011-05-15T08:51:08Z</time>
      </trkpt>
      <trkpt lat="45.53872" lon="3.04266">
        <ele>564.9118652</ele>
        <time>2011-05-15T08:51:11Z</time>
      </trkpt>
      <trkpt lat="45.53862" lon="3.04253">
        <ele>564.9118652</ele>
        <time>2011-05-15T08:51:15Z</time>
      </trkpt>
      <trkpt lat="45.53857" lon="3.04247">
        <ele>564.9118652</ele>
        <time>2011-05-15T08:51:17Z</time>
      </trkpt>
      <trkpt lat="45.53837" lon="3.04224">
        <ele>565.3925781</ele>
        <time>2011-05-15T08:51:25Z</time>
      </trkpt>
      <trkpt lat="45.53822" lon="3.04209">
        <ele>567.3151855</ele>
        <time>2011-05-15T08:51:32Z</time>
      </trkpt>
      <trkpt lat="45.53811" lon="3.04198">
        <ele>568.2763672</ele>
        <time>2011-05-15T08:51:38Z</time>
      </trkpt>
      <trkpt lat="45.53801" lon="3.04195">
        <ele>570.1989746</ele>
        <time>2011-05-15T08:51:43Z</time>
      </trkpt>
      <trkpt lat="45.53788" lon="3.04196">
        <ele>567.7956543</ele>
        <time>2011-05-15T08:51:48Z</time>
      </trkpt>
      <trkpt lat="45.53769" lon="3.04191">
        <ele>566.3537598</ele>
        <time>2011-05-15T08:51:53Z</time>
      </trkpt>
      <trkpt lat="45.53756" lon="3.04188">
        <ele>565.873291</ele>
        <time>2011-05-15T08:51:57Z</time>
      </trkpt>
      <trkpt lat="45.5375" lon="3.04186">
        <ele>564.4311523</ele>
        <time>2011-05-15T08:52:00Z</time>
      </trkpt>
      <trkpt lat="45.53733" lon="3.04186">
        <ele>563.4699707</ele>
        <time>2011-05-15T08:52:05Z</time>
      </trkpt>
      <trkpt lat="45.53719" lon="3.04183">
        <ele>564.4311523</ele>
        <time>2011-05-15T08:52:10Z</time>
      </trkpt>
      <trkpt lat="45.53706" lon="3.04178">
        <ele>564.4311523</ele>
        <time>2011-05-15T08:52:16Z</time>
      </trkpt>
      <trkpt lat="45.53693" lon="3.04173">
        <ele>564.4311523</ele>
        <time>2011-05-15T08:52:21Z</time>
      </trkpt>
      <trkpt lat="45.53675" lon="3.04166">
        <ele>564.4311523</ele>
        <time>2011-05-15T08:52:28Z</time>
      </trkpt>
      <trkpt lat="45.53663" lon="3.04162">
        <ele>564.4311523</ele>
        <time>2011-05-15T08:52:33Z</time>
      </trkpt>
      <trkpt lat="45.53646" lon="3.04161">
        <ele>564.9118652</ele>
        <time>2011-05-15T08:52:38Z</time>
      </trkpt>
      <trkpt lat="45.53627" lon="3.04158">
        <ele>564.9118652</ele>
        <time>2011-05-15T08:52:44Z</time>
      </trkpt>
      <trkpt lat="45.5361" lon="3.04158">
        <ele>565.3925781</ele>
        <time>2011-05-15T08:52:49Z</time>
      </trkpt>
      <trkpt lat="45.53608" lon="3.04158">
        <ele>565.3925781</ele>
        <time>2011-05-15T08:52:50Z</time>
      </trkpt>
      <trkpt lat="45.53598" lon="3.04162">
        <ele>565.873291</ele>
        <time>2011-05-15T08:52:54Z</time>
      </trkpt>
      <trkpt lat="45.53577" lon="3.04165">
        <ele>567.3151855</ele>
        <time>2011-05-15T08:53:02Z</time>
      </trkpt>
      <trkpt lat="45.53568" lon="3.04159">
        <ele>568.7570801</ele>
        <time>2011-05-15T08:53:08Z</time>
      </trkpt>
      <trkpt lat="45.53559" lon="3.0416">
        <ele>566.8344727</ele>
        <time>2011-05-15T08:53:12Z</time>
      </trkpt>
      <trkpt lat="45.53545" lon="3.04164">
        <ele>567.7956543</ele>
        <time>2011-05-15T08:53:17Z</time>
      </trkpt>
      <trkpt lat="45.5353" lon="3.0416">
        <ele>567.3151855</ele>
        <time>2011-05-15T08:53:24Z</time>
      </trkpt>
      <trkpt lat="45.53527" lon="3.04158">
        <ele>566.8344727</ele>
        <time>2011-05-15T08:53:27Z</time>
      </trkpt>
      <trkpt lat="45.5352" lon="3.04159">
        <ele>566.8344727</ele>
        <time>2011-05-15T08:53:31Z</time>
      </trkpt>
      <trkpt lat="45.53512" lon="3.04168">
        <ele>568.2763672</ele>
        <time>2011-05-15T08:53:37Z</time>
      </trkpt>
      <trkpt lat="45.53502" lon="3.04171">
        <ele>568.7570801</ele>
        <time>2011-05-15T08:53:42Z</time>
      </trkpt>
      <trkpt lat="45.53492" lon="3.04168">
        <ele>569.7185059</ele>
        <time>2011-05-15T08:53:46Z</time>
      </trkpt>
      <trkpt lat="45.53484" lon="3.04166">
        <ele>570.6796875</ele>
        <time>2011-05-15T08:53:49Z</time>
      </trkpt>
      <trkpt lat="45.53473" lon="3.0416">
        <ele>572.6025391</ele>
        <time>2011-05-15T08:53:54Z</time>
      </trkpt>
      <trkpt lat="45.53471" lon="3.04159">
        <ele>572.6025391</ele>
        <time>2011-05-15T08:53:55Z</time>
      </trkpt>
      <trkpt lat="45.53462" lon="3.04161">
        <ele>573.5639648</ele>
        <time>2011-05-15T08:53:59Z</time>
      </trkpt>
      <trkpt lat="45.53455" lon="3.0416">
        <ele>575.0058594</ele>
        <time>2011-05-15T08:54:03Z</time>
      </trkpt>
      <trkpt lat="45.53446" lon="3.04162">
        <ele>575.967041</ele>
        <time>2011-05-15T08:54:09Z</time>
      </trkpt>
      <trkpt lat="45.53444" lon="3.04163">
        <ele>575.967041</ele>
        <time>2011-05-15T08:54:10Z</time>
      </trkpt>
      <trkpt lat="45.53429" lon="3.04171">
        <ele>576.4477539</ele>
        <time>2011-05-15T08:54:17Z</time>
      </trkpt>
      <trkpt lat="45.53419" lon="3.04175">
        <ele>576.9284668</ele>
        <time>2011-05-15T08:54:21Z</time>
      </trkpt>
      <trkpt lat="45.53405" lon="3.04174">
        <ele>580.2929688</ele>
        <time>2011-05-15T08:54:29Z</time>
      </trkpt>
      <trkpt lat="45.53392" lon="3.04176">
        <ele>580.7736816</ele>
        <time>2011-05-15T08:54:36Z</time>
      </trkpt>
      <trkpt lat="45.53384" lon="3.04181">
        <ele>581.7348633</ele>
        <time>2011-05-15T08:54:40Z</time>
      </trkpt>
      <trkpt lat="45.53371" lon="3.04174">
        <ele>582.2155762</ele>
        <time>2011-05-15T08:54:46Z</time>
      </trkpt>
      <trkpt lat="45.53367" lon="3.04171">
        <ele>582.2155762</ele>
        <time>2011-05-15T08:54:48Z</time>
      </trkpt>
      <trkpt lat="45.53359" lon="3.04177">
        <ele>580.2929688</ele>
        <time>2011-05-15T08:54:52Z</time>
      </trkpt>
      <trkpt lat="45.53346" lon="3.04189">
        <ele>577.8896484</ele>
        <time>2011-05-15T08:54:57Z</time>
      </trkpt>
      <trkpt lat="45.53331" lon="3.04198">
        <ele>575.967041</ele>
        <time>2011-05-15T08:55:02Z</time>
      </trkpt>
      <trkpt lat="45.53314" lon="3.04211">
        <ele>575.4863281</ele>
        <time>2011-05-15T08:55:07Z</time>
      </trkpt>
      <trkpt lat="45.53307" lon="3.04216">
        <ele>575.0058594</ele>
        <time>2011-05-15T08:55:09Z</time>
      </trkpt>
      <trkpt lat="45.53288" lon="3.0423">
        <ele>577.4091797</ele>
        <time>2011-05-15T08:55:14Z</time>
      </trkpt>
      <trkpt lat="45.53282" lon="3.04232">
        <ele>578.3703613</ele>
        <time>2011-05-15T08:55:16Z</time>
      </trkpt>
      <trkpt lat="45.5326" lon="3.04232">
        <ele>578.3703613</ele>
        <time>2011-05-15T08:55:23Z</time>
      </trkpt>
      <trkpt lat="45.53234" lon="3.04227">
        <ele>579.331543</ele>
        <time>2011-05-15T08:55:31Z</time>
      </trkpt>
      <trkpt lat="45.53217" lon="3.04226">
        <ele>579.331543</ele>
        <time>2011-05-15T08:55:36Z</time>
      </trkpt>
      <trkpt lat="45.53195" lon="3.04224">
        <ele>579.8122559</ele>
        <time>2011-05-15T08:55:43Z</time>
      </trkpt>
      <trkpt lat="45.53178" lon="3.04224">
        <ele>580.7736816</ele>
        <time>2011-05-15T08:55:48Z</time>
      </trkpt>
      <trkpt lat="45.5316" lon="3.04223">
        <ele>580.2929688</ele>
        <time>2011-05-15T08:55:54Z</time>
      </trkpt>
      <trkpt lat="45.53142" lon="3.0423">
        <ele>580.7736816</ele>
        <time>2011-05-15T08:55:59Z</time>
      </trkpt>
      <trkpt lat="45.53135" lon="3.04235">
        <ele>582.2155762</ele>
        <time>2011-05-15T08:56:01Z</time>
      </trkpt>
      <trkpt lat="45.53122" lon="3.04237">
        <ele>583.1767578</ele>
        <time>2011-05-15T08:56:05Z</time>
      </trkpt>
      <trkpt lat="45.53098" lon="3.04219">
        <ele>584.6188965</ele>
        <time>2011-05-15T08:56:13Z</time>
      </trkpt>
      <trkpt lat="45.53084" lon="3.04189">
        <ele>586.5415039</ele>
        <time>2011-05-15T08:56:20Z</time>
      </trkpt>
      <trkpt lat="45.5308" lon="3.04157">
        <ele>587.0219727</ele>
        <time>2011-05-15T08:56:26Z</time>
      </trkpt>
      <trkpt lat="45.53085" lon="3.04121">
        <ele>588.9450684</ele>
        <time>2011-05-15T08:56:33Z</time>
      </trkpt>
      <trkpt lat="45.53098" lon="3.04087">
        <ele>590.8674316</ele>
        <time>2011-05-15T08:56:40Z</time>
      </trkpt>
      <trkpt lat="45.53114" lon="3.04049">
        <ele>592.7902832</ele>
        <time>2011-05-15T08:56:48Z</time>
      </trkpt>
      <trkpt lat="45.53131" lon="3.04011">
        <ele>594.7126465</ele>
        <time>2011-05-15T08:56:56Z</time>
      </trkpt>
      <trkpt lat="45.53142" lon="3.03976">
        <ele>596.1547852</ele>
        <time>2011-05-15T08:57:03Z</time>
      </trkpt>
      <trkpt lat="45.53144" lon="3.03931">
        <ele>597.5966797</ele>
        <time>2011-05-15T08:57:11Z</time>
      </trkpt>
      <trkpt lat="45.53135" lon="3.03891">
        <ele>598.0773926</ele>
        <time>2011-05-15T08:57:18Z</time>
      </trkpt>
      <trkpt lat="45.53118" lon="3.03842">
        <ele>598.0773926</ele>
        <time>2011-05-15T08:57:27Z</time>
      </trkpt>
      <trkpt lat="45.53101" lon="3.03793">
        <ele>599.0385742</ele>
        <time>2011-05-15T08:57:36Z</time>
      </trkpt>
      <trkpt lat="45.53091" lon="3.03747">
        <ele>598.0773926</ele>
        <time>2011-05-15T08:57:44Z</time>
      </trkpt>
      <trkpt lat="45.53091" lon="3.03735">
        <ele>598.0773926</ele>
        <time>2011-05-15T08:57:46Z</time>
      </trkpt>
      <trkpt lat="45.53098" lon="3.03702">
        <ele>600.4807129</ele>
        <time>2011-05-15T08:57:52Z</time>
      </trkpt>
      <trkpt lat="45.53111" lon="3.03676">
        <ele>601.4418945</ele>
        <time>2011-05-15T08:57:57Z</time>
      </trkpt>
      <trkpt lat="45.53136" lon="3.03633">
        <ele>601.9226074</ele>
        <time>2011-05-15T08:58:06Z</time>
      </trkpt>
      <trkpt lat="45.53156" lon="3.03587">
        <ele>602.4030762</ele>
        <time>2011-05-15T08:58:15Z</time>
      </trkpt>
      <trkpt lat="45.53166" lon="3.03548">
        <ele>603.8452148</ele>
        <time>2011-05-15T08:58:22Z</time>
      </trkpt>
      <trkpt lat="45.53181" lon="3.03488">
        <ele>605.7680664</ele>
        <time>2011-05-15T08:58:33Z</time>
      </trkpt>
      <trkpt lat="45.53195" lon="3.03435">
        <ele>608.1713867</ele>
        <time>2011-05-15T08:58:43Z</time>
      </trkpt>
      <trkpt lat="45.53212" lon="3.03392">
        <ele>609.6132813</ele>
        <time>2011-05-15T08:58:52Z</time>
      </trkpt>
      <trkpt lat="45.53225" lon="3.03368">
        <ele>611.0551758</ele>
        <time>2011-05-15T08:58:58Z</time>
      </trkpt>
      <trkpt lat="45.53245" lon="3.03331">
        <ele>612.4970703</ele>
        <time>2011-05-15T08:59:06Z</time>
      </trkpt>
      <trkpt lat="45.53262" lon="3.03293">
        <ele>613.4584961</ele>
        <time>2011-05-15T08:59:13Z</time>
      </trkpt>
      <trkpt lat="45.53272" lon="3.03248">
        <ele>614.4196777</ele>
        <time>2011-05-15T08:59:20Z</time>
      </trkpt>
      <trkpt lat="45.53278" lon="3.03189">
        <ele>614.4196777</ele>
        <time>2011-05-15T08:59:28Z</time>
      </trkpt>
      <trkpt lat="45.53283" lon="3.03128">
        <ele>614.9003906</ele>
        <time>2011-05-15T08:59:36Z</time>
      </trkpt>
      <trkpt lat="45.53283" lon="3.03054">
        <ele>614.4196777</ele>
        <time>2011-05-15T08:59:46Z</time>
      </trkpt>
      <trkpt lat="45.53277" lon="3.02997">
        <ele>613.9389648</ele>
        <time>2011-05-15T08:59:54Z</time>
      </trkpt>
      <trkpt lat="45.53275" lon="3.02989">
        <ele>614.4196777</ele>
        <time>2011-05-15T08:59:55Z</time>
      </trkpt>
      <trkpt lat="45.53272" lon="3.02967">
        <ele>616.822998</ele>
        <time>2011-05-15T08:59:58Z</time>
      </trkpt>
      <trkpt lat="45.53261" lon="3.02894">
        <ele>617.7841797</ele>
        <time>2011-05-15T09:00:07Z</time>
      </trkpt>
      <trkpt lat="45.53247" lon="3.02826">
        <ele>618.7456055</ele>
        <time>2011-05-15T09:00:15Z</time>
      </trkpt>
      <trkpt lat="45.53228" lon="3.02744">
        <ele>620.1877441</ele>
        <time>2011-05-15T09:00:25Z</time>
      </trkpt>
      <trkpt lat="45.53226" lon="3.02736">
        <ele>620.1877441</ele>
        <time>2011-05-15T09:00:26Z</time>
      </trkpt>
      <trkpt lat="45.53216" lon="3.02711">
        <ele>619.7070313</ele>
        <time>2011-05-15T09:00:30Z</time>
      </trkpt>
      <trkpt lat="45.53202" lon="3.02699">
        <ele>620.1877441</ele>
        <time>2011-05-15T09:00:34Z</time>
      </trkpt>
      <trkpt lat="45.53192" lon="3.02696">
        <ele>619.2263184</ele>
        <time>2011-05-15T09:00:36Z</time>
      </trkpt>
      <trkpt lat="45.53164" lon="3.02689">
        <ele>618.7456055</ele>
        <time>2011-05-15T09:00:41Z</time>
      </trkpt>
      <trkpt lat="45.53135" lon="3.0268">
        <ele>618.7456055</ele>
        <time>2011-05-15T09:00:47Z</time>
      </trkpt>
      <trkpt lat="45.5312" lon="3.02678">
        <ele>619.7070313</ele>
        <time>2011-05-15T09:00:50Z</time>
      </trkpt>
      <trkpt lat="45.53107" lon="3.02679">
        <ele>618.7456055</ele>
        <time>2011-05-15T09:00:53Z</time>
      </trkpt>
      <trkpt lat="45.53097" lon="3.02679">
        <ele>618.7456055</ele>
        <time>2011-05-15T09:00:55Z</time>
      </trkpt>
      <trkpt lat="45.53074" lon="3.02681">
        <ele>618.7456055</ele>
        <time>2011-05-15T09:01:00Z</time>
      </trkpt>
      <trkpt lat="45.53067" lon="3.02694">
        <ele>617.3037109</ele>
        <time>2011-05-15T09:01:04Z</time>
      </trkpt>
      <trkpt lat="45.53065" lon="3.02711">
        <ele>614.4196777</ele>
        <time>2011-05-15T09:01:07Z</time>
      </trkpt>
      <trkpt lat="45.53058" lon="3.02724">
        <ele>615.3811035</ele>
        <time>2011-05-15T09:01:10Z</time>
      </trkpt>
      <trkpt lat="45.53054" lon="3.02724">
        <ele>615.3811035</ele>
        <time>2011-05-15T09:01:11Z</time>
      </trkpt>
      <trkpt lat="45.53034" lon="3.02726">
        <ele>615.8618164</ele>
        <time>2011-05-15T09:01:16Z</time>
      </trkpt>
      <trkpt lat="45.5301" lon="3.02741">
        <ele>617.7841797</ele>
        <time>2011-05-15T09:01:24Z</time>
      </trkpt>
      <trkpt lat="45.53" lon="3.02748">
        <ele>618.2648926</ele>
        <time>2011-05-15T09:01:28Z</time>
      </trkpt>
      <trkpt lat="45.52994" lon="3.02753">
        <ele>618.7456055</ele>
        <time>2011-05-15T09:01:31Z</time>
      </trkpt>
      <trkpt lat="45.5299" lon="3.02755">
        <ele>619.2263184</ele>
        <time>2011-05-15T09:01:33Z</time>
      </trkpt>
      <trkpt lat="45.52978" lon="3.02758">
        <ele>620.1877441</ele>
        <time>2011-05-15T09:01:39Z</time>
      </trkpt>
      <trkpt lat="45.52972" lon="3.02761">
        <ele>621.1491699</ele>
        <time>2011-05-15T09:01:43Z</time>
      </trkpt>
      <trkpt lat="45.52971" lon="3.02771">
        <ele>622.5910645</ele>
        <time>2011-05-15T09:01:49Z</time>
      </trkpt>
      <trkpt lat="45.52972" lon="3.02775">
        <ele>623.5524902</ele>
        <time>2011-05-15T09:01:51Z</time>
      </trkpt>
      <trkpt lat="45.52974" lon="3.02778">
        <ele>624.032959</ele>
        <time>2011-05-15T09:01:57Z</time>
      </trkpt>
      <trkpt lat="45.52977" lon="3.0278">
        <ele>624.5136719</ele>
        <time>2011-05-15T09:02:02Z</time>
      </trkpt>
      <trkpt lat="45.52981" lon="3.02782">
        <ele>626.9169922</ele>
        <time>2011-05-15T09:02:10Z</time>
      </trkpt>
      <trkpt lat="45.52985" lon="3.02785">
        <ele>628.8395996</ele>
        <time>2011-05-15T09:02:17Z</time>
      </trkpt>
      <trkpt lat="45.52987" lon="3.02789">
        <ele>628.8395996</ele>
        <time>2011-05-15T09:02:25Z</time>
      </trkpt>
      <trkpt lat="45.5299" lon="3.02795">
        <ele>630.762207</ele>
        <time>2011-05-15T09:02:33Z</time>
      </trkpt>
      <trkpt lat="45.52993" lon="3.02801">
        <ele>631.7233887</ele>
        <time>2011-05-15T09:02:40Z</time>
      </trkpt>
      <trkpt lat="45.52995" lon="3.02805">
        <ele>632.2041016</ele>
        <time>2011-05-15T09:02:45Z</time>
      </trkpt>
      <trkpt lat="45.52998" lon="3.02812">
        <ele>634.6074219</ele>
        <time>2011-05-15T09:02:54Z</time>
      </trkpt>
      <trkpt lat="45.53002" lon="3.02818">
        <ele>636.0495605</ele>
        <time>2011-05-15T09:03:03Z</time>
      </trkpt>
      <trkpt lat="45.53005" lon="3.02821">
        <ele>636.0495605</ele>
        <time>2011-05-15T09:03:10Z</time>
      </trkpt>
      <trkpt lat="45.53008" lon="3.02827">
        <ele>636.5302734</ele>
        <time>2011-05-15T09:03:18Z</time>
      </trkpt>
      <trkpt lat="45.5301" lon="3.02837">
        <ele>637.972168</ele>
        <time>2011-05-15T09:03:24Z</time>
      </trkpt>
      <trkpt lat="45.53016" lon="3.0285">
        <ele>639.8947754</ele>
        <time>2011-05-15T09:03:32Z</time>
      </trkpt>
      <trkpt lat="45.5302" lon="3.02858">
        <ele>641.3366699</ele>
        <time>2011-05-15T09:03:38Z</time>
      </trkpt>
      <trkpt lat="45.53021" lon="3.02869">
        <ele>643.7399902</ele>
        <time>2011-05-15T09:03:45Z</time>
      </trkpt>
      <trkpt lat="45.53023" lon="3.02875">
        <ele>644.2207031</ele>
        <time>2011-05-15T09:03:49Z</time>
      </trkpt>
      <trkpt lat="45.53026" lon="3.02885">
        <ele>645.6625977</ele>
        <time>2011-05-15T09:03:55Z</time>
      </trkpt>
      <trkpt lat="45.53028" lon="3.02896">
        <ele>647.1044922</ele>
        <time>2011-05-15T09:04:02Z</time>
      </trkpt>
      <trkpt lat="45.53032" lon="3.02903">
        <ele>648.5463867</ele>
        <time>2011-05-15T09:04:07Z</time>
      </trkpt>
      <trkpt lat="45.53033" lon="3.02907">
        <ele>649.5078125</ele>
        <time>2011-05-15T09:04:13Z</time>
      </trkpt>
      <trkpt lat="45.53034" lon="3.02911">
        <ele>649.5078125</ele>
        <time>2011-05-15T09:04:21Z</time>
      </trkpt>
      <trkpt lat="45.53031" lon="3.02917">
        <ele>650.949707</ele>
        <time>2011-05-15T09:04:29Z</time>
      </trkpt>
      <trkpt lat="45.5303" lon="3.02918">
        <ele>651.9111328</ele>
        <time>2011-05-15T09:04:36Z</time>
      </trkpt>
      <trkpt lat="45.53029" lon="3.02917">
        <ele>651.9111328</ele>
        <time>2011-05-15T09:04:41Z</time>
      </trkpt>
      <trkpt lat="45.53027" lon="3.02917">
        <ele>653.8339844</ele>
        <time>2011-05-15T09:04:48Z</time>
      </trkpt>
      <trkpt lat="45.53024" lon="3.02916">
        <ele>655.2758789</ele>
        <time>2011-05-15T09:04:54Z</time>
      </trkpt>
      <trkpt lat="45.53021" lon="3.02914">
        <ele>655.7565918</ele>
        <time>2011-05-15T09:05:00Z</time>
      </trkpt>
      <trkpt lat="45.53016" lon="3.0291">
        <ele>656.7177734</ele>
        <time>2011-05-15T09:05:07Z</time>
      </trkpt>
      <trkpt lat="45.5301" lon="3.02913">
        <ele>657.6791992</ele>
        <time>2011-05-15T09:05:14Z</time>
      </trkpt>
      <trkpt lat="45.53007" lon="3.02917">
        <ele>658.6403809</ele>
        <time>2011-05-15T09:05:21Z</time>
      </trkpt>
      <trkpt lat="45.53005" lon="3.02921">
        <ele>660.5629883</ele>
        <time>2011-05-15T09:05:27Z</time>
      </trkpt>
      <trkpt lat="45.53001" lon="3.02928">
        <ele>661.5244141</ele>
        <time>2011-05-15T09:05:34Z</time>
      </trkpt>
      <trkpt lat="45.52999" lon="3.0293">
        <ele>662.9663086</ele>
        <time>2011-05-15T09:05:37Z</time>
      </trkpt>
      <trkpt lat="45.52995" lon="3.02935">
        <ele>664.888916</ele>
        <time>2011-05-15T09:05:44Z</time>
      </trkpt>
      <trkpt lat="45.52992" lon="3.02937">
        <ele>665.3696289</ele>
        <time>2011-05-15T09:05:48Z</time>
      </trkpt>
      <trkpt lat="45.52983" lon="3.0294">
        <ele>666.3308105</ele>
        <time>2011-05-15T09:05:57Z</time>
      </trkpt>
      <trkpt lat="45.52982" lon="3.02941">
        <ele>666.3308105</ele>
        <time>2011-05-15T09:06:05Z</time>
      </trkpt>
      <trkpt lat="45.52975" lon="3.02942">
        <ele>665.8503418</ele>
        <time>2011-05-15T09:06:11Z</time>
      </trkpt>
      <trkpt lat="45.52971" lon="3.02944">
        <ele>666.3308105</ele>
        <time>2011-05-15T09:06:14Z</time>
      </trkpt>
      <trkpt lat="45.52958" lon="3.02951">
        <ele>667.7727051</ele>
        <time>2011-05-15T09:06:22Z</time>
      </trkpt>
      <trkpt lat="45.5295" lon="3.02956">
        <ele>668.2536621</ele>
        <time>2011-05-15T09:06:27Z</time>
      </trkpt>
      <trkpt lat="45.5294" lon="3.02965">
        <ele>668.2536621</ele>
        <time>2011-05-15T09:06:33Z</time>
      </trkpt>
      <trkpt lat="45.52931" lon="3.02973">
        <ele>668.734375</ele>
        <time>2011-05-15T09:06:38Z</time>
      </trkpt>
      <trkpt lat="45.52921" lon="3.02981">
        <ele>668.734375</ele>
        <time>2011-05-15T09:06:44Z</time>
      </trkpt>
      <trkpt lat="45.52915" lon="3.02987">
        <ele>670.1762695</ele>
        <time>2011-05-15T09:06:49Z</time>
      </trkpt>
      <trkpt lat="45.52909" lon="3.02996">
        <ele>671.6181641</ele>
        <time>2011-05-15T09:06:56Z</time>
      </trkpt>
      <trkpt lat="45.52904" lon="3.03005">
        <ele>672.5795898</ele>
        <time>2011-05-15T09:07:04Z</time>
      </trkpt>
      <trkpt lat="45.52904" lon="3.03011">
        <ele>673.5410156</ele>
        <time>2011-05-15T09:07:08Z</time>
      </trkpt>
      <trkpt lat="45.52903" lon="3.03018">
        <ele>674.5021973</ele>
        <time>2011-05-15T09:07:14Z</time>
      </trkpt>
      <trkpt lat="45.52905" lon="3.03023">
        <ele>675.9440918</ele>
        <time>2011-05-15T09:07:18Z</time>
      </trkpt>
      <trkpt lat="45.52909" lon="3.03028">
        <ele>677.8666992</ele>
        <time>2011-05-15T09:07:27Z</time>
      </trkpt>
      <trkpt lat="45.52912" lon="3.03031">
        <ele>679.3085938</ele>
        <time>2011-05-15T09:07:35Z</time>
      </trkpt>
      <trkpt lat="45.52916" lon="3.03033">
        <ele>680.2700195</ele>
        <time>2011-05-15T09:07:42Z</time>
      </trkpt>
      <trkpt lat="45.52919" lon="3.03034">
        <ele>682.6733398</ele>
        <time>2011-05-15T09:07:49Z</time>
      </trkpt>
      <trkpt lat="45.52923" lon="3.03035">
        <ele>684.1154785</ele>
        <time>2011-05-15T09:07:57Z</time>
      </trkpt>
      <trkpt lat="45.52927" lon="3.03037">
        <ele>685.0769043</ele>
        <time>2011-05-15T09:08:02Z</time>
      </trkpt>
      <trkpt lat="45.52928" lon="3.03037">
        <ele>685.0769043</ele>
        <time>2011-05-15T09:08:03Z</time>
      </trkpt>
      <trkpt lat="45.52932" lon="3.03042">
        <ele>685.0769043</ele>
        <time>2011-05-15T09:08:10Z</time>
      </trkpt>
      <trkpt lat="45.52932" lon="3.03045">
        <ele>686.5187988</ele>
        <time>2011-05-15T09:08:13Z</time>
      </trkpt>
      <trkpt lat="45.52929" lon="3.03057">
        <ele>687.4799805</ele>
        <time>2011-05-15T09:08:23Z</time>
      </trkpt>
      <trkpt lat="45.52926" lon="3.03061">
        <ele>688.4414063</ele>
        <time>2011-05-15T09:08:29Z</time>
      </trkpt>
      <trkpt lat="45.52922" lon="3.03071">
        <ele>690.3640137</ele>
        <time>2011-05-15T09:08:38Z</time>
      </trkpt>
      <trkpt lat="45.5292" lon="3.03079">
        <ele>691.3251953</ele>
        <time>2011-05-15T09:08:46Z</time>
      </trkpt>
      <trkpt lat="45.52917" lon="3.03086">
        <ele>693.2478027</ele>
        <time>2011-05-15T09:08:53Z</time>
      </trkpt>
      <trkpt lat="45.52914" lon="3.03091">
        <ele>694.6896973</ele>
        <time>2011-05-15T09:08:58Z</time>
      </trkpt>
      <trkpt lat="45.5291" lon="3.03097">
        <ele>695.651123</ele>
        <time>2011-05-15T09:09:04Z</time>
      </trkpt>
      <trkpt lat="45.52904" lon="3.03105">
        <ele>697.0930176</ele>
        <time>2011-05-15T09:09:13Z</time>
      </trkpt>
      <trkpt lat="45.52898" lon="3.03114">
        <ele>699.015625</ele>
        <time>2011-05-15T09:09:22Z</time>
      </trkpt>
      <trkpt lat="45.52894" lon="3.03123">
        <ele>700.4580078</ele>
        <time>2011-05-15T09:09:30Z</time>
      </trkpt>
      <trkpt lat="45.52892" lon="3.03132">
        <ele>702.861084</ele>
        <time>2011-05-15T09:09:37Z</time>
      </trkpt>
      <trkpt lat="45.52891" lon="3.03142">
        <ele>703.8225098</ele>
        <time>2011-05-15T09:09:45Z</time>
      </trkpt>
      <trkpt lat="45.52891" lon="3.03148">
        <ele>705.2644043</ele>
        <time>2011-05-15T09:09:51Z</time>
      </trkpt>
      <trkpt lat="45.5289" lon="3.0315">
        <ele>704.7836914</ele>
        <time>2011-05-15T09:09:55Z</time>
      </trkpt>
      <trkpt lat="45.52886" lon="3.03166">
        <ele>707.1870117</ele>
        <time>2011-05-15T09:10:06Z</time>
      </trkpt>
      <trkpt lat="45.52886" lon="3.03173">
        <ele>708.6289063</ele>
        <time>2011-05-15T09:10:13Z</time>
      </trkpt>
      <trkpt lat="45.52888" lon="3.03184">
        <ele>709.590332</ele>
        <time>2011-05-15T09:10:21Z</time>
      </trkpt>
      <trkpt lat="45.52887" lon="3.03187">
        <ele>709.590332</ele>
        <time>2011-05-15T09:10:27Z</time>
      </trkpt>
      <trkpt lat="45.52885" lon="3.03198">
        <ele>710.5515137</ele>
        <time>2011-05-15T09:10:33Z</time>
      </trkpt>
      <trkpt lat="45.52881" lon="3.03212">
        <ele>712.4741211</ele>
        <time>2011-05-15T09:10:41Z</time>
      </trkpt>
      <trkpt lat="45.52879" lon="3.0322">
        <ele>712.954834</ele>
        <time>2011-05-15T09:10:47Z</time>
      </trkpt>
      <trkpt lat="45.52876" lon="3.03231">
        <ele>713.9160156</ele>
        <time>2011-05-15T09:10:53Z</time>
      </trkpt>
      <trkpt lat="45.52871" lon="3.0324">
        <ele>714.8774414</ele>
        <time>2011-05-15T09:10:59Z</time>
      </trkpt>
      <trkpt lat="45.52864" lon="3.03251">
        <ele>715.3581543</ele>
        <time>2011-05-15T09:11:07Z</time>
      </trkpt>
      <trkpt lat="45.52858" lon="3.03262">
        <ele>717.7614746</ele>
        <time>2011-05-15T09:11:15Z</time>
      </trkpt>
      <trkpt lat="45.52853" lon="3.0327">
        <ele>718.7229004</ele>
        <time>2011-05-15T09:11:21Z</time>
      </trkpt>
      <trkpt lat="45.52849" lon="3.0328">
        <ele>720.1647949</ele>
        <time>2011-05-15T09:11:28Z</time>
      </trkpt>
      <trkpt lat="45.52848" lon="3.03282">
        <ele>720.1647949</ele>
        <time>2011-05-15T09:11:29Z</time>
      </trkpt>
      <trkpt lat="45.52845" lon="3.03298">
        <ele>721.1262207</ele>
        <time>2011-05-15T09:11:37Z</time>
      </trkpt>
      <trkpt lat="45.52839" lon="3.03315">
        <ele>721.1262207</ele>
        <time>2011-05-15T09:11:43Z</time>
      </trkpt>
      <trkpt lat="45.52829" lon="3.03322">
        <ele>721.6066895</ele>
        <time>2011-05-15T09:11:48Z</time>
      </trkpt>
      <trkpt lat="45.52815" lon="3.03325">
        <ele>721.6066895</ele>
        <time>2011-05-15T09:11:54Z</time>
      </trkpt>
      <trkpt lat="45.52809" lon="3.03326">
        <ele>722.5681152</ele>
        <time>2011-05-15T09:11:56Z</time>
      </trkpt>
      <trkpt lat="45.52798" lon="3.03337">
        <ele>723.0488281</ele>
        <time>2011-05-15T09:12:02Z</time>
      </trkpt>
      <trkpt lat="45.52794" lon="3.03349">
        <ele>723.529541</ele>
        <time>2011-05-15T09:12:07Z</time>
      </trkpt>
      <trkpt lat="45.52792" lon="3.03367">
        <ele>724.0100098</ele>
        <time>2011-05-15T09:12:14Z</time>
      </trkpt>
      <trkpt lat="45.52792" lon="3.03381">
        <ele>724.4907227</ele>
        <time>2011-05-15T09:12:20Z</time>
      </trkpt>
      <trkpt lat="45.52792" lon="3.03394">
        <ele>725.9326172</ele>
        <time>2011-05-15T09:12:26Z</time>
      </trkpt>
      <trkpt lat="45.52793" lon="3.03406">
        <ele>727.3747559</ele>
        <time>2011-05-15T09:12:32Z</time>
      </trkpt>
      <trkpt lat="45.52793" lon="3.03413">
        <ele>727.3747559</ele>
        <time>2011-05-15T09:12:35Z</time>
      </trkpt>
      <trkpt lat="45.52794" lon="3.0342">
        <ele>729.2971191</ele>
        <time>2011-05-15T09:12:38Z</time>
      </trkpt>
      <trkpt lat="45.52795" lon="3.03429">
        <ele>729.777832</ele>
        <time>2011-05-15T09:12:42Z</time>
      </trkpt>
      <trkpt lat="45.52795" lon="3.03431">
        <ele>729.777832</ele>
        <time>2011-05-15T09:12:43Z</time>
      </trkpt>
      <trkpt lat="45.52799" lon="3.03451">
        <ele>732.1813965</ele>
        <time>2011-05-15T09:12:51Z</time>
      </trkpt>
      <trkpt lat="45.52799" lon="3.03461">
        <ele>732.6621094</ele>
        <time>2011-05-15T09:12:56Z</time>
      </trkpt>
      <trkpt lat="45.52797" lon="3.03476">
        <ele>734.1040039</ele>
        <time>2011-05-15T09:13:02Z</time>
      </trkpt>
      <trkpt lat="45.52796" lon="3.03491">
        <ele>734.5847168</ele>
        <time>2011-05-15T09:13:09Z</time>
      </trkpt>
      <trkpt lat="45.52791" lon="3.03509">
        <ele>736.0266113</ele>
        <time>2011-05-15T09:13:16Z</time>
      </trkpt>
      <trkpt lat="45.52789" lon="3.0352">
        <ele>736.0266113</ele>
        <time>2011-05-15T09:13:21Z</time>
      </trkpt>
      <trkpt lat="45.52788" lon="3.03528">
        <ele>736.987793</ele>
        <time>2011-05-15T09:13:26Z</time>
      </trkpt>
      <trkpt lat="45.52784" lon="3.03544">
        <ele>737.9492188</ele>
        <time>2011-05-15T09:13:33Z</time>
      </trkpt>
      <trkpt lat="45.52783" lon="3.03546">
        <ele>737.9492188</ele>
        <time>2011-05-15T09:13:34Z</time>
      </trkpt>
      <trkpt lat="45.52783" lon="3.03556">
        <ele>738.4299316</ele>
        <time>2011-05-15T09:13:39Z</time>
      </trkpt>
      <trkpt lat="45.52783" lon="3.03558">
        <ele>738.4299316</ele>
        <time>2011-05-15T09:13:40Z</time>
      </trkpt>
      <trkpt lat="45.5278" lon="3.03578">
        <ele>740.3525391</ele>
        <time>2011-05-15T09:13:48Z</time>
      </trkpt>
      <trkpt lat="45.52776" lon="3.03592">
        <ele>739.3911133</ele>
        <time>2011-05-15T09:13:53Z</time>
      </trkpt>
      <trkpt lat="45.52765" lon="3.03613">
        <ele>737.9492188</ele>
        <time>2011-05-15T09:13:58Z</time>
      </trkpt>
      <trkpt lat="45.52748" lon="3.03638">
        <ele>737.9492188</ele>
        <time>2011-05-15T09:14:04Z</time>
      </trkpt>
      <trkpt lat="45.52733" lon="3.03653">
        <ele>740.8330078</ele>
        <time>2011-05-15T09:14:10Z</time>
      </trkpt>
      <trkpt lat="45.52731" lon="3.03654">
        <ele>741.3137207</ele>
        <time>2011-05-15T09:14:15Z</time>
      </trkpt>
      <trkpt lat="45.52729" lon="3.03655">
        <ele>740.8330078</ele>
        <time>2011-05-15T09:14:20Z</time>
      </trkpt>
      <trkpt lat="45.52723" lon="3.03679">
        <ele>737.4685059</ele>
        <time>2011-05-15T09:14:26Z</time>
      </trkpt>
      <trkpt lat="45.52721" lon="3.03687">
        <ele>737.9492188</ele>
        <time>2011-05-15T09:14:27Z</time>
      </trkpt>
      <trkpt lat="45.52718" lon="3.03725">
        <ele>737.4685059</ele>
        <time>2011-05-15T09:14:33Z</time>
      </trkpt>
      <trkpt lat="45.52723" lon="3.03758">
        <ele>735.5458984</ele>
        <time>2011-05-15T09:14:39Z</time>
      </trkpt>
      <trkpt lat="45.52727" lon="3.03774">
        <ele>734.1040039</ele>
        <time>2011-05-15T09:14:42Z</time>
      </trkpt>
      <trkpt lat="45.52728" lon="3.03804">
        <ele>734.1040039</ele>
        <time>2011-05-15T09:14:47Z</time>
      </trkpt>
      <trkpt lat="45.52724" lon="3.03816">
        <ele>732.6621094</ele>
        <time>2011-05-15T09:14:50Z</time>
      </trkpt>
      <trkpt lat="45.52721" lon="3.03825">
        <ele>731.2199707</ele>
        <time>2011-05-15T09:14:52Z</time>
      </trkpt>
      <trkpt lat="45.52713" lon="3.03836">
        <ele>729.777832</ele>
        <time>2011-05-15T09:14:55Z</time>
      </trkpt>
      <trkpt lat="45.52699" lon="3.03825">
        <ele>726.894043</ele>
        <time>2011-05-15T09:14:59Z</time>
      </trkpt>
      <trkpt lat="45.52683" lon="3.03816">
        <ele>726.4133301</ele>
        <time>2011-05-15T09:15:04Z</time>
      </trkpt>
      <trkpt lat="45.52666" lon="3.03818">
        <ele>722.5681152</ele>
        <time>2011-05-15T09:15:10Z</time>
      </trkpt>
      <trkpt lat="45.52662" lon="3.03819">
        <ele>722.0874023</ele>
        <time>2011-05-15T09:15:11Z</time>
      </trkpt>
      <trkpt lat="45.52654" lon="3.0382">
        <ele>721.6066895</ele>
        <time>2011-05-15T09:15:14Z</time>
      </trkpt>
      <trkpt lat="45.52648" lon="3.03824">
        <ele>720.1647949</ele>
        <time>2011-05-15T09:15:17Z</time>
      </trkpt>
      <trkpt lat="45.52646" lon="3.03826">
        <ele>719.6843262</ele>
        <time>2011-05-15T09:15:18Z</time>
      </trkpt>
      <trkpt lat="45.52639" lon="3.03844">
        <ele>715.8388672</ele>
        <time>2011-05-15T09:15:23Z</time>
      </trkpt>
      <trkpt lat="45.52638" lon="3.03849">
        <ele>714.3967285</ele>
        <time>2011-05-15T09:15:24Z</time>
      </trkpt>
      <trkpt lat="45.52636" lon="3.03865">
        <ele>711.0322266</ele>
        <time>2011-05-15T09:15:27Z</time>
      </trkpt>
      <trkpt lat="45.52635" lon="3.03869">
        <ele>711.0322266</ele>
        <time>2011-05-15T09:15:28Z</time>
      </trkpt>
      <trkpt lat="45.52629" lon="3.03879">
        <ele>709.590332</ele>
        <time>2011-05-15T09:15:30Z</time>
      </trkpt>
      <trkpt lat="45.52618" lon="3.03887">
        <ele>709.1096191</ele>
        <time>2011-05-15T09:15:33Z</time>
      </trkpt>
      <trkpt lat="45.52604" lon="3.03897">
        <ele>707.1870117</ele>
        <time>2011-05-15T09:15:37Z</time>
      </trkpt>
      <trkpt lat="45.52593" lon="3.03907">
        <ele>707.6677246</ele>
        <time>2011-05-15T09:15:40Z</time>
      </trkpt>
      <trkpt lat="45.5258" lon="3.03926">
        <ele>705.7451172</ele>
        <time>2011-05-15T09:15:45Z</time>
      </trkpt>
      <trkpt lat="45.52568" lon="3.03923">
        <ele>704.3032227</ele>
        <time>2011-05-15T09:15:48Z</time>
      </trkpt>
      <trkpt lat="45.52554" lon="3.0392">
        <ele>703.8225098</ele>
        <time>2011-05-15T09:15:52Z</time>
      </trkpt>
      <trkpt lat="45.52547" lon="3.03924">
        <ele>702.3803711</ele>
        <time>2011-05-15T09:15:55Z</time>
      </trkpt>
      <trkpt lat="45.5254" lon="3.03926">
        <ele>701.8999023</ele>
        <time>2011-05-15T09:15:59Z</time>
      </trkpt>
      <trkpt lat="45.52514" lon="3.03931">
        <ele>701.8999023</ele>
        <time>2011-05-15T09:16:06Z</time>
      </trkpt>
      <trkpt lat="45.52502" lon="3.03931">
        <ele>701.8999023</ele>
        <time>2011-05-15T09:16:11Z</time>
      </trkpt>
      <trkpt lat="45.52494" lon="3.03939">
        <ele>701.4191895</ele>
        <time>2011-05-15T09:16:14Z</time>
      </trkpt>
      <trkpt lat="45.52488" lon="3.03958">
        <ele>699.9770508</ele>
        <time>2011-05-15T09:16:17Z</time>
      </trkpt>
      <trkpt lat="45.52484" lon="3.03986">
        <ele>699.015625</ele>
        <time>2011-05-15T09:16:21Z</time>
      </trkpt>
      <trkpt lat="45.52485" lon="3.04003">
        <ele>699.9770508</ele>
        <time>2011-05-15T09:16:24Z</time>
      </trkpt>
      <trkpt lat="45.52493" lon="3.04039">
        <ele>699.015625</ele>
        <time>2011-05-15T09:16:31Z</time>
      </trkpt>
      <trkpt lat="45.52491" lon="3.04056">
        <ele>697.5737305</ele>
        <time>2011-05-15T09:16:35Z</time>
      </trkpt>
      <trkpt lat="45.52487" lon="3.04062">
        <ele>695.651123</ele>
        <time>2011-05-15T09:16:37Z</time>
      </trkpt>
      <trkpt lat="45.52476" lon="3.04064">
        <ele>691.8059082</ele>
        <time>2011-05-15T09:16:40Z</time>
      </trkpt>
      <trkpt lat="45.52472" lon="3.04064">
        <ele>692.2866211</ele>
        <time>2011-05-15T09:16:41Z</time>
      </trkpt>
      <trkpt lat="45.52468" lon="3.04064">
        <ele>690.8444824</ele>
        <time>2011-05-15T09:16:42Z</time>
      </trkpt>
      <trkpt lat="45.52453" lon="3.04066">
        <ele>689.4025879</ele>
        <time>2011-05-15T09:16:46Z</time>
      </trkpt>
      <trkpt lat="45.52441" lon="3.04075">
        <ele>686.0380859</ele>
        <time>2011-05-15T09:16:49Z</time>
      </trkpt>
      <trkpt lat="45.52424" lon="3.0408">
        <ele>684.5961914</ele>
        <time>2011-05-15T09:16:53Z</time>
      </trkpt>
      <trkpt lat="45.52412" lon="3.04081">
        <ele>684.1154785</ele>
        <time>2011-05-15T09:16:56Z</time>
      </trkpt>
      <trkpt lat="45.52399" lon="3.04079">
        <ele>683.1538086</ele>
        <time>2011-05-15T09:16:59Z</time>
      </trkpt>
      <trkpt lat="45.52389" lon="3.04077">
        <ele>682.192627</ele>
        <time>2011-05-15T09:17:01Z</time>
      </trkpt>
      <trkpt lat="45.52367" lon="3.04083">
        <ele>681.7119141</ele>
        <time>2011-05-15T09:17:06Z</time>
      </trkpt>
      <trkpt lat="45.52362" lon="3.04084">
        <ele>681.2314453</ele>
        <time>2011-05-15T09:17:09Z</time>
      </trkpt>
      <trkpt lat="45.52356" lon="3.04081">
        <ele>681.7119141</ele>
        <time>2011-05-15T09:17:13Z</time>
      </trkpt>
      <trkpt lat="45.52344" lon="3.04071">
        <ele>680.7507324</ele>
        <time>2011-05-15T09:17:19Z</time>
      </trkpt>
      <trkpt lat="45.52346" lon="3.04041">
        <ele>680.2700195</ele>
        <time>2011-05-15T09:17:25Z</time>
      </trkpt>
      <trkpt lat="45.52346" lon="3.04036">
        <ele>679.7893066</ele>
        <time>2011-05-15T09:17:26Z</time>
      </trkpt>
      <trkpt lat="45.52348" lon="3.04029">
        <ele>678.3474121</ele>
        <time>2011-05-15T09:17:28Z</time>
      </trkpt>
      <trkpt lat="45.52344" lon="3.04019">
        <ele>677.3862305</ele>
        <time>2011-05-15T09:17:31Z</time>
      </trkpt>
      <trkpt lat="45.52331" lon="3.04021">
        <ele>674.5021973</ele>
        <time>2011-05-15T09:17:34Z</time>
      </trkpt>
      <trkpt lat="45.5232" lon="3.04021">
        <ele>674.0214844</ele>
        <time>2011-05-15T09:17:36Z</time>
      </trkpt>
      <trkpt lat="45.523" lon="3.04026">
        <ele>672.098877</ele>
        <time>2011-05-15T09:17:40Z</time>
      </trkpt>
      <trkpt lat="45.52284" lon="3.04034">
        <ele>671.6181641</ele>
        <time>2011-05-15T09:17:43Z</time>
      </trkpt>
      <trkpt lat="45.52264" lon="3.04037">
        <ele>671.1376953</ele>
        <time>2011-05-15T09:17:48Z</time>
      </trkpt>
      <trkpt lat="45.52257" lon="3.0402">
        <ele>669.2150879</ele>
        <time>2011-05-15T09:17:52Z</time>
      </trkpt>
      <trkpt lat="45.52254" lon="3.04004">
        <ele>668.734375</ele>
        <time>2011-05-15T09:17:55Z</time>
      </trkpt>
      <trkpt lat="45.52249" lon="3.03987">
        <ele>668.2536621</ele>
        <time>2011-05-15T09:17:58Z</time>
      </trkpt>
      <trkpt lat="45.52245" lon="3.03971">
        <ele>668.734375</ele>
        <time>2011-05-15T09:18:02Z</time>
      </trkpt>
      <trkpt lat="45.5224" lon="3.03961">
        <ele>666.8115234</ele>
        <time>2011-05-15T09:18:07Z</time>
      </trkpt>
      <trkpt lat="45.52237" lon="3.03961">
        <ele>667.2922363</ele>
        <time>2011-05-15T09:18:08Z</time>
      </trkpt>
      <trkpt lat="45.52232" lon="3.0396">
        <ele>668.2536621</ele>
        <time>2011-05-15T09:18:10Z</time>
      </trkpt>
      <trkpt lat="45.52224" lon="3.03959">
        <ele>668.2536621</ele>
        <time>2011-05-15T09:18:15Z</time>
      </trkpt>
      <trkpt lat="45.52218" lon="3.03963">
        <ele>668.2536621</ele>
        <time>2011-05-15T09:18:18Z</time>
      </trkpt>
      <trkpt lat="45.52216" lon="3.03965">
        <ele>667.2922363</ele>
        <time>2011-05-15T09:18:19Z</time>
      </trkpt>
      <trkpt lat="45.52215" lon="3.03967">
        <ele>667.2922363</ele>
        <time>2011-05-15T09:18:20Z</time>
      </trkpt>
      <trkpt lat="45.52212" lon="3.03969">
        <ele>667.2922363</ele>
        <time>2011-05-15T09:18:24Z</time>
      </trkpt>
      <trkpt lat="45.52207" lon="3.03973">
        <ele>667.2922363</ele>
        <time>2011-05-15T09:18:45Z</time>
      </trkpt>
      <trkpt lat="45.52201" lon="3.03977">
        <ele>666.8115234</ele>
        <time>2011-05-15T09:18:51Z</time>
      </trkpt>
      <trkpt lat="45.52188" lon="3.03985">
        <ele>665.3696289</ele>
        <time>2011-05-15T09:18:56Z</time>
      </trkpt>
      <trkpt lat="45.52181" lon="3.0399">
        <ele>665.3696289</ele>
        <time>2011-05-15T09:18:59Z</time>
      </trkpt>
      <trkpt lat="45.52164" lon="3.04003">
        <ele>662.005127</ele>
        <time>2011-05-15T09:19:05Z</time>
      </trkpt>
      <trkpt lat="45.52152" lon="3.0401">
        <ele>657.6791992</ele>
        <time>2011-05-15T09:19:09Z</time>
      </trkpt>
      <trkpt lat="45.52148" lon="3.04011">
        <ele>656.7177734</ele>
        <time>2011-05-15T09:19:10Z</time>
      </trkpt>
      <trkpt lat="45.52131" lon="3.04024">
        <ele>653.8339844</ele>
        <time>2011-05-15T09:19:14Z</time>
      </trkpt>
      <trkpt lat="45.52126" lon="3.04027">
        <ele>653.3532715</ele>
        <time>2011-05-15T09:19:15Z</time>
      </trkpt>
      <trkpt lat="45.52106" lon="3.04035">
        <ele>651.9111328</ele>
        <time>2011-05-15T09:19:19Z</time>
      </trkpt>
      <trkpt lat="45.5209" lon="3.04038">
        <ele>649.9885254</ele>
        <time>2011-05-15T09:19:23Z</time>
      </trkpt>
      <trkpt lat="45.52074" lon="3.04043">
        <ele>648.065918</ele>
        <time>2011-05-15T09:19:26Z</time>
      </trkpt>
      <trkpt lat="45.52065" lon="3.04045">
        <ele>647.5852051</ele>
        <time>2011-05-15T09:19:28Z</time>
      </trkpt>
      <trkpt lat="45.52045" lon="3.04045">
        <ele>644.7011719</ele>
        <time>2011-05-15T09:19:33Z</time>
      </trkpt>
      <trkpt lat="45.52036" lon="3.04043">
        <ele>643.7399902</ele>
        <time>2011-05-15T09:19:35Z</time>
      </trkpt>
      <trkpt lat="45.52018" lon="3.04041">
        <ele>641.3366699</ele>
        <time>2011-05-15T09:19:39Z</time>
      </trkpt>
      <trkpt lat="45.51999" lon="3.04044">
        <ele>640.855957</ele>
        <time>2011-05-15T09:19:43Z</time>
      </trkpt>
      <trkpt lat="45.51986" lon="3.0405">
        <ele>642.2980957</ele>
        <time>2011-05-15T09:19:46Z</time>
      </trkpt>
      <trkpt lat="45.51968" lon="3.0406">
        <ele>640.3754883</ele>
        <time>2011-05-15T09:19:50Z</time>
      </trkpt>
      <trkpt lat="45.51962" lon="3.04063">
        <ele>640.3754883</ele>
        <time>2011-05-15T09:19:51Z</time>
      </trkpt>
      <trkpt lat="45.51935" lon="3.04073">
        <ele>639.4140625</ele>
        <time>2011-05-15T09:19:56Z</time>
      </trkpt>
      <trkpt lat="45.51902" lon="3.04079">
        <ele>637.4914551</ele>
        <time>2011-05-15T09:20:02Z</time>
      </trkpt>
      <trkpt lat="45.51881" lon="3.04073">
        <ele>638.4528809</ele>
        <time>2011-05-15T09:20:06Z</time>
      </trkpt>
      <trkpt lat="45.51849" lon="3.04054">
        <ele>637.4914551</ele>
        <time>2011-05-15T09:20:13Z</time>
      </trkpt>
      <trkpt lat="45.51823" lon="3.04041">
        <ele>635.0881348</ele>
        <time>2011-05-15T09:20:18Z</time>
      </trkpt>
      <trkpt lat="45.51818" lon="3.04038">
        <ele>634.6074219</ele>
        <time>2011-05-15T09:20:19Z</time>
      </trkpt>
      <trkpt lat="45.51802" lon="3.04033">
        <ele>634.6074219</ele>
        <time>2011-05-15T09:20:22Z</time>
      </trkpt>
      <trkpt lat="45.51788" lon="3.04024">
        <ele>637.0107422</ele>
        <time>2011-05-15T09:20:27Z</time>
      </trkpt>
      <trkpt lat="45.51773" lon="3.04012">
        <ele>636.0495605</ele>
        <time>2011-05-15T09:20:32Z</time>
      </trkpt>
      <trkpt lat="45.51747" lon="3.03994">
        <ele>632.2041016</ele>
        <time>2011-05-15T09:20:39Z</time>
      </trkpt>
      <trkpt lat="45.51739" lon="3.03989">
        <ele>631.2429199</ele>
        <time>2011-05-15T09:20:41Z</time>
      </trkpt>
      <trkpt lat="45.51726" lon="3.03979">
        <ele>629.8007813</ele>
        <time>2011-05-15T09:20:44Z</time>
      </trkpt>
      <trkpt lat="45.51717" lon="3.03972">
        <ele>628.3588867</ele>
        <time>2011-05-15T09:20:46Z</time>
      </trkpt>
      <trkpt lat="45.51697" lon="3.03951">
        <ele>624.9943848</ele>
        <time>2011-05-15T09:20:50Z</time>
      </trkpt>
      <trkpt lat="45.51679" lon="3.03928">
        <ele>622.1103516</ele>
        <time>2011-05-15T09:20:54Z</time>
      </trkpt>
      <trkpt lat="45.51668" lon="3.03913">
        <ele>620.1877441</ele>
        <time>2011-05-15T09:20:57Z</time>
      </trkpt>
      <trkpt lat="45.51647" lon="3.03899">
        <ele>618.7456055</ele>
        <time>2011-05-15T09:21:01Z</time>
      </trkpt>
      <trkpt lat="45.51624" lon="3.03894">
        <ele>616.822998</ele>
        <time>2011-05-15T09:21:06Z</time>
      </trkpt>
      <trkpt lat="45.51616" lon="3.03891">
        <ele>615.3811035</ele>
        <time>2011-05-15T09:21:08Z</time>
      </trkpt>
      <trkpt lat="45.51601" lon="3.03879">
        <ele>612.0166016</ele>
        <time>2011-05-15T09:21:12Z</time>
      </trkpt>
      <trkpt lat="45.51597" lon="3.03878">
        <ele>611.5358887</ele>
        <time>2011-05-15T09:21:13Z</time>
      </trkpt>
      <trkpt lat="45.51588" lon="3.03878">
        <ele>610.09375</ele>
        <time>2011-05-15T09:21:15Z</time>
      </trkpt>
      <trkpt lat="45.5157" lon="3.03893">
        <ele>608.1713867</ele>
        <time>2011-05-15T09:21:20Z</time>
      </trkpt>
      <trkpt lat="45.51557" lon="3.039">
        <ele>605.7680664</ele>
        <time>2011-05-15T09:21:24Z</time>
      </trkpt>
      <trkpt lat="45.51543" lon="3.03905">
        <ele>602.4030762</ele>
        <time>2011-05-15T09:21:29Z</time>
      </trkpt>
      <trkpt lat="45.51539" lon="3.03906">
        <ele>601.9226074</ele>
        <time>2011-05-15T09:21:30Z</time>
      </trkpt>
      <trkpt lat="45.51519" lon="3.03916">
        <ele>601.4418945</ele>
        <time>2011-05-15T09:21:35Z</time>
      </trkpt>
      <trkpt lat="45.5149" lon="3.03914">
        <ele>602.4030762</ele>
        <time>2011-05-15T09:21:42Z</time>
      </trkpt>
      <trkpt lat="45.51484" lon="3.03911">
        <ele>603.364502</ele>
        <time>2011-05-15T09:21:44Z</time>
      </trkpt>
      <trkpt lat="45.51479" lon="3.03914">
        <ele>603.8452148</ele>
        <time>2011-05-15T09:21:48Z</time>
      </trkpt>
      <trkpt lat="45.51478" lon="3.03915">
        <ele>603.364502</ele>
        <time>2011-05-15T09:21:50Z</time>
      </trkpt>
      <trkpt lat="45.51477" lon="3.03925">
        <ele>602.8837891</ele>
        <time>2011-05-15T09:21:54Z</time>
      </trkpt>
      <trkpt lat="45.51479" lon="3.03929">
        <ele>602.4030762</ele>
        <time>2011-05-15T09:21:55Z</time>
      </trkpt>
      <trkpt lat="45.51499" lon="3.03958">
        <ele>600.4807129</ele>
        <time>2011-05-15T09:22:02Z</time>
      </trkpt>
      <trkpt lat="45.51503" lon="3.03963">
        <ele>600</ele>
        <time>2011-05-15T09:22:03Z</time>
      </trkpt>
      <trkpt lat="45.51516" lon="3.03991">
        <ele>601.4418945</ele>
        <time>2011-05-15T09:22:09Z</time>
      </trkpt>
      <trkpt lat="45.51517" lon="3.04012">
        <ele>602.8837891</ele>
        <time>2011-05-15T09:22:14Z</time>
      </trkpt>
      <trkpt lat="45.51516" lon="3.04022">
        <ele>603.8452148</ele>
        <time>2011-05-15T09:22:17Z</time>
      </trkpt>
      <trkpt lat="45.51516" lon="3.04026">
        <ele>604.3261719</ele>
        <time>2011-05-15T09:22:22Z</time>
      </trkpt>
      <trkpt lat="45.51516" lon="3.04026">
        <ele>604.8066406</ele>
        <time>2011-05-15T09:22:34Z</time>
      </trkpt>
      <trkpt lat="45.51515" lon="3.04033">
        <ele>605.2873535</ele>
        <time>2011-05-15T09:22:41Z</time>
      </trkpt>
      <trkpt lat="45.51514" lon="3.04042">
        <ele>606.2485352</ele>
        <time>2011-05-15T09:22:45Z</time>
      </trkpt>
      <trkpt lat="45.51514" lon="3.04045">
        <ele>606.2485352</ele>
        <time>2011-05-15T09:22:46Z</time>
      </trkpt>
      <trkpt lat="45.51513" lon="3.04048">
        <ele>606.2485352</ele>
        <time>2011-05-15T09:22:47Z</time>
      </trkpt>
      <trkpt lat="45.51508" lon="3.04066">
        <ele>609.6132813</ele>
        <time>2011-05-15T09:22:55Z</time>
      </trkpt>
      <trkpt lat="45.51506" lon="3.04075">
        <ele>610.09375</ele>
        <time>2011-05-15T09:22:59Z</time>
      </trkpt>
      <trkpt lat="45.51504" lon="3.04082">
        <ele>610.5744629</ele>
        <time>2011-05-15T09:23:02Z</time>
      </trkpt>
      <trkpt lat="45.51503" lon="3.04089">
        <ele>611.5358887</ele>
        <time>2011-05-15T09:23:05Z</time>
      </trkpt>
      <trkpt lat="45.51505" lon="3.04105">
        <ele>612.0166016</ele>
        <time>2011-05-15T09:23:12Z</time>
      </trkpt>
      <trkpt lat="45.51508" lon="3.04122">
        <ele>614.9003906</ele>
        <time>2011-05-15T09:23:20Z</time>
      </trkpt>
      <trkpt lat="45.51509" lon="3.0414">
        <ele>616.3422852</ele>
        <time>2011-05-15T09:23:28Z</time>
      </trkpt>
      <trkpt lat="45.51508" lon="3.04155">
        <ele>618.2648926</ele>
        <time>2011-05-15T09:23:35Z</time>
      </trkpt>
      <trkpt lat="45.51504" lon="3.04168">
        <ele>620.1877441</ele>
        <time>2011-05-15T09:23:42Z</time>
      </trkpt>
      <trkpt lat="45.51503" lon="3.04176">
        <ele>621.6296387</ele>
        <time>2011-05-15T09:23:46Z</time>
      </trkpt>
      <trkpt lat="45.51499" lon="3.0418">
        <ele>623.0717773</ele>
        <time>2011-05-15T09:23:50Z</time>
      </trkpt>
      <trkpt lat="45.51497" lon="3.04181">
        <ele>623.5524902</ele>
        <time>2011-05-15T09:23:51Z</time>
      </trkpt>
      <trkpt lat="45.51491" lon="3.04188">
        <ele>625.4748535</ele>
        <time>2011-05-15T09:23:57Z</time>
      </trkpt>
      <trkpt lat="45.51484" lon="3.04189">
        <ele>627.3977051</ele>
        <time>2011-05-15T09:24:03Z</time>
      </trkpt>
      <trkpt lat="45.51475" lon="3.0419">
        <ele>629.3200684</ele>
        <time>2011-05-15T09:24:10Z</time>
      </trkpt>
      <trkpt lat="45.51469" lon="3.04192">
        <ele>630.762207</ele>
        <time>2011-05-15T09:24:15Z</time>
      </trkpt>
      <trkpt lat="45.5146" lon="3.04194">
        <ele>632.2041016</ele>
        <time>2011-05-15T09:24:23Z</time>
      </trkpt>
      <trkpt lat="45.51455" lon="3.04194">
        <ele>634.126709</ele>
        <time>2011-05-15T09:24:27Z</time>
      </trkpt>
      <trkpt lat="45.51446" lon="3.04197">
        <ele>636.0495605</ele>
        <time>2011-05-15T09:24:35Z</time>
      </trkpt>
      <trkpt lat="45.51435" lon="3.04197">
        <ele>637.4914551</ele>
        <time>2011-05-15T09:24:44Z</time>
      </trkpt>
      <trkpt lat="45.51427" lon="3.04199">
        <ele>638.9335938</ele>
        <time>2011-05-15T09:24:51Z</time>
      </trkpt>
      <trkpt lat="45.51419" lon="3.04203">
        <ele>640.855957</ele>
        <time>2011-05-15T09:24:59Z</time>
      </trkpt>
      <trkpt lat="45.51412" lon="3.04207">
        <ele>642.7788086</ele>
        <time>2011-05-15T09:25:06Z</time>
      </trkpt>
      <trkpt lat="45.51407" lon="3.04212">
        <ele>644.2207031</ele>
        <time>2011-05-15T09:25:12Z</time>
      </trkpt>
      <trkpt lat="45.51404" lon="3.04216">
        <ele>644.7011719</ele>
        <time>2011-05-15T09:25:16Z</time>
      </trkpt>
      <trkpt lat="45.51401" lon="3.0422">
        <ele>645.1818848</ele>
        <time>2011-05-15T09:25:20Z</time>
      </trkpt>
      <trkpt lat="45.51395" lon="3.04227">
        <ele>647.1044922</ele>
        <time>2011-05-15T09:25:27Z</time>
      </trkpt>
      <trkpt lat="45.5139" lon="3.04235">
        <ele>647.5852051</ele>
        <time>2011-05-15T09:25:35Z</time>
      </trkpt>
      <trkpt lat="45.51386" lon="3.0425">
        <ele>650.4692383</ele>
        <time>2011-05-15T09:25:45Z</time>
      </trkpt>
      <trkpt lat="45.51387" lon="3.04264">
        <ele>652.8725586</ele>
        <time>2011-05-15T09:25:54Z</time>
      </trkpt>
      <trkpt lat="45.5139" lon="3.04276">
        <ele>653.8339844</ele>
        <time>2011-05-15T09:26:02Z</time>
      </trkpt>
      <trkpt lat="45.51392" lon="3.04287">
        <ele>656.2370605</ele>
        <time>2011-05-15T09:26:09Z</time>
      </trkpt>
      <trkpt lat="45.51395" lon="3.043">
        <ele>657.1984863</ele>
        <time>2011-05-15T09:26:16Z</time>
      </trkpt>
      <trkpt lat="45.51398" lon="3.04319">
        <ele>658.6403809</ele>
        <time>2011-05-15T09:26:25Z</time>
      </trkpt>
      <trkpt lat="45.51397" lon="3.04329">
        <ele>660.0822754</ele>
        <time>2011-05-15T09:26:31Z</time>
      </trkpt>
      <trkpt lat="45.51397" lon="3.04345">
        <ele>661.5244141</ele>
        <time>2011-05-15T09:26:38Z</time>
      </trkpt>
      <trkpt lat="45.51393" lon="3.04361">
        <ele>664.4082031</ele>
        <time>2011-05-15T09:26:47Z</time>
      </trkpt>
      <trkpt lat="45.51392" lon="3.04362">
        <ele>663.9274902</ele>
        <time>2011-05-15T09:26:48Z</time>
      </trkpt>
      <trkpt lat="45.51388" lon="3.04372">
        <ele>665.3696289</ele>
        <time>2011-05-15T09:26:55Z</time>
      </trkpt>
      <trkpt lat="45.51382" lon="3.04381">
        <ele>668.2536621</ele>
        <time>2011-05-15T09:27:03Z</time>
      </trkpt>
      <trkpt lat="45.51377" lon="3.0439">
        <ele>669.2150879</ele>
        <time>2011-05-15T09:27:11Z</time>
      </trkpt>
      <trkpt lat="45.51373" lon="3.04399">
        <ele>671.6181641</ele>
        <time>2011-05-15T09:27:18Z</time>
      </trkpt>
      <trkpt lat="45.5137" lon="3.04414">
        <ele>674.0214844</ele>
        <time>2011-05-15T09:27:28Z</time>
      </trkpt>
      <trkpt lat="45.51369" lon="3.04425">
        <ele>675.4633789</ele>
        <time>2011-05-15T09:27:35Z</time>
      </trkpt>
      <trkpt lat="45.51368" lon="3.04436">
        <ele>676.9055176</ele>
        <time>2011-05-15T09:27:42Z</time>
      </trkpt>
      <trkpt lat="45.51367" lon="3.04448">
        <ele>677.8666992</ele>
        <time>2011-05-15T09:27:49Z</time>
      </trkpt>
      <trkpt lat="45.51367" lon="3.04465">
        <ele>679.3085938</ele>
        <time>2011-05-15T09:27:58Z</time>
      </trkpt>
      <trkpt lat="45.51369" lon="3.04477">
        <ele>680.7507324</ele>
        <time>2011-05-15T09:28:05Z</time>
      </trkpt>
      <trkpt lat="45.51377" lon="3.04485">
        <ele>683.6345215</ele>
        <time>2011-05-15T09:28:13Z</time>
      </trkpt>
      <trkpt lat="45.51385" lon="3.04482">
        <ele>684.5961914</ele>
        <time>2011-05-15T09:28:21Z</time>
      </trkpt>
      <trkpt lat="45.5139" lon="3.04479">
        <ele>686.0380859</ele>
        <time>2011-05-15T09:28:25Z</time>
      </trkpt>
      <trkpt lat="45.51397" lon="3.04473">
        <ele>686.9992676</ele>
        <time>2011-05-15T09:28:32Z</time>
      </trkpt>
      <trkpt lat="45.51401" lon="3.04472">
        <ele>687.4799805</ele>
        <time>2011-05-15T09:28:35Z</time>
      </trkpt>
      <trkpt lat="45.51404" lon="3.04471">
        <ele>689.4025879</ele>
        <time>2011-05-15T09:28:38Z</time>
      </trkpt>
      <trkpt lat="45.51413" lon="3.04473">
        <ele>690.3640137</ele>
        <time>2011-05-15T09:28:45Z</time>
      </trkpt>
      <trkpt lat="45.51414" lon="3.04474">
        <ele>691.3251953</ele>
        <time>2011-05-15T09:28:46Z</time>
      </trkpt>
      <trkpt lat="45.51419" lon="3.04478">
        <ele>692.2866211</ele>
        <time>2011-05-15T09:28:52Z</time>
      </trkpt>
      <trkpt lat="45.51423" lon="3.0448">
        <ele>693.2478027</ele>
        <time>2011-05-15T09:28:56Z</time>
      </trkpt>
      <trkpt lat="45.51431" lon="3.04485">
        <ele>695.651123</ele>
        <time>2011-05-15T09:29:04Z</time>
      </trkpt>
      <trkpt lat="45.51437" lon="3.04486">
        <ele>696.1318359</ele>
        <time>2011-05-15T09:29:10Z</time>
      </trkpt>
      <trkpt lat="45.51443" lon="3.04488">
        <ele>697.5737305</ele>
        <time>2011-05-15T09:29:16Z</time>
      </trkpt>
      <trkpt lat="45.51453" lon="3.04487">
        <ele>699.4963379</ele>
        <time>2011-05-15T09:29:24Z</time>
      </trkpt>
      <trkpt lat="45.51464" lon="3.04482">
        <ele>700.9384766</ele>
        <time>2011-05-15T09:29:33Z</time>
      </trkpt>
      <trkpt lat="45.51473" lon="3.04475">
        <ele>702.861084</ele>
        <time>2011-05-15T09:29:41Z</time>
      </trkpt>
      <trkpt lat="45.5148" lon="3.04466">
        <ele>704.7836914</ele>
        <time>2011-05-15T09:29:48Z</time>
      </trkpt>
      <trkpt lat="45.51489" lon="3.04454">
        <ele>707.6677246</ele>
        <time>2011-05-15T09:29:58Z</time>
      </trkpt>
      <trkpt lat="45.51496" lon="3.04446">
        <ele>709.590332</ele>
        <time>2011-05-15T09:30:05Z</time>
      </trkpt>
      <trkpt lat="45.51503" lon="3.04438">
        <ele>711.5129395</ele>
        <time>2011-05-15T09:30:13Z</time>
      </trkpt>
      <trkpt lat="45.51509" lon="3.04432">
        <ele>711.5129395</ele>
        <time>2011-05-15T09:30:19Z</time>
      </trkpt>
      <trkpt lat="45.51513" lon="3.04426">
        <ele>713.4355469</ele>
        <time>2011-05-15T09:30:24Z</time>
      </trkpt>
      <trkpt lat="45.51523" lon="3.04419">
        <ele>714.8774414</ele>
        <time>2011-05-15T09:30:31Z</time>
      </trkpt>
      <trkpt lat="45.51536" lon="3.04412">
        <ele>716.3195801</ele>
        <time>2011-05-15T09:30:38Z</time>
      </trkpt>
      <trkpt lat="45.5155" lon="3.04413">
        <ele>717.2810059</ele>
        <time>2011-05-15T09:30:45Z</time>
      </trkpt>
      <trkpt lat="45.51566" lon="3.04422">
        <ele>717.7614746</ele>
        <time>2011-05-15T09:30:54Z</time>
      </trkpt>
      <trkpt lat="45.51576" lon="3.0443">
        <ele>719.2036133</ele>
        <time>2011-05-15T09:31:02Z</time>
      </trkpt>
      <trkpt lat="45.51585" lon="3.04436">
        <ele>721.1262207</ele>
        <time>2011-05-15T09:31:09Z</time>
      </trkpt>
      <trkpt lat="45.51596" lon="3.04441">
        <ele>723.529541</ele>
        <time>2011-05-15T09:31:18Z</time>
      </trkpt>
      <trkpt lat="45.51602" lon="3.04445">
        <ele>724.0100098</ele>
        <time>2011-05-15T09:31:24Z</time>
      </trkpt>
      <trkpt lat="45.51609" lon="3.04448">
        <ele>725.4519043</ele>
        <time>2011-05-15T09:31:30Z</time>
      </trkpt>
      <trkpt lat="45.51617" lon="3.04455">
        <ele>727.8552246</ele>
        <time>2011-05-15T09:31:38Z</time>
      </trkpt>
      <trkpt lat="45.51624" lon="3.04458">
        <ele>728.8166504</ele>
        <time>2011-05-15T09:31:44Z</time>
      </trkpt>
      <trkpt lat="45.51629" lon="3.04462">
        <ele>729.777832</ele>
        <time>2011-05-15T09:31:49Z</time>
      </trkpt>
      <trkpt lat="45.51635" lon="3.04467">
        <ele>730.7392578</ele>
        <time>2011-05-15T09:31:55Z</time>
      </trkpt>
      <trkpt lat="45.51642" lon="3.04472">
        <ele>732.6621094</ele>
        <time>2011-05-15T09:32:01Z</time>
      </trkpt>
      <trkpt lat="45.51647" lon="3.04481">
        <ele>734.1040039</ele>
        <time>2011-05-15T09:32:08Z</time>
      </trkpt>
      <trkpt lat="45.51648" lon="3.04484">
        <ele>734.5847168</ele>
        <time>2011-05-15T09:32:10Z</time>
      </trkpt>
      <trkpt lat="45.51647" lon="3.04495">
        <ele>735.5458984</ele>
        <time>2011-05-15T09:32:16Z</time>
      </trkpt>
      <trkpt lat="45.51644" lon="3.045">
        <ele>736.5073242</ele>
        <time>2011-05-15T09:32:20Z</time>
      </trkpt>
      <trkpt lat="45.51638" lon="3.04506">
        <ele>737.9492188</ele>
        <time>2011-05-15T09:32:26Z</time>
      </trkpt>
      <trkpt lat="45.5163" lon="3.04516">
        <ele>739.3911133</ele>
        <time>2011-05-15T09:32:35Z</time>
      </trkpt>
      <trkpt lat="45.51629" lon="3.04518">
        <ele>739.3911133</ele>
        <time>2011-05-15T09:32:36Z</time>
      </trkpt>
      <trkpt lat="45.51624" lon="3.04526">
        <ele>740.3525391</ele>
        <time>2011-05-15T09:32:42Z</time>
      </trkpt>
      <trkpt lat="45.51616" lon="3.04538">
        <ele>742.7558594</ele>
        <time>2011-05-15T09:32:50Z</time>
      </trkpt>
      <trkpt lat="45.51607" lon="3.04553">
        <ele>743.2363281</ele>
        <time>2011-05-15T09:32:56Z</time>
      </trkpt>
      <trkpt lat="45.51592" lon="3.04574">
        <ele>743.717041</ele>
        <time>2011-05-15T09:33:03Z</time>
      </trkpt>
      <trkpt lat="45.51574" lon="3.04597">
        <ele>744.1977539</ele>
        <time>2011-05-15T09:33:10Z</time>
      </trkpt>
      <trkpt lat="45.51555" lon="3.04623">
        <ele>743.2363281</ele>
        <time>2011-05-15T09:33:16Z</time>
      </trkpt>
      <trkpt lat="45.51542" lon="3.04649">
        <ele>745.6396484</ele>
        <time>2011-05-15T09:33:22Z</time>
      </trkpt>
      <trkpt lat="45.51525" lon="3.04676">
        <ele>745.6396484</ele>
        <time>2011-05-15T09:33:30Z</time>
      </trkpt>
      <trkpt lat="45.51511" lon="3.04699">
        <ele>746.6010742</ele>
        <time>2011-05-15T09:33:38Z</time>
      </trkpt>
      <trkpt lat="45.51498" lon="3.0472">
        <ele>749.0043945</ele>
        <time>2011-05-15T09:33:48Z</time>
      </trkpt>
      <trkpt lat="45.51493" lon="3.04731">
        <ele>750.927002</ele>
        <time>2011-05-15T09:33:53Z</time>
      </trkpt>
      <trkpt lat="45.51489" lon="3.04751">
        <ele>752.3688965</ele>
        <time>2011-05-15T09:34:00Z</time>
      </trkpt>
      <trkpt lat="45.51488" lon="3.04775">
        <ele>753.3303223</ele>
        <time>2011-05-15T09:34:08Z</time>
      </trkpt>
      <trkpt lat="45.51488" lon="3.04803">
        <ele>753.3303223</ele>
        <time>2011-05-15T09:34:15Z</time>
      </trkpt>
      <trkpt lat="45.51497" lon="3.04816">
        <ele>752.3688965</ele>
        <time>2011-05-15T09:34:19Z</time>
      </trkpt>
      <trkpt lat="45.51522" lon="3.04832">
        <ele>745.6396484</ele>
        <time>2011-05-15T09:34:24Z</time>
      </trkpt>
      <trkpt lat="45.51555" lon="3.0486">
        <ele>744.1977539</ele>
        <time>2011-05-15T09:34:29Z</time>
      </trkpt>
      <trkpt lat="45.51561" lon="3.04865">
        <ele>744.1977539</ele>
        <time>2011-05-15T09:34:30Z</time>
      </trkpt>
      <trkpt lat="45.51587" lon="3.04892">
        <ele>746.6010742</ele>
        <time>2011-05-15T09:34:36Z</time>
      </trkpt>
      <trkpt lat="45.51599" lon="3.04905">
        <ele>747.081543</ele>
        <time>2011-05-15T09:34:39Z</time>
      </trkpt>
      <trkpt lat="45.51626" lon="3.04932">
        <ele>746.6010742</ele>
        <time>2011-05-15T09:34:46Z</time>
      </trkpt>
      <trkpt lat="45.51652" lon="3.04944">
        <ele>747.5622559</ele>
        <time>2011-05-15T09:34:52Z</time>
      </trkpt>
      <trkpt lat="45.51669" lon="3.04954">
        <ele>749.4851074</ele>
        <time>2011-05-15T09:34:57Z</time>
      </trkpt>
      <trkpt lat="45.51672" lon="3.04956">
        <ele>749.4851074</ele>
        <time>2011-05-15T09:34:58Z</time>
      </trkpt>
      <trkpt lat="45.5169" lon="3.04979">
        <ele>750.4465332</ele>
        <time>2011-05-15T09:35:05Z</time>
      </trkpt>
      <trkpt lat="45.51714" lon="3.05016">
        <ele>751.4077148</ele>
        <time>2011-05-15T09:35:15Z</time>
      </trkpt>
      <trkpt lat="45.51731" lon="3.05028">
        <ele>750.927002</ele>
        <time>2011-05-15T09:35:21Z</time>
      </trkpt>
      <trkpt lat="45.51746" lon="3.05031">
        <ele>752.8496094</ele>
        <time>2011-05-15T09:35:27Z</time>
      </trkpt>
      <trkpt lat="45.51757" lon="3.05032">
        <ele>754.291748</ele>
        <time>2011-05-15T09:35:33Z</time>
      </trkpt>
      <trkpt lat="45.51769" lon="3.05039">
        <ele>757.1755371</ele>
        <time>2011-05-15T09:35:40Z</time>
      </trkpt>
      <trkpt lat="45.51778" lon="3.05047">
        <ele>758.6174316</ele>
        <time>2011-05-15T09:35:46Z</time>
      </trkpt>
      <trkpt lat="45.51789" lon="3.0506">
        <ele>760.0593262</ele>
        <time>2011-05-15T09:35:53Z</time>
      </trkpt>
      <trkpt lat="45.51795" lon="3.05071">
        <ele>761.020752</ele>
        <time>2011-05-15T09:35:58Z</time>
      </trkpt>
      <trkpt lat="45.51799" lon="3.05085">
        <ele>761.9821777</ele>
        <time>2011-05-15T09:36:03Z</time>
      </trkpt>
      <trkpt lat="45.51807" lon="3.05108">
        <ele>761.9821777</ele>
        <time>2011-05-15T09:36:10Z</time>
      </trkpt>
      <trkpt lat="45.51817" lon="3.05146">
        <ele>762.4626465</ele>
        <time>2011-05-15T09:36:19Z</time>
      </trkpt>
      <trkpt lat="45.51827" lon="3.05178">
        <ele>761.9821777</ele>
        <time>2011-05-15T09:36:26Z</time>
      </trkpt>
      <trkpt lat="45.51838" lon="3.05214">
        <ele>762.9433594</ele>
        <time>2011-05-15T09:36:34Z</time>
      </trkpt>
      <trkpt lat="45.51841" lon="3.05245">
        <ele>763.4240723</ele>
        <time>2011-05-15T09:36:40Z</time>
      </trkpt>
      <trkpt lat="45.51837" lon="3.05283">
        <ele>763.4240723</ele>
        <time>2011-05-15T09:36:47Z</time>
      </trkpt>
      <trkpt lat="45.51834" lon="3.05312">
        <ele>764.8662109</ele>
        <time>2011-05-15T09:36:53Z</time>
      </trkpt>
      <trkpt lat="45.51837" lon="3.05341">
        <ele>765.8276367</ele>
        <time>2011-05-15T09:36:59Z</time>
      </trkpt>
      <trkpt lat="45.51848" lon="3.05369">
        <ele>766.7888184</ele>
        <time>2011-05-15T09:37:05Z</time>
      </trkpt>
      <trkpt lat="45.51861" lon="3.05397">
        <ele>766.7888184</ele>
        <time>2011-05-15T09:37:12Z</time>
      </trkpt>
      <trkpt lat="45.51864" lon="3.05405">
        <ele>768.2307129</ele>
        <time>2011-05-15T09:37:14Z</time>
      </trkpt>
      <trkpt lat="45.51874" lon="3.05434">
        <ele>770.1533203</ele>
        <time>2011-05-15T09:37:21Z</time>
      </trkpt>
      <trkpt lat="45.51882" lon="3.05461">
        <ele>769.6728516</ele>
        <time>2011-05-15T09:37:27Z</time>
      </trkpt>
      <trkpt lat="45.51894" lon="3.05501">
        <ele>770.1533203</ele>
        <time>2011-05-15T09:37:35Z</time>
      </trkpt>
      <trkpt lat="45.51905" lon="3.05529">
        <ele>771.1147461</ele>
        <time>2011-05-15T09:37:41Z</time>
      </trkpt>
      <trkpt lat="45.51917" lon="3.0556">
        <ele>772.0759277</ele>
        <time>2011-05-15T09:37:49Z</time>
      </trkpt>
      <trkpt lat="45.5192" lon="3.05579">
        <ele>773.0373535</ele>
        <time>2011-05-15T09:37:55Z</time>
      </trkpt>
      <trkpt lat="45.5192" lon="3.05599">
        <ele>774.9599609</ele>
        <time>2011-05-15T09:38:02Z</time>
      </trkpt>
      <trkpt lat="45.51915" lon="3.05617">
        <ele>776.4018555</ele>
        <time>2011-05-15T09:38:09Z</time>
      </trkpt>
      <trkpt lat="45.51913" lon="3.05625">
        <ele>777.84375</ele>
        <time>2011-05-15T09:38:12Z</time>
      </trkpt>
      <trkpt lat="45.51904" lon="3.05647">
        <ele>780.2473145</ele>
        <time>2011-05-15T09:38:21Z</time>
      </trkpt>
      <trkpt lat="45.519" lon="3.05668">
        <ele>781.2087402</ele>
        <time>2011-05-15T09:38:28Z</time>
      </trkpt>
      <trkpt lat="45.51893" lon="3.05694">
        <ele>783.6118164</ele>
        <time>2011-05-15T09:38:36Z</time>
      </trkpt>
      <trkpt lat="45.51884" lon="3.0573">
        <ele>783.6118164</ele>
        <time>2011-05-15T09:38:45Z</time>
      </trkpt>
      <trkpt lat="45.51871" lon="3.05773">
        <ele>785.0539551</ele>
        <time>2011-05-15T09:38:56Z</time>
      </trkpt>
      <trkpt lat="45.51856" lon="3.05794">
        <ele>786.4958496</ele>
        <time>2011-05-15T09:39:03Z</time>
      </trkpt>
      <trkpt lat="45.51843" lon="3.0581">
        <ele>786.4958496</ele>
        <time>2011-05-15T09:39:09Z</time>
      </trkpt>
      <trkpt lat="45.51832" lon="3.05839">
        <ele>785.0539551</ele>
        <time>2011-05-15T09:39:15Z</time>
      </trkpt>
      <trkpt lat="45.51818" lon="3.05875">
        <ele>785.0539551</ele>
        <time>2011-05-15T09:39:21Z</time>
      </trkpt>
      <trkpt lat="45.51803" lon="3.05923">
        <ele>786.4958496</ele>
        <time>2011-05-15T09:39:29Z</time>
      </trkpt>
      <trkpt lat="45.51801" lon="3.05935">
        <ele>786.4958496</ele>
        <time>2011-05-15T09:39:31Z</time>
      </trkpt>
      <trkpt lat="45.51794" lon="3.05965">
        <ele>786.0151367</ele>
        <time>2011-05-15T09:39:36Z</time>
      </trkpt>
      <trkpt lat="45.51781" lon="3.0602">
        <ele>783.6118164</ele>
        <time>2011-05-15T09:39:44Z</time>
      </trkpt>
      <trkpt lat="45.51758" lon="3.06062">
        <ele>780.2473145</ele>
        <time>2011-05-15T09:39:50Z</time>
      </trkpt>
      <trkpt lat="45.51746" lon="3.06072">
        <ele>779.2856445</ele>
        <time>2011-05-15T09:39:52Z</time>
      </trkpt>
      <trkpt lat="45.51728" lon="3.06086">
        <ele>779.7663574</ele>
        <time>2011-05-15T09:39:55Z</time>
      </trkpt>
      <trkpt lat="45.51711" lon="3.0611">
        <ele>780.2473145</ele>
        <time>2011-05-15T09:40:00Z</time>
      </trkpt>
      <trkpt lat="45.51707" lon="3.06125">
        <ele>779.7663574</ele>
        <time>2011-05-15T09:40:02Z</time>
      </trkpt>
      <trkpt lat="45.51703" lon="3.06142">
        <ele>778.8051758</ele>
        <time>2011-05-15T09:40:04Z</time>
      </trkpt>
      <trkpt lat="45.51703" lon="3.06171">
        <ele>780.2473145</ele>
        <time>2011-05-15T09:40:08Z</time>
      </trkpt>
      <trkpt lat="45.51705" lon="3.06183">
        <ele>781.689209</ele>
        <time>2011-05-15T09:40:12Z</time>
      </trkpt>
      <trkpt lat="45.51707" lon="3.06189">
        <ele>783.1311035</ele>
        <time>2011-05-15T09:40:15Z</time>
      </trkpt>
      <trkpt lat="45.51707" lon="3.06201">
        <ele>784.5732422</ele>
        <time>2011-05-15T09:40:20Z</time>
      </trkpt>
      <trkpt lat="45.51707" lon="3.06208">
        <ele>785.0539551</ele>
        <time>2011-05-15T09:40:23Z</time>
      </trkpt>
      <trkpt lat="45.51707" lon="3.06213">
        <ele>785.5344238</ele>
        <time>2011-05-15T09:40:25Z</time>
      </trkpt>
      <trkpt lat="45.51707" lon="3.06216">
        <ele>785.5344238</ele>
        <time>2011-05-15T09:40:26Z</time>
      </trkpt>
      <trkpt lat="45.51707" lon="3.06222">
        <ele>786.4958496</ele>
        <time>2011-05-15T09:40:28Z</time>
      </trkpt>
      <trkpt lat="45.51707" lon="3.06235">
        <ele>788.418457</ele>
        <time>2011-05-15T09:40:33Z</time>
      </trkpt>
      <trkpt lat="45.51708" lon="3.06252">
        <ele>789.3796387</ele>
        <time>2011-05-15T09:40:39Z</time>
      </trkpt>
      <trkpt lat="45.51711" lon="3.06267">
        <ele>790.3410645</ele>
        <time>2011-05-15T09:40:44Z</time>
      </trkpt>
      <trkpt lat="45.51712" lon="3.06291">
        <ele>791.3022461</ele>
        <time>2011-05-15T09:40:52Z</time>
      </trkpt>
      <trkpt lat="45.51707" lon="3.06307">
        <ele>791.782959</ele>
        <time>2011-05-15T09:40:58Z</time>
      </trkpt>
      <trkpt lat="45.51695" lon="3.06337">
        <ele>793.2248535</ele>
        <time>2011-05-15T09:41:09Z</time>
      </trkpt>
      <trkpt lat="45.51688" lon="3.06356">
        <ele>794.1862793</ele>
        <time>2011-05-15T09:41:16Z</time>
      </trkpt>
      <trkpt lat="45.51679" lon="3.06379">
        <ele>795.6281738</ele>
        <time>2011-05-15T09:41:25Z</time>
      </trkpt>
      <trkpt lat="45.51672" lon="3.06398">
        <ele>798.0317383</ele>
        <time>2011-05-15T09:41:33Z</time>
      </trkpt>
      <trkpt lat="45.51669" lon="3.06402">
        <ele>798.512207</ele>
        <time>2011-05-15T09:41:35Z</time>
      </trkpt>
      <trkpt lat="45.51665" lon="3.06409">
        <ele>800.4350586</ele>
        <time>2011-05-15T09:41:39Z</time>
      </trkpt>
      <trkpt lat="45.51656" lon="3.06416">
        <ele>801.3962402</ele>
        <time>2011-05-15T09:41:45Z</time>
      </trkpt>
      <trkpt lat="45.51644" lon="3.06423">
        <ele>803.7995605</ele>
        <time>2011-05-15T09:41:54Z</time>
      </trkpt>
      <trkpt lat="45.51641" lon="3.06423">
        <ele>804.2802734</ele>
        <time>2011-05-15T09:41:56Z</time>
      </trkpt>
      <trkpt lat="45.51629" lon="3.06431">
        <ele>805.2414551</ele>
        <time>2011-05-15T09:42:04Z</time>
      </trkpt>
      <trkpt lat="45.5162" lon="3.06444">
        <ele>807.6447754</ele>
        <time>2011-05-15T09:42:12Z</time>
      </trkpt>
      <trkpt lat="45.51611" lon="3.06452">
        <ele>808.605957</ele>
        <time>2011-05-15T09:42:18Z</time>
      </trkpt>
      <trkpt lat="45.516" lon="3.06459">
        <ele>809.5673828</ele>
        <time>2011-05-15T09:42:25Z</time>
      </trkpt>
      <trkpt lat="45.51586" lon="3.06462">
        <ele>811.0092773</ele>
        <time>2011-05-15T09:42:32Z</time>
      </trkpt>
      <trkpt lat="45.51575" lon="3.06456">
        <ele>812.9321289</ele>
        <time>2011-05-15T09:42:38Z</time>
      </trkpt>
      <trkpt lat="45.51563" lon="3.06448">
        <ele>814.3740234</ele>
        <time>2011-05-15T09:42:45Z</time>
      </trkpt>
      <trkpt lat="45.51545" lon="3.06437">
        <ele>814.8547363</ele>
        <time>2011-05-15T09:42:54Z</time>
      </trkpt>
      <trkpt lat="45.51537" lon="3.06432">
        <ele>815.8161621</ele>
        <time>2011-05-15T09:42:58Z</time>
      </trkpt>
      <trkpt lat="45.51519" lon="3.06417">
        <ele>816.7773438</ele>
        <time>2011-05-15T09:43:07Z</time>
      </trkpt>
      <trkpt lat="45.51504" lon="3.06406">
        <ele>818.2192383</ele>
        <time>2011-05-15T09:43:15Z</time>
      </trkpt>
      <trkpt lat="45.51489" lon="3.06404">
        <ele>820.1418457</ele>
        <time>2011-05-15T09:43:23Z</time>
      </trkpt>
      <trkpt lat="45.51475" lon="3.06403">
        <ele>821.5837402</ele>
        <time>2011-05-15T09:43:32Z</time>
      </trkpt>
      <trkpt lat="45.51465" lon="3.06401">
        <ele>824.9484863</ele>
        <time>2011-05-15T09:43:40Z</time>
      </trkpt>
      <trkpt lat="45.51462" lon="3.06401">
        <ele>825.4289551</ele>
        <time>2011-05-15T09:43:42Z</time>
      </trkpt>
      <trkpt lat="45.51453" lon="3.06402">
        <ele>828.3132324</ele>
        <time>2011-05-15T09:43:50Z</time>
      </trkpt>
      <trkpt lat="45.51452" lon="3.06402">
        <ele>828.3132324</ele>
        <time>2011-05-15T09:43:51Z</time>
      </trkpt>
      <trkpt lat="45.51444" lon="3.06404">
        <ele>829.755127</ele>
        <time>2011-05-15T09:43:57Z</time>
      </trkpt>
      <trkpt lat="45.51437" lon="3.06404">
        <ele>830.7165527</ele>
        <time>2011-05-15T09:44:03Z</time>
      </trkpt>
      <trkpt lat="45.51423" lon="3.06403">
        <ele>832.6391602</ele>
        <time>2011-05-15T09:44:14Z</time>
      </trkpt>
      <trkpt lat="45.51413" lon="3.06405">
        <ele>834.0810547</ele>
        <time>2011-05-15T09:44:22Z</time>
      </trkpt>
      <trkpt lat="45.51403" lon="3.06404">
        <ele>835.0424805</ele>
        <time>2011-05-15T09:44:29Z</time>
      </trkpt>
      <trkpt lat="45.51394" lon="3.064">
        <ele>836.0036621</ele>
        <time>2011-05-15T09:44:35Z</time>
      </trkpt>
      <trkpt lat="45.51384" lon="3.0639">
        <ele>837.4455566</ele>
        <time>2011-05-15T09:44:44Z</time>
      </trkpt>
      <trkpt lat="45.51374" lon="3.06382">
        <ele>839.3681641</ele>
        <time>2011-05-15T09:44:52Z</time>
      </trkpt>
      <trkpt lat="45.51365" lon="3.06374">
        <ele>840.3295898</ele>
        <time>2011-05-15T09:44:59Z</time>
      </trkpt>
      <trkpt lat="45.51358" lon="3.06365">
        <ele>842.2521973</ele>
        <time>2011-05-15T09:45:06Z</time>
      </trkpt>
      <trkpt lat="45.51348" lon="3.06356">
        <ele>843.6940918</ele>
        <time>2011-05-15T09:45:15Z</time>
      </trkpt>
      <trkpt lat="45.51342" lon="3.06351">
        <ele>845.6169434</ele>
        <time>2011-05-15T09:45:20Z</time>
      </trkpt>
      <trkpt lat="45.51339" lon="3.06346">
        <ele>845.6169434</ele>
        <time>2011-05-15T09:45:24Z</time>
      </trkpt>
      <trkpt lat="45.51328" lon="3.06337">
        <ele>848.0202637</ele>
        <time>2011-05-15T09:45:34Z</time>
      </trkpt>
      <trkpt lat="45.51317" lon="3.06328">
        <ele>849.4621582</ele>
        <time>2011-05-15T09:45:43Z</time>
      </trkpt>
      <trkpt lat="45.51303" lon="3.06319">
        <ele>850.9040527</ele>
        <time>2011-05-15T09:45:53Z</time>
      </trkpt>
      <trkpt lat="45.51293" lon="3.06313">
        <ele>851.8654785</ele>
        <time>2011-05-15T09:45:59Z</time>
      </trkpt>
      <trkpt lat="45.51277" lon="3.06297">
        <ele>851.8654785</ele>
        <time>2011-05-15T09:46:06Z</time>
      </trkpt>
      <trkpt lat="45.51257" lon="3.06269">
        <ele>850.9040527</ele>
        <time>2011-05-15T09:46:14Z</time>
      </trkpt>
      <trkpt lat="45.51246" lon="3.06243">
        <ele>850.9040527</ele>
        <time>2011-05-15T09:46:20Z</time>
      </trkpt>
      <trkpt lat="45.5125" lon="3.06227">
        <ele>852.3459473</ele>
        <time>2011-05-15T09:46:24Z</time>
      </trkpt>
      <trkpt lat="45.51258" lon="3.06217">
        <ele>852.3459473</ele>
        <time>2011-05-15T09:46:28Z</time>
      </trkpt>
      <trkpt lat="45.51271" lon="3.06212">
        <ele>853.7880859</ele>
        <time>2011-05-15T09:46:33Z</time>
      </trkpt>
      <trkpt lat="45.51297" lon="3.06204">
        <ele>854.2687988</ele>
        <time>2011-05-15T09:46:42Z</time>
      </trkpt>
      <trkpt lat="45.51316" lon="3.06195">
        <ele>855.2299805</ele>
        <time>2011-05-15T09:46:49Z</time>
      </trkpt>
      <trkpt lat="45.51324" lon="3.0619">
        <ele>856.671875</ele>
        <time>2011-05-15T09:46:52Z</time>
      </trkpt>
      <trkpt lat="45.5134" lon="3.0617">
        <ele>857.6333008</ele>
        <time>2011-05-15T09:46:59Z</time>
      </trkpt>
      <trkpt lat="45.51345" lon="3.06144">
        <ele>858.5944824</ele>
        <time>2011-05-15T09:47:06Z</time>
      </trkpt>
      <trkpt lat="45.51343" lon="3.06122">
        <ele>860.517334</ele>
        <time>2011-05-15T09:47:12Z</time>
      </trkpt>
      <trkpt lat="45.5134" lon="3.06095">
        <ele>861.9594727</ele>
        <time>2011-05-15T09:47:19Z</time>
      </trkpt>
      <trkpt lat="45.51337" lon="3.0607">
        <ele>863.4013672</ele>
        <time>2011-05-15T09:47:26Z</time>
      </trkpt>
      <trkpt lat="45.5133" lon="3.06044">
        <ele>864.8432617</ele>
        <time>2011-05-15T09:47:34Z</time>
      </trkpt>
      <trkpt lat="45.51323" lon="3.06024">
        <ele>867.7270508</ele>
        <time>2011-05-15T09:47:41Z</time>
      </trkpt>
      <trkpt lat="45.5131" lon="3.05997">
        <ele>869.6499023</ele>
        <time>2011-05-15T09:47:51Z</time>
      </trkpt>
      <trkpt lat="45.51298" lon="3.05978">
        <ele>871.5722656</ele>
        <time>2011-05-15T09:47:59Z</time>
      </trkpt>
      <trkpt lat="45.51281" lon="3.05961">
        <ele>874.4562988</ele>
        <time>2011-05-15T09:48:08Z</time>
      </trkpt>
      <trkpt lat="45.51278" lon="3.0596">
        <ele>874.4562988</ele>
        <time>2011-05-15T09:48:09Z</time>
      </trkpt>
      <trkpt lat="45.51264" lon="3.0596">
        <ele>874.9370117</ele>
        <time>2011-05-15T09:48:15Z</time>
      </trkpt>
      <trkpt lat="45.51248" lon="3.05964">
        <ele>877.3405762</ele>
        <time>2011-05-15T09:48:22Z</time>
      </trkpt>
      <trkpt lat="45.51234" lon="3.05971">
        <ele>877.8210449</ele>
        <time>2011-05-15T09:48:28Z</time>
      </trkpt>
      <trkpt lat="45.51215" lon="3.05986">
        <ele>879.2629395</ele>
        <time>2011-05-15T09:48:37Z</time>
      </trkpt>
      <trkpt lat="45.51199" lon="3.06003">
        <ele>880.2243652</ele>
        <time>2011-05-15T09:48:46Z</time>
      </trkpt>
      <trkpt lat="45.51189" lon="3.06011">
        <ele>881.185791</ele>
        <time>2011-05-15T09:48:53Z</time>
      </trkpt>
      <trkpt lat="45.51187" lon="3.06011">
        <ele>881.185791</ele>
        <time>2011-05-15T09:48:57Z</time>
      </trkpt>
      <trkpt lat="45.51185" lon="3.06008">
        <ele>881.185791</ele>
        <time>2011-05-15T09:49:02Z</time>
      </trkpt>
      <trkpt lat="45.51185" lon="3.06009">
        <ele>881.185791</ele>
        <time>2011-05-15T09:49:10Z</time>
      </trkpt>
      <trkpt lat="45.51184" lon="3.06009">
        <ele>880.7050781</ele>
        <time>2011-05-15T09:49:16Z</time>
      </trkpt>
      <trkpt lat="45.51184" lon="3.06008">
        <ele>881.185791</ele>
        <time>2011-05-15T09:49:46Z</time>
      </trkpt>
      <trkpt lat="45.51183" lon="3.06008">
        <ele>881.185791</ele>
        <time>2011-05-15T09:50:02Z</time>
      </trkpt>
      <trkpt lat="45.51183" lon="3.06008">
        <ele>880.7050781</ele>
        <time>2011-05-15T09:50:43Z</time>
      </trkpt>
      <trkpt lat="45.51183" lon="3.06008">
        <ele>880.7050781</ele>
        <time>2011-05-15T09:50:51Z</time>
      </trkpt>
      <trkpt lat="45.51183" lon="3.06008">
        <ele>881.185791</ele>
        <time>2011-05-15T09:50:53Z</time>
      </trkpt>
      <trkpt lat="45.51183" lon="3.06008">
        <ele>881.6662598</ele>
        <time>2011-05-15T09:50:55Z</time>
      </trkpt>
      <trkpt lat="45.51183" lon="3.06008">
        <ele>881.6662598</ele>
        <time>2011-05-15T09:50:56Z</time>
      </trkpt>
      <trkpt lat="45.51183" lon="3.06008">
        <ele>881.185791</ele>
        <time>2011-05-15T09:50:57Z</time>
      </trkpt>
      <trkpt lat="45.51183" lon="3.06008">
        <ele>880.7050781</ele>
        <time>2011-05-15T09:51:02Z</time>
      </trkpt>
      <trkpt lat="45.51183" lon="3.06008">
        <ele>880.7050781</ele>
        <time>2011-05-15T09:51:09Z</time>
      </trkpt>
      <trkpt lat="45.51183" lon="3.06008">
        <ele>880.7050781</ele>
        <time>2011-05-15T09:52:21Z</time>
      </trkpt>
      <trkpt lat="45.51183" lon="3.06008">
        <ele>880.7050781</ele>
        <time>2011-05-15T09:52:25Z</time>
      </trkpt>
      <trkpt lat="45.51183" lon="3.06008">
        <ele>880.7050781</ele>
        <time>2011-05-15T09:52:26Z</time>
      </trkpt>
      <trkpt lat="45.51183" lon="3.06008">
        <ele>880.7050781</ele>
        <time>2011-05-15T09:52:31Z</time>
      </trkpt>
      <trkpt lat="45.51183" lon="3.06008">
        <ele>879.7436523</ele>
        <time>2011-05-15T09:53:40Z</time>
      </trkpt>
      <trkpt lat="45.51183" lon="3.06008">
        <ele>879.7436523</ele>
        <time>2011-05-15T09:53:41Z</time>
      </trkpt>
      <trkpt lat="45.51183" lon="3.06008">
        <ele>880.2243652</ele>
        <time>2011-05-15T09:54:42Z</time>
      </trkpt>
      <trkpt lat="45.51183" lon="3.06008">
        <ele>880.2243652</ele>
        <time>2011-05-15T09:54:43Z</time>
      </trkpt>
      <trkpt lat="45.51183" lon="3.06008">
        <ele>880.7050781</ele>
        <time>2011-05-15T09:55:41Z</time>
      </trkpt>
      <trkpt lat="45.51183" lon="3.06008">
        <ele>880.7050781</ele>
        <time>2011-05-15T09:56:02Z</time>
      </trkpt>
      <trkpt lat="45.51183" lon="3.06008">
        <ele>881.185791</ele>
        <time>2011-05-15T09:56:03Z</time>
      </trkpt>
      <trkpt lat="45.51183" lon="3.06008">
        <ele>880.7050781</ele>
        <time>2011-05-15T09:56:09Z</time>
      </trkpt>
      <trkpt lat="45.51183" lon="3.06008">
        <ele>880.7050781</ele>
        <time>2011-05-15T09:56:13Z</time>
      </trkpt>
      <trkpt lat="45.51183" lon="3.06008">
        <ele>880.2243652</ele>
        <time>2011-05-15T09:56:15Z</time>
      </trkpt>
      <trkpt lat="45.51183" lon="3.06008">
        <ele>880.2243652</ele>
        <time>2011-05-15T09:56:16Z</time>
      </trkpt>
      <trkpt lat="45.51183" lon="3.06008">
        <ele>879.7436523</ele>
        <time>2011-05-15T09:56:23Z</time>
      </trkpt>
      <trkpt lat="45.51183" lon="3.06008">
        <ele>879.7436523</ele>
        <time>2011-05-15T09:56:27Z</time>
      </trkpt>
      <trkpt lat="45.51183" lon="3.06008">
        <ele>879.2629395</ele>
        <time>2011-05-15T09:56:32Z</time>
      </trkpt>
      <trkpt lat="45.51184" lon="3.06008">
        <ele>880.2243652</ele>
        <time>2011-05-15T09:56:52Z</time>
      </trkpt>
      <trkpt lat="45.51183" lon="3.06009">
        <ele>880.7050781</ele>
        <time>2011-05-15T09:57:16Z</time>
      </trkpt>
      <trkpt lat="45.51183" lon="3.06009">
        <ele>880.7050781</ele>
        <time>2011-05-15T09:57:19Z</time>
      </trkpt>
      <trkpt lat="45.51183" lon="3.06009">
        <ele>879.7436523</ele>
        <time>2011-05-15T09:57:38Z</time>
      </trkpt>
      <trkpt lat="45.51183" lon="3.06014">
        <ele>881.6662598</ele>
        <time>2011-05-15T09:58:56Z</time>
      </trkpt>
      <trkpt lat="45.51185" lon="3.06023">
        <ele>881.185791</ele>
        <time>2011-05-15T09:59:00Z</time>
      </trkpt>
      <trkpt lat="45.51181" lon="3.06029">
        <ele>881.185791</ele>
        <time>2011-05-15T09:59:03Z</time>
      </trkpt>
      <trkpt lat="45.51174" lon="3.06033">
        <ele>881.185791</ele>
        <time>2011-05-15T09:59:06Z</time>
      </trkpt>
      <trkpt lat="45.51172" lon="3.06034">
        <ele>881.6662598</ele>
        <time>2011-05-15T09:59:07Z</time>
      </trkpt>
      <trkpt lat="45.51157" lon="3.06035">
        <ele>882.6276855</ele>
        <time>2011-05-15T09:59:13Z</time>
      </trkpt>
      <trkpt lat="45.5115" lon="3.06035">
        <ele>884.0695801</ele>
        <time>2011-05-15T09:59:16Z</time>
      </trkpt>
      <trkpt lat="45.5114" lon="3.06035">
        <ele>884.0695801</ele>
        <time>2011-05-15T09:59:20Z</time>
      </trkpt>
      <trkpt lat="45.51137" lon="3.06035">
        <ele>884.550293</ele>
        <time>2011-05-15T09:59:21Z</time>
      </trkpt>
      <trkpt lat="45.51134" lon="3.06035">
        <ele>884.550293</ele>
        <time>2011-05-15T09:59:22Z</time>
      </trkpt>
      <trkpt lat="45.51126" lon="3.06036">
        <ele>885.0310059</ele>
        <time>2011-05-15T09:59:25Z</time>
      </trkpt>
      <trkpt lat="45.51121" lon="3.06037">
        <ele>885.5114746</ele>
        <time>2011-05-15T09:59:27Z</time>
      </trkpt>
      <trkpt lat="45.51104" lon="3.06044">
        <ele>886.4729004</ele>
        <time>2011-05-15T09:59:34Z</time>
      </trkpt>
      <trkpt lat="45.51079" lon="3.06049">
        <ele>886.4729004</ele>
        <time>2011-05-15T09:59:43Z</time>
      </trkpt>
      <trkpt lat="45.51064" lon="3.06047">
        <ele>887.9147949</ele>
        <time>2011-05-15T09:59:49Z</time>
      </trkpt>
      <trkpt lat="45.51055" lon="3.06039">
        <ele>888.8762207</ele>
        <time>2011-05-15T09:59:55Z</time>
      </trkpt>
      <trkpt lat="45.51048" lon="3.06029">
        <ele>890.798584</ele>
        <time>2011-05-15T10:00:02Z</time>
      </trkpt>
      <trkpt lat="45.51042" lon="3.06024">
        <ele>892.7216797</ele>
        <time>2011-05-15T10:00:08Z</time>
      </trkpt>
      <trkpt lat="45.51036" lon="3.0602">
        <ele>893.6828613</ele>
        <time>2011-05-15T10:00:14Z</time>
      </trkpt>
      <trkpt lat="45.5103" lon="3.06012">
        <ele>895.1247559</ele>
        <time>2011-05-15T10:00:21Z</time>
      </trkpt>
      <trkpt lat="45.51023" lon="3.06007">
        <ele>896.0861816</ele>
        <time>2011-05-15T10:00:28Z</time>
      </trkpt>
      <trkpt lat="45.51014" lon="3.05999">
        <ele>897.5280762</ele>
        <time>2011-05-15T10:00:36Z</time>
      </trkpt>
      <trkpt lat="45.51005" lon="3.0599">
        <ele>899.4506836</ele>
        <time>2011-05-15T10:00:44Z</time>
      </trkpt>
      <trkpt lat="45.50995" lon="3.05984">
        <ele>901.8540039</ele>
        <time>2011-05-15T10:00:53Z</time>
      </trkpt>
      <trkpt lat="45.50986" lon="3.05979">
        <ele>903.2958984</ele>
        <time>2011-05-15T10:01:01Z</time>
      </trkpt>
      <trkpt lat="45.50976" lon="3.05977">
        <ele>906.1796875</ele>
        <time>2011-05-15T10:01:10Z</time>
      </trkpt>
      <trkpt lat="45.5097" lon="3.05974">
        <ele>907.1411133</ele>
        <time>2011-05-15T10:01:16Z</time>
      </trkpt>
      <trkpt lat="45.50961" lon="3.05969">
        <ele>908.1027832</ele>
        <time>2011-05-15T10:01:24Z</time>
      </trkpt>
      <trkpt lat="45.50952" lon="3.05962">
        <ele>910.0251465</ele>
        <time>2011-05-15T10:01:32Z</time>
      </trkpt>
      <trkpt lat="45.50945" lon="3.05956">
        <ele>911.947998</ele>
        <time>2011-05-15T10:01:39Z</time>
      </trkpt>
      <trkpt lat="45.50936" lon="3.05948">
        <ele>912.9091797</ele>
        <time>2011-05-15T10:01:47Z</time>
      </trkpt>
      <trkpt lat="45.5093" lon="3.05936">
        <ele>914.3510742</ele>
        <time>2011-05-15T10:01:55Z</time>
      </trkpt>
      <trkpt lat="45.50924" lon="3.05924">
        <ele>915.7932129</ele>
        <time>2011-05-15T10:02:03Z</time>
      </trkpt>
      <trkpt lat="45.50918" lon="3.05909">
        <ele>917.7155762</ele>
        <time>2011-05-15T10:02:13Z</time>
      </trkpt>
      <trkpt lat="45.50914" lon="3.059">
        <ele>919.1577148</ele>
        <time>2011-05-15T10:02:19Z</time>
      </trkpt>
      <trkpt lat="45.50909" lon="3.05886">
        <ele>920.1188965</ele>
        <time>2011-05-15T10:02:27Z</time>
      </trkpt>
      <trkpt lat="45.50909" lon="3.05885">
        <ele>920.5996094</ele>
        <time>2011-05-15T10:02:28Z</time>
      </trkpt>
      <trkpt lat="45.50904" lon="3.05877">
        <ele>922.5222168</ele>
        <time>2011-05-15T10:02:34Z</time>
      </trkpt>
      <trkpt lat="45.50899" lon="3.05865">
        <ele>924.4450684</ele>
        <time>2011-05-15T10:02:42Z</time>
      </trkpt>
      <trkpt lat="45.50895" lon="3.05857">
        <ele>924.9257813</ele>
        <time>2011-05-15T10:02:48Z</time>
      </trkpt>
      <trkpt lat="45.50893" lon="3.05844">
        <ele>924.9257813</ele>
        <time>2011-05-15T10:02:56Z</time>
      </trkpt>
      <trkpt lat="45.50891" lon="3.05842">
        <ele>925.40625</ele>
        <time>2011-05-15T10:02:58Z</time>
      </trkpt>
      <trkpt lat="45.50883" lon="3.05828">
        <ele>927.8095703</ele>
        <time>2011-05-15T10:03:07Z</time>
      </trkpt>
      <trkpt lat="45.50876" lon="3.05812">
        <ele>929.2514648</ele>
        <time>2011-05-15T10:03:16Z</time>
      </trkpt>
      <trkpt lat="45.50867" lon="3.05793">
        <ele>932.135498</ele>
        <time>2011-05-15T10:03:26Z</time>
      </trkpt>
      <trkpt lat="45.50858" lon="3.05778">
        <ele>933.5773926</ele>
        <time>2011-05-15T10:03:34Z</time>
      </trkpt>
      <trkpt lat="45.50856" lon="3.05776">
        <ele>933.5773926</ele>
        <time>2011-05-15T10:03:35Z</time>
      </trkpt>
      <trkpt lat="45.50845" lon="3.05756">
        <ele>935.9807129</ele>
        <time>2011-05-15T10:03:46Z</time>
      </trkpt>
      <trkpt lat="45.50842" lon="3.05753">
        <ele>936.4614258</ele>
        <time>2011-05-15T10:03:48Z</time>
      </trkpt>
      <trkpt lat="45.50835" lon="3.05739">
        <ele>937.4226074</ele>
        <time>2011-05-15T10:03:56Z</time>
      </trkpt>
      <trkpt lat="45.50827" lon="3.05731">
        <ele>938.3840332</ele>
        <time>2011-05-15T10:04:04Z</time>
      </trkpt>
      <trkpt lat="45.50827" lon="3.05732">
        <ele>938.8647461</ele>
        <time>2011-05-15T10:04:13Z</time>
      </trkpt>
      <trkpt lat="45.50826" lon="3.05731">
        <ele>939.3452148</ele>
        <time>2011-05-15T10:04:20Z</time>
      </trkpt>
      <trkpt lat="45.50826" lon="3.05731">
        <ele>938.8647461</ele>
        <time>2011-05-15T10:04:29Z</time>
      </trkpt>
      <trkpt lat="45.50827" lon="3.05731">
        <ele>938.8647461</ele>
        <time>2011-05-15T10:04:34Z</time>
      </trkpt>
      <trkpt lat="45.50827" lon="3.05731">
        <ele>938.8647461</ele>
        <time>2011-05-15T10:04:40Z</time>
      </trkpt>
      <trkpt lat="45.50826" lon="3.05731">
        <ele>938.8647461</ele>
        <time>2011-05-15T10:04:41Z</time>
      </trkpt>
      <trkpt lat="45.50819" lon="3.05735">
        <ele>938.8647461</ele>
        <time>2011-05-15T10:04:46Z</time>
      </trkpt>
      <trkpt lat="45.50808" lon="3.05747">
        <ele>939.3452148</ele>
        <time>2011-05-15T10:04:52Z</time>
      </trkpt>
      <trkpt lat="45.50802" lon="3.05753">
        <ele>939.8259277</ele>
        <time>2011-05-15T10:04:55Z</time>
      </trkpt>
      <trkpt lat="45.508" lon="3.05755">
        <ele>939.3452148</ele>
        <time>2011-05-15T10:04:56Z</time>
      </trkpt>
      <trkpt lat="45.50786" lon="3.05769">
        <ele>940.3068848</ele>
        <time>2011-05-15T10:05:03Z</time>
      </trkpt>
      <trkpt lat="45.50779" lon="3.05777">
        <ele>940.3068848</ele>
        <time>2011-05-15T10:05:07Z</time>
      </trkpt>
      <trkpt lat="45.50771" lon="3.05784">
        <ele>941.7487793</ele>
        <time>2011-05-15T10:05:11Z</time>
      </trkpt>
      <trkpt lat="45.50762" lon="3.05792">
        <ele>942.7102051</ele>
        <time>2011-05-15T10:05:16Z</time>
      </trkpt>
      <trkpt lat="45.50753" lon="3.05802">
        <ele>943.1906738</ele>
        <time>2011-05-15T10:05:21Z</time>
      </trkpt>
      <trkpt lat="45.50745" lon="3.05813">
        <ele>945.1132813</ele>
        <time>2011-05-15T10:05:27Z</time>
      </trkpt>
      <trkpt lat="45.50741" lon="3.05819">
        <ele>946.5554199</ele>
        <time>2011-05-15T10:05:30Z</time>
      </trkpt>
      <trkpt lat="45.50732" lon="3.05835">
        <ele>948.9584961</ele>
        <time>2011-05-15T10:05:38Z</time>
      </trkpt>
      <trkpt lat="45.50726" lon="3.05843">
        <ele>949.439209</ele>
        <time>2011-05-15T10:05:42Z</time>
      </trkpt>
      <trkpt lat="45.50721" lon="3.05855">
        <ele>950.8811035</ele>
        <time>2011-05-15T10:05:47Z</time>
      </trkpt>
      <trkpt lat="45.50713" lon="3.05864">
        <ele>952.8037109</ele>
        <time>2011-05-15T10:05:52Z</time>
      </trkpt>
      <trkpt lat="45.50706" lon="3.05869">
        <ele>953.2844238</ele>
        <time>2011-05-15T10:05:56Z</time>
      </trkpt>
      <trkpt lat="45.5069" lon="3.05873">
        <ele>955.2070313</ele>
        <time>2011-05-15T10:06:05Z</time>
      </trkpt>
      <trkpt lat="45.50681" lon="3.05876">
        <ele>957.6105957</ele>
        <time>2011-05-15T10:06:10Z</time>
      </trkpt>
      <trkpt lat="45.50669" lon="3.05881">
        <ele>960.4943848</ele>
        <time>2011-05-15T10:06:17Z</time>
      </trkpt>
      <trkpt lat="45.50657" lon="3.0589">
        <ele>960.9750977</ele>
        <time>2011-05-15T10:06:25Z</time>
      </trkpt>
      <trkpt lat="45.50642" lon="3.05902">
        <ele>963.8588867</ele>
        <time>2011-05-15T10:06:35Z</time>
      </trkpt>
      <trkpt lat="45.50632" lon="3.05912">
        <ele>965.7817383</ele>
        <time>2011-05-15T10:06:42Z</time>
      </trkpt>
      <trkpt lat="45.50622" lon="3.05923">
        <ele>967.2236328</ele>
        <time>2011-05-15T10:06:50Z</time>
      </trkpt>
      <trkpt lat="45.50608" lon="3.05939">
        <ele>969.1462402</ele>
        <time>2011-05-15T10:06:59Z</time>
      </trkpt>
      <trkpt lat="45.50596" lon="3.05952">
        <ele>970.5881348</ele>
        <time>2011-05-15T10:07:07Z</time>
      </trkpt>
      <trkpt lat="45.50585" lon="3.05967">
        <ele>972.0302734</ele>
        <time>2011-05-15T10:07:15Z</time>
      </trkpt>
      <trkpt lat="45.50577" lon="3.05982">
        <ele>974.4335938</ele>
        <time>2011-05-15T10:07:22Z</time>
      </trkpt>
      <trkpt lat="45.50567" lon="3.05999">
        <ele>974.4335938</ele>
        <time>2011-05-15T10:07:30Z</time>
      </trkpt>
      <trkpt lat="45.50561" lon="3.06013">
        <ele>976.3562012</ele>
        <time>2011-05-15T10:07:39Z</time>
      </trkpt>
      <trkpt lat="45.50558" lon="3.06024">
        <ele>977.317627</ele>
        <time>2011-05-15T10:07:45Z</time>
      </trkpt>
      <trkpt lat="45.50553" lon="3.06035">
        <ele>979.7207031</ele>
        <time>2011-05-15T10:07:52Z</time>
      </trkpt>
      <trkpt lat="45.50547" lon="3.06047">
        <ele>982.1240234</ele>
        <time>2011-05-15T10:08:00Z</time>
      </trkpt>
      <trkpt lat="45.50537" lon="3.06061">
        <ele>984.0466309</ele>
        <time>2011-05-15T10:08:10Z</time>
      </trkpt>
      <trkpt lat="45.50535" lon="3.06066">
        <ele>984.5273438</ele>
        <time>2011-05-15T10:08:13Z</time>
      </trkpt>
      <trkpt lat="45.50527" lon="3.06074">
        <ele>985.4885254</ele>
        <time>2011-05-15T10:08:20Z</time>
      </trkpt>
      <trkpt lat="45.50519" lon="3.06084">
        <ele>987.4111328</ele>
        <time>2011-05-15T10:08:28Z</time>
      </trkpt>
      <trkpt lat="45.50515" lon="3.06088">
        <ele>988.3728027</ele>
        <time>2011-05-15T10:08:31Z</time>
      </trkpt>
      <trkpt lat="45.50505" lon="3.06099">
        <ele>991.2565918</ele>
        <time>2011-05-15T10:08:39Z</time>
      </trkpt>
      <trkpt lat="45.50504" lon="3.061">
        <ele>991.7373047</ele>
        <time>2011-05-15T10:08:40Z</time>
      </trkpt>
      <trkpt lat="45.50492" lon="3.06112">
        <ele>992.6987305</ele>
        <time>2011-05-15T10:08:48Z</time>
      </trkpt>
      <trkpt lat="45.5048" lon="3.06123">
        <ele>993.6599121</ele>
        <time>2011-05-15T10:08:55Z</time>
      </trkpt>
      <trkpt lat="45.50463" lon="3.06135">
        <ele>994.6210938</ele>
        <time>2011-05-15T10:09:04Z</time>
      </trkpt>
      <trkpt lat="45.50449" lon="3.06144">
        <ele>995.1018066</ele>
        <time>2011-05-15T10:09:11Z</time>
      </trkpt>
      <trkpt lat="45.50436" lon="3.06157">
        <ele>996.0632324</ele>
        <time>2011-05-15T10:09:18Z</time>
      </trkpt>
      <trkpt lat="45.50425" lon="3.06177">
        <ele>997.505127</ele>
        <time>2011-05-15T10:09:26Z</time>
      </trkpt>
      <trkpt lat="45.50417" lon="3.06204">
        <ele>998.9470215</ele>
        <time>2011-05-15T10:09:34Z</time>
      </trkpt>
      <trkpt lat="45.50412" lon="3.06239">
        <ele>999.4277344</ele>
        <time>2011-05-15T10:09:42Z</time>
      </trkpt>
      <trkpt lat="45.50408" lon="3.06275">
        <ele>1000.8696289</ele>
        <time>2011-05-15T10:09:50Z</time>
      </trkpt>
      <trkpt lat="45.50404" lon="3.0631">
        <ele>1001.8310547</ele>
        <time>2011-05-15T10:09:58Z</time>
      </trkpt>
      <trkpt lat="45.50401" lon="3.06351">
        <ele>1001.8310547</ele>
        <time>2011-05-15T10:10:06Z</time>
      </trkpt>
      <trkpt lat="45.50399" lon="3.06368">
        <ele>1002.7922363</ele>
        <time>2011-05-15T10:10:09Z</time>
      </trkpt>
      <trkpt lat="45.50397" lon="3.06393">
        <ele>1002.3115234</ele>
        <time>2011-05-15T10:10:13Z</time>
      </trkpt>
      <trkpt lat="45.50391" lon="3.0645">
        <ele>1001.3503418</ele>
        <time>2011-05-15T10:10:22Z</time>
      </trkpt>
      <trkpt lat="45.50386" lon="3.06497">
        <ele>999.9084473</ele>
        <time>2011-05-15T10:10:29Z</time>
      </trkpt>
      <trkpt lat="45.50385" lon="3.06511">
        <ele>999.4277344</ele>
        <time>2011-05-15T10:10:31Z</time>
      </trkpt>
      <trkpt lat="45.50378" lon="3.06523">
        <ele>999.4277344</ele>
        <time>2011-05-15T10:10:34Z</time>
      </trkpt>
      <trkpt lat="45.50374" lon="3.06524">
        <ele>999.9084473</ele>
        <time>2011-05-15T10:10:35Z</time>
      </trkpt>
      <trkpt lat="45.50364" lon="3.06522">
        <ele>1001.3503418</ele>
        <time>2011-05-15T10:10:38Z</time>
      </trkpt>
      <trkpt lat="45.50341" lon="3.06521">
        <ele>1002.3115234</ele>
        <time>2011-05-15T10:10:44Z</time>
      </trkpt>
      <trkpt lat="45.50319" lon="3.06522">
        <ele>1003.7536621</ele>
        <time>2011-05-15T10:10:50Z</time>
      </trkpt>
      <trkpt lat="45.50305" lon="3.06524">
        <ele>1003.7536621</ele>
        <time>2011-05-15T10:10:54Z</time>
      </trkpt>
      <trkpt lat="45.50282" lon="3.06533">
        <ele>1004.7150879</ele>
        <time>2011-05-15T10:11:00Z</time>
      </trkpt>
      <trkpt lat="45.50265" lon="3.06545">
        <ele>1006.6376953</ele>
        <time>2011-05-15T10:11:05Z</time>
      </trkpt>
      <trkpt lat="45.50255" lon="3.06552">
        <ele>1006.6376953</ele>
        <time>2011-05-15T10:11:08Z</time>
      </trkpt>
      <trkpt lat="45.50232" lon="3.06573">
        <ele>1008.5603027</ele>
        <time>2011-05-15T10:11:16Z</time>
      </trkpt>
      <trkpt lat="45.50209" lon="3.06599">
        <ele>1008.079834</ele>
        <time>2011-05-15T10:11:24Z</time>
      </trkpt>
      <trkpt lat="45.50205" lon="3.06599">
        <ele>1009.0410156</ele>
        <time>2011-05-15T10:11:25Z</time>
      </trkpt>
      <trkpt lat="45.50182" lon="3.06598">
        <ele>1008.5603027</ele>
        <time>2011-05-15T10:11:31Z</time>
      </trkpt>
      <trkpt lat="45.50163" lon="3.06599">
        <ele>1009.0410156</ele>
        <time>2011-05-15T10:11:36Z</time>
      </trkpt>
      <trkpt lat="45.50126" lon="3.06579">
        <ele>1008.079834</ele>
        <time>2011-05-15T10:11:45Z</time>
      </trkpt>
      <trkpt lat="45.50099" lon="3.06563">
        <ele>1008.5603027</ele>
        <time>2011-05-15T10:11:52Z</time>
      </trkpt>
      <trkpt lat="45.50087" lon="3.06559">
        <ele>1009.5217285</ele>
        <time>2011-05-15T10:11:55Z</time>
      </trkpt>
      <trkpt lat="45.50069" lon="3.06558">
        <ele>1009.5217285</ele>
        <time>2011-05-15T10:12:00Z</time>
      </trkpt>
      <trkpt lat="45.50065" lon="3.06567">
        <ele>1008.079834</ele>
        <time>2011-05-15T10:12:03Z</time>
      </trkpt>
      <trkpt lat="45.50069" lon="3.06575">
        <ele>1007.1184082</ele>
        <time>2011-05-15T10:12:05Z</time>
      </trkpt>
      <trkpt lat="45.50076" lon="3.06585">
        <ele>1006.1569824</ele>
        <time>2011-05-15T10:12:07Z</time>
      </trkpt>
      <trkpt lat="45.50084" lon="3.06596">
        <ele>1004.7150879</ele>
        <time>2011-05-15T10:12:09Z</time>
      </trkpt>
      <trkpt lat="45.50102" lon="3.06623">
        <ele>999.9084473</ele>
        <time>2011-05-15T10:12:13Z</time>
      </trkpt>
      <trkpt lat="45.50133" lon="3.06667">
        <ele>1000.3891602</ele>
        <time>2011-05-15T10:12:19Z</time>
      </trkpt>
      <trkpt lat="45.50139" lon="3.06674">
        <ele>999.4277344</ele>
        <time>2011-05-15T10:12:20Z</time>
      </trkpt>
      <trkpt lat="45.5015" lon="3.0669">
        <ele>998.4663086</ele>
        <time>2011-05-15T10:12:22Z</time>
      </trkpt>
      <trkpt lat="45.50182" lon="3.06737">
        <ele>997.505127</ele>
        <time>2011-05-15T10:12:28Z</time>
      </trkpt>
      <trkpt lat="45.50193" lon="3.06762">
        <ele>997.0244141</ele>
        <time>2011-05-15T10:12:31Z</time>
      </trkpt>
      <trkpt lat="45.50195" lon="3.06772">
        <ele>996.5439453</ele>
        <time>2011-05-15T10:12:32Z</time>
      </trkpt>
      <trkpt lat="45.50197" lon="3.06791">
        <ele>996.5439453</ele>
        <time>2011-05-15T10:12:34Z</time>
      </trkpt>
      <trkpt lat="45.50198" lon="3.06801">
        <ele>996.0632324</ele>
        <time>2011-05-15T10:12:35Z</time>
      </trkpt>
      <trkpt lat="45.50213" lon="3.0683">
        <ele>995.5825195</ele>
        <time>2011-05-15T10:12:39Z</time>
      </trkpt>
      <trkpt lat="45.50232" lon="3.06848">
        <ele>997.505127</ele>
        <time>2011-05-15T10:12:44Z</time>
      </trkpt>
      <trkpt lat="45.50241" lon="3.06857">
        <ele>998.4663086</ele>
        <time>2011-05-15T10:12:47Z</time>
      </trkpt>
      <trkpt lat="45.50251" lon="3.06865">
        <ele>998.9470215</ele>
        <time>2011-05-15T10:12:51Z</time>
      </trkpt>
      <trkpt lat="45.50256" lon="3.0687">
        <ele>1000.8696289</ele>
        <time>2011-05-15T10:12:53Z</time>
      </trkpt>
      <trkpt lat="45.50258" lon="3.06872">
        <ele>1000.8696289</ele>
        <time>2011-05-15T10:12:54Z</time>
      </trkpt>
      <trkpt lat="45.50267" lon="3.06879">
        <ele>1002.3115234</ele>
        <time>2011-05-15T10:12:58Z</time>
      </trkpt>
      <trkpt lat="45.5027" lon="3.06883">
        <ele>1002.7922363</ele>
        <time>2011-05-15T10:13:00Z</time>
      </trkpt>
      <trkpt lat="45.50274" lon="3.06886">
        <ele>1003.7536621</ele>
        <time>2011-05-15T10:13:02Z</time>
      </trkpt>
      <trkpt lat="45.50282" lon="3.06898">
        <ele>1005.1958008</ele>
        <time>2011-05-15T10:13:08Z</time>
      </trkpt>
      <trkpt lat="45.50285" lon="3.06909">
        <ele>1007.1184082</ele>
        <time>2011-05-15T10:13:12Z</time>
      </trkpt>
      <trkpt lat="45.50285" lon="3.06912">
        <ele>1007.1184082</ele>
        <time>2011-05-15T10:13:13Z</time>
      </trkpt>
      <trkpt lat="45.50284" lon="3.06928">
        <ele>1008.079834</ele>
        <time>2011-05-15T10:13:19Z</time>
      </trkpt>
      <trkpt lat="45.50284" lon="3.06945">
        <ele>1010.0021973</ele>
        <time>2011-05-15T10:13:25Z</time>
      </trkpt>
      <trkpt lat="45.50284" lon="3.06961">
        <ele>1011.9250488</ele>
        <time>2011-05-15T10:13:31Z</time>
      </trkpt>
      <trkpt lat="45.50285" lon="3.06984">
        <ele>1013.3669434</ele>
        <time>2011-05-15T10:13:39Z</time>
      </trkpt>
      <trkpt lat="45.50285" lon="3.07009">
        <ele>1015.2895508</ele>
        <time>2011-05-15T10:13:48Z</time>
      </trkpt>
      <trkpt lat="45.50286" lon="3.07026">
        <ele>1016.2507324</ele>
        <time>2011-05-15T10:13:54Z</time>
      </trkpt>
      <trkpt lat="45.50285" lon="3.07051">
        <ele>1017.2121582</ele>
        <time>2011-05-15T10:14:02Z</time>
      </trkpt>
      <trkpt lat="45.50282" lon="3.07074">
        <ele>1017.692627</ele>
        <time>2011-05-15T10:14:09Z</time>
      </trkpt>
      <trkpt lat="45.50278" lon="3.0711">
        <ele>1018.1733398</ele>
        <time>2011-05-15T10:14:17Z</time>
      </trkpt>
      <trkpt lat="45.50271" lon="3.0717">
        <ele>1018.6540527</ele>
        <time>2011-05-15T10:14:29Z</time>
      </trkpt>
      <trkpt lat="45.50269" lon="3.07216">
        <ele>1019.1347656</ele>
        <time>2011-05-15T10:14:38Z</time>
      </trkpt>
      <trkpt lat="45.50269" lon="3.07244">
        <ele>1020.0961914</ele>
        <time>2011-05-15T10:14:45Z</time>
      </trkpt>
      <trkpt lat="45.50269" lon="3.07256">
        <ele>1021.0576172</ele>
        <time>2011-05-15T10:14:49Z</time>
      </trkpt>
      <trkpt lat="45.50269" lon="3.07274">
        <ele>1023.4609375</ele>
        <time>2011-05-15T10:14:55Z</time>
      </trkpt>
      <trkpt lat="45.50258" lon="3.07289">
        <ele>1021.0576172</ele>
        <time>2011-05-15T10:15:00Z</time>
      </trkpt>
      <trkpt lat="45.50254" lon="3.07293">
        <ele>1019.6154785</ele>
        <time>2011-05-15T10:15:01Z</time>
      </trkpt>
      <trkpt lat="45.50239" lon="3.0732">
        <ele>1018.1733398</ele>
        <time>2011-05-15T10:15:05Z</time>
      </trkpt>
      <trkpt lat="45.50223" lon="3.07381">
        <ele>1016.7314453</ele>
        <time>2011-05-15T10:15:12Z</time>
      </trkpt>
      <trkpt lat="45.50214" lon="3.07416">
        <ele>1016.2507324</ele>
        <time>2011-05-15T10:15:16Z</time>
      </trkpt>
      <trkpt lat="45.50209" lon="3.07433">
        <ele>1014.8088379</ele>
        <time>2011-05-15T10:15:18Z</time>
      </trkpt>
      <trkpt lat="45.50206" lon="3.07442">
        <ele>1014.328125</ele>
        <time>2011-05-15T10:15:19Z</time>
      </trkpt>
      <trkpt lat="45.50199" lon="3.07458">
        <ele>1013.3669434</ele>
        <time>2011-05-15T10:15:21Z</time>
      </trkpt>
      <trkpt lat="45.5018" lon="3.0749">
        <ele>1010.963623</ele>
        <time>2011-05-15T10:15:25Z</time>
      </trkpt>
      <trkpt lat="45.50174" lon="3.07513">
        <ele>1008.079834</ele>
        <time>2011-05-15T10:15:27Z</time>
      </trkpt>
      <trkpt lat="45.50168" lon="3.07551">
        <ele>1004.2346191</ele>
        <time>2011-05-15T10:15:30Z</time>
      </trkpt>
      <trkpt lat="45.50162" lon="3.07616">
        <ele>1002.7922363</ele>
        <time>2011-05-15T10:15:35Z</time>
      </trkpt>
      <trkpt lat="45.50162" lon="3.07645">
        <ele>998.4663086</ele>
        <time>2011-05-15T10:15:37Z</time>
      </trkpt>
      <trkpt lat="45.50166" lon="3.07676">
        <ele>995.5825195</ele>
        <time>2011-05-15T10:15:39Z</time>
      </trkpt>
      <trkpt lat="45.50173" lon="3.07706">
        <ele>994.140625</ele>
        <time>2011-05-15T10:15:41Z</time>
      </trkpt>
      <trkpt lat="45.50186" lon="3.07744">
        <ele>991.7373047</ele>
        <time>2011-05-15T10:15:44Z</time>
      </trkpt>
      <trkpt lat="45.50194" lon="3.07781">
        <ele>988.8535156</ele>
        <time>2011-05-15T10:15:47Z</time>
      </trkpt>
      <trkpt lat="45.50195" lon="3.0783">
        <ele>985.0080566</ele>
        <time>2011-05-15T10:15:51Z</time>
      </trkpt>
      <trkpt lat="45.50194" lon="3.07842">
        <ele>985.0080566</ele>
        <time>2011-05-15T10:15:52Z</time>
      </trkpt>
      <trkpt lat="45.50194" lon="3.0788">
        <ele>982.6047363</ele>
        <time>2011-05-15T10:15:56Z</time>
      </trkpt>
      <trkpt lat="45.50197" lon="3.07894">
        <ele>982.6047363</ele>
        <time>2011-05-15T10:15:59Z</time>
      </trkpt>
      <trkpt lat="45.50204" lon="3.07898">
        <ele>980.201416</ele>
        <time>2011-05-15T10:16:02Z</time>
      </trkpt>
      <trkpt lat="45.50219" lon="3.07889">
        <ele>976.8369141</ele>
        <time>2011-05-15T10:16:06Z</time>
      </trkpt>
      <trkpt lat="45.50243" lon="3.07886">
        <ele>971.0688477</ele>
        <time>2011-05-15T10:16:10Z</time>
      </trkpt>
      <trkpt lat="45.5025" lon="3.07887">
        <ele>970.1074219</ele>
        <time>2011-05-15T10:16:11Z</time>
      </trkpt>
      <trkpt lat="45.50264" lon="3.0789">
        <ele>965.7817383</ele>
        <time>2011-05-15T10:16:13Z</time>
      </trkpt>
      <trkpt lat="45.50289" lon="3.079">
        <ele>964.8203125</ele>
        <time>2011-05-15T10:16:17Z</time>
      </trkpt>
      <trkpt lat="45.50295" lon="3.07904">
        <ele>961.9365234</ele>
        <time>2011-05-15T10:16:18Z</time>
      </trkpt>
      <trkpt lat="45.50307" lon="3.07924">
        <ele>959.0524902</ele>
        <time>2011-05-15T10:16:21Z</time>
      </trkpt>
      <trkpt lat="45.50323" lon="3.07947">
        <ele>955.6877441</ele>
        <time>2011-05-15T10:16:24Z</time>
      </trkpt>
      <trkpt lat="45.50331" lon="3.07953">
        <ele>954.7263184</ele>
        <time>2011-05-15T10:16:25Z</time>
      </trkpt>
      <trkpt lat="45.50361" lon="3.07989">
        <ele>951.3618164</ele>
        <time>2011-05-15T10:16:30Z</time>
      </trkpt>
      <trkpt lat="45.50378" lon="3.08029">
        <ele>949.9199219</ele>
        <time>2011-05-15T10:16:34Z</time>
      </trkpt>
      <trkpt lat="45.50383" lon="3.08074">
        <ele>946.074707</ele>
        <time>2011-05-15T10:16:38Z</time>
      </trkpt>
      <trkpt lat="45.50385" lon="3.0811">
        <ele>944.6325684</ele>
        <time>2011-05-15T10:16:42Z</time>
      </trkpt>
      <trkpt lat="45.50388" lon="3.08126">
        <ele>944.1520996</ele>
        <time>2011-05-15T10:16:45Z</time>
      </trkpt>
      <trkpt lat="45.50403" lon="3.08145">
        <ele>939.8259277</ele>
        <time>2011-05-15T10:16:49Z</time>
      </trkpt>
      <trkpt lat="45.50412" lon="3.08163">
        <ele>937.4226074</ele>
        <time>2011-05-15T10:16:52Z</time>
      </trkpt>
      <trkpt lat="45.50409" lon="3.08181">
        <ele>934.5388184</ele>
        <time>2011-05-15T10:16:54Z</time>
      </trkpt>
      <trkpt lat="45.50399" lon="3.08198">
        <ele>930.6936035</ele>
        <time>2011-05-15T10:16:56Z</time>
      </trkpt>
      <trkpt lat="45.50393" lon="3.08205">
        <ele>930.2128906</ele>
        <time>2011-05-15T10:16:57Z</time>
      </trkpt>
      <trkpt lat="45.50367" lon="3.08236">
        <ele>924.4450684</ele>
        <time>2011-05-15T10:17:01Z</time>
      </trkpt>
      <trkpt lat="45.50359" lon="3.08244">
        <ele>923.4836426</ele>
        <time>2011-05-15T10:17:02Z</time>
      </trkpt>
      <trkpt lat="45.50326" lon="3.08265">
        <ele>919.1577148</ele>
        <time>2011-05-15T10:17:06Z</time>
      </trkpt>
      <trkpt lat="45.50306" lon="3.08273">
        <ele>915.3125</ele>
        <time>2011-05-15T10:17:08Z</time>
      </trkpt>
      <trkpt lat="45.50274" lon="3.08271">
        <ele>912.9091797</ele>
        <time>2011-05-15T10:17:11Z</time>
      </trkpt>
      <trkpt lat="45.50236" lon="3.08261">
        <ele>913.3898926</ele>
        <time>2011-05-15T10:17:15Z</time>
      </trkpt>
      <trkpt lat="45.50202" lon="3.08244">
        <ele>915.3125</ele>
        <time>2011-05-15T10:17:20Z</time>
      </trkpt>
      <trkpt lat="45.5019" lon="3.0824">
        <ele>914.8317871</ele>
        <time>2011-05-15T10:17:22Z</time>
      </trkpt>
      <trkpt lat="45.50165" lon="3.08233">
        <ele>913.8703613</ele>
        <time>2011-05-15T10:17:26Z</time>
      </trkpt>
      <trkpt lat="45.50138" lon="3.08241">
        <ele>909.5446777</ele>
        <time>2011-05-15T10:17:30Z</time>
      </trkpt>
      <trkpt lat="45.50108" lon="3.08267">
        <ele>905.6992188</ele>
        <time>2011-05-15T10:17:34Z</time>
      </trkpt>
      <trkpt lat="45.50078" lon="3.08296">
        <ele>902.8151855</ele>
        <time>2011-05-15T10:17:38Z</time>
      </trkpt>
      <trkpt lat="45.50071" lon="3.08304">
        <ele>900.4121094</ele>
        <time>2011-05-15T10:17:39Z</time>
      </trkpt>
      <trkpt lat="45.50043" lon="3.08321">
        <ele>897.0473633</ele>
        <time>2011-05-15T10:17:42Z</time>
      </trkpt>
      <trkpt lat="45.50031" lon="3.08323">
        <ele>893.6828613</ele>
        <time>2011-05-15T10:17:43Z</time>
      </trkpt>
      <trkpt lat="45.50018" lon="3.08323">
        <ele>890.3181152</ele>
        <time>2011-05-15T10:17:44Z</time>
      </trkpt>
      <trkpt lat="45.50005" lon="3.08322">
        <ele>886.9533691</ele>
        <time>2011-05-15T10:17:45Z</time>
      </trkpt>
      <trkpt lat="45.49977" lon="3.08317">
        <ele>882.6276855</ele>
        <time>2011-05-15T10:17:47Z</time>
      </trkpt>
      <trkpt lat="45.49951" lon="3.08311">
        <ele>878.7824707</ele>
        <time>2011-05-15T10:17:49Z</time>
      </trkpt>
      <trkpt lat="45.49926" lon="3.08303">
        <ele>875.4174805</ele>
        <time>2011-05-15T10:17:51Z</time>
      </trkpt>
      <trkpt lat="45.49876" lon="3.08273">
        <ele>869.6499023</ele>
        <time>2011-05-15T10:17:55Z</time>
      </trkpt>
      <trkpt lat="45.49842" lon="3.08256">
        <ele>867.246582</ele>
        <time>2011-05-15T10:17:58Z</time>
      </trkpt>
      <trkpt lat="45.49816" lon="3.08226">
        <ele>866.2851563</ele>
        <time>2011-05-15T10:18:02Z</time>
      </trkpt>
      <trkpt lat="45.49797" lon="3.08201">
        <ele>866.7658691</ele>
        <time>2011-05-15T10:18:06Z</time>
      </trkpt>
      <trkpt lat="45.49785" lon="3.08204">
        <ele>866.7658691</ele>
        <time>2011-05-15T10:18:08Z</time>
      </trkpt>
      <trkpt lat="45.49763" lon="3.08214">
        <ele>867.246582</ele>
        <time>2011-05-15T10:18:12Z</time>
      </trkpt>
      <trkpt lat="45.49752" lon="3.08215">
        <ele>868.2077637</ele>
        <time>2011-05-15T10:18:14Z</time>
      </trkpt>
      <trkpt lat="45.49727" lon="3.08203">
        <ele>868.6884766</ele>
        <time>2011-05-15T10:18:19Z</time>
      </trkpt>
      <trkpt lat="45.49722" lon="3.082">
        <ele>868.2077637</ele>
        <time>2011-05-15T10:18:20Z</time>
      </trkpt>
      <trkpt lat="45.49703" lon="3.08189">
        <ele>868.2077637</ele>
        <time>2011-05-15T10:18:24Z</time>
      </trkpt>
      <trkpt lat="45.49684" lon="3.08187">
        <ele>869.1691895</ele>
        <time>2011-05-15T10:18:28Z</time>
      </trkpt>
      <trkpt lat="45.49672" lon="3.0819">
        <ele>868.6884766</ele>
        <time>2011-05-15T10:18:31Z</time>
      </trkpt>
      <trkpt lat="45.4966" lon="3.08206">
        <ele>869.1691895</ele>
        <time>2011-05-15T10:18:35Z</time>
      </trkpt>
      <trkpt lat="45.49663" lon="3.08225">
        <ele>868.6884766</ele>
        <time>2011-05-15T10:18:38Z</time>
      </trkpt>
      <trkpt lat="45.49676" lon="3.08249">
        <ele>867.7270508</ele>
        <time>2011-05-15T10:18:42Z</time>
      </trkpt>
      <trkpt lat="45.4968" lon="3.08263">
        <ele>866.7658691</ele>
        <time>2011-05-15T10:18:44Z</time>
      </trkpt>
      <trkpt lat="45.49682" lon="3.08308">
        <ele>869.6499023</ele>
        <time>2011-05-15T10:18:51Z</time>
      </trkpt>
      <trkpt lat="45.49687" lon="3.08345">
        <ele>869.6499023</ele>
        <time>2011-05-15T10:18:57Z</time>
      </trkpt>
      <trkpt lat="45.49689" lon="3.08359">
        <ele>869.6499023</ele>
        <time>2011-05-15T10:18:59Z</time>
      </trkpt>
      <trkpt lat="45.49696" lon="3.08401">
        <ele>866.2851563</ele>
        <time>2011-05-15T10:19:04Z</time>
      </trkpt>
      <trkpt lat="45.49707" lon="3.0846">
        <ele>863.4013672</ele>
        <time>2011-05-15T10:19:10Z</time>
      </trkpt>
      <trkpt lat="45.49709" lon="3.08471">
        <ele>863.4013672</ele>
        <time>2011-05-15T10:19:11Z</time>
      </trkpt>
      <trkpt lat="45.49716" lon="3.08509">
        <ele>862.9206543</ele>
        <time>2011-05-15T10:19:15Z</time>
      </trkpt>
      <trkpt lat="45.49714" lon="3.08548">
        <ele>860.0366211</ele>
        <time>2011-05-15T10:19:19Z</time>
      </trkpt>
      <trkpt lat="45.49713" lon="3.08557">
        <ele>860.0366211</ele>
        <time>2011-05-15T10:19:20Z</time>
      </trkpt>
      <trkpt lat="45.49711" lon="3.08589">
        <ele>860.517334</ele>
        <time>2011-05-15T10:19:24Z</time>
      </trkpt>
      <trkpt lat="45.49714" lon="3.08649">
        <ele>858.5944824</ele>
        <time>2011-05-15T10:19:31Z</time>
      </trkpt>
      <trkpt lat="45.49719" lon="3.08687">
        <ele>854.7492676</ele>
        <time>2011-05-15T10:19:35Z</time>
      </trkpt>
      <trkpt lat="45.49727" lon="3.08729">
        <ele>853.7880859</ele>
        <time>2011-05-15T10:19:39Z</time>
      </trkpt>
      <trkpt lat="45.49731" lon="3.0875">
        <ele>850.9040527</ele>
        <time>2011-05-15T10:19:41Z</time>
      </trkpt>
      <trkpt lat="45.49734" lon="3.08761">
        <ele>851.3847656</ele>
        <time>2011-05-15T10:19:42Z</time>
      </trkpt>
      <trkpt lat="45.49745" lon="3.08811">
        <ele>851.3847656</ele>
        <time>2011-05-15T10:19:47Z</time>
      </trkpt>
      <trkpt lat="45.4976" lon="3.08875">
        <ele>851.3847656</ele>
        <time>2011-05-15T10:19:54Z</time>
      </trkpt>
      <trkpt lat="45.49769" lon="3.08919">
        <ele>851.3847656</ele>
        <time>2011-05-15T10:19:59Z</time>
      </trkpt>
      <trkpt lat="45.49777" lon="3.08957">
        <ele>852.3459473</ele>
        <time>2011-05-15T10:20:04Z</time>
      </trkpt>
      <trkpt lat="45.4978" lon="3.08969">
        <ele>854.2687988</ele>
        <time>2011-05-15T10:20:06Z</time>
      </trkpt>
      <trkpt lat="45.49784" lon="3.08987">
        <ele>855.7106934</ele>
        <time>2011-05-15T10:20:09Z</time>
      </trkpt>
      <trkpt lat="45.49787" lon="3.09005">
        <ele>855.7106934</ele>
        <time>2011-05-15T10:20:12Z</time>
      </trkpt>
      <trkpt lat="45.49794" lon="3.09039">
        <ele>855.7106934</ele>
        <time>2011-05-15T10:20:18Z</time>
      </trkpt>
      <trkpt lat="45.49799" lon="3.09067">
        <ele>856.1911621</ele>
        <time>2011-05-15T10:20:23Z</time>
      </trkpt>
      <trkpt lat="45.49805" lon="3.09101">
        <ele>856.1911621</ele>
        <time>2011-05-15T10:20:29Z</time>
      </trkpt>
      <trkpt lat="45.49812" lon="3.09142">
        <ele>859.5559082</ele>
        <time>2011-05-15T10:20:37Z</time>
      </trkpt>
      <trkpt lat="45.49819" lon="3.09175">
        <ele>859.5559082</ele>
        <time>2011-05-15T10:20:44Z</time>
      </trkpt>
      <trkpt lat="45.49828" lon="3.09217">
        <ele>862.4399414</ele>
        <time>2011-05-15T10:20:53Z</time>
      </trkpt>
      <trkpt lat="45.49829" lon="3.09221">
        <ele>861.9594727</ele>
        <time>2011-05-15T10:20:54Z</time>
      </trkpt>
      <trkpt lat="45.49837" lon="3.09257">
        <ele>861.9594727</ele>
        <time>2011-05-15T10:21:02Z</time>
      </trkpt>
      <trkpt lat="45.49846" lon="3.09296">
        <ele>863.8818359</ele>
        <time>2011-05-15T10:21:11Z</time>
      </trkpt>
      <trkpt lat="45.49848" lon="3.09326">
        <ele>864.3625488</ele>
        <time>2011-05-15T10:21:18Z</time>
      </trkpt>
      <trkpt lat="45.49853" lon="3.09354">
        <ele>864.3625488</ele>
        <time>2011-05-15T10:21:24Z</time>
      </trkpt>
      <trkpt lat="45.49857" lon="3.09401">
        <ele>865.3239746</ele>
        <time>2011-05-15T10:21:34Z</time>
      </trkpt>
      <trkpt lat="45.49859" lon="3.09425">
        <ele>867.246582</ele>
        <time>2011-05-15T10:21:40Z</time>
      </trkpt>
      <trkpt lat="45.49861" lon="3.09439">
        <ele>868.6884766</ele>
        <time>2011-05-15T10:21:45Z</time>
      </trkpt>
      <trkpt lat="45.49863" lon="3.09457">
        <ele>869.6499023</ele>
        <time>2011-05-15T10:21:53Z</time>
      </trkpt>
      <trkpt lat="45.49864" lon="3.09474">
        <ele>872.0529785</ele>
        <time>2011-05-15T10:22:01Z</time>
      </trkpt>
      <trkpt lat="45.49864" lon="3.0949">
        <ele>873.4951172</ele>
        <time>2011-05-15T10:22:08Z</time>
      </trkpt>
      <trkpt lat="45.49869" lon="3.09509">
        <ele>875.4174805</ele>
        <time>2011-05-15T10:22:16Z</time>
      </trkpt>
      <trkpt lat="45.49873" lon="3.09524">
        <ele>877.3405762</ele>
        <time>2011-05-15T10:22:23Z</time>
      </trkpt>
      <trkpt lat="45.49879" lon="3.09539">
        <ele>877.8210449</ele>
        <time>2011-05-15T10:22:30Z</time>
      </trkpt>
      <trkpt lat="45.49885" lon="3.09559">
        <ele>879.7436523</ele>
        <time>2011-05-15T10:22:38Z</time>
      </trkpt>
      <trkpt lat="45.49892" lon="3.09588">
        <ele>880.7050781</ele>
        <time>2011-05-15T10:22:49Z</time>
      </trkpt>
      <trkpt lat="45.49899" lon="3.09612">
        <ele>882.6276855</ele>
        <time>2011-05-15T10:22:58Z</time>
      </trkpt>
      <trkpt lat="45.49906" lon="3.09639">
        <ele>884.0695801</ele>
        <time>2011-05-15T10:23:08Z</time>
      </trkpt>
      <trkpt lat="45.49907" lon="3.09641">
        <ele>884.550293</ele>
        <time>2011-05-15T10:23:09Z</time>
      </trkpt>
      <trkpt lat="45.49914" lon="3.09662">
        <ele>885.9921875</ele>
        <time>2011-05-15T10:23:17Z</time>
      </trkpt>
      <trkpt lat="45.49919" lon="3.0968">
        <ele>887.434082</ele>
        <time>2011-05-15T10:23:24Z</time>
      </trkpt>
      <trkpt lat="45.49927" lon="3.09702">
        <ele>888.8762207</ele>
        <time>2011-05-15T10:23:33Z</time>
      </trkpt>
      <trkpt lat="45.49935" lon="3.09722">
        <ele>890.798584</ele>
        <time>2011-05-15T10:23:41Z</time>
      </trkpt>
      <trkpt lat="45.49945" lon="3.09744">
        <ele>893.2021484</ele>
        <time>2011-05-15T10:23:50Z</time>
      </trkpt>
      <trkpt lat="45.49954" lon="3.09767">
        <ele>894.644043</ele>
        <time>2011-05-15T10:23:59Z</time>
      </trkpt>
      <trkpt lat="45.49955" lon="3.09784">
        <ele>896.0861816</ele>
        <time>2011-05-15T10:24:05Z</time>
      </trkpt>
      <trkpt lat="45.49951" lon="3.09802">
        <ele>896.0861816</ele>
        <time>2011-05-15T10:24:11Z</time>
      </trkpt>
      <trkpt lat="45.4995" lon="3.0983">
        <ele>896.0861816</ele>
        <time>2011-05-15T10:24:18Z</time>
      </trkpt>
      <trkpt lat="45.49953" lon="3.09862">
        <ele>895.1247559</ele>
        <time>2011-05-15T10:24:24Z</time>
      </trkpt>
      <trkpt lat="45.49953" lon="3.09888">
        <ele>895.1247559</ele>
        <time>2011-05-15T10:24:29Z</time>
      </trkpt>
      <trkpt lat="45.49965" lon="3.09916">
        <ele>893.6828613</ele>
        <time>2011-05-15T10:24:34Z</time>
      </trkpt>
      <trkpt lat="45.49968" lon="3.09922">
        <ele>894.1635742</ele>
        <time>2011-05-15T10:24:35Z</time>
      </trkpt>
      <trkpt lat="45.49982" lon="3.09954">
        <ele>893.2021484</ele>
        <time>2011-05-15T10:24:40Z</time>
      </trkpt>
      <trkpt lat="45.49986" lon="3.09969">
        <ele>893.2021484</ele>
        <time>2011-05-15T10:24:42Z</time>
      </trkpt>
      <trkpt lat="45.49988" lon="3.09976">
        <ele>892.7216797</ele>
        <time>2011-05-15T10:24:43Z</time>
      </trkpt>
      <trkpt lat="45.49994" lon="3.09998">
        <ele>892.2409668</ele>
        <time>2011-05-15T10:24:46Z</time>
      </trkpt>
      <trkpt lat="45.50012" lon="3.10036">
        <ele>890.798584</ele>
        <time>2011-05-15T10:24:52Z</time>
      </trkpt>
      <trkpt lat="45.50033" lon="3.10087">
        <ele>888.8762207</ele>
        <time>2011-05-15T10:24:59Z</time>
      </trkpt>
      <trkpt lat="45.50039" lon="3.10102">
        <ele>888.3955078</ele>
        <time>2011-05-15T10:25:01Z</time>
      </trkpt>
      <trkpt lat="45.50042" lon="3.1011">
        <ele>887.9147949</ele>
        <time>2011-05-15T10:25:02Z</time>
      </trkpt>
      <trkpt lat="45.50065" lon="3.10153">
        <ele>885.9921875</ele>
        <time>2011-05-15T10:25:08Z</time>
      </trkpt>
      <trkpt lat="45.50095" lon="3.1019">
        <ele>884.0695801</ele>
        <time>2011-05-15T10:25:14Z</time>
      </trkpt>
      <trkpt lat="45.50131" lon="3.10233">
        <ele>882.1469727</ele>
        <time>2011-05-15T10:25:21Z</time>
      </trkpt>
      <trkpt lat="45.50165" lon="3.10265">
        <ele>879.2629395</ele>
        <time>2011-05-15T10:25:27Z</time>
      </trkpt>
      <trkpt lat="45.5017" lon="3.1027">
        <ele>879.7436523</ele>
        <time>2011-05-15T10:25:28Z</time>
      </trkpt>
      <trkpt lat="45.50205" lon="3.10316">
        <ele>877.3405762</ele>
        <time>2011-05-15T10:25:35Z</time>
      </trkpt>
      <trkpt lat="45.50213" lon="3.10332">
        <ele>876.3791504</ele>
        <time>2011-05-15T10:25:37Z</time>
      </trkpt>
      <trkpt lat="45.50237" lon="3.1039">
        <ele>874.4562988</ele>
        <time>2011-05-15T10:25:44Z</time>
      </trkpt>
      <trkpt lat="45.50249" lon="3.10425">
        <ele>873.4951172</ele>
        <time>2011-05-15T10:25:48Z</time>
      </trkpt>
      <trkpt lat="45.50271" lon="3.10486">
        <ele>871.0917969</ele>
        <time>2011-05-15T10:25:55Z</time>
      </trkpt>
      <trkpt lat="45.50279" lon="3.10502">
        <ele>869.6499023</ele>
        <time>2011-05-15T10:25:57Z</time>
      </trkpt>
      <trkpt lat="45.50294" lon="3.10535">
        <ele>869.1691895</ele>
        <time>2011-05-15T10:26:01Z</time>
      </trkpt>
      <trkpt lat="45.503" lon="3.10553">
        <ele>868.6884766</ele>
        <time>2011-05-15T10:26:03Z</time>
      </trkpt>
      <trkpt lat="45.50307" lon="3.1058">
        <ele>867.7270508</ele>
        <time>2011-05-15T10:26:06Z</time>
      </trkpt>
      <trkpt lat="45.5031" lon="3.10589">
        <ele>869.1691895</ele>
        <time>2011-05-15T10:26:07Z</time>
      </trkpt>
      <trkpt lat="45.50317" lon="3.10625">
        <ele>866.2851563</ele>
        <time>2011-05-15T10:26:11Z</time>
      </trkpt>
      <trkpt lat="45.50325" lon="3.10645">
        <ele>863.8818359</ele>
        <time>2011-05-15T10:26:14Z</time>
      </trkpt>
      <trkpt lat="45.50339" lon="3.10667">
        <ele>865.3239746</ele>
        <time>2011-05-15T10:26:18Z</time>
      </trkpt>
      <trkpt lat="45.50353" lon="3.10692">
        <ele>865.8046875</ele>
        <time>2011-05-15T10:26:22Z</time>
      </trkpt>
      <trkpt lat="45.50356" lon="3.10699">
        <ele>863.8818359</ele>
        <time>2011-05-15T10:26:23Z</time>
      </trkpt>
      <trkpt lat="45.50384" lon="3.10747">
        <ele>866.2851563</ele>
        <time>2011-05-15T10:26:31Z</time>
      </trkpt>
      <trkpt lat="45.50399" lon="3.10774">
        <ele>864.3625488</ele>
        <time>2011-05-15T10:26:35Z</time>
      </trkpt>
      <trkpt lat="45.50418" lon="3.10809">
        <ele>864.3625488</ele>
        <time>2011-05-15T10:26:40Z</time>
      </trkpt>
      <trkpt lat="45.50426" lon="3.10823">
        <ele>862.4399414</ele>
        <time>2011-05-15T10:26:42Z</time>
      </trkpt>
      <trkpt lat="45.50451" lon="3.10876">
        <ele>861.4787598</ele>
        <time>2011-05-15T10:26:49Z</time>
      </trkpt>
      <trkpt lat="45.50463" lon="3.10897">
        <ele>862.4399414</ele>
        <time>2011-05-15T10:26:52Z</time>
      </trkpt>
      <trkpt lat="45.50491" lon="3.10949">
        <ele>863.4013672</ele>
        <time>2011-05-15T10:26:59Z</time>
      </trkpt>
      <trkpt lat="45.5052" lon="3.11">
        <ele>860.517334</ele>
        <time>2011-05-15T10:27:06Z</time>
      </trkpt>
      <trkpt lat="45.50556" lon="3.11062">
        <ele>858.5944824</ele>
        <time>2011-05-15T10:27:15Z</time>
      </trkpt>
      <trkpt lat="45.50582" lon="3.11107">
        <ele>857.6333008</ele>
        <time>2011-05-15T10:27:21Z</time>
      </trkpt>
      <trkpt lat="45.50586" lon="3.11114">
        <ele>855.2299805</ele>
        <time>2011-05-15T10:27:22Z</time>
      </trkpt>
      <trkpt lat="45.50591" lon="3.11121">
        <ele>856.1911621</ele>
        <time>2011-05-15T10:27:23Z</time>
      </trkpt>
      <trkpt lat="45.50605" lon="3.11142">
        <ele>853.7880859</ele>
        <time>2011-05-15T10:27:26Z</time>
      </trkpt>
      <trkpt lat="45.50631" lon="3.11175">
        <ele>851.8654785</ele>
        <time>2011-05-15T10:27:31Z</time>
      </trkpt>
      <trkpt lat="45.50649" lon="3.11192">
        <ele>849.4621582</ele>
        <time>2011-05-15T10:27:34Z</time>
      </trkpt>
      <trkpt lat="45.50669" lon="3.11207">
        <ele>848.0202637</ele>
        <time>2011-05-15T10:27:37Z</time>
      </trkpt>
      <trkpt lat="45.50709" lon="3.11237">
        <ele>845.6169434</ele>
        <time>2011-05-15T10:27:43Z</time>
      </trkpt>
      <trkpt lat="45.50737" lon="3.11261">
        <ele>843.2133789</ele>
        <time>2011-05-15T10:27:47Z</time>
      </trkpt>
      <trkpt lat="45.50751" lon="3.11273">
        <ele>842.2521973</ele>
        <time>2011-05-15T10:27:49Z</time>
      </trkpt>
      <trkpt lat="45.50764" lon="3.11285">
        <ele>840.3295898</ele>
        <time>2011-05-15T10:27:51Z</time>
      </trkpt>
      <trkpt lat="45.50771" lon="3.11291">
        <ele>839.848877</ele>
        <time>2011-05-15T10:27:52Z</time>
      </trkpt>
      <trkpt lat="45.50808" lon="3.1133">
        <ele>839.3681641</ele>
        <time>2011-05-15T10:27:58Z</time>
      </trkpt>
      <trkpt lat="45.50844" lon="3.11381">
        <ele>837.9262695</ele>
        <time>2011-05-15T10:28:05Z</time>
      </trkpt>
      <trkpt lat="45.50867" lon="3.11424">
        <ele>835.5229492</ele>
        <time>2011-05-15T10:28:11Z</time>
      </trkpt>
      <trkpt lat="45.50871" lon="3.11431">
        <ele>836.0036621</ele>
        <time>2011-05-15T10:28:12Z</time>
      </trkpt>
      <trkpt lat="45.50889" lon="3.11462">
        <ele>835.0424805</ele>
        <time>2011-05-15T10:28:16Z</time>
      </trkpt>
      <trkpt lat="45.50915" lon="3.11495">
        <ele>832.6391602</ele>
        <time>2011-05-15T10:28:21Z</time>
      </trkpt>
      <trkpt lat="45.5094" lon="3.11527">
        <ele>830.7165527</ele>
        <time>2011-05-15T10:28:26Z</time>
      </trkpt>
      <trkpt lat="45.50945" lon="3.11533">
        <ele>830.2358398</ele>
        <time>2011-05-15T10:28:27Z</time>
      </trkpt>
      <trkpt lat="45.50955" lon="3.11547">
        <ele>828.7939453</ele>
        <time>2011-05-15T10:28:29Z</time>
      </trkpt>
      <trkpt lat="45.50976" lon="3.11576">
        <ele>827.3518066</ele>
        <time>2011-05-15T10:28:34Z</time>
      </trkpt>
      <trkpt lat="45.50993" lon="3.11595">
        <ele>824.9484863</ele>
        <time>2011-05-15T10:28:38Z</time>
      </trkpt>
      <trkpt lat="45.50994" lon="3.1162">
        <ele>823.5065918</ele>
        <time>2011-05-15T10:28:42Z</time>
      </trkpt>
      <trkpt lat="45.5099" lon="3.11641">
        <ele>822.545166</ele>
        <time>2011-05-15T10:28:45Z</time>
      </trkpt>
      <trkpt lat="45.5098" lon="3.11658">
        <ele>822.0644531</ele>
        <time>2011-05-15T10:28:49Z</time>
      </trkpt>
      <trkpt lat="45.50974" lon="3.11655">
        <ele>822.545166</ele>
        <time>2011-05-15T10:28:51Z</time>
      </trkpt>
      <trkpt lat="45.50953" lon="3.11638">
        <ele>823.0258789</ele>
        <time>2011-05-15T10:28:58Z</time>
      </trkpt>
      <trkpt lat="45.50938" lon="3.1164">
        <ele>823.9870605</ele>
        <time>2011-05-15T10:29:03Z</time>
      </trkpt>
      <trkpt lat="45.50927" lon="3.11652">
        <ele>824.9484863</ele>
        <time>2011-05-15T10:29:08Z</time>
      </trkpt>
      <trkpt lat="45.50916" lon="3.11666">
        <ele>826.3903809</ele>
        <time>2011-05-15T10:29:14Z</time>
      </trkpt>
      <trkpt lat="45.50905" lon="3.11677">
        <ele>827.3518066</ele>
        <time>2011-05-15T10:29:19Z</time>
      </trkpt>
      <trkpt lat="45.50895" lon="3.11688">
        <ele>829.2744141</ele>
        <time>2011-05-15T10:29:24Z</time>
      </trkpt>
      <trkpt lat="45.50889" lon="3.11695">
        <ele>830.2358398</ele>
        <time>2011-05-15T10:29:27Z</time>
      </trkpt>
      <trkpt lat="45.50871" lon="3.11715">
        <ele>832.1584473</ele>
        <time>2011-05-15T10:29:36Z</time>
      </trkpt>
      <trkpt lat="45.50851" lon="3.11739">
        <ele>833.6003418</ele>
        <time>2011-05-15T10:29:46Z</time>
      </trkpt>
      <trkpt lat="45.50839" lon="3.11754">
        <ele>834.0810547</ele>
        <time>2011-05-15T10:29:52Z</time>
      </trkpt>
      <trkpt lat="45.50824" lon="3.11772">
        <ele>834.0810547</ele>
        <time>2011-05-15T10:29:59Z</time>
      </trkpt>
      <trkpt lat="45.50808" lon="3.1179">
        <ele>834.5617676</ele>
        <time>2011-05-15T10:30:06Z</time>
      </trkpt>
      <trkpt lat="45.50796" lon="3.11787">
        <ele>835.0424805</ele>
        <time>2011-05-15T10:30:11Z</time>
      </trkpt>
      <trkpt lat="45.50781" lon="3.11768">
        <ele>836.484375</ele>
        <time>2011-05-15T10:30:20Z</time>
      </trkpt>
      <trkpt lat="45.50766" lon="3.11752">
        <ele>838.4069824</ele>
        <time>2011-05-15T10:30:28Z</time>
      </trkpt>
      <trkpt lat="45.50746" lon="3.1173">
        <ele>839.3681641</ele>
        <time>2011-05-15T10:30:38Z</time>
      </trkpt>
      <trkpt lat="45.50734" lon="3.11708">
        <ele>839.848877</ele>
        <time>2011-05-15T10:30:45Z</time>
      </trkpt>
      <trkpt lat="45.50717" lon="3.1169">
        <ele>841.2907715</ele>
        <time>2011-05-15T10:30:52Z</time>
      </trkpt>
      <trkpt lat="45.50694" lon="3.11671">
        <ele>841.7714844</ele>
        <time>2011-05-15T10:31:01Z</time>
      </trkpt>
      <trkpt lat="45.50673" lon="3.11662">
        <ele>841.7714844</ele>
        <time>2011-05-15T10:31:08Z</time>
      </trkpt>
      <trkpt lat="45.50646" lon="3.11645">
        <ele>842.2521973</ele>
        <time>2011-05-15T10:31:16Z</time>
      </trkpt>
      <trkpt lat="45.50613" lon="3.11632">
        <ele>842.7329102</ele>
        <time>2011-05-15T10:31:25Z</time>
      </trkpt>
      <trkpt lat="45.50596" lon="3.11626">
        <ele>843.2133789</ele>
        <time>2011-05-15T10:31:30Z</time>
      </trkpt>
      <trkpt lat="45.50566" lon="3.11618">
        <ele>842.7329102</ele>
        <time>2011-05-15T10:31:38Z</time>
      </trkpt>
      <trkpt lat="45.50543" lon="3.11614">
        <ele>844.6555176</ele>
        <time>2011-05-15T10:31:44Z</time>
      </trkpt>
      <trkpt lat="45.50505" lon="3.11605">
        <ele>845.6169434</ele>
        <time>2011-05-15T10:31:55Z</time>
      </trkpt>
      <trkpt lat="45.50474" lon="3.11594">
        <ele>847.0588379</ele>
        <time>2011-05-15T10:32:04Z</time>
      </trkpt>
      <trkpt lat="45.5045" lon="3.11585">
        <ele>847.5395508</ele>
        <time>2011-05-15T10:32:11Z</time>
      </trkpt>
      <trkpt lat="45.50431" lon="3.11578">
        <ele>848.5007324</ele>
        <time>2011-05-15T10:32:16Z</time>
      </trkpt>
      <trkpt lat="45.5041" lon="3.11573">
        <ele>849.9428711</ele>
        <time>2011-05-15T10:32:21Z</time>
      </trkpt>
      <trkpt lat="45.5037" lon="3.11565">
        <ele>850.9040527</ele>
        <time>2011-05-15T10:32:31Z</time>
      </trkpt>
      <trkpt lat="45.50337" lon="3.11563">
        <ele>851.3847656</ele>
        <time>2011-05-15T10:32:39Z</time>
      </trkpt>
      <trkpt lat="45.50298" lon="3.11561">
        <ele>852.8266602</ele>
        <time>2011-05-15T10:32:48Z</time>
      </trkpt>
      <trkpt lat="45.50271" lon="3.11561">
        <ele>853.7880859</ele>
        <time>2011-05-15T10:32:55Z</time>
      </trkpt>
      <trkpt lat="45.50245" lon="3.11554">
        <ele>853.7880859</ele>
        <time>2011-05-15T10:33:02Z</time>
      </trkpt>
      <trkpt lat="45.50213" lon="3.1154">
        <ele>853.7880859</ele>
        <time>2011-05-15T10:33:11Z</time>
      </trkpt>
      <trkpt lat="45.5019" lon="3.11524">
        <ele>855.2299805</ele>
        <time>2011-05-15T10:33:18Z</time>
      </trkpt>
      <trkpt lat="45.50168" lon="3.11511">
        <ele>855.7106934</ele>
        <time>2011-05-15T10:33:25Z</time>
      </trkpt>
      <trkpt lat="45.50147" lon="3.1151">
        <ele>856.1911621</ele>
        <time>2011-05-15T10:33:31Z</time>
      </trkpt>
      <trkpt lat="45.50124" lon="3.1152">
        <ele>856.671875</ele>
        <time>2011-05-15T10:33:37Z</time>
      </trkpt>
      <trkpt lat="45.50101" lon="3.11532">
        <ele>856.671875</ele>
        <time>2011-05-15T10:33:43Z</time>
      </trkpt>
      <trkpt lat="45.50075" lon="3.1154">
        <ele>855.7106934</ele>
        <time>2011-05-15T10:33:49Z</time>
      </trkpt>
      <trkpt lat="45.50038" lon="3.11545">
        <ele>855.7106934</ele>
        <time>2011-05-15T10:33:57Z</time>
      </trkpt>
      <trkpt lat="45.50008" lon="3.1155">
        <ele>855.2299805</ele>
        <time>2011-05-15T10:34:03Z</time>
      </trkpt>
      <trkpt lat="45.49974" lon="3.11554">
        <ele>854.7492676</ele>
        <time>2011-05-15T10:34:10Z</time>
      </trkpt>
      <trkpt lat="45.49929" lon="3.11557">
        <ele>853.7880859</ele>
        <time>2011-05-15T10:34:20Z</time>
      </trkpt>
      <trkpt lat="45.49925" lon="3.1156">
        <ele>853.307373</ele>
        <time>2011-05-15T10:34:21Z</time>
      </trkpt>
      <trkpt lat="45.49925" lon="3.11582">
        <ele>852.3459473</ele>
        <time>2011-05-15T10:34:25Z</time>
      </trkpt>
      <trkpt lat="45.4993" lon="3.11599">
        <ele>851.3847656</ele>
        <time>2011-05-15T10:34:28Z</time>
      </trkpt>
      <trkpt lat="45.49932" lon="3.1161">
        <ele>849.9428711</ele>
        <time>2011-05-15T10:34:30Z</time>
      </trkpt>
      <trkpt lat="45.49933" lon="3.11616">
        <ele>848.9814453</ele>
        <time>2011-05-15T10:34:31Z</time>
      </trkpt>
      <trkpt lat="45.49934" lon="3.11621">
        <ele>848.5007324</ele>
        <time>2011-05-15T10:34:32Z</time>
      </trkpt>
      <trkpt lat="45.49924" lon="3.11633">
        <ele>844.1750488</ele>
        <time>2011-05-15T10:34:36Z</time>
      </trkpt>
      <trkpt lat="45.49916" lon="3.11633">
        <ele>841.2907715</ele>
        <time>2011-05-15T10:34:38Z</time>
      </trkpt>
      <trkpt lat="45.49901" lon="3.11634">
        <ele>838.8876953</ele>
        <time>2011-05-15T10:34:42Z</time>
      </trkpt>
      <trkpt lat="45.4989" lon="3.11639">
        <ele>835.0424805</ele>
        <time>2011-05-15T10:34:45Z</time>
      </trkpt>
      <trkpt lat="45.49884" lon="3.11647">
        <ele>833.6003418</ele>
        <time>2011-05-15T10:34:47Z</time>
      </trkpt>
      <trkpt lat="45.49883" lon="3.11653">
        <ele>832.6391602</ele>
        <time>2011-05-15T10:34:48Z</time>
      </trkpt>
      <trkpt lat="45.49879" lon="3.11665">
        <ele>830.7165527</ele>
        <time>2011-05-15T10:34:50Z</time>
      </trkpt>
      <trkpt lat="45.49876" lon="3.11677">
        <ele>829.755127</ele>
        <time>2011-05-15T10:34:52Z</time>
      </trkpt>
      <trkpt lat="45.49874" lon="3.11694">
        <ele>826.3903809</ele>
        <time>2011-05-15T10:34:56Z</time>
      </trkpt>
      <trkpt lat="45.49874" lon="3.11697">
        <ele>826.3903809</ele>
        <time>2011-05-15T10:34:57Z</time>
      </trkpt>
      <trkpt lat="45.49874" lon="3.11699">
        <ele>825.4289551</ele>
        <time>2011-05-15T10:34:58Z</time>
      </trkpt>
      <trkpt lat="45.49875" lon="3.11718">
        <ele>822.0644531</ele>
        <time>2011-05-15T10:35:04Z</time>
      </trkpt>
      <trkpt lat="45.49876" lon="3.1173">
        <ele>819.661377</ele>
        <time>2011-05-15T10:35:07Z</time>
      </trkpt>
      <trkpt lat="45.49875" lon="3.11738">
        <ele>818.2192383</ele>
        <time>2011-05-15T10:35:09Z</time>
      </trkpt>
      <trkpt lat="45.4987" lon="3.11752">
        <ele>815.8161621</ele>
        <time>2011-05-15T10:35:13Z</time>
      </trkpt>
      <trkpt lat="45.49865" lon="3.11761">
        <ele>812.451416</ele>
        <time>2011-05-15T10:35:16Z</time>
      </trkpt>
      <trkpt lat="45.49864" lon="3.11764">
        <ele>812.451416</ele>
        <time>2011-05-15T10:35:17Z</time>
      </trkpt>
      <trkpt lat="45.49862" lon="3.11766">
        <ele>811.9707031</ele>
        <time>2011-05-15T10:35:21Z</time>
      </trkpt>
      <trkpt lat="45.49859" lon="3.11772">
        <ele>809.5673828</ele>
        <time>2011-05-15T10:35:26Z</time>
      </trkpt>
      <trkpt lat="45.49849" lon="3.11784">
        <ele>806.2026367</ele>
        <time>2011-05-15T10:35:31Z</time>
      </trkpt>
      <trkpt lat="45.49841" lon="3.11793">
        <ele>804.2802734</ele>
        <time>2011-05-15T10:35:34Z</time>
      </trkpt>
      <trkpt lat="45.49844" lon="3.11805">
        <ele>802.8381348</ele>
        <time>2011-05-15T10:35:39Z</time>
      </trkpt>
      <trkpt lat="45.49853" lon="3.118">
        <ele>802.8381348</ele>
        <time>2011-05-15T10:35:43Z</time>
      </trkpt>
      <trkpt lat="45.49856" lon="3.11799">
        <ele>802.8381348</ele>
        <time>2011-05-15T10:35:44Z</time>
      </trkpt>
      <trkpt lat="45.49882" lon="3.1179">
        <ele>802.3574219</ele>
        <time>2011-05-15T10:35:50Z</time>
      </trkpt>
      <trkpt lat="45.49905" lon="3.11783">
        <ele>802.8381348</ele>
        <time>2011-05-15T10:35:56Z</time>
      </trkpt>
      <trkpt lat="45.49909" lon="3.11782">
        <ele>802.3574219</ele>
        <time>2011-05-15T10:35:57Z</time>
      </trkpt>
      <trkpt lat="45.49952" lon="3.11787">
        <ele>801.8769531</ele>
        <time>2011-05-15T10:36:06Z</time>
      </trkpt>
      <trkpt lat="45.49974" lon="3.11795">
        <ele>800.9155273</ele>
        <time>2011-05-15T10:36:11Z</time>
      </trkpt>
      <trkpt lat="45.50003" lon="3.11818">
        <ele>798.9929199</ele>
        <time>2011-05-15T10:36:17Z</time>
      </trkpt>
      <trkpt lat="45.5002" lon="3.11831">
        <ele>796.1091309</ele>
        <time>2011-05-15T10:36:20Z</time>
      </trkpt>
      <trkpt lat="45.50059" lon="3.11857">
        <ele>795.1474609</ele>
        <time>2011-05-15T10:36:27Z</time>
      </trkpt>
      <trkpt lat="45.50095" lon="3.11882">
        <ele>792.2636719</ele>
        <time>2011-05-15T10:36:34Z</time>
      </trkpt>
      <trkpt lat="45.50101" lon="3.11886">
        <ele>792.2636719</ele>
        <time>2011-05-15T10:36:35Z</time>
      </trkpt>
      <trkpt lat="45.50142" lon="3.11919">
        <ele>788.8991699</ele>
        <time>2011-05-15T10:36:42Z</time>
      </trkpt>
      <trkpt lat="45.50153" lon="3.11926">
        <ele>788.418457</ele>
        <time>2011-05-15T10:36:44Z</time>
      </trkpt>
      <trkpt lat="45.50179" lon="3.11942">
        <ele>788.8991699</ele>
        <time>2011-05-15T10:36:49Z</time>
      </trkpt>
      <trkpt lat="45.50204" lon="3.11959">
        <ele>786.9763184</ele>
        <time>2011-05-15T10:36:54Z</time>
      </trkpt>
      <trkpt lat="45.50213" lon="3.11965">
        <ele>786.4958496</ele>
        <time>2011-05-15T10:36:56Z</time>
      </trkpt>
      <trkpt lat="45.50247" lon="3.11987">
        <ele>784.0925293</ele>
        <time>2011-05-15T10:37:02Z</time>
      </trkpt>
      <trkpt lat="45.50279" lon="3.12008">
        <ele>783.1311035</ele>
        <time>2011-05-15T10:37:08Z</time>
      </trkpt>
      <trkpt lat="45.50317" lon="3.12033">
        <ele>779.7663574</ele>
        <time>2011-05-15T10:37:15Z</time>
      </trkpt>
      <trkpt lat="45.50355" lon="3.12057">
        <ele>778.8051758</ele>
        <time>2011-05-15T10:37:22Z</time>
      </trkpt>
      <trkpt lat="45.50378" lon="3.12065">
        <ele>776.4018555</ele>
        <time>2011-05-15T10:37:26Z</time>
      </trkpt>
      <trkpt lat="45.50394" lon="3.12071">
        <ele>776.8825684</ele>
        <time>2011-05-15T10:37:29Z</time>
      </trkpt>
      <trkpt lat="45.50412" lon="3.1208">
        <ele>775.9211426</ele>
        <time>2011-05-15T10:37:33Z</time>
      </trkpt>
      <trkpt lat="45.50421" lon="3.12082">
        <ele>776.8825684</ele>
        <time>2011-05-15T10:37:35Z</time>
      </trkpt>
      <trkpt lat="45.5044" lon="3.12089">
        <ele>774.9599609</ele>
        <time>2011-05-15T10:37:39Z</time>
      </trkpt>
      <trkpt lat="45.50461" lon="3.12096">
        <ele>773.5180664</ele>
        <time>2011-05-15T10:37:43Z</time>
      </trkpt>
      <trkpt lat="45.50496" lon="3.1212">
        <ele>770.6340332</ele>
        <time>2011-05-15T10:37:49Z</time>
      </trkpt>
      <trkpt lat="45.5052" lon="3.12125">
        <ele>771.1147461</ele>
        <time>2011-05-15T10:37:53Z</time>
      </trkpt>
      <trkpt lat="45.50563" lon="3.12122">
        <ele>770.6340332</ele>
        <time>2011-05-15T10:38:01Z</time>
      </trkpt>
      <trkpt lat="45.50595" lon="3.12124">
        <ele>772.5566406</ele>
        <time>2011-05-15T10:38:08Z</time>
      </trkpt>
      <trkpt lat="45.50604" lon="3.12125">
        <ele>772.5566406</ele>
        <time>2011-05-15T10:38:10Z</time>
      </trkpt>
      <trkpt lat="45.50628" lon="3.12133">
        <ele>773.9985352</ele>
        <time>2011-05-15T10:38:16Z</time>
      </trkpt>
      <trkpt lat="45.50641" lon="3.12147">
        <ele>772.0759277</ele>
        <time>2011-05-15T10:38:20Z</time>
      </trkpt>
      <trkpt lat="45.50644" lon="3.12153">
        <ele>770.6340332</ele>
        <time>2011-05-15T10:38:21Z</time>
      </trkpt>
      <trkpt lat="45.5066" lon="3.12177">
        <ele>770.1533203</ele>
        <time>2011-05-15T10:38:25Z</time>
      </trkpt>
      <trkpt lat="45.50669" lon="3.12196">
        <ele>768.7114258</ele>
        <time>2011-05-15T10:38:28Z</time>
      </trkpt>
      <trkpt lat="45.50678" lon="3.12215">
        <ele>768.2307129</ele>
        <time>2011-05-15T10:38:31Z</time>
      </trkpt>
      <trkpt lat="45.50685" lon="3.12234">
        <ele>766.3081055</ele>
        <time>2011-05-15T10:38:34Z</time>
      </trkpt>
      <trkpt lat="45.50703" lon="3.12267">
        <ele>762.9433594</ele>
        <time>2011-05-15T10:38:39Z</time>
      </trkpt>
      <trkpt lat="45.50717" lon="3.12296">
        <ele>759.5788574</ele>
        <time>2011-05-15T10:38:43Z</time>
      </trkpt>
      <trkpt lat="45.50724" lon="3.1231">
        <ele>757.1755371</ele>
        <time>2011-05-15T10:38:45Z</time>
      </trkpt>
      <trkpt lat="45.50743" lon="3.12333">
        <ele>752.8496094</ele>
        <time>2011-05-15T10:38:49Z</time>
      </trkpt>
      <trkpt lat="45.50749" lon="3.12339">
        <ele>751.8884277</ele>
        <time>2011-05-15T10:38:50Z</time>
      </trkpt>
      <trkpt lat="45.50754" lon="3.12344">
        <ele>751.8884277</ele>
        <time>2011-05-15T10:38:51Z</time>
      </trkpt>
      <trkpt lat="45.50776" lon="3.12368">
        <ele>747.081543</ele>
        <time>2011-05-15T10:38:55Z</time>
      </trkpt>
      <trkpt lat="45.50789" lon="3.1238">
        <ele>744.1977539</ele>
        <time>2011-05-15T10:38:57Z</time>
      </trkpt>
      <trkpt lat="45.50804" lon="3.12391">
        <ele>743.717041</ele>
        <time>2011-05-15T10:38:59Z</time>
      </trkpt>
      <trkpt lat="45.50833" lon="3.1241">
        <ele>740.8330078</ele>
        <time>2011-05-15T10:39:03Z</time>
      </trkpt>
      <trkpt lat="45.50867" lon="3.12446">
        <ele>741.7944336</ele>
        <time>2011-05-15T10:39:09Z</time>
      </trkpt>
      <trkpt lat="45.5091" lon="3.12496">
        <ele>738.4299316</ele>
        <time>2011-05-15T10:39:17Z</time>
      </trkpt>
      <trkpt lat="45.50916" lon="3.12502">
        <ele>737.9492188</ele>
        <time>2011-05-15T10:39:18Z</time>
      </trkpt>
      <trkpt lat="45.50939" lon="3.12528">
        <ele>734.5847168</ele>
        <time>2011-05-15T10:39:22Z</time>
      </trkpt>
      <trkpt lat="45.50944" lon="3.12535">
        <ele>734.5847168</ele>
        <time>2011-05-15T10:39:23Z</time>
      </trkpt>
      <trkpt lat="45.5095" lon="3.12541">
        <ele>733.623291</ele>
        <time>2011-05-15T10:39:24Z</time>
      </trkpt>
      <trkpt lat="45.50981" lon="3.12563">
        <ele>732.6621094</ele>
        <time>2011-05-15T10:39:29Z</time>
      </trkpt>
      <trkpt lat="45.50999" lon="3.12571">
        <ele>734.1040039</ele>
        <time>2011-05-15T10:39:32Z</time>
      </trkpt>
      <trkpt lat="45.51035" lon="3.12583">
        <ele>732.1813965</ele>
        <time>2011-05-15T10:39:38Z</time>
      </trkpt>
      <trkpt lat="45.51072" lon="3.12594">
        <ele>731.7004395</ele>
        <time>2011-05-15T10:39:44Z</time>
      </trkpt>
      <trkpt lat="45.5112" lon="3.12606">
        <ele>731.2199707</ele>
        <time>2011-05-15T10:39:52Z</time>
      </trkpt>
      <trkpt lat="45.51154" lon="3.12612">
        <ele>732.1813965</ele>
        <time>2011-05-15T10:39:58Z</time>
      </trkpt>
      <trkpt lat="45.51186" lon="3.12621">
        <ele>732.6621094</ele>
        <time>2011-05-15T10:40:04Z</time>
      </trkpt>
      <trkpt lat="45.51222" lon="3.12626">
        <ele>733.1425781</ele>
        <time>2011-05-15T10:40:11Z</time>
      </trkpt>
      <trkpt lat="45.51262" lon="3.12632">
        <ele>733.623291</ele>
        <time>2011-05-15T10:40:19Z</time>
      </trkpt>
      <trkpt lat="45.51306" lon="3.12644">
        <ele>734.1040039</ele>
        <time>2011-05-15T10:40:28Z</time>
      </trkpt>
      <trkpt lat="45.5132" lon="3.12647">
        <ele>735.0654297</ele>
        <time>2011-05-15T10:40:31Z</time>
      </trkpt>
      <trkpt lat="45.51329" lon="3.12646">
        <ele>736.0266113</ele>
        <time>2011-05-15T10:40:33Z</time>
      </trkpt>
      <trkpt lat="45.51338" lon="3.12647">
        <ele>735.5458984</ele>
        <time>2011-05-15T10:40:35Z</time>
      </trkpt>
      <trkpt lat="45.51359" lon="3.12643">
        <ele>737.9492188</ele>
        <time>2011-05-15T10:40:40Z</time>
      </trkpt>
      <trkpt lat="45.51371" lon="3.12647">
        <ele>737.4685059</ele>
        <time>2011-05-15T10:40:43Z</time>
      </trkpt>
      <trkpt lat="45.51399" lon="3.12677">
        <ele>736.987793</ele>
        <time>2011-05-15T10:40:50Z</time>
      </trkpt>
      <trkpt lat="45.51417" lon="3.12699">
        <ele>734.1040039</ele>
        <time>2011-05-15T10:40:54Z</time>
      </trkpt>
      <trkpt lat="45.51432" lon="3.12711">
        <ele>733.1425781</ele>
        <time>2011-05-15T10:40:57Z</time>
      </trkpt>
      <trkpt lat="45.51456" lon="3.12717">
        <ele>735.5458984</ele>
        <time>2011-05-15T10:41:02Z</time>
      </trkpt>
      <trkpt lat="45.51461" lon="3.12717">
        <ele>736.5073242</ele>
        <time>2011-05-15T10:41:03Z</time>
      </trkpt>
      <trkpt lat="45.51478" lon="3.12718">
        <ele>736.5073242</ele>
        <time>2011-05-15T10:41:07Z</time>
      </trkpt>
      <trkpt lat="45.51495" lon="3.12729">
        <ele>735.0654297</ele>
        <time>2011-05-15T10:41:11Z</time>
      </trkpt>
      <trkpt lat="45.51506" lon="3.12742">
        <ele>736.0266113</ele>
        <time>2011-05-15T10:41:14Z</time>
      </trkpt>
      <trkpt lat="45.51531" lon="3.12758">
        <ele>736.0266113</ele>
        <time>2011-05-15T10:41:20Z</time>
      </trkpt>
      <trkpt lat="45.51536" lon="3.1276">
        <ele>735.5458984</ele>
        <time>2011-05-15T10:41:21Z</time>
      </trkpt>
      <trkpt lat="45.51571" lon="3.12768">
        <ele>736.5073242</ele>
        <time>2011-05-15T10:41:29Z</time>
      </trkpt>
      <trkpt lat="45.51575" lon="3.12769">
        <ele>737.4685059</ele>
        <time>2011-05-15T10:41:30Z</time>
      </trkpt>
      <trkpt lat="45.51608" lon="3.1279">
        <ele>737.4685059</ele>
        <time>2011-05-15T10:41:38Z</time>
      </trkpt>
      <trkpt lat="45.51634" lon="3.12812">
        <ele>737.4685059</ele>
        <time>2011-05-15T10:41:44Z</time>
      </trkpt>
      <trkpt lat="45.5165" lon="3.12817">
        <ele>736.5073242</ele>
        <time>2011-05-15T10:41:47Z</time>
      </trkpt>
      <trkpt lat="45.51665" lon="3.12812">
        <ele>736.5073242</ele>
        <time>2011-05-15T10:41:50Z</time>
      </trkpt>
      <trkpt lat="45.51712" lon="3.12793">
        <ele>735.0654297</ele>
        <time>2011-05-15T10:41:59Z</time>
      </trkpt>
      <trkpt lat="45.51729" lon="3.12795">
        <ele>734.1040039</ele>
        <time>2011-05-15T10:42:03Z</time>
      </trkpt>
      <trkpt lat="45.51731" lon="3.12816">
        <ele>733.623291</ele>
        <time>2011-05-15T10:42:06Z</time>
      </trkpt>
      <trkpt lat="45.51726" lon="3.12831">
        <ele>732.6621094</ele>
        <time>2011-05-15T10:42:08Z</time>
      </trkpt>
      <trkpt lat="45.51722" lon="3.12847">
        <ele>732.1813965</ele>
        <time>2011-05-15T10:42:10Z</time>
      </trkpt>
      <trkpt lat="45.51714" lon="3.12919">
        <ele>729.777832</ele>
        <time>2011-05-15T10:42:18Z</time>
      </trkpt>
      <trkpt lat="45.51713" lon="3.12937">
        <ele>729.2971191</ele>
        <time>2011-05-15T10:42:20Z</time>
      </trkpt>
      <trkpt lat="45.51717" lon="3.13007">
        <ele>730.7392578</ele>
        <time>2011-05-15T10:42:28Z</time>
      </trkpt>
      <trkpt lat="45.51729" lon="3.13051">
        <ele>733.1425781</ele>
        <time>2011-05-15T10:42:34Z</time>
      </trkpt>
      <trkpt lat="45.51741" lon="3.13085">
        <ele>734.1040039</ele>
        <time>2011-05-15T10:42:39Z</time>
      </trkpt>
      <trkpt lat="45.51744" lon="3.13112">
        <ele>734.1040039</ele>
        <time>2011-05-15T10:42:43Z</time>
      </trkpt>
      <trkpt lat="45.51742" lon="3.13175">
        <ele>732.1813965</ele>
        <time>2011-05-15T10:42:51Z</time>
      </trkpt>
      <trkpt lat="45.51742" lon="3.13193">
        <ele>731.7004395</ele>
        <time>2011-05-15T10:42:53Z</time>
      </trkpt>
      <trkpt lat="45.51752" lon="3.1323">
        <ele>730.7392578</ele>
        <time>2011-05-15T10:42:57Z</time>
      </trkpt>
      <trkpt lat="45.51757" lon="3.13259">
        <ele>729.2971191</ele>
        <time>2011-05-15T10:43:01Z</time>
      </trkpt>
      <trkpt lat="45.51754" lon="3.13293">
        <ele>724.4907227</ele>
        <time>2011-05-15T10:43:06Z</time>
      </trkpt>
      <trkpt lat="45.51752" lon="3.13323">
        <ele>722.0874023</ele>
        <time>2011-05-15T10:43:10Z</time>
      </trkpt>
      <trkpt lat="45.51748" lon="3.13334">
        <ele>720.1647949</ele>
        <time>2011-05-15T10:43:12Z</time>
      </trkpt>
      <trkpt lat="45.51734" lon="3.13363">
        <ele>714.8774414</ele>
        <time>2011-05-15T10:43:17Z</time>
      </trkpt>
      <trkpt lat="45.5173" lon="3.13396">
        <ele>709.590332</ele>
        <time>2011-05-15T10:43:21Z</time>
      </trkpt>
      <trkpt lat="45.5173" lon="3.13404">
        <ele>709.590332</ele>
        <time>2011-05-15T10:43:22Z</time>
      </trkpt>
      <trkpt lat="45.51735" lon="3.13434">
        <ele>705.2644043</ele>
        <time>2011-05-15T10:43:26Z</time>
      </trkpt>
      <trkpt lat="45.51747" lon="3.13496">
        <ele>700.4580078</ele>
        <time>2011-05-15T10:43:33Z</time>
      </trkpt>
      <trkpt lat="45.51748" lon="3.13513">
        <ele>699.4963379</ele>
        <time>2011-05-15T10:43:35Z</time>
      </trkpt>
      <trkpt lat="45.5174" lon="3.13549">
        <ele>697.0930176</ele>
        <time>2011-05-15T10:43:39Z</time>
      </trkpt>
      <trkpt lat="45.51733" lon="3.13586">
        <ele>695.651123</ele>
        <time>2011-05-15T10:43:43Z</time>
      </trkpt>
      <trkpt lat="45.5173" lon="3.13606">
        <ele>693.7285156</ele>
        <time>2011-05-15T10:43:45Z</time>
      </trkpt>
      <trkpt lat="45.51725" lon="3.13659">
        <ele>688.4414063</ele>
        <time>2011-05-15T10:43:50Z</time>
      </trkpt>
      <trkpt lat="45.5172" lon="3.13699">
        <ele>686.0380859</ele>
        <time>2011-05-15T10:43:54Z</time>
      </trkpt>
      <trkpt lat="45.51716" lon="3.13729">
        <ele>682.6733398</ele>
        <time>2011-05-15T10:43:57Z</time>
      </trkpt>
      <trkpt lat="45.51712" lon="3.13759">
        <ele>679.7893066</ele>
        <time>2011-05-15T10:44:00Z</time>
      </trkpt>
      <trkpt lat="45.51711" lon="3.1377">
        <ele>680.2700195</ele>
        <time>2011-05-15T10:44:01Z</time>
      </trkpt>
      <trkpt lat="45.5171" lon="3.1378">
        <ele>678.3474121</ele>
        <time>2011-05-15T10:44:02Z</time>
      </trkpt>
      <trkpt lat="45.51694" lon="3.13819">
        <ele>676.9055176</ele>
        <time>2011-05-15T10:44:06Z</time>
      </trkpt>
      <trkpt lat="45.51682" lon="3.13836">
        <ele>675.9440918</ele>
        <time>2011-05-15T10:44:08Z</time>
      </trkpt>
      <trkpt lat="45.51671" lon="3.13865">
        <ele>672.5795898</ele>
        <time>2011-05-15T10:44:11Z</time>
      </trkpt>
      <trkpt lat="45.51656" lon="3.13914">
        <ele>670.6569824</ele>
        <time>2011-05-15T10:44:16Z</time>
      </trkpt>
      <trkpt lat="45.51653" lon="3.13924">
        <ele>670.1762695</ele>
        <time>2011-05-15T10:44:17Z</time>
      </trkpt>
      <trkpt lat="45.51647" lon="3.13965">
        <ele>667.7727051</ele>
        <time>2011-05-15T10:44:21Z</time>
      </trkpt>
      <trkpt lat="45.51643" lon="3.13995">
        <ele>663.9274902</ele>
        <time>2011-05-15T10:44:24Z</time>
      </trkpt>
      <trkpt lat="45.51635" lon="3.14044">
        <ele>660.0822754</ele>
        <time>2011-05-15T10:44:29Z</time>
      </trkpt>
      <trkpt lat="45.51633" lon="3.14052">
        <ele>660.0822754</ele>
        <time>2011-05-15T10:44:30Z</time>
      </trkpt>
      <trkpt lat="45.51631" lon="3.14067">
        <ele>659.6018066</ele>
        <time>2011-05-15T10:44:32Z</time>
      </trkpt>
      <trkpt lat="45.51628" lon="3.14086">
        <ele>657.1984863</ele>
        <time>2011-05-15T10:44:35Z</time>
      </trkpt>
      <trkpt lat="45.51623" lon="3.14098">
        <ele>656.7177734</ele>
        <time>2011-05-15T10:44:37Z</time>
      </trkpt>
      <trkpt lat="45.51614" lon="3.14104">
        <ele>655.7565918</ele>
        <time>2011-05-15T10:44:39Z</time>
      </trkpt>
      <trkpt lat="45.51591" lon="3.14111">
        <ele>655.2758789</ele>
        <time>2011-05-15T10:44:44Z</time>
      </trkpt>
      <trkpt lat="45.51583" lon="3.1412">
        <ele>655.7565918</ele>
        <time>2011-05-15T10:44:49Z</time>
      </trkpt>
      <trkpt lat="45.51571" lon="3.1414">
        <ele>656.7177734</ele>
        <time>2011-05-15T10:44:56Z</time>
      </trkpt>
      <trkpt lat="45.51564" lon="3.14152">
        <ele>658.6403809</ele>
        <time>2011-05-15T10:45:01Z</time>
      </trkpt>
      <trkpt lat="45.51555" lon="3.14159">
        <ele>659.1210938</ele>
        <time>2011-05-15T10:45:06Z</time>
      </trkpt>
      <trkpt lat="45.51543" lon="3.14165">
        <ele>659.6018066</ele>
        <time>2011-05-15T10:45:11Z</time>
      </trkpt>
      <trkpt lat="45.51534" lon="3.14171">
        <ele>660.0822754</ele>
        <time>2011-05-15T10:45:15Z</time>
      </trkpt>
      <trkpt lat="45.51523" lon="3.14177">
        <ele>661.0437012</ele>
        <time>2011-05-15T10:45:20Z</time>
      </trkpt>
      <trkpt lat="45.51519" lon="3.1418">
        <ele>662.005127</ele>
        <time>2011-05-15T10:45:22Z</time>
      </trkpt>
      <trkpt lat="45.515" lon="3.1419">
        <ele>662.4855957</ele>
        <time>2011-05-15T10:45:29Z</time>
      </trkpt>
      <trkpt lat="45.51478" lon="3.14193">
        <ele>663.4470215</ele>
        <time>2011-05-15T10:45:37Z</time>
      </trkpt>
      <trkpt lat="45.51461" lon="3.14192">
        <ele>663.4470215</ele>
        <time>2011-05-15T10:45:43Z</time>
      </trkpt>
      <trkpt lat="45.51436" lon="3.14194">
        <ele>665.3696289</ele>
        <time>2011-05-15T10:45:52Z</time>
      </trkpt>
      <trkpt lat="45.5142" lon="3.14204">
        <ele>666.3308105</ele>
        <time>2011-05-15T10:45:59Z</time>
      </trkpt>
      <trkpt lat="45.51406" lon="3.14223">
        <ele>667.2922363</ele>
        <time>2011-05-15T10:46:06Z</time>
      </trkpt>
      <trkpt lat="45.51389" lon="3.14243">
        <ele>669.2150879</ele>
        <time>2011-05-15T10:46:14Z</time>
      </trkpt>
      <trkpt lat="45.51374" lon="3.14263">
        <ele>669.2150879</ele>
        <time>2011-05-15T10:46:21Z</time>
      </trkpt>
      <trkpt lat="45.51347" lon="3.14297">
        <ele>671.1376953</ele>
        <time>2011-05-15T10:46:32Z</time>
      </trkpt>
      <trkpt lat="45.5133" lon="3.14317">
        <ele>671.1376953</ele>
        <time>2011-05-15T10:46:38Z</time>
      </trkpt>
      <trkpt lat="45.51326" lon="3.14321">
        <ele>671.6181641</ele>
        <time>2011-05-15T10:46:39Z</time>
      </trkpt>
      <trkpt lat="45.51316" lon="3.14333">
        <ele>670.1762695</ele>
        <time>2011-05-15T10:46:42Z</time>
      </trkpt>
      <trkpt lat="45.51289" lon="3.14364">
        <ele>671.1376953</ele>
        <time>2011-05-15T10:46:50Z</time>
      </trkpt>
      <trkpt lat="45.51261" lon="3.14388">
        <ele>670.1762695</ele>
        <time>2011-05-15T10:46:57Z</time>
      </trkpt>
      <trkpt lat="45.51238" lon="3.14422">
        <ele>669.6958008</ele>
        <time>2011-05-15T10:47:04Z</time>
      </trkpt>
      <trkpt lat="45.51219" lon="3.14461">
        <ele>671.1376953</ele>
        <time>2011-05-15T10:47:11Z</time>
      </trkpt>
      <trkpt lat="45.51197" lon="3.14499">
        <ele>671.1376953</ele>
        <time>2011-05-15T10:47:18Z</time>
      </trkpt>
      <trkpt lat="45.51191" lon="3.14522">
        <ele>671.1376953</ele>
        <time>2011-05-15T10:47:22Z</time>
      </trkpt>
      <trkpt lat="45.51199" lon="3.14536">
        <ele>671.6181641</ele>
        <time>2011-05-15T10:47:25Z</time>
      </trkpt>
      <trkpt lat="45.51203" lon="3.14539">
        <ele>672.098877</ele>
        <time>2011-05-15T10:47:26Z</time>
      </trkpt>
      <trkpt lat="45.51211" lon="3.14545">
        <ele>671.6181641</ele>
        <time>2011-05-15T10:47:28Z</time>
      </trkpt>
      <trkpt lat="45.51237" lon="3.14552">
        <ele>672.5795898</ele>
        <time>2011-05-15T10:47:35Z</time>
      </trkpt>
      <trkpt lat="45.51243" lon="3.14555">
        <ele>674.5021973</ele>
        <time>2011-05-15T10:47:37Z</time>
      </trkpt>
      <trkpt lat="45.51258" lon="3.14569">
        <ele>675.4633789</ele>
        <time>2011-05-15T10:47:43Z</time>
      </trkpt>
      <trkpt lat="45.51278" lon="3.14593">
        <ele>676.9055176</ele>
        <time>2011-05-15T10:47:52Z</time>
      </trkpt>
      <trkpt lat="45.51282" lon="3.14598">
        <ele>677.8666992</ele>
        <time>2011-05-15T10:47:54Z</time>
      </trkpt>
      <trkpt lat="45.51294" lon="3.14612">
        <ele>678.828125</ele>
        <time>2011-05-15T10:48:00Z</time>
      </trkpt>
      <trkpt lat="45.51301" lon="3.14619">
        <ele>680.7507324</ele>
        <time>2011-05-15T10:48:03Z</time>
      </trkpt>
      <trkpt lat="45.51314" lon="3.14631">
        <ele>683.1538086</ele>
        <time>2011-05-15T10:48:09Z</time>
      </trkpt>
      <trkpt lat="45.51322" lon="3.14638">
        <ele>684.5961914</ele>
        <time>2011-05-15T10:48:13Z</time>
      </trkpt>
      <trkpt lat="45.51336" lon="3.14644">
        <ele>687.4799805</ele>
        <time>2011-05-15T10:48:19Z</time>
      </trkpt>
      <trkpt lat="45.51353" lon="3.14645">
        <ele>689.8833008</ele>
        <time>2011-05-15T10:48:26Z</time>
      </trkpt>
      <trkpt lat="45.51367" lon="3.14643">
        <ele>690.8444824</ele>
        <time>2011-05-15T10:48:32Z</time>
      </trkpt>
      <trkpt lat="45.5139" lon="3.14641">
        <ele>692.2866211</ele>
        <time>2011-05-15T10:48:41Z</time>
      </trkpt>
      <trkpt lat="45.51408" lon="3.14642">
        <ele>693.7285156</ele>
        <time>2011-05-15T10:48:48Z</time>
      </trkpt>
      <trkpt lat="45.5142" lon="3.14656">
        <ele>693.7285156</ele>
        <time>2011-05-15T10:48:54Z</time>
      </trkpt>
      <trkpt lat="45.51424" lon="3.14667">
        <ele>696.1318359</ele>
        <time>2011-05-15T10:48:57Z</time>
      </trkpt>
      <trkpt lat="45.51433" lon="3.14679">
        <ele>696.1318359</ele>
        <time>2011-05-15T10:49:02Z</time>
      </trkpt>
      <trkpt lat="45.51446" lon="3.14677">
        <ele>697.0930176</ele>
        <time>2011-05-15T10:49:08Z</time>
      </trkpt>
      <trkpt lat="45.51462" lon="3.1467">
        <ele>696.1318359</ele>
        <time>2011-05-15T10:49:16Z</time>
      </trkpt>
      <trkpt lat="45.51473" lon="3.14667">
        <ele>697.0930176</ele>
        <time>2011-05-15T10:49:22Z</time>
      </trkpt>
      <trkpt lat="45.51488" lon="3.14665">
        <ele>697.0930176</ele>
        <time>2011-05-15T10:49:29Z</time>
      </trkpt>
      <trkpt lat="45.51503" lon="3.14662">
        <ele>696.6125488</ele>
        <time>2011-05-15T10:49:35Z</time>
      </trkpt>
      <trkpt lat="45.51509" lon="3.14661">
        <ele>696.6125488</ele>
        <time>2011-05-15T10:49:37Z</time>
      </trkpt>
      <trkpt lat="45.51514" lon="3.14661">
        <ele>696.1318359</ele>
        <time>2011-05-15T10:49:39Z</time>
      </trkpt>
      <trkpt lat="45.51518" lon="3.1466">
        <ele>696.1318359</ele>
        <time>2011-05-15T10:49:40Z</time>
      </trkpt>
      <trkpt lat="45.51524" lon="3.1466">
        <ele>696.1318359</ele>
        <time>2011-05-15T10:49:42Z</time>
      </trkpt>
      <trkpt lat="45.51527" lon="3.1466">
        <ele>696.1318359</ele>
        <time>2011-05-15T10:49:43Z</time>
      </trkpt>
      <trkpt lat="45.51547" lon="3.14659">
        <ele>694.6896973</ele>
        <time>2011-05-15T10:49:48Z</time>
      </trkpt>
      <trkpt lat="45.51557" lon="3.14658">
        <ele>695.1704102</ele>
        <time>2011-05-15T10:49:50Z</time>
      </trkpt>
      <trkpt lat="45.51577" lon="3.14661">
        <ele>693.2478027</ele>
        <time>2011-05-15T10:49:54Z</time>
      </trkpt>
      <trkpt lat="45.51588" lon="3.14664">
        <ele>692.2866211</ele>
        <time>2011-05-15T10:49:56Z</time>
      </trkpt>
      <trkpt lat="45.5162" lon="3.14675">
        <ele>689.8833008</ele>
        <time>2011-05-15T10:50:02Z</time>
      </trkpt>
      <trkpt lat="45.51645" lon="3.1467">
        <ele>688.4414063</ele>
        <time>2011-05-15T10:50:06Z</time>
      </trkpt>
      <trkpt lat="45.51658" lon="3.14668">
        <ele>686.9992676</ele>
        <time>2011-05-15T10:50:08Z</time>
      </trkpt>
      <trkpt lat="45.51674" lon="3.14679">
        <ele>685.0769043</ele>
        <time>2011-05-15T10:50:11Z</time>
      </trkpt>
      <trkpt lat="45.51683" lon="3.14691">
        <ele>686.9992676</ele>
        <time>2011-05-15T10:50:13Z</time>
      </trkpt>
      <trkpt lat="45.51701" lon="3.14713">
        <ele>686.9992676</ele>
        <time>2011-05-15T10:50:17Z</time>
      </trkpt>
      <trkpt lat="45.51716" lon="3.14725">
        <ele>687.4799805</ele>
        <time>2011-05-15T10:50:20Z</time>
      </trkpt>
      <trkpt lat="45.51734" lon="3.1474">
        <ele>688.4414063</ele>
        <time>2011-05-15T10:50:24Z</time>
      </trkpt>
      <trkpt lat="45.51748" lon="3.14752">
        <ele>688.4414063</ele>
        <time>2011-05-15T10:50:27Z</time>
      </trkpt>
      <trkpt lat="45.51765" lon="3.14772">
        <ele>688.9221191</ele>
        <time>2011-05-15T10:50:31Z</time>
      </trkpt>
      <trkpt lat="45.51794" lon="3.14813">
        <ele>690.8444824</ele>
        <time>2011-05-15T10:50:39Z</time>
      </trkpt>
      <trkpt lat="45.51814" lon="3.1484">
        <ele>690.3640137</ele>
        <time>2011-05-15T10:50:45Z</time>
      </trkpt>
      <trkpt lat="45.51827" lon="3.14856">
        <ele>690.3640137</ele>
        <time>2011-05-15T10:50:50Z</time>
      </trkpt>
      <trkpt lat="45.51844" lon="3.14865">
        <ele>691.3251953</ele>
        <time>2011-05-15T10:50:55Z</time>
      </trkpt>
      <trkpt lat="45.51855" lon="3.14869">
        <ele>690.8444824</ele>
        <time>2011-05-15T10:50:58Z</time>
      </trkpt>
      <trkpt lat="45.51885" lon="3.14893">
        <ele>690.8444824</ele>
        <time>2011-05-15T10:51:06Z</time>
      </trkpt>
      <trkpt lat="45.519" lon="3.14906">
        <ele>689.4025879</ele>
        <time>2011-05-15T10:51:10Z</time>
      </trkpt>
      <trkpt lat="45.51924" lon="3.14924">
        <ele>686.5187988</ele>
        <time>2011-05-15T10:51:15Z</time>
      </trkpt>
      <trkpt lat="45.51948" lon="3.14943">
        <ele>686.5187988</ele>
        <time>2011-05-15T10:51:21Z</time>
      </trkpt>
      <trkpt lat="45.51952" lon="3.14946">
        <ele>686.5187988</ele>
        <time>2011-05-15T10:51:22Z</time>
      </trkpt>
      <trkpt lat="45.51969" lon="3.1496">
        <ele>685.557373</ele>
        <time>2011-05-15T10:51:26Z</time>
      </trkpt>
      <trkpt lat="45.51979" lon="3.14973">
        <ele>683.1538086</ele>
        <time>2011-05-15T10:51:29Z</time>
      </trkpt>
      <trkpt lat="45.51982" lon="3.14979">
        <ele>683.6345215</ele>
        <time>2011-05-15T10:51:30Z</time>
      </trkpt>
      <trkpt lat="45.52005" lon="3.15022">
        <ele>681.7119141</ele>
        <time>2011-05-15T10:51:37Z</time>
      </trkpt>
      <trkpt lat="45.52017" lon="3.15047">
        <ele>681.2314453</ele>
        <time>2011-05-15T10:51:41Z</time>
      </trkpt>
      <trkpt lat="45.52032" lon="3.15078">
        <ele>681.7119141</ele>
        <time>2011-05-15T10:51:47Z</time>
      </trkpt>
      <trkpt lat="45.52034" lon="3.15083">
        <ele>681.7119141</ele>
        <time>2011-05-15T10:51:48Z</time>
      </trkpt>
      <trkpt lat="45.52046" lon="3.15115">
        <ele>684.1154785</ele>
        <time>2011-05-15T10:51:54Z</time>
      </trkpt>
      <trkpt lat="45.52048" lon="3.15119">
        <ele>684.1154785</ele>
        <time>2011-05-15T10:51:55Z</time>
      </trkpt>
      <trkpt lat="45.52053" lon="3.15127">
        <ele>684.5961914</ele>
        <time>2011-05-15T10:51:57Z</time>
      </trkpt>
      <trkpt lat="45.52059" lon="3.15139">
        <ele>684.5961914</ele>
        <time>2011-05-15T10:52:00Z</time>
      </trkpt>
      <trkpt lat="45.52062" lon="3.1515">
        <ele>685.557373</ele>
        <time>2011-05-15T10:52:02Z</time>
      </trkpt>
      <trkpt lat="45.52063" lon="3.15155">
        <ele>686.0380859</ele>
        <time>2011-05-15T10:52:03Z</time>
      </trkpt>
      <trkpt lat="45.52065" lon="3.15163">
        <ele>687.4799805</ele>
        <time>2011-05-15T10:52:05Z</time>
      </trkpt>
      <trkpt lat="45.52066" lon="3.15167">
        <ele>687.4799805</ele>
        <time>2011-05-15T10:52:06Z</time>
      </trkpt>
      <trkpt lat="45.52069" lon="3.15178">
        <ele>687.4799805</ele>
        <time>2011-05-15T10:52:09Z</time>
      </trkpt>
      <trkpt lat="45.5207" lon="3.15201">
        <ele>688.4414063</ele>
        <time>2011-05-15T10:52:15Z</time>
      </trkpt>
      <trkpt lat="45.52068" lon="3.15222">
        <ele>689.4025879</ele>
        <time>2011-05-15T10:52:21Z</time>
      </trkpt>
      <trkpt lat="45.52071" lon="3.15239">
        <ele>691.3251953</ele>
        <time>2011-05-15T10:52:27Z</time>
      </trkpt>
      <trkpt lat="45.52082" lon="3.1526">
        <ele>691.3251953</ele>
        <time>2011-05-15T10:52:34Z</time>
      </trkpt>
      <trkpt lat="45.52093" lon="3.1528">
        <ele>690.8444824</ele>
        <time>2011-05-15T10:52:40Z</time>
      </trkpt>
      <trkpt lat="45.52111" lon="3.15306">
        <ele>690.8444824</ele>
        <time>2011-05-15T10:52:47Z</time>
      </trkpt>
      <trkpt lat="45.52125" lon="3.15323">
        <ele>689.4025879</ele>
        <time>2011-05-15T10:52:52Z</time>
      </trkpt>
      <trkpt lat="45.52136" lon="3.15335">
        <ele>686.5187988</ele>
        <time>2011-05-15T10:52:55Z</time>
      </trkpt>
      <trkpt lat="45.52149" lon="3.15363">
        <ele>687.4799805</ele>
        <time>2011-05-15T10:53:00Z</time>
      </trkpt>
      <trkpt lat="45.52154" lon="3.15385">
        <ele>689.8833008</ele>
        <time>2011-05-15T10:53:04Z</time>
      </trkpt>
      <trkpt lat="45.52162" lon="3.15415">
        <ele>691.3251953</ele>
        <time>2011-05-15T10:53:10Z</time>
      </trkpt>
      <trkpt lat="45.52169" lon="3.15434">
        <ele>690.3640137</ele>
        <time>2011-05-15T10:53:14Z</time>
      </trkpt>
      <trkpt lat="45.52184" lon="3.15458">
        <ele>688.4414063</ele>
        <time>2011-05-15T10:53:19Z</time>
      </trkpt>
      <trkpt lat="45.52204" lon="3.15496">
        <ele>687.4799805</ele>
        <time>2011-05-15T10:53:26Z</time>
      </trkpt>
      <trkpt lat="45.52218" lon="3.15527">
        <ele>689.4025879</ele>
        <time>2011-05-15T10:53:32Z</time>
      </trkpt>
      <trkpt lat="45.52226" lon="3.15543">
        <ele>688.9221191</ele>
        <time>2011-05-15T10:53:35Z</time>
      </trkpt>
      <trkpt lat="45.52235" lon="3.15558">
        <ele>688.4414063</ele>
        <time>2011-05-15T10:53:38Z</time>
      </trkpt>
      <trkpt lat="45.52248" lon="3.15593">
        <ele>686.5187988</ele>
        <time>2011-05-15T10:53:44Z</time>
      </trkpt>
      <trkpt lat="45.52252" lon="3.15606">
        <ele>685.557373</ele>
        <time>2011-05-15T10:53:46Z</time>
      </trkpt>
      <trkpt lat="45.52258" lon="3.15618">
        <ele>685.557373</ele>
        <time>2011-05-15T10:53:48Z</time>
      </trkpt>
      <trkpt lat="45.52267" lon="3.15637">
        <ele>684.1154785</ele>
        <time>2011-05-15T10:53:51Z</time>
      </trkpt>
      <trkpt lat="45.52286" lon="3.15664">
        <ele>683.1538086</ele>
        <time>2011-05-15T10:53:56Z</time>
      </trkpt>
      <trkpt lat="45.52296" lon="3.15691">
        <ele>682.192627</ele>
        <time>2011-05-15T10:54:00Z</time>
      </trkpt>
      <trkpt lat="45.523" lon="3.15707">
        <ele>679.7893066</ele>
        <time>2011-05-15T10:54:02Z</time>
      </trkpt>
      <trkpt lat="45.52309" lon="3.15741">
        <ele>679.7893066</ele>
        <time>2011-05-15T10:54:07Z</time>
      </trkpt>
      <trkpt lat="45.52312" lon="3.15754">
        <ele>677.8666992</ele>
        <time>2011-05-15T10:54:09Z</time>
      </trkpt>
      <trkpt lat="45.52316" lon="3.15783">
        <ele>676.9055176</ele>
        <time>2011-05-15T10:54:13Z</time>
      </trkpt>
      <trkpt lat="45.52316" lon="3.15817">
        <ele>678.3474121</ele>
        <time>2011-05-15T10:54:18Z</time>
      </trkpt>
      <trkpt lat="45.5231" lon="3.15841">
        <ele>678.3474121</ele>
        <time>2011-05-15T10:54:22Z</time>
      </trkpt>
      <trkpt lat="45.5231" lon="3.15873">
        <ele>678.828125</ele>
        <time>2011-05-15T10:54:27Z</time>
      </trkpt>
      <trkpt lat="45.52315" lon="3.15898">
        <ele>678.3474121</ele>
        <time>2011-05-15T10:54:31Z</time>
      </trkpt>
      <trkpt lat="45.52324" lon="3.15924">
        <ele>676.9055176</ele>
        <time>2011-05-15T10:54:35Z</time>
      </trkpt>
      <trkpt lat="45.52342" lon="3.1597">
        <ele>675.9440918</ele>
        <time>2011-05-15T10:54:42Z</time>
      </trkpt>
      <trkpt lat="45.52349" lon="3.15999">
        <ele>675.9440918</ele>
        <time>2011-05-15T10:54:47Z</time>
      </trkpt>
      <trkpt lat="45.52351" lon="3.16005">
        <ele>675.9440918</ele>
        <time>2011-05-15T10:54:48Z</time>
      </trkpt>
      <trkpt lat="45.52365" lon="3.16037">
        <ele>673.0603027</ele>
        <time>2011-05-15T10:54:53Z</time>
      </trkpt>
      <trkpt lat="45.52382" lon="3.16084">
        <ele>670.6569824</ele>
        <time>2011-05-15T10:54:59Z</time>
      </trkpt>
      <trkpt lat="45.52391" lon="3.16127">
        <ele>668.734375</ele>
        <time>2011-05-15T10:55:04Z</time>
      </trkpt>
      <trkpt lat="45.52392" lon="3.16135">
        <ele>669.2150879</ele>
        <time>2011-05-15T10:55:05Z</time>
      </trkpt>
      <trkpt lat="45.52397" lon="3.16164">
        <ele>668.2536621</ele>
        <time>2011-05-15T10:55:09Z</time>
      </trkpt>
      <trkpt lat="45.52398" lon="3.16218">
        <ele>668.2536621</ele>
        <time>2011-05-15T10:55:17Z</time>
      </trkpt>
      <trkpt lat="45.524" lon="3.16231">
        <ele>668.2536621</ele>
        <time>2011-05-15T10:55:19Z</time>
      </trkpt>
      <trkpt lat="45.52402" lon="3.16281">
        <ele>667.7727051</ele>
        <time>2011-05-15T10:55:26Z</time>
      </trkpt>
      <trkpt lat="45.52402" lon="3.16295">
        <ele>667.7727051</ele>
        <time>2011-05-15T10:55:28Z</time>
      </trkpt>
      <trkpt lat="45.52405" lon="3.16309">
        <ele>666.3308105</ele>
        <time>2011-05-15T10:55:30Z</time>
      </trkpt>
      <trkpt lat="45.52408" lon="3.16322">
        <ele>663.9274902</ele>
        <time>2011-05-15T10:55:32Z</time>
      </trkpt>
      <trkpt lat="45.52425" lon="3.16367">
        <ele>664.888916</ele>
        <time>2011-05-15T10:55:39Z</time>
      </trkpt>
      <trkpt lat="45.5243" lon="3.1638">
        <ele>663.9274902</ele>
        <time>2011-05-15T10:55:41Z</time>
      </trkpt>
      <trkpt lat="45.52435" lon="3.16394">
        <ele>662.4855957</ele>
        <time>2011-05-15T10:55:43Z</time>
      </trkpt>
      <trkpt lat="45.52437" lon="3.16401">
        <ele>662.9663086</ele>
        <time>2011-05-15T10:55:44Z</time>
      </trkpt>
      <trkpt lat="45.52439" lon="3.16414">
        <ele>662.4855957</ele>
        <time>2011-05-15T10:55:46Z</time>
      </trkpt>
      <trkpt lat="45.52439" lon="3.16448">
        <ele>661.5244141</ele>
        <time>2011-05-15T10:55:51Z</time>
      </trkpt>
      <trkpt lat="45.52434" lon="3.16494">
        <ele>660.0822754</ele>
        <time>2011-05-15T10:55:57Z</time>
      </trkpt>
      <trkpt lat="45.52434" lon="3.16525">
        <ele>659.6018066</ele>
        <time>2011-05-15T10:56:01Z</time>
      </trkpt>
      <trkpt lat="45.52423" lon="3.16564">
        <ele>657.1984863</ele>
        <time>2011-05-15T10:56:06Z</time>
      </trkpt>
      <trkpt lat="45.52412" lon="3.16609">
        <ele>657.1984863</ele>
        <time>2011-05-15T10:56:12Z</time>
      </trkpt>
      <trkpt lat="45.52411" lon="3.16617">
        <ele>657.1984863</ele>
        <time>2011-05-15T10:56:13Z</time>
      </trkpt>
      <trkpt lat="45.52401" lon="3.16666">
        <ele>654.3146973</ele>
        <time>2011-05-15T10:56:19Z</time>
      </trkpt>
      <trkpt lat="45.52399" lon="3.16692">
        <ele>652.8725586</ele>
        <time>2011-05-15T10:56:22Z</time>
      </trkpt>
      <trkpt lat="45.52398" lon="3.16718">
        <ele>650.4692383</ele>
        <time>2011-05-15T10:56:25Z</time>
      </trkpt>
      <trkpt lat="45.52395" lon="3.16744">
        <ele>649.5078125</ele>
        <time>2011-05-15T10:56:28Z</time>
      </trkpt>
      <trkpt lat="45.5239" lon="3.16771">
        <ele>647.1044922</ele>
        <time>2011-05-15T10:56:31Z</time>
      </trkpt>
      <trkpt lat="45.52389" lon="3.16797">
        <ele>647.1044922</ele>
        <time>2011-05-15T10:56:34Z</time>
      </trkpt>
      <trkpt lat="45.52392" lon="3.16831">
        <ele>646.1433105</ele>
        <time>2011-05-15T10:56:38Z</time>
      </trkpt>
      <trkpt lat="45.52392" lon="3.16854">
        <ele>647.5852051</ele>
        <time>2011-05-15T10:56:41Z</time>
      </trkpt>
      <trkpt lat="45.52391" lon="3.16885">
        <ele>648.065918</ele>
        <time>2011-05-15T10:56:45Z</time>
      </trkpt>
      <trkpt lat="45.52396" lon="3.16927">
        <ele>647.5852051</ele>
        <time>2011-05-15T10:56:51Z</time>
      </trkpt>
      <trkpt lat="45.52396" lon="3.16953">
        <ele>647.1044922</ele>
        <time>2011-05-15T10:56:55Z</time>
      </trkpt>
      <trkpt lat="45.52391" lon="3.16985">
        <ele>647.1044922</ele>
        <time>2011-05-15T10:57:00Z</time>
      </trkpt>
      <trkpt lat="45.52392" lon="3.17013">
        <ele>648.065918</ele>
        <time>2011-05-15T10:57:04Z</time>
      </trkpt>
      <trkpt lat="45.52398" lon="3.17071">
        <ele>645.6625977</ele>
        <time>2011-05-15T10:57:13Z</time>
      </trkpt>
      <trkpt lat="45.524" lon="3.17085">
        <ele>646.1433105</ele>
        <time>2011-05-15T10:57:15Z</time>
      </trkpt>
      <trkpt lat="45.52402" lon="3.17105">
        <ele>644.7011719</ele>
        <time>2011-05-15T10:57:18Z</time>
      </trkpt>
      <trkpt lat="45.52402" lon="3.17112">
        <ele>642.7788086</ele>
        <time>2011-05-15T10:57:19Z</time>
      </trkpt>
      <trkpt lat="45.52401" lon="3.17149">
        <ele>645.6625977</ele>
        <time>2011-05-15T10:57:24Z</time>
      </trkpt>
      <trkpt lat="45.52406" lon="3.1719">
        <ele>644.7011719</ele>
        <time>2011-05-15T10:57:30Z</time>
      </trkpt>
      <trkpt lat="45.52412" lon="3.17239">
        <ele>644.2207031</ele>
        <time>2011-05-15T10:57:37Z</time>
      </trkpt>
      <trkpt lat="45.52414" lon="3.1728">
        <ele>643.7399902</ele>
        <time>2011-05-15T10:57:43Z</time>
      </trkpt>
      <trkpt lat="45.52412" lon="3.17318">
        <ele>641.8173828</ele>
        <time>2011-05-15T10:57:48Z</time>
      </trkpt>
      <trkpt lat="45.52417" lon="3.17368">
        <ele>643.7399902</ele>
        <time>2011-05-15T10:57:55Z</time>
      </trkpt>
      <trkpt lat="45.5242" lon="3.17397">
        <ele>643.2592773</ele>
        <time>2011-05-15T10:57:59Z</time>
      </trkpt>
      <trkpt lat="45.52417" lon="3.17424">
        <ele>643.7399902</ele>
        <time>2011-05-15T10:58:03Z</time>
      </trkpt>
      <trkpt lat="45.52415" lon="3.17437">
        <ele>643.2592773</ele>
        <time>2011-05-15T10:58:05Z</time>
      </trkpt>
      <trkpt lat="45.52404" lon="3.17477">
        <ele>639.8947754</ele>
        <time>2011-05-15T10:58:11Z</time>
      </trkpt>
      <trkpt lat="45.52401" lon="3.17483">
        <ele>639.8947754</ele>
        <time>2011-05-15T10:58:12Z</time>
      </trkpt>
      <trkpt lat="45.52386" lon="3.17521">
        <ele>637.4914551</ele>
        <time>2011-05-15T10:58:18Z</time>
      </trkpt>
      <trkpt lat="45.52361" lon="3.17553">
        <ele>638.9335938</ele>
        <time>2011-05-15T10:58:24Z</time>
      </trkpt>
      <trkpt lat="45.52347" lon="3.17567">
        <ele>638.9335938</ele>
        <time>2011-05-15T10:58:27Z</time>
      </trkpt>
      <trkpt lat="45.52302" lon="3.176">
        <ele>637.0107422</ele>
        <time>2011-05-15T10:58:35Z</time>
      </trkpt>
      <trkpt lat="45.52263" lon="3.17631">
        <ele>637.972168</ele>
        <time>2011-05-15T10:58:42Z</time>
      </trkpt>
      <trkpt lat="45.52234" lon="3.17655">
        <ele>637.972168</ele>
        <time>2011-05-15T10:58:47Z</time>
      </trkpt>
      <trkpt lat="45.52191" lon="3.1768">
        <ele>637.4914551</ele>
        <time>2011-05-15T10:58:54Z</time>
      </trkpt>
      <trkpt lat="45.52172" lon="3.17685">
        <ele>637.0107422</ele>
        <time>2011-05-15T10:58:57Z</time>
      </trkpt>
      <trkpt lat="45.52159" lon="3.17685">
        <ele>637.4914551</ele>
        <time>2011-05-15T10:58:59Z</time>
      </trkpt>
      <trkpt lat="45.52135" lon="3.17679">
        <ele>637.4914551</ele>
        <time>2011-05-15T10:59:03Z</time>
      </trkpt>
      <trkpt lat="45.52113" lon="3.17668">
        <ele>638.9335938</ele>
        <time>2011-05-15T10:59:07Z</time>
      </trkpt>
      <trkpt lat="45.52102" lon="3.17663">
        <ele>639.4140625</ele>
        <time>2011-05-15T10:59:09Z</time>
      </trkpt>
      <trkpt lat="45.52061" lon="3.17654">
        <ele>639.8947754</ele>
        <time>2011-05-15T10:59:16Z</time>
      </trkpt>
      <trkpt lat="45.52038" lon="3.17645">
        <ele>640.855957</ele>
        <time>2011-05-15T10:59:20Z</time>
      </trkpt>
      <trkpt lat="45.52005" lon="3.17641">
        <ele>643.7399902</ele>
        <time>2011-05-15T10:59:26Z</time>
      </trkpt>
      <trkpt lat="45.51968" lon="3.17637">
        <ele>643.7399902</ele>
        <time>2011-05-15T10:59:33Z</time>
      </trkpt>
      <trkpt lat="45.51963" lon="3.17637">
        <ele>643.7399902</ele>
        <time>2011-05-15T10:59:34Z</time>
      </trkpt>
      <trkpt lat="45.51944" lon="3.17637">
        <ele>643.7399902</ele>
        <time>2011-05-15T10:59:38Z</time>
      </trkpt>
      <trkpt lat="45.51929" lon="3.17641">
        <ele>642.2980957</ele>
        <time>2011-05-15T10:59:41Z</time>
      </trkpt>
      <trkpt lat="45.51924" lon="3.17643">
        <ele>641.8173828</ele>
        <time>2011-05-15T10:59:42Z</time>
      </trkpt>
      <trkpt lat="45.51912" lon="3.1765">
        <ele>640.855957</ele>
        <time>2011-05-15T10:59:44Z</time>
      </trkpt>
      <trkpt lat="45.51899" lon="3.17658">
        <ele>638.9335938</ele>
        <time>2011-05-15T10:59:46Z</time>
      </trkpt>
      <trkpt lat="45.51878" lon="3.17668">
        <ele>637.972168</ele>
        <time>2011-05-15T10:59:49Z</time>
      </trkpt>
      <trkpt lat="45.51853" lon="3.1767">
        <ele>639.8947754</ele>
        <time>2011-05-15T10:59:53Z</time>
      </trkpt>
      <trkpt lat="45.51838" lon="3.1767">
        <ele>641.8173828</ele>
        <time>2011-05-15T10:59:57Z</time>
      </trkpt>
      <trkpt lat="45.51836" lon="3.17668">
        <ele>642.2980957</ele>
        <time>2011-05-15T10:59:58Z</time>
      </trkpt>
      <trkpt lat="45.51828" lon="3.17666">
        <ele>641.8173828</ele>
        <time>2011-05-15T11:00:04Z</time>
      </trkpt>
      <trkpt lat="45.51828" lon="3.17666">
        <ele>641.8173828</ele>
        <time>2011-05-15T11:00:07Z</time>
      </trkpt>
      <trkpt lat="45.51828" lon="3.17666">
        <ele>641.8173828</ele>
        <time>2011-05-15T11:00:12Z</time>
      </trkpt>
      <trkpt lat="45.51828" lon="3.17667">
        <ele>642.7788086</ele>
        <time>2011-05-15T11:00:18Z</time>
      </trkpt>
      <trkpt lat="45.51829" lon="3.17666">
        <ele>642.7788086</ele>
        <time>2011-05-15T11:00:30Z</time>
      </trkpt>
      <trkpt lat="45.51825" lon="3.17662">
        <ele>643.2592773</ele>
        <time>2011-05-15T11:00:34Z</time>
      </trkpt>
      <trkpt lat="45.51818" lon="3.17661">
        <ele>643.2592773</ele>
        <time>2011-05-15T11:00:37Z</time>
      </trkpt>
      <trkpt lat="45.51811" lon="3.17658">
        <ele>643.2592773</ele>
        <time>2011-05-15T11:00:39Z</time>
      </trkpt>
      <trkpt lat="45.51807" lon="3.17657">
        <ele>643.2592773</ele>
        <time>2011-05-15T11:00:40Z</time>
      </trkpt>
      <trkpt lat="45.51795" lon="3.17653">
        <ele>644.7011719</ele>
        <time>2011-05-15T11:00:43Z</time>
      </trkpt>
      <trkpt lat="45.51791" lon="3.17651">
        <ele>645.1818848</ele>
        <time>2011-05-15T11:00:44Z</time>
      </trkpt>
      <trkpt lat="45.51783" lon="3.17649">
        <ele>645.1818848</ele>
        <time>2011-05-15T11:00:46Z</time>
      </trkpt>
      <trkpt lat="45.5176" lon="3.1764">
        <ele>645.1818848</ele>
        <time>2011-05-15T11:00:53Z</time>
      </trkpt>
      <trkpt lat="45.51751" lon="3.17627">
        <ele>644.7011719</ele>
        <time>2011-05-15T11:00:57Z</time>
      </trkpt>
      <trkpt lat="45.51747" lon="3.17596">
        <ele>646.1433105</ele>
        <time>2011-05-15T11:01:03Z</time>
      </trkpt>
      <trkpt lat="45.51746" lon="3.17593">
        <ele>646.1433105</ele>
        <time>2011-05-15T11:01:04Z</time>
      </trkpt>
      <trkpt lat="45.51746" lon="3.1759">
        <ele>646.1433105</ele>
        <time>2011-05-15T11:01:05Z</time>
      </trkpt>
      <trkpt lat="45.51748" lon="3.17588">
        <ele>645.6625977</ele>
        <time>2011-05-15T11:01:09Z</time>
      </trkpt>
      <trkpt lat="45.51749" lon="3.17613">
        <ele>644.7011719</ele>
        <time>2011-05-15T11:01:14Z</time>
      </trkpt>
      <trkpt lat="45.5175" lon="3.17619">
        <ele>644.7011719</ele>
        <time>2011-05-15T11:01:15Z</time>
      </trkpt>
      <trkpt lat="45.51761" lon="3.1764">
        <ele>644.2207031</ele>
        <time>2011-05-15T11:01:19Z</time>
      </trkpt>
      <trkpt lat="45.51766" lon="3.17642">
        <ele>645.1818848</ele>
        <time>2011-05-15T11:01:20Z</time>
      </trkpt>
      <trkpt lat="45.51784" lon="3.17649">
        <ele>644.2207031</ele>
        <time>2011-05-15T11:01:24Z</time>
      </trkpt>
      <trkpt lat="45.51793" lon="3.17651">
        <ele>644.2207031</ele>
        <time>2011-05-15T11:01:26Z</time>
      </trkpt>
      <trkpt lat="45.51807" lon="3.17658">
        <ele>643.2592773</ele>
        <time>2011-05-15T11:01:29Z</time>
      </trkpt>
      <trkpt lat="45.51833" lon="3.17667">
        <ele>642.2980957</ele>
        <time>2011-05-15T11:01:34Z</time>
      </trkpt>
      <trkpt lat="45.51844" lon="3.1767">
        <ele>640.855957</ele>
        <time>2011-05-15T11:01:36Z</time>
      </trkpt>
      <trkpt lat="45.5187" lon="3.17671">
        <ele>639.8947754</ele>
        <time>2011-05-15T11:01:40Z</time>
      </trkpt>
      <trkpt lat="45.51894" lon="3.17665">
        <ele>639.8947754</ele>
        <time>2011-05-15T11:01:44Z</time>
      </trkpt>
      <trkpt lat="45.51904" lon="3.17659">
        <ele>640.3754883</ele>
        <time>2011-05-15T11:01:46Z</time>
      </trkpt>
      <trkpt lat="45.51924" lon="3.17646">
        <ele>642.7788086</ele>
        <time>2011-05-15T11:01:51Z</time>
      </trkpt>
      <trkpt lat="45.51932" lon="3.17642">
        <ele>643.7399902</ele>
        <time>2011-05-15T11:01:53Z</time>
      </trkpt>
      <trkpt lat="45.51951" lon="3.17639">
        <ele>645.1818848</ele>
        <time>2011-05-15T11:01:58Z</time>
      </trkpt>
      <trkpt lat="45.51969" lon="3.17641">
        <ele>644.2207031</ele>
        <time>2011-05-15T11:02:03Z</time>
      </trkpt>
      <trkpt lat="45.51995" lon="3.17644">
        <ele>645.1818848</ele>
        <time>2011-05-15T11:02:09Z</time>
      </trkpt>
      <trkpt lat="45.52018" lon="3.17643">
        <ele>642.2980957</ele>
        <time>2011-05-15T11:02:14Z</time>
      </trkpt>
      <trkpt lat="45.52039" lon="3.17645">
        <ele>642.2980957</ele>
        <time>2011-05-15T11:02:19Z</time>
      </trkpt>
      <trkpt lat="45.52056" lon="3.17654">
        <ele>641.8173828</ele>
        <time>2011-05-15T11:02:23Z</time>
      </trkpt>
      <trkpt lat="45.52072" lon="3.17657">
        <ele>640.855957</ele>
        <time>2011-05-15T11:02:26Z</time>
      </trkpt>
      <trkpt lat="45.52111" lon="3.17668">
        <ele>640.855957</ele>
        <time>2011-05-15T11:02:34Z</time>
      </trkpt>
      <trkpt lat="45.52136" lon="3.17683">
        <ele>639.4140625</ele>
        <time>2011-05-15T11:02:39Z</time>
      </trkpt>
      <trkpt lat="45.52153" lon="3.17701">
        <ele>635.5686035</ele>
        <time>2011-05-15T11:02:43Z</time>
      </trkpt>
      <trkpt lat="45.52158" lon="3.17707">
        <ele>634.126709</ele>
        <time>2011-05-15T11:02:44Z</time>
      </trkpt>
      <trkpt lat="45.52162" lon="3.17714">
        <ele>634.126709</ele>
        <time>2011-05-15T11:02:45Z</time>
      </trkpt>
      <trkpt lat="45.5218" lon="3.17739">
        <ele>631.7233887</ele>
        <time>2011-05-15T11:02:49Z</time>
      </trkpt>
      <trkpt lat="45.52202" lon="3.17756">
        <ele>628.8395996</ele>
        <time>2011-05-15T11:02:53Z</time>
      </trkpt>
      <trkpt lat="45.52209" lon="3.17759">
        <ele>628.8395996</ele>
        <time>2011-05-15T11:02:54Z</time>
      </trkpt>
      <trkpt lat="45.52236" lon="3.17768">
        <ele>626.4362793</ele>
        <time>2011-05-15T11:02:58Z</time>
      </trkpt>
      <trkpt lat="45.52248" lon="3.17773">
        <ele>623.0717773</ele>
        <time>2011-05-15T11:03:00Z</time>
      </trkpt>
      <trkpt lat="45.52287" lon="3.17778">
        <ele>622.1103516</ele>
        <time>2011-05-15T11:03:06Z</time>
      </trkpt>
      <trkpt lat="45.52299" lon="3.17778">
        <ele>618.7456055</ele>
        <time>2011-05-15T11:03:08Z</time>
      </trkpt>
      <trkpt lat="45.52319" lon="3.17781">
        <ele>615.3811035</ele>
        <time>2011-05-15T11:03:11Z</time>
      </trkpt>
      <trkpt lat="45.52337" lon="3.17788">
        <ele>611.5358887</ele>
        <time>2011-05-15T11:03:14Z</time>
      </trkpt>
      <trkpt lat="45.52343" lon="3.17791">
        <ele>611.5358887</ele>
        <time>2011-05-15T11:03:15Z</time>
      </trkpt>
      <trkpt lat="45.52357" lon="3.17798">
        <ele>610.09375</ele>
        <time>2011-05-15T11:03:17Z</time>
      </trkpt>
      <trkpt lat="45.52382" lon="3.17815">
        <ele>607.2099609</ele>
        <time>2011-05-15T11:03:21Z</time>
      </trkpt>
      <trkpt lat="45.52413" lon="3.17836">
        <ele>604.8066406</ele>
        <time>2011-05-15T11:03:26Z</time>
      </trkpt>
      <trkpt lat="45.52432" lon="3.17852">
        <ele>600.9611816</ele>
        <time>2011-05-15T11:03:29Z</time>
      </trkpt>
      <trkpt lat="45.52473" lon="3.17884">
        <ele>600</ele>
        <time>2011-05-15T11:03:36Z</time>
      </trkpt>
      <trkpt lat="45.52485" lon="3.1789">
        <ele>599.5192871</ele>
        <time>2011-05-15T11:03:38Z</time>
      </trkpt>
      <trkpt lat="45.52506" lon="3.17895">
        <ele>597.5966797</ele>
        <time>2011-05-15T11:03:42Z</time>
      </trkpt>
      <trkpt lat="45.52522" lon="3.17907">
        <ele>596.635498</ele>
        <time>2011-05-15T11:03:47Z</time>
      </trkpt>
      <trkpt lat="45.52523" lon="3.17918">
        <ele>596.1547852</ele>
        <time>2011-05-15T11:03:49Z</time>
      </trkpt>
      <trkpt lat="45.52526" lon="3.17939">
        <ele>593.7514648</ele>
        <time>2011-05-15T11:03:52Z</time>
      </trkpt>
      <trkpt lat="45.5253" lon="3.17978">
        <ele>592.3095703</ele>
        <time>2011-05-15T11:03:57Z</time>
      </trkpt>
      <trkpt lat="45.52531" lon="3.18039">
        <ele>589.90625</ele>
        <time>2011-05-15T11:04:03Z</time>
      </trkpt>
      <trkpt lat="45.52524" lon="3.18113">
        <ele>588.9450684</ele>
        <time>2011-05-15T11:04:10Z</time>
      </trkpt>
      <trkpt lat="45.52519" lon="3.18141">
        <ele>588.9450684</ele>
        <time>2011-05-15T11:04:13Z</time>
      </trkpt>
      <trkpt lat="45.52524" lon="3.18164">
        <ele>586.5415039</ele>
        <time>2011-05-15T11:04:17Z</time>
      </trkpt>
      <trkpt lat="45.52529" lon="3.18166">
        <ele>586.5415039</ele>
        <time>2011-05-15T11:04:18Z</time>
      </trkpt>
      <trkpt lat="45.52566" lon="3.18166">
        <ele>582.6962891</ele>
        <time>2011-05-15T11:04:24Z</time>
      </trkpt>
      <trkpt lat="45.52596" lon="3.18166">
        <ele>581.2543945</ele>
        <time>2011-05-15T11:04:29Z</time>
      </trkpt>
      <trkpt lat="45.52609" lon="3.18165">
        <ele>579.8122559</ele>
        <time>2011-05-15T11:04:31Z</time>
      </trkpt>
      <trkpt lat="45.52638" lon="3.18167">
        <ele>577.4091797</ele>
        <time>2011-05-15T11:04:35Z</time>
      </trkpt>
      <trkpt lat="45.52653" lon="3.18167">
        <ele>574.0444336</ele>
        <time>2011-05-15T11:04:37Z</time>
      </trkpt>
      <trkpt lat="45.52696" lon="3.18171">
        <ele>572.1218262</ele>
        <time>2011-05-15T11:04:43Z</time>
      </trkpt>
      <trkpt lat="45.5273" lon="3.1818">
        <ele>573.083252</ele>
        <time>2011-05-15T11:04:48Z</time>
      </trkpt>
      <trkpt lat="45.52736" lon="3.18181">
        <ele>573.083252</ele>
        <time>2011-05-15T11:04:49Z</time>
      </trkpt>
      <trkpt lat="45.52787" lon="3.18204">
        <ele>571.1604004</ele>
        <time>2011-05-15T11:04:57Z</time>
      </trkpt>
      <trkpt lat="45.52817" lon="3.18221">
        <ele>568.2763672</ele>
        <time>2011-05-15T11:05:02Z</time>
      </trkpt>
      <trkpt lat="45.52829" lon="3.18227">
        <ele>567.7956543</ele>
        <time>2011-05-15T11:05:04Z</time>
      </trkpt>
      <trkpt lat="45.52854" lon="3.18237">
        <ele>566.3537598</ele>
        <time>2011-05-15T11:05:08Z</time>
      </trkpt>
      <trkpt lat="45.52878" lon="3.18244">
        <ele>566.3537598</ele>
        <time>2011-05-15T11:05:12Z</time>
      </trkpt>
      <trkpt lat="45.52895" lon="3.18249">
        <ele>565.3925781</ele>
        <time>2011-05-15T11:05:15Z</time>
      </trkpt>
      <trkpt lat="45.52905" lon="3.1825">
        <ele>564.4311523</ele>
        <time>2011-05-15T11:05:17Z</time>
      </trkpt>
      <trkpt lat="45.52924" lon="3.1825">
        <ele>563.9504395</ele>
        <time>2011-05-15T11:05:21Z</time>
      </trkpt>
      <trkpt lat="45.5294" lon="3.18247">
        <ele>564.9118652</ele>
        <time>2011-05-15T11:05:25Z</time>
      </trkpt>
      <trkpt lat="45.52943" lon="3.18245">
        <ele>563.4699707</ele>
        <time>2011-05-15T11:05:26Z</time>
      </trkpt>
      <trkpt lat="45.52961" lon="3.18247">
        <ele>561.5473633</ele>
        <time>2011-05-15T11:05:30Z</time>
      </trkpt>
      <trkpt lat="45.52993" lon="3.18266">
        <ele>563.9504395</ele>
        <time>2011-05-15T11:05:37Z</time>
      </trkpt>
      <trkpt lat="45.52997" lon="3.18268">
        <ele>563.4699707</ele>
        <time>2011-05-15T11:05:38Z</time>
      </trkpt>
      <trkpt lat="45.53005" lon="3.18273">
        <ele>564.4311523</ele>
        <time>2011-05-15T11:05:40Z</time>
      </trkpt>
      <trkpt lat="45.53025" lon="3.18285">
        <ele>565.873291</ele>
        <time>2011-05-15T11:05:45Z</time>
      </trkpt>
      <trkpt lat="45.53042" lon="3.18292">
        <ele>567.3151855</ele>
        <time>2011-05-15T11:05:49Z</time>
      </trkpt>
      <trkpt lat="45.53055" lon="3.18296">
        <ele>568.2763672</ele>
        <time>2011-05-15T11:05:52Z</time>
      </trkpt>
      <trkpt lat="45.53069" lon="3.18298">
        <ele>568.2763672</ele>
        <time>2011-05-15T11:05:55Z</time>
      </trkpt>
      <trkpt lat="45.53102" lon="3.18301">
        <ele>569.237793</ele>
        <time>2011-05-15T11:06:03Z</time>
      </trkpt>
      <trkpt lat="45.53133" lon="3.18309">
        <ele>569.7185059</ele>
        <time>2011-05-15T11:06:11Z</time>
      </trkpt>
      <trkpt lat="45.53155" lon="3.18315">
        <ele>570.6796875</ele>
        <time>2011-05-15T11:06:18Z</time>
      </trkpt>
      <trkpt lat="45.53173" lon="3.18316">
        <ele>570.1989746</ele>
        <time>2011-05-15T11:06:24Z</time>
      </trkpt>
      <trkpt lat="45.53195" lon="3.18316">
        <ele>572.6025391</ele>
        <time>2011-05-15T11:06:31Z</time>
      </trkpt>
      <trkpt lat="45.53221" lon="3.18314">
        <ele>573.083252</ele>
        <time>2011-05-15T11:06:39Z</time>
      </trkpt>
      <trkpt lat="45.53245" lon="3.18311">
        <ele>573.5639648</ele>
        <time>2011-05-15T11:06:47Z</time>
      </trkpt>
      <trkpt lat="45.53261" lon="3.18304">
        <ele>574.0444336</ele>
        <time>2011-05-15T11:06:53Z</time>
      </trkpt>
      <trkpt lat="45.53279" lon="3.18293">
        <ele>574.5251465</ele>
        <time>2011-05-15T11:06:59Z</time>
      </trkpt>
      <trkpt lat="45.53299" lon="3.18284">
        <ele>574.0444336</ele>
        <time>2011-05-15T11:07:05Z</time>
      </trkpt>
      <trkpt lat="45.53326" lon="3.18278">
        <ele>574.5251465</ele>
        <time>2011-05-15T11:07:12Z</time>
      </trkpt>
      <trkpt lat="45.53334" lon="3.18278">
        <ele>573.5639648</ele>
        <time>2011-05-15T11:07:14Z</time>
      </trkpt>
      <trkpt lat="45.53352" lon="3.18273">
        <ele>573.083252</ele>
        <time>2011-05-15T11:07:19Z</time>
      </trkpt>
      <trkpt lat="45.53359" lon="3.18272">
        <ele>572.6025391</ele>
        <time>2011-05-15T11:07:21Z</time>
      </trkpt>
      <trkpt lat="45.53372" lon="3.18272">
        <ele>575.4863281</ele>
        <time>2011-05-15T11:07:25Z</time>
      </trkpt>
      <trkpt lat="45.53384" lon="3.18268">
        <ele>573.5639648</ele>
        <time>2011-05-15T11:07:28Z</time>
      </trkpt>
      <trkpt lat="45.53404" lon="3.1826">
        <ele>573.5639648</ele>
        <time>2011-05-15T11:07:33Z</time>
      </trkpt>
      <trkpt lat="45.53427" lon="3.18254">
        <ele>572.1218262</ele>
        <time>2011-05-15T11:07:38Z</time>
      </trkpt>
      <trkpt lat="45.53461" lon="3.18246">
        <ele>568.7570801</ele>
        <time>2011-05-15T11:07:45Z</time>
      </trkpt>
      <trkpt lat="45.53466" lon="3.18244">
        <ele>568.7570801</ele>
        <time>2011-05-15T11:07:46Z</time>
      </trkpt>
      <trkpt lat="45.53482" lon="3.18241">
        <ele>564.9118652</ele>
        <time>2011-05-15T11:07:49Z</time>
      </trkpt>
      <trkpt lat="45.53487" lon="3.1824">
        <ele>564.9118652</ele>
        <time>2011-05-15T11:07:50Z</time>
      </trkpt>
      <trkpt lat="45.53497" lon="3.18239">
        <ele>562.9892578</ele>
        <time>2011-05-15T11:07:52Z</time>
      </trkpt>
      <trkpt lat="45.53502" lon="3.18239">
        <ele>562.9892578</ele>
        <time>2011-05-15T11:07:53Z</time>
      </trkpt>
      <trkpt lat="45.53522" lon="3.18242">
        <ele>558.6633301</ele>
        <time>2011-05-15T11:07:57Z</time>
      </trkpt>
      <trkpt lat="45.53534" lon="3.18245">
        <ele>558.1828613</ele>
        <time>2011-05-15T11:07:59Z</time>
      </trkpt>
      <trkpt lat="45.53539" lon="3.18246">
        <ele>556.2600098</ele>
        <time>2011-05-15T11:08:00Z</time>
      </trkpt>
      <trkpt lat="45.53556" lon="3.18245">
        <ele>553.3759766</ele>
        <time>2011-05-15T11:08:03Z</time>
      </trkpt>
      <trkpt lat="45.53584" lon="3.18235">
        <ele>550.0114746</ele>
        <time>2011-05-15T11:08:08Z</time>
      </trkpt>
      <trkpt lat="45.5361" lon="3.18225">
        <ele>548.0888672</ele>
        <time>2011-05-15T11:08:14Z</time>
      </trkpt>
      <trkpt lat="45.53617" lon="3.18222">
        <ele>547.1274414</ele>
        <time>2011-05-15T11:08:16Z</time>
      </trkpt>
      <trkpt lat="45.53637" lon="3.18214">
        <ele>542.8015137</ele>
        <time>2011-05-15T11:08:20Z</time>
      </trkpt>
      <trkpt lat="45.53667" lon="3.18204">
        <ele>539.9176025</ele>
        <time>2011-05-15T11:08:25Z</time>
      </trkpt>
      <trkpt lat="45.53695" lon="3.18197">
        <ele>536.0723877</ele>
        <time>2011-05-15T11:08:29Z</time>
      </trkpt>
      <trkpt lat="45.53702" lon="3.18196">
        <ele>537.0336914</ele>
        <time>2011-05-15T11:08:30Z</time>
      </trkpt>
      <trkpt lat="45.53748" lon="3.18188">
        <ele>531.7463379</ele>
        <time>2011-05-15T11:08:37Z</time>
      </trkpt>
      <trkpt lat="45.5377" lon="3.18184">
        <ele>528.3818359</ele>
        <time>2011-05-15T11:08:40Z</time>
      </trkpt>
      <trkpt lat="45.53785" lon="3.18182">
        <ele>525.0172119</ele>
        <time>2011-05-15T11:08:42Z</time>
      </trkpt>
      <trkpt lat="45.53799" lon="3.1818">
        <ele>524.536499</ele>
        <time>2011-05-15T11:08:44Z</time>
      </trkpt>
      <trkpt lat="45.53826" lon="3.18177">
        <ele>521.1719971</ele>
        <time>2011-05-15T11:08:48Z</time>
      </trkpt>
      <trkpt lat="45.53833" lon="3.18176">
        <ele>521.1719971</ele>
        <time>2011-05-15T11:08:49Z</time>
      </trkpt>
      <trkpt lat="45.53856" lon="3.18174">
        <ele>517.807251</ele>
        <time>2011-05-15T11:08:52Z</time>
      </trkpt>
      <trkpt lat="45.53884" lon="3.18174">
        <ele>514.9233398</ele>
        <time>2011-05-15T11:08:56Z</time>
      </trkpt>
      <trkpt lat="45.5389" lon="3.18175">
        <ele>513.4814453</ele>
        <time>2011-05-15T11:08:57Z</time>
      </trkpt>
      <trkpt lat="45.53917" lon="3.18177">
        <ele>511.5587158</ele>
        <time>2011-05-15T11:09:02Z</time>
      </trkpt>
      <trkpt lat="45.53929" lon="3.18176">
        <ele>508.1940918</ele>
        <time>2011-05-15T11:09:04Z</time>
      </trkpt>
      <trkpt lat="45.53948" lon="3.18174">
        <ele>504.348877</ele>
        <time>2011-05-15T11:09:07Z</time>
      </trkpt>
      <trkpt lat="45.53967" lon="3.18172">
        <ele>500.0229492</ele>
        <time>2011-05-15T11:09:10Z</time>
      </trkpt>
      <trkpt lat="45.53973" lon="3.18171">
        <ele>500.0229492</ele>
        <time>2011-05-15T11:09:11Z</time>
      </trkpt>
      <trkpt lat="45.53986" lon="3.1817">
        <ele>497.138916</ele>
        <time>2011-05-15T11:09:13Z</time>
      </trkpt>
      <trkpt lat="45.54007" lon="3.18169">
        <ele>494.2550049</ele>
        <time>2011-05-15T11:09:16Z</time>
      </trkpt>
      <trkpt lat="45.54027" lon="3.18166">
        <ele>492.8129883</ele>
        <time>2011-05-15T11:09:19Z</time>
      </trkpt>
      <trkpt lat="45.54045" lon="3.18164">
        <ele>490.8903809</ele>
        <time>2011-05-15T11:09:22Z</time>
      </trkpt>
      <trkpt lat="45.54063" lon="3.18173">
        <ele>488.9677734</ele>
        <time>2011-05-15T11:09:26Z</time>
      </trkpt>
      <trkpt lat="45.54066" lon="3.18195">
        <ele>488.0064697</ele>
        <time>2011-05-15T11:09:29Z</time>
      </trkpt>
      <trkpt lat="45.54065" lon="3.18209">
        <ele>487.5256348</ele>
        <time>2011-05-15T11:09:31Z</time>
      </trkpt>
      <trkpt lat="45.5406" lon="3.1828">
        <ele>486.5644531</ele>
        <time>2011-05-15T11:09:40Z</time>
      </trkpt>
      <trkpt lat="45.54052" lon="3.18322">
        <ele>485.6030273</ele>
        <time>2011-05-15T11:09:45Z</time>
      </trkpt>
      <trkpt lat="45.54046" lon="3.18373">
        <ele>484.1611328</ele>
        <time>2011-05-15T11:09:51Z</time>
      </trkpt>
      <trkpt lat="45.54045" lon="3.18389">
        <ele>483.6804199</ele>
        <time>2011-05-15T11:09:53Z</time>
      </trkpt>
      <trkpt lat="45.54045" lon="3.18469">
        <ele>483.1998291</ele>
        <time>2011-05-15T11:10:03Z</time>
      </trkpt>
      <trkpt lat="45.54047" lon="3.18514">
        <ele>481.7578125</ele>
        <time>2011-05-15T11:10:08Z</time>
      </trkpt>
      <trkpt lat="45.54056" lon="3.18565">
        <ele>478.3931885</ele>
        <time>2011-05-15T11:10:14Z</time>
      </trkpt>
      <trkpt lat="45.54063" lon="3.18596">
        <ele>475.0286865</ele>
        <time>2011-05-15T11:10:18Z</time>
      </trkpt>
      <trkpt lat="45.54064" lon="3.18604">
        <ele>475.5092773</ele>
        <time>2011-05-15T11:10:19Z</time>
      </trkpt>
      <trkpt lat="45.54066" lon="3.18617">
        <ele>473.5866699</ele>
        <time>2011-05-15T11:10:21Z</time>
      </trkpt>
      <trkpt lat="45.54069" lon="3.18629">
        <ele>471.6639404</ele>
        <time>2011-05-15T11:10:23Z</time>
      </trkpt>
      <trkpt lat="45.5408" lon="3.18642">
        <ele>470.7026367</ele>
        <time>2011-05-15T11:10:26Z</time>
      </trkpt>
      <trkpt lat="45.54103" lon="3.1866">
        <ele>464.4541016</ele>
        <time>2011-05-15T11:10:30Z</time>
      </trkpt>
      <trkpt lat="45.54109" lon="3.18666">
        <ele>464.9348145</ele>
        <time>2011-05-15T11:10:31Z</time>
      </trkpt>
      <trkpt lat="45.54139" lon="3.18701">
        <ele>462.0507813</ele>
        <time>2011-05-15T11:10:36Z</time>
      </trkpt>
      <trkpt lat="45.54151" lon="3.18717">
        <ele>458.6861572</ele>
        <time>2011-05-15T11:10:38Z</time>
      </trkpt>
      <trkpt lat="45.54167" lon="3.18744">
        <ele>455.3215332</ele>
        <time>2011-05-15T11:10:41Z</time>
      </trkpt>
      <trkpt lat="45.54173" lon="3.18754">
        <ele>456.282959</ele>
        <time>2011-05-15T11:10:42Z</time>
      </trkpt>
      <trkpt lat="45.54185" lon="3.18771">
        <ele>453.8796387</ele>
        <time>2011-05-15T11:10:44Z</time>
      </trkpt>
      <trkpt lat="45.54191" lon="3.18778">
        <ele>453.3989258</ele>
        <time>2011-05-15T11:10:45Z</time>
      </trkpt>
      <trkpt lat="45.54218" lon="3.18806">
        <ele>448.1118164</ele>
        <time>2011-05-15T11:10:49Z</time>
      </trkpt>
      <trkpt lat="45.54238" lon="3.18827">
        <ele>443.7857666</ele>
        <time>2011-05-15T11:10:52Z</time>
      </trkpt>
      <trkpt lat="45.54273" lon="3.18856">
        <ele>440.4212646</ele>
        <time>2011-05-15T11:10:57Z</time>
      </trkpt>
      <trkpt lat="45.54289" lon="3.18872">
        <ele>437.0565186</ele>
        <time>2011-05-15T11:10:59Z</time>
      </trkpt>
      <trkpt lat="45.54314" lon="3.18897">
        <ele>433.6918945</ele>
        <time>2011-05-15T11:11:02Z</time>
      </trkpt>
      <trkpt lat="45.5433" lon="3.18916">
        <ele>430.3272705</ele>
        <time>2011-05-15T11:11:04Z</time>
      </trkpt>
      <trkpt lat="45.54345" lon="3.18939">
        <ele>426.9627686</ele>
        <time>2011-05-15T11:11:06Z</time>
      </trkpt>
      <trkpt lat="45.54352" lon="3.18951">
        <ele>424.0787354</ele>
        <time>2011-05-15T11:11:07Z</time>
      </trkpt>
      <trkpt lat="45.54358" lon="3.18963">
        <ele>424.0787354</ele>
        <time>2011-05-15T11:11:08Z</time>
      </trkpt>
      <trkpt lat="45.5439" lon="3.19031">
        <ele>423.1174316</ele>
        <time>2011-05-15T11:11:14Z</time>
      </trkpt>
      <trkpt lat="45.54423" lon="3.191">
        <ele>424.0787354</ele>
        <time>2011-05-15T11:11:21Z</time>
      </trkpt>
      <trkpt lat="45.54427" lon="3.19109">
        <ele>423.1174316</ele>
        <time>2011-05-15T11:11:22Z</time>
      </trkpt>
      <trkpt lat="45.54435" lon="3.19148">
        <ele>424.0787354</ele>
        <time>2011-05-15T11:11:26Z</time>
      </trkpt>
      <trkpt lat="45.54427" lon="3.19177">
        <ele>423.5980225</ele>
        <time>2011-05-15T11:11:29Z</time>
      </trkpt>
      <trkpt lat="45.54413" lon="3.19217">
        <ele>424.0787354</ele>
        <time>2011-05-15T11:11:33Z</time>
      </trkpt>
      <trkpt lat="45.54396" lon="3.19254">
        <ele>422.6367188</ele>
        <time>2011-05-15T11:11:37Z</time>
      </trkpt>
      <trkpt lat="45.54391" lon="3.19263">
        <ele>422.6367188</ele>
        <time>2011-05-15T11:11:38Z</time>
      </trkpt>
      <trkpt lat="45.5438" lon="3.19303">
        <ele>423.1174316</ele>
        <time>2011-05-15T11:11:42Z</time>
      </trkpt>
      <trkpt lat="45.54369" lon="3.19375">
        <ele>422.6367188</ele>
        <time>2011-05-15T11:11:49Z</time>
      </trkpt>
      <trkpt lat="45.5436" lon="3.19437">
        <ele>422.1560059</ele>
        <time>2011-05-15T11:11:55Z</time>
      </trkpt>
      <trkpt lat="45.54351" lon="3.19476">
        <ele>422.1560059</ele>
        <time>2011-05-15T11:11:59Z</time>
      </trkpt>
      <trkpt lat="45.54338" lon="3.19508">
        <ele>422.1560059</ele>
        <time>2011-05-15T11:12:03Z</time>
      </trkpt>
      <trkpt lat="45.54339" lon="3.19527">
        <ele>421.675415</ele>
        <time>2011-05-15T11:12:06Z</time>
      </trkpt>
      <trkpt lat="45.54349" lon="3.19538">
        <ele>421.1948242</ele>
        <time>2011-05-15T11:12:08Z</time>
      </trkpt>
      <trkpt lat="45.54361" lon="3.19545">
        <ele>420.2333984</ele>
        <time>2011-05-15T11:12:10Z</time>
      </trkpt>
      <trkpt lat="45.54396" lon="3.19571">
        <ele>420.2333984</ele>
        <time>2011-05-15T11:12:16Z</time>
      </trkpt>
      <trkpt lat="45.54407" lon="3.19579">
        <ele>421.1948242</ele>
        <time>2011-05-15T11:12:18Z</time>
      </trkpt>
      <trkpt lat="45.54434" lon="3.19599">
        <ele>420.7141113</ele>
        <time>2011-05-15T11:12:23Z</time>
      </trkpt>
      <trkpt lat="45.54465" lon="3.19622">
        <ele>421.675415</ele>
        <time>2011-05-15T11:12:29Z</time>
      </trkpt>
      <trkpt lat="45.54479" lon="3.19633">
        <ele>423.1174316</ele>
        <time>2011-05-15T11:12:32Z</time>
      </trkpt>
      <trkpt lat="45.54488" lon="3.1964">
        <ele>422.6367188</ele>
        <time>2011-05-15T11:12:34Z</time>
      </trkpt>
      <trkpt lat="45.54497" lon="3.19646">
        <ele>423.5980225</ele>
        <time>2011-05-15T11:12:36Z</time>
      </trkpt>
      <trkpt lat="45.54505" lon="3.19652">
        <ele>424.0787354</ele>
        <time>2011-05-15T11:12:38Z</time>
      </trkpt>
      <trkpt lat="45.54532" lon="3.19673">
        <ele>425.520752</ele>
        <time>2011-05-15T11:12:46Z</time>
      </trkpt>
      <trkpt lat="45.54548" lon="3.19678">
        <ele>425.520752</ele>
        <time>2011-05-15T11:12:51Z</time>
      </trkpt>
      <trkpt lat="45.54555" lon="3.19666">
        <ele>424.5594482</ele>
        <time>2011-05-15T11:12:55Z</time>
      </trkpt>
      <trkpt lat="45.54559" lon="3.19654">
        <ele>424.5594482</ele>
        <time>2011-05-15T11:13:01Z</time>
      </trkpt>
    </trkseg>
  </trk>
</gpx>